<?xml version='1.0' encoding='UTF-8'?><gpx version="1.1" creator="JPX - https://github.com/jenetics/jpx" xmlns="http://www.topografix.com/GPX/1/1"><trk><trkseg><trkpt lat="48.40013101957589" lon="-4.453472447194715"><ele>84.0</ele><time>2026-03-22T13:41:18Z</time></trkpt><trkpt lat="48.400103385677184" lon="-4.453346748711698"><ele>84.0</ele><time>2026-03-22T13:41:21Z</time></trkpt><trkpt lat="48.400084177375874" lon="-4.453209861302659"><ele>84.0</ele><time>2026-03-22T13:41:23Z</time></trkpt><trkpt lat="48.40017647432521" lon="-4.4532498433221335"><ele>84.0</ele><time>2026-03-22T13:41:25Z</time></trkpt><trkpt lat="48.400250023274296" lon="-4.453337976712361"><ele>84.0</ele><time>2026-03-22T13:41:27Z</time></trkpt><trkpt lat="48.400324646546345" lon="-4.453434051843279"><ele>84.0</ele><time>2026-03-22T13:41:30Z</time></trkpt><trkpt lat="48.400407342910285" lon="-4.453494915937094"><ele>84.0</ele><time>2026-03-22T13:41:32Z</time></trkpt><trkpt lat="48.400501418214084" lon="-4.4535312163185585"><ele>84.0</ele><time>2026-03-22T13:41:34Z</time></trkpt><trkpt lat="48.40057802346101" lon="-4.453594680753963"><ele>84.0</ele><time>2026-03-22T13:41:36Z</time></trkpt><trkpt lat="48.400663838251916" lon="-4.453624622144631"><ele>84.0</ele><time>2026-03-22T13:41:38Z</time></trkpt><trkpt lat="48.40073241451492" lon="-4.453640054568417"><ele>84.0</ele><time>2026-03-22T13:41:41Z</time></trkpt><trkpt lat="48.400791678788764" lon="-4.453695454786097"><ele>84.0</ele><time>2026-03-22T13:41:44Z</time></trkpt><trkpt lat="48.40084872088557" lon="-4.453748421929892"><ele>84.0</ele><time>2026-03-22T13:41:47Z</time></trkpt><trkpt lat="48.40077033735509" lon="-4.453693081622177"><ele>84.0</ele><time>2026-03-22T13:42:08.999Z</time></trkpt><trkpt lat="48.40070345202155" lon="-4.453626889455896"><ele>84.0</ele><time>2026-03-22T13:42:11.999Z</time></trkpt><trkpt lat="48.40062218718892" lon="-4.453583477204653"><ele>84.0</ele><time>2026-03-22T13:42:14.999Z</time></trkpt><trkpt lat="48.40055755407491" lon="-4.453536689862728"><ele>84.0</ele><time>2026-03-22T13:42:17.999Z</time></trkpt><trkpt lat="48.400498350018324" lon="-4.453498711669862"><ele>84.0</ele><time>2026-03-22T13:42:20.999Z</time></trkpt><trkpt lat="48.40041446382938" lon="-4.453483575391006"><ele>84.0</ele><time>2026-03-22T13:42:22.999Z</time></trkpt><trkpt lat="48.40032149639706" lon="-4.453432704464689"><ele>84.0</ele><time>2026-03-22T13:42:24.999Z</time></trkpt><trkpt lat="48.400236452444844" lon="-4.453390033382165"><ele>84.0</ele><time>2026-03-22T13:42:26.999Z</time></trkpt><trkpt lat="48.400155543830664" lon="-4.453349838472673"><ele>84.0</ele><time>2026-03-22T13:42:28.999Z</time></trkpt><trkpt lat="48.40011403258128" lon="-4.453460141820084"><ele>84.0</ele><time>2026-03-22T13:42:30.999Z</time></trkpt><trkpt lat="48.40015849756068" lon="-4.453590836774855"><ele>84.0</ele><time>2026-03-22T13:42:32.999Z</time></trkpt><trkpt lat="48.40021488070762" lon="-4.453719739800039"><ele>84.0</ele><time>2026-03-22T13:42:34.999Z</time></trkpt><trkpt lat="48.40026866475507" lon="-4.453843489277869"><ele>84.0</ele><time>2026-03-22T13:42:36.999Z</time></trkpt><trkpt lat="48.400313081361524" lon="-4.4539664534844325"><ele>84.0</ele><time>2026-03-22T13:42:38.999Z</time></trkpt><trkpt lat="48.400370368792295" lon="-4.454093514059967"><ele>84.0</ele><time>2026-03-22T13:42:41Z</time></trkpt><trkpt lat="48.40039478423715" lon="-4.454215051662435"><ele>84.2</ele><time>2026-03-22T13:42:43Z</time></trkpt><trkpt lat="48.400441218559465" lon="-4.454332782674328"><ele>84.4</ele><time>2026-03-22T13:42:45Z</time></trkpt><trkpt lat="48.40050913310286" lon="-4.454447040993086"><ele>84.6</ele><time>2026-03-22T13:42:47Z</time></trkpt><trkpt lat="48.40054839052288" lon="-4.454569829432331"><ele>84.8</ele><time>2026-03-22T13:42:49Z</time></trkpt><trkpt lat="48.40059453802585" lon="-4.45467958518506"><ele>85.0</ele><time>2026-03-22T13:42:51Z</time></trkpt><trkpt lat="48.40064689379121" lon="-4.454784466258718"><ele>85.66666666666666</ele><time>2026-03-22T13:42:53Z</time></trkpt><trkpt lat="48.40069748455609" lon="-4.454879096410908"><ele>86.33333333333333</ele><time>2026-03-22T13:42:55Z</time></trkpt><trkpt lat="48.40075489319083" lon="-4.454934197673473"><ele>87.0</ele><time>2026-03-22T13:42:56Z</time></trkpt><trkpt lat="48.40080002481289" lon="-4.4550153147234886"><ele>87.66666666666667</ele><time>2026-03-22T13:42:58Z</time></trkpt><trkpt lat="48.40084948230372" lon="-4.455081194576251"><ele>88.33333333333334</ele><time>2026-03-22T13:43:01Z</time></trkpt><trkpt lat="48.400920107971366" lon="-4.455177770668799"><ele>89.0</ele><time>2026-03-22T13:43:04Z</time></trkpt><trkpt lat="48.400979717193714" lon="-4.455261556656101"><ele>89.0</ele><time>2026-03-22T13:43:06Z</time></trkpt><trkpt lat="48.40103796075089" lon="-4.455340764493031"><ele>89.0</ele><time>2026-03-22T13:43:08Z</time></trkpt><trkpt lat="48.40106189482501" lon="-4.455455545514647"><ele>89.0</ele><time>2026-03-22T13:43:10Z</time></trkpt><trkpt lat="48.40102180907" lon="-4.455606401827637"><ele>89.0</ele><time>2026-03-22T13:43:12Z</time></trkpt><trkpt lat="48.40098670731822" lon="-4.455729998448732"><ele>89.0</ele><time>2026-03-22T13:43:14Z</time></trkpt><trkpt lat="48.40094251003073" lon="-4.455850977446867"><ele>89.0</ele><time>2026-03-22T13:43:16Z</time></trkpt><trkpt lat="48.40095033348166" lon="-4.455989436667507"><ele>89.0</ele><time>2026-03-22T13:43:18Z</time></trkpt><trkpt lat="48.40105831845342" lon="-4.456011505761443"><ele>89.0</ele><time>2026-03-22T13:43:20Z</time></trkpt><trkpt lat="48.40112100342189" lon="-4.456038723143418"><ele>89.0</ele><time>2026-03-22T13:43:23Z</time></trkpt><trkpt lat="48.401197018511105" lon="-4.4561295311660585"><ele>89.0</ele><time>2026-03-22T13:44:03Z</time></trkpt><trkpt lat="48.40125188014343" lon="-4.456189116849753"><ele>89.0</ele><time>2026-03-22T13:44:06Z</time></trkpt><trkpt lat="48.401336881139684" lon="-4.456193967266038"><ele>89.0</ele><time>2026-03-22T13:44:08Z</time></trkpt><trkpt lat="48.40143234058245" lon="-4.456157138263448"><ele>89.16666666666667</ele><time>2026-03-22T13:44:10Z</time></trkpt><trkpt lat="48.401496048496675" lon="-4.456082381527299"><ele>89.33333333333334</ele><time>2026-03-22T13:44:12Z</time></trkpt><trkpt lat="48.40155912101302" lon="-4.456034220043857"><ele>89.5</ele><time>2026-03-22T13:44:14Z</time></trkpt><trkpt lat="48.40162603064843" lon="-4.4559795180103405"><ele>89.66666666666667</ele><time>2026-03-22T13:44:16Z</time></trkpt><trkpt lat="48.40170490972111" lon="-4.455921266083982"><ele>89.83333333333333</ele><time>2026-03-22T13:44:18Z</time></trkpt><trkpt lat="48.401777207551966" lon="-4.455843071043559"><ele>90.0</ele><time>2026-03-22T13:44:20Z</time></trkpt><trkpt lat="48.40186563284206" lon="-4.455817842489085"><ele>90.0</ele><time>2026-03-22T13:44:22Z</time></trkpt><trkpt lat="48.4020059343267" lon="-4.455846439434734"><ele>90.0</ele><time>2026-03-22T13:44:24.999Z</time></trkpt><trkpt lat="48.40208170708125" lon="-4.455930205116729"><ele>90.0</ele><time>2026-03-22T13:44:26.999Z</time></trkpt><trkpt lat="48.40210946388893" lon="-4.456050453319756"><ele>90.0</ele><time>2026-03-22T13:44:28.999Z</time></trkpt><trkpt lat="48.40213388326935" lon="-4.456157398728036"><ele>90.0</ele><time>2026-03-22T13:44:30.999Z</time></trkpt><trkpt lat="48.402178581085614" lon="-4.45626185358267"><ele>90.83333333333333</ele><time>2026-03-22T13:44:32.999Z</time></trkpt><trkpt lat="48.4022246680063" lon="-4.456353565328992"><ele>91.66666666666667</ele><time>2026-03-22T13:44:34.999Z</time></trkpt><trkpt lat="48.40225929602575" lon="-4.456464542505337"><ele>92.5</ele><time>2026-03-22T13:44:36.999Z</time></trkpt><trkpt lat="48.402301216160915" lon="-4.456566880087054"><ele>93.33333333333334</ele><time>2026-03-22T13:44:38.999Z</time></trkpt><trkpt lat="48.40235212627758" lon="-4.456660702391066"><ele>94.16666666666667</ele><time>2026-03-22T13:44:40.999Z</time></trkpt><trkpt lat="48.402398403264236" lon="-4.456750534722565"><ele>95.0</ele><time>2026-03-22T13:44:42.999Z</time></trkpt><trkpt lat="48.40243251773527" lon="-4.456840770902653"><ele>95.0</ele><time>2026-03-22T13:44:44.999Z</time></trkpt><trkpt lat="48.40249124435567" lon="-4.456924753266745"><ele>95.0</ele><time>2026-03-22T13:44:47Z</time></trkpt><trkpt lat="48.402562440016546" lon="-4.456990495881583"><ele>95.0</ele><time>2026-03-22T13:44:49Z</time></trkpt><trkpt lat="48.40262190099669" lon="-4.457069286720928"><ele>95.0</ele><time>2026-03-22T13:44:51Z</time></trkpt><trkpt lat="48.40267869723462" lon="-4.457117861178089"><ele>95.0</ele><time>2026-03-22T13:44:53Z</time></trkpt><trkpt lat="48.40272612788813" lon="-4.457198235306149"><ele>95.0</ele><time>2026-03-22T13:44:55Z</time></trkpt><trkpt lat="48.402782958838365" lon="-4.457250080511513"><ele>95.0</ele><time>2026-03-22T13:44:56Z</time></trkpt><trkpt lat="48.40284517800276" lon="-4.4572987866809175"><ele>95.33333333333334</ele><time>2026-03-22T13:44:58Z</time></trkpt><trkpt lat="48.40290603982176" lon="-4.457353786664257"><ele>95.66666666666667</ele><time>2026-03-22T13:45:00Z</time></trkpt><trkpt lat="48.40297076467323" lon="-4.457408220430947"><ele>96.0</ele><time>2026-03-22T13:45:02Z</time></trkpt><trkpt lat="48.40304174159187" lon="-4.457457725820084"><ele>96.33333333333334</ele><time>2026-03-22T13:45:04Z</time></trkpt><trkpt lat="48.403109228458376" lon="-4.457520429924513"><ele>96.66666666666667</ele><time>2026-03-22T13:45:06Z</time></trkpt><trkpt lat="48.403174950234856" lon="-4.457589188842673"><ele>97.0</ele><time>2026-03-22T13:45:08Z</time></trkpt><trkpt lat="48.40323526843909" lon="-4.457645161051194"><ele>97.16666666666667</ele><time>2026-03-22T13:45:10Z</time></trkpt><trkpt lat="48.40330116186447" lon="-4.457740860029285"><ele>97.33333333333334</ele><time>2026-03-22T13:45:12Z</time></trkpt><trkpt lat="48.40336412690474" lon="-4.457810736162256"><ele>97.5</ele><time>2026-03-22T13:45:14Z</time></trkpt><trkpt lat="48.403429031907166" lon="-4.457875376374323"><ele>97.66666666666666</ele><time>2026-03-22T13:45:16Z</time></trkpt><trkpt lat="48.40350689722865" lon="-4.457935443213674"><ele>97.83333333333333</ele><time>2026-03-22T13:45:18Z</time></trkpt><trkpt lat="48.40359032074816" lon="-4.457974669202625"><ele>98.0</ele><time>2026-03-22T13:45:20Z</time></trkpt><trkpt lat="48.40365695190352" lon="-4.457997748121077"><ele>97.60000000000001</ele><time>2026-03-22T13:45:21Z</time></trkpt><trkpt lat="48.40378062798696" lon="-4.458029662303989"><ele>97.2</ele><time>2026-03-22T13:45:23Z</time></trkpt><trkpt lat="48.40384531412494" lon="-4.457968156481413"><ele>96.8</ele><time>2026-03-22T13:45:24Z</time></trkpt><trkpt lat="48.40396909602112" lon="-4.457958940549011"><ele>96.4</ele><time>2026-03-22T13:45:26Z</time></trkpt><trkpt lat="48.40403214309662" lon="-4.457943466509967"><ele>96.0</ele><time>2026-03-22T13:45:27Z</time></trkpt><trkpt lat="48.4041049229768" lon="-4.457922647677385"><ele>95.57142857142857</ele><time>2026-03-22T13:45:28Z</time></trkpt><trkpt lat="48.40416685087886" lon="-4.457901671830232"><ele>95.14285714285714</ele><time>2026-03-22T13:45:29Z</time></trkpt><trkpt lat="48.40423981073023" lon="-4.457876799145367"><ele>94.71428571428572</ele><time>2026-03-22T13:45:30Z</time></trkpt><trkpt lat="48.40431052841802" lon="-4.457868131875498"><ele>94.28571428571428</ele><time>2026-03-22T13:45:31Z</time></trkpt><trkpt lat="48.40438175492499" lon="-4.45783481220255"><ele>93.85714285714286</ele><time>2026-03-22T13:45:32Z</time></trkpt><trkpt lat="48.40446006058671" lon="-4.457804301320067"><ele>93.42857142857143</ele><time>2026-03-22T13:45:33Z</time></trkpt><trkpt lat="48.40453678667159" lon="-4.457769685711356"><ele>93.0</ele><time>2026-03-22T13:45:34Z</time></trkpt><trkpt lat="48.40460804309179" lon="-4.4577478672014745"><ele>93.0</ele><time>2026-03-22T13:45:35Z</time></trkpt><trkpt lat="48.40468880601011" lon="-4.457727543725121"><ele>93.0</ele><time>2026-03-22T13:45:36Z</time></trkpt><trkpt lat="48.40475162178749" lon="-4.457684057014955"><ele>93.0</ele><time>2026-03-22T13:45:37Z</time></trkpt><trkpt lat="48.40482621780177" lon="-4.457674330102437"><ele>93.0</ele><time>2026-03-22T13:45:38Z</time></trkpt><trkpt lat="48.404893101283044" lon="-4.457636201672827"><ele>93.0</ele><time>2026-03-22T13:45:39Z</time></trkpt><trkpt lat="48.40501908824802" lon="-4.457597859583592"><ele>93.0</ele><time>2026-03-22T13:45:41Z</time></trkpt><trkpt lat="48.40512392951793" lon="-4.457561469577058"><ele>93.0</ele><time>2026-03-22T13:45:43Z</time></trkpt><trkpt lat="48.40523777282273" lon="-4.457521026584972"><ele>93.0</ele><time>2026-03-22T13:45:45Z</time></trkpt><trkpt lat="48.405340419652475" lon="-4.457480767980078"><ele>93.0</ele><time>2026-03-22T13:45:47Z</time></trkpt><trkpt lat="48.405444606973944" lon="-4.457428021230761"><ele>93.0</ele><time>2026-03-22T13:45:49Z</time></trkpt><trkpt lat="48.40555151010515" lon="-4.457379744045921"><ele>93.0</ele><time>2026-03-22T13:45:51Z</time></trkpt><trkpt lat="48.405666793196986" lon="-4.457366999771165"><ele>92.60000000000001</ele><time>2026-03-22T13:45:53Z</time></trkpt><trkpt lat="48.40578780890725" lon="-4.457307122149363"><ele>92.2</ele><time>2026-03-22T13:45:55Z</time></trkpt><trkpt lat="48.40584783279564" lon="-4.457247734677256"><ele>91.8</ele><time>2026-03-22T13:45:56Z</time></trkpt><trkpt lat="48.405923162836125" lon="-4.4572313857532855"><ele>91.4</ele><time>2026-03-22T13:45:57Z</time></trkpt><trkpt lat="48.4060703293868" lon="-4.457170869735635"><ele>91.0</ele><time>2026-03-22T13:45:59Z</time></trkpt><trkpt lat="48.40614795200835" lon="-4.4571360874762425"><ele>90.33333333333333</ele><time>2026-03-22T13:46:00Z</time></trkpt><trkpt lat="48.40623221049137" lon="-4.457116983943537"><ele>89.66666666666666</ele><time>2026-03-22T13:46:01Z</time></trkpt><trkpt lat="48.40631479176082" lon="-4.4570953581415"><ele>89.0</ele><time>2026-03-22T13:46:02Z</time></trkpt><trkpt lat="48.406403966112016" lon="-4.45707248020176"><ele>88.33333333333333</ele><time>2026-03-22T13:46:03Z</time></trkpt><trkpt lat="48.4064880065733" lon="-4.457058048042361"><ele>87.66666666666667</ele><time>2026-03-22T13:46:04Z</time></trkpt><trkpt lat="48.4065925290163" lon="-4.457041356503178"><ele>87.0</ele><time>2026-03-22T13:46:05Z</time></trkpt><trkpt lat="48.40668414691498" lon="-4.457008824983825"><ele>86.19999999999999</ele><time>2026-03-22T13:46:06Z</time></trkpt><trkpt lat="48.40677486050352" lon="-4.4569895274825235"><ele>85.4</ele><time>2026-03-22T13:46:07Z</time></trkpt><trkpt lat="48.40686489534627" lon="-4.456957857222615"><ele>84.6</ele><time>2026-03-22T13:46:08Z</time></trkpt><trkpt lat="48.40695057378021" lon="-4.456944048345933"><ele>83.80000000000001</ele><time>2026-03-22T13:46:09Z</time></trkpt><trkpt lat="48.40704597481759" lon="-4.456906710892862"><ele>83.0</ele><time>2026-03-22T13:46:10Z</time></trkpt><trkpt lat="48.40713967270066" lon="-4.456880408226757"><ele>82.4</ele><time>2026-03-22T13:46:11Z</time></trkpt><trkpt lat="48.40722898313795" lon="-4.456824974223836"><ele>81.80000000000001</ele><time>2026-03-22T13:46:12Z</time></trkpt><trkpt lat="48.40732841348146" lon="-4.456820153228217"><ele>81.2</ele><time>2026-03-22T13:46:13Z</time></trkpt><trkpt lat="48.40741862264028" lon="-4.456820213389425"><ele>80.6</ele><time>2026-03-22T13:46:14Z</time></trkpt><trkpt lat="48.40751990592581" lon="-4.456825490885239"><ele>80.0</ele><time>2026-03-22T13:46:15Z</time></trkpt><trkpt lat="48.4076183389264" lon="-4.456841606577868"><ele>80.0</ele><time>2026-03-22T13:46:16Z</time></trkpt><trkpt lat="48.40771455149448" lon="-4.45686388328692"><ele>80.0</ele><time>2026-03-22T13:46:17Z</time></trkpt><trkpt lat="48.40781195640687" lon="-4.456879698610044"><ele>80.0</ele><time>2026-03-22T13:46:18Z</time></trkpt><trkpt lat="48.40790797800649" lon="-4.456884613382578"><ele>80.0</ele><time>2026-03-22T13:46:19Z</time></trkpt><trkpt lat="48.40800347804732" lon="-4.456882721260799"><ele>80.0</ele><time>2026-03-22T13:46:20Z</time></trkpt><trkpt lat="48.408101021349395" lon="-4.45687643652174"><ele>79.6</ele><time>2026-03-22T13:46:21Z</time></trkpt><trkpt lat="48.408199243381915" lon="-4.456856711673577"><ele>79.2</ele><time>2026-03-22T13:46:22Z</time></trkpt><trkpt lat="48.40828839045053" lon="-4.456823851663932"><ele>78.8</ele><time>2026-03-22T13:46:23Z</time></trkpt><trkpt lat="48.40837641552067" lon="-4.45678131133356"><ele>78.4</ele><time>2026-03-22T13:46:24Z</time></trkpt><trkpt lat="48.4084571193739" lon="-4.456719426578862"><ele>78.0</ele><time>2026-03-22T13:46:25Z</time></trkpt><trkpt lat="48.40854728196359" lon="-4.45665489753243"><ele>78.0</ele><time>2026-03-22T13:46:26Z</time></trkpt><trkpt lat="48.4086357169172" lon="-4.456592310974445"><ele>78.0</ele><time>2026-03-22T13:46:27Z</time></trkpt><trkpt lat="48.408728053196604" lon="-4.456527399731289"><ele>78.0</ele><time>2026-03-22T13:46:28Z</time></trkpt><trkpt lat="48.40882316094188" lon="-4.4564719323311826"><ele>78.0</ele><time>2026-03-22T13:46:29Z</time></trkpt><trkpt lat="48.40891220764484" lon="-4.456442930755633"><ele>78.0</ele><time>2026-03-22T13:46:30Z</time></trkpt><trkpt lat="48.40899515980863" lon="-4.45643194519054"><ele>76.8</ele><time>2026-03-22T13:46:31Z</time></trkpt><trkpt lat="48.409061187147046" lon="-4.45642553666949"><ele>75.6</ele><time>2026-03-22T13:46:32Z</time></trkpt><trkpt lat="48.40912412338463" lon="-4.456444342026207"><ele>74.4</ele><time>2026-03-22T13:46:33Z</time></trkpt><trkpt lat="48.40920836999587" lon="-4.456406703084987"><ele>73.2</ele><time>2026-03-22T13:46:35Z</time></trkpt><trkpt lat="48.40931589720164" lon="-4.45644889709828"><ele>72.0</ele><time>2026-03-22T13:46:56Z</time></trkpt><trkpt lat="48.409571452648755" lon="-4.456433343797069"><ele>70.4</ele><time>2026-03-22T13:47:03Z</time></trkpt><trkpt lat="48.40965956470243" lon="-4.456308415036593"><ele>68.80000000000001</ele><time>2026-03-22T13:47:05Z</time></trkpt><trkpt lat="48.4096845950613" lon="-4.456218384934583"><ele>67.2</ele><time>2026-03-22T13:47:06Z</time></trkpt><trkpt lat="48.40973362029171" lon="-4.4561506171454655"><ele>65.60000000000001</ele><time>2026-03-22T13:47:07Z</time></trkpt><trkpt lat="48.409822636566524" lon="-4.456000352231982"><ele>64.0</ele><time>2026-03-22T13:47:09Z</time></trkpt><trkpt lat="48.40987517450451" lon="-4.455917475069632"><ele>63.99999999999999</ele><time>2026-03-22T13:47:10Z</time></trkpt><trkpt lat="48.40992555920664" lon="-4.455837994408081"><ele>64.0</ele><time>2026-03-22T13:47:11Z</time></trkpt><trkpt lat="48.4099827356518" lon="-4.455747799848086"><ele>64.0</ele><time>2026-03-22T13:47:12Z</time></trkpt><trkpt lat="48.4100402175389" lon="-4.455657057414091"><ele>64.0</ele><time>2026-03-22T13:47:13Z</time></trkpt><trkpt lat="48.410101259896784" lon="-4.455562100954359"><ele>63.99999999999999</ele><time>2026-03-22T13:47:14Z</time></trkpt><trkpt lat="48.41018154894219" lon="-4.4555228926694435"><ele>64.0</ele><time>2026-03-22T13:47:15Z</time></trkpt><trkpt lat="48.41023752823064" lon="-4.4554289330123495"><ele>63.83333333333333</ele><time>2026-03-22T13:47:16Z</time></trkpt><trkpt lat="48.41029504148433" lon="-4.455342384648516"><ele>63.666666666666664</ele><time>2026-03-22T13:47:17Z</time></trkpt><trkpt lat="48.410366838310985" lon="-4.455271194876341"><ele>63.5</ele><time>2026-03-22T13:47:18Z</time></trkpt><trkpt lat="48.41042478488696" lon="-4.455177201076804"><ele>63.33333333333333</ele><time>2026-03-22T13:47:19Z</time></trkpt><trkpt lat="48.41045812976716" lon="-4.455042709737555"><ele>63.166666666666664</ele><time>2026-03-22T13:47:20Z</time></trkpt><trkpt lat="48.41053714046732" lon="-4.454963643692033"><ele>63.0</ele><time>2026-03-22T13:47:21Z</time></trkpt><trkpt lat="48.410591138269574" lon="-4.454882942996015"><ele>62.0</ele><time>2026-03-22T13:47:22Z</time></trkpt><trkpt lat="48.41064919996209" lon="-4.454783307989101"><ele>61.0</ele><time>2026-03-22T13:47:23Z</time></trkpt><trkpt lat="48.41069475681552" lon="-4.454685502389696"><ele>60.0</ele><time>2026-03-22T13:47:24Z</time></trkpt><trkpt lat="48.41074490439534" lon="-4.454607939995855"><ele>59.0</ele><time>2026-03-22T13:47:25Z</time></trkpt><trkpt lat="48.41084668827582" lon="-4.454461074663898"><ele>58.0</ele><time>2026-03-22T13:47:27Z</time></trkpt><trkpt lat="48.4108836573035" lon="-4.454370297224802"><ele>57.99999999999999</ele><time>2026-03-22T13:47:28Z</time></trkpt><trkpt lat="48.41093219064234" lon="-4.454294409646351"><ele>58.0</ele><time>2026-03-22T13:47:29Z</time></trkpt><trkpt lat="48.41098570130187" lon="-4.454234166955308"><ele>58.0</ele><time>2026-03-22T13:47:30Z</time></trkpt><trkpt lat="48.411035256589436" lon="-4.454168315484789"><ele>58.0</ele><time>2026-03-22T13:47:31Z</time></trkpt><trkpt lat="48.41107800496188" lon="-4.454098514795158"><ele>57.99999999999999</ele><time>2026-03-22T13:47:32Z</time></trkpt><trkpt lat="48.41115699177563" lon="-4.4539596119217215"><ele>58.0</ele><time>2026-03-22T13:47:34Z</time></trkpt><trkpt lat="48.41122655357454" lon="-4.453860816636295"><ele>58.0</ele><time>2026-03-22T13:47:36Z</time></trkpt><trkpt lat="48.41129128633467" lon="-4.453759712546135"><ele>58.0</ele><time>2026-03-22T13:47:38Z</time></trkpt><trkpt lat="48.41134889513637" lon="-4.453664405783825"><ele>58.0</ele><time>2026-03-22T13:47:43Z</time></trkpt><trkpt lat="48.41143382600533" lon="-4.4535383005977245"><ele>58.0</ele><time>2026-03-22T13:47:45Z</time></trkpt><trkpt lat="48.41148476948008" lon="-4.453462122632835"><ele>58.0</ele><time>2026-03-22T13:47:46Z</time></trkpt><trkpt lat="48.411555871327145" lon="-4.453355023188401"><ele>58.99999999999999</ele><time>2026-03-22T13:47:48Z</time></trkpt><trkpt lat="48.41162885929944" lon="-4.453269070144489"><ele>60.0</ele><time>2026-03-22T13:47:50Z</time></trkpt><trkpt lat="48.41168618783362" lon="-4.453171768006445"><ele>61.0</ele><time>2026-03-22T13:47:52Z</time></trkpt><trkpt lat="48.41175304916428" lon="-4.453068719746735"><ele>62.0</ele><time>2026-03-22T13:47:54Z</time></trkpt><trkpt lat="48.41181500881777" lon="-4.4529835314067485"><ele>62.99999999999999</ele><time>2026-03-22T13:47:56Z</time></trkpt><trkpt lat="48.41186592931776" lon="-4.452876101222051"><ele>64.0</ele><time>2026-03-22T13:47:58Z</time></trkpt><trkpt lat="48.411919989172326" lon="-4.452810373276072"><ele>64.16666666666666</ele><time>2026-03-22T13:48:00Z</time></trkpt><trkpt lat="48.411971065389345" lon="-4.452739664959906"><ele>64.33333333333333</ele><time>2026-03-22T13:48:02Z</time></trkpt><trkpt lat="48.41203943160079" lon="-4.452667869849571"><ele>64.5</ele><time>2026-03-22T13:48:04Z</time></trkpt><trkpt lat="48.41210810672533" lon="-4.452588577515416"><ele>64.66666666666667</ele><time>2026-03-22T13:48:06Z</time></trkpt><trkpt lat="48.41216098301762" lon="-4.452507402973748"><ele>64.83333333333334</ele><time>2026-03-22T13:48:08Z</time></trkpt><trkpt lat="48.41221189080162" lon="-4.452423481634018"><ele>65.0</ele><time>2026-03-22T13:48:10Z</time></trkpt><trkpt lat="48.41227560568698" lon="-4.452304277648957"><ele>65.16666666666667</ele><time>2026-03-22T13:48:13Z</time></trkpt><trkpt lat="48.412326715468204" lon="-4.45219405984439"><ele>65.33333333333334</ele><time>2026-03-22T13:48:15Z</time></trkpt><trkpt lat="48.41239821789131" lon="-4.452100832048371"><ele>65.5</ele><time>2026-03-22T13:48:17Z</time></trkpt><trkpt lat="48.41245131043232" lon="-4.452010034593549"><ele>65.66666666666667</ele><time>2026-03-22T13:48:19Z</time></trkpt><trkpt lat="48.41251220936996" lon="-4.45191088257637"><ele>65.83333333333333</ele><time>2026-03-22T13:48:21Z</time></trkpt><trkpt lat="48.412556489124114" lon="-4.451830278106927"><ele>66.0</ele><time>2026-03-22T13:48:23Z</time></trkpt><trkpt lat="48.41259706004156" lon="-4.451746403337681"><ele>66.0</ele><time>2026-03-22T13:48:25Z</time></trkpt><trkpt lat="48.41265296824369" lon="-4.451686181704714"><ele>66.0</ele><time>2026-03-22T13:48:40.999Z</time></trkpt><trkpt lat="48.41270942117721" lon="-4.451578838086718"><ele>66.0</ele><time>2026-03-22T13:48:43.999Z</time></trkpt><trkpt lat="48.412757991713114" lon="-4.451486334334414"><ele>66.0</ele><time>2026-03-22T13:48:45.999Z</time></trkpt><trkpt lat="48.41281185954574" lon="-4.451414624649726"><ele>66.0</ele><time>2026-03-22T13:48:47.999Z</time></trkpt><trkpt lat="48.41286247295972" lon="-4.4513073201457924"><ele>66.0</ele><time>2026-03-22T13:48:49.999Z</time></trkpt><trkpt lat="48.412912492637965" lon="-4.451191065000915"><ele>66.0</ele><time>2026-03-22T13:48:51.999Z</time></trkpt><trkpt lat="48.41295607214904" lon="-4.451066308121953"><ele>66.0</ele><time>2026-03-22T13:48:53.999Z</time></trkpt><trkpt lat="48.41299164447885" lon="-4.450931202295298"><ele>66.0</ele><time>2026-03-22T13:48:55.999Z</time></trkpt><trkpt lat="48.41303699785354" lon="-4.450777386869225"><ele>66.0</ele><time>2026-03-22T13:48:58Z</time></trkpt><trkpt lat="48.41306068414455" lon="-4.450634599320849"><ele>66.0</ele><time>2026-03-22T13:49:00Z</time></trkpt><trkpt lat="48.41310595544589" lon="-4.4504784072798955"><ele>66.0</ele><time>2026-03-22T13:49:02Z</time></trkpt><trkpt lat="48.41312345025486" lon="-4.450305340597465"><ele>66.0</ele><time>2026-03-22T13:49:04Z</time></trkpt><trkpt lat="48.413156560349805" lon="-4.450146010229805"><ele>66.0</ele><time>2026-03-22T13:49:06Z</time></trkpt><trkpt lat="48.41318468903149" lon="-4.449984967321267"><ele>66.0</ele><time>2026-03-22T13:49:08Z</time></trkpt><trkpt lat="48.41321485765949" lon="-4.4498161252874215"><ele>66.0</ele><time>2026-03-22T13:49:10Z</time></trkpt><trkpt lat="48.41324467776676" lon="-4.449637720286661"><ele>66.0</ele><time>2026-03-22T13:49:12Z</time></trkpt><trkpt lat="48.41324124664647" lon="-4.449540680844636"><ele>66.0</ele><time>2026-03-22T13:49:13Z</time></trkpt><trkpt lat="48.41325910360925" lon="-4.4494471281497905"><ele>66.0</ele><time>2026-03-22T13:49:14Z</time></trkpt><trkpt lat="48.413269985971894" lon="-4.44934802230463"><ele>66.0</ele><time>2026-03-22T13:49:15Z</time></trkpt><trkpt lat="48.4132721986131" lon="-4.44924160130105"><ele>66.0</ele><time>2026-03-22T13:49:16Z</time></trkpt><trkpt lat="48.41330002582412" lon="-4.449144858109368"><ele>65.83333333333333</ele><time>2026-03-22T13:49:17Z</time></trkpt><trkpt lat="48.41331373940344" lon="-4.4490343652977895"><ele>65.66666666666667</ele><time>2026-03-22T13:49:18Z</time></trkpt><trkpt lat="48.4133259713701" lon="-4.448919175357847"><ele>65.5</ele><time>2026-03-22T13:49:19Z</time></trkpt><trkpt lat="48.413344918028145" lon="-4.448806670760872"><ele>65.33333333333334</ele><time>2026-03-22T13:49:20Z</time></trkpt><trkpt lat="48.413355741242356" lon="-4.44868347015378"><ele>65.16666666666667</ele><time>2026-03-22T13:49:21Z</time></trkpt><trkpt lat="48.41337049468687" lon="-4.448570036782704"><ele>65.0</ele><time>2026-03-22T13:49:22Z</time></trkpt><trkpt lat="48.4133845157741" lon="-4.448449673198741"><ele>64.5</ele><time>2026-03-22T13:49:23Z</time></trkpt><trkpt lat="48.41340483469354" lon="-4.448331709908693"><ele>64.0</ele><time>2026-03-22T13:49:24Z</time></trkpt><trkpt lat="48.413416304834605" lon="-4.4482112511060405"><ele>63.5</ele><time>2026-03-22T13:49:25Z</time></trkpt><trkpt lat="48.41342543082805" lon="-4.448094952242296"><ele>63.0</ele><time>2026-03-22T13:49:26Z</time></trkpt><trkpt lat="48.41344467979363" lon="-4.44797376908553"><ele>62.50000000000001</ele><time>2026-03-22T13:49:27Z</time></trkpt><trkpt lat="48.41344327772815" lon="-4.4478487374547"><ele>62.0</ele><time>2026-03-22T13:49:28Z</time></trkpt><trkpt lat="48.41345589388995" lon="-4.447729925795774"><ele>62.00000000000001</ele><time>2026-03-22T13:49:29Z</time></trkpt><trkpt lat="48.41348333434355" lon="-4.447617626817973"><ele>62.0</ele><time>2026-03-22T13:49:30Z</time></trkpt><trkpt lat="48.41348942507379" lon="-4.447496753599635"><ele>62.0</ele><time>2026-03-22T13:49:31Z</time></trkpt><trkpt lat="48.41350239421536" lon="-4.447383806037392"><ele>62.0</ele><time>2026-03-22T13:49:32Z</time></trkpt><trkpt lat="48.41350951801895" lon="-4.447270586079132"><ele>62.00000000000001</ele><time>2026-03-22T13:49:33Z</time></trkpt><trkpt lat="48.41352005772675" lon="-4.447156369386377"><ele>62.0</ele><time>2026-03-22T13:49:34Z</time></trkpt><trkpt lat="48.41353306295727" lon="-4.447044920806721"><ele>61.57142857142858</ele><time>2026-03-22T13:49:35Z</time></trkpt><trkpt lat="48.41354716548522" lon="-4.446927626934594"><ele>61.14285714285715</ele><time>2026-03-22T13:49:36Z</time></trkpt><trkpt lat="48.41356061905779" lon="-4.4468173010239385"><ele>60.714285714285715</ele><time>2026-03-22T13:49:37Z</time></trkpt><trkpt lat="48.41357450327374" lon="-4.446703443669821"><ele>60.28571428571429</ele><time>2026-03-22T13:49:38Z</time></trkpt><trkpt lat="48.413585934217885" lon="-4.44659983493632"><ele>59.85714285714286</ele><time>2026-03-22T13:49:39Z</time></trkpt><trkpt lat="48.41361223809745" lon="-4.446497539788019"><ele>59.42857142857143</ele><time>2026-03-22T13:49:40Z</time></trkpt><trkpt lat="48.41362325215695" lon="-4.446397973765563"><ele>59.0</ele><time>2026-03-22T13:49:41Z</time></trkpt><trkpt lat="48.41363140025635" lon="-4.446295934852728"><ele>58.833333333333336</ele><time>2026-03-22T13:49:42Z</time></trkpt><trkpt lat="48.41364945474488" lon="-4.446189796487462"><ele>58.66666666666667</ele><time>2026-03-22T13:49:43Z</time></trkpt><trkpt lat="48.41364280029268" lon="-4.446076921803193"><ele>58.5</ele><time>2026-03-22T13:49:44Z</time></trkpt><trkpt lat="48.41365551347257" lon="-4.445961937383177"><ele>58.33333333333333</ele><time>2026-03-22T13:49:45Z</time></trkpt><trkpt lat="48.41367462809029" lon="-4.445849810586348"><ele>58.166666666666664</ele><time>2026-03-22T13:49:46Z</time></trkpt><trkpt lat="48.41368835215531" lon="-4.445717851514129"><ele>58.0</ele><time>2026-03-22T13:49:47Z</time></trkpt><trkpt lat="48.413709877458764" lon="-4.445605442902327"><ele>57.99999999999999</ele><time>2026-03-22T13:49:48Z</time></trkpt><trkpt lat="48.41370127333912" lon="-4.4455070055704"><ele>58.0</ele><time>2026-03-22T13:49:49Z</time></trkpt><trkpt lat="48.41370736865734" lon="-4.445380388579563"><ele>58.0</ele><time>2026-03-22T13:49:50Z</time></trkpt><trkpt lat="48.41371703901619" lon="-4.445258969880977"><ele>58.0</ele><time>2026-03-22T13:49:51Z</time></trkpt><trkpt lat="48.41373052382153" lon="-4.445144650728383"><ele>57.99999999999999</ele><time>2026-03-22T13:49:52Z</time></trkpt><trkpt lat="48.41375713179451" lon="-4.445031219882149"><ele>58.0</ele><time>2026-03-22T13:49:53Z</time></trkpt><trkpt lat="48.41378061452577" lon="-4.444925841893119"><ele>57.85714285714286</ele><time>2026-03-22T13:49:54Z</time></trkpt><trkpt lat="48.41379911714458" lon="-4.444808801209261"><ele>57.714285714285715</ele><time>2026-03-22T13:49:55Z</time></trkpt><trkpt lat="48.413823470929145" lon="-4.444695502012342"><ele>57.57142857142857</ele><time>2026-03-22T13:49:56Z</time></trkpt><trkpt lat="48.41383926251856" lon="-4.444590753873728"><ele>57.42857142857143</ele><time>2026-03-22T13:49:57Z</time></trkpt><trkpt lat="48.41382985563496" lon="-4.444480867960449"><ele>57.28571428571428</ele><time>2026-03-22T13:49:58Z</time></trkpt><trkpt lat="48.413840598029026" lon="-4.444384046718589"><ele>57.14285714285714</ele><time>2026-03-22T13:49:59Z</time></trkpt><trkpt lat="48.41385273597135" lon="-4.444276253264661"><ele>57.0</ele><time>2026-03-22T13:50:00Z</time></trkpt><trkpt lat="48.41386457760226" lon="-4.4441710915210395"><ele>57.0</ele><time>2026-03-22T13:50:01Z</time></trkpt><trkpt lat="48.41387538492872" lon="-4.444077034154579"><ele>56.99999999999999</ele><time>2026-03-22T13:50:02Z</time></trkpt><trkpt lat="48.41388693504674" lon="-4.443975160766366"><ele>57.0</ele><time>2026-03-22T13:50:03Z</time></trkpt><trkpt lat="48.413898454275326" lon="-4.443873560239636"><ele>57.0</ele><time>2026-03-22T13:50:04Z</time></trkpt><trkpt lat="48.41390937396009" lon="-4.443777248707367"><ele>56.99999999999999</ele><time>2026-03-22T13:50:05Z</time></trkpt><trkpt lat="48.41395505428646" lon="-4.443702398899808"><ele>57.0</ele><time>2026-03-22T13:50:06Z</time></trkpt><trkpt lat="48.41392020375652" lon="-4.443623228068305"><ele>57.0</ele><time>2026-03-22T13:50:09Z</time></trkpt><trkpt lat="48.41394002296356" lon="-4.443532765670172"><ele>57.2</ele><time>2026-03-22T13:50:11Z</time></trkpt><trkpt lat="48.4139540688585" lon="-4.443394921102665"><ele>57.400000000000006</ele><time>2026-03-22T13:50:13Z</time></trkpt><trkpt lat="48.413954607299964" lon="-4.443256220929953"><ele>57.599999999999994</ele><time>2026-03-22T13:50:15Z</time></trkpt><trkpt lat="48.41398528608776" lon="-4.443101579022049"><ele>57.8</ele><time>2026-03-22T13:50:17Z</time></trkpt><trkpt lat="48.41399078752844" lon="-4.442933166783493"><ele>58.0</ele><time>2026-03-22T13:50:19Z</time></trkpt><trkpt lat="48.41400739820019" lon="-4.442776259429137"><ele>58.4</ele><time>2026-03-22T13:50:21Z</time></trkpt><trkpt lat="48.41404110129567" lon="-4.442626611777222"><ele>58.8</ele><time>2026-03-22T13:50:23Z</time></trkpt><trkpt lat="48.41406474503185" lon="-4.442465182832169"><ele>59.2</ele><time>2026-03-22T13:50:25Z</time></trkpt><trkpt lat="48.41407757332676" lon="-4.442307604532204"><ele>59.6</ele><time>2026-03-22T13:50:27Z</time></trkpt><trkpt lat="48.41408584951803" lon="-4.442147805098638"><ele>60.0</ele><time>2026-03-22T13:50:28.999Z</time></trkpt><trkpt lat="48.414131047899794" lon="-4.442001959706928"><ele>60.0</ele><time>2026-03-22T13:50:30.999Z</time></trkpt><trkpt lat="48.41411727616903" lon="-4.441907804912896"><ele>60.0</ele><time>2026-03-22T13:50:31.999Z</time></trkpt><trkpt lat="48.41413532039907" lon="-4.44174383769895"><ele>60.0</ele><time>2026-03-22T13:50:33.999Z</time></trkpt><trkpt lat="48.41416644166373" lon="-4.44160019300834"><ele>60.0</ele><time>2026-03-22T13:50:35.999Z</time></trkpt><trkpt lat="48.41416743983808" lon="-4.441447565909467"><ele>60.0</ele><time>2026-03-22T13:50:37.999Z</time></trkpt><trkpt lat="48.414186398459975" lon="-4.441288382346618"><ele>60.5</ele><time>2026-03-22T13:50:39.999Z</time></trkpt><trkpt lat="48.41419924868033" lon="-4.441152908023145"><ele>61.0</ele><time>2026-03-22T13:50:41.999Z</time></trkpt><trkpt lat="48.41420325467341" lon="-4.441012776477459"><ele>61.5</ele><time>2026-03-22T13:50:43.999Z</time></trkpt><trkpt lat="48.41423304922844" lon="-4.440896297543769"><ele>62.0</ele><time>2026-03-22T13:50:45.999Z</time></trkpt><trkpt lat="48.414227676853294" lon="-4.440798522202219"><ele>62.5</ele><time>2026-03-22T13:50:48.999Z</time></trkpt><trkpt lat="48.41422420529098" lon="-4.4406654392102505"><ele>63.0</ele><time>2026-03-22T13:51:02.999Z</time></trkpt><trkpt lat="48.41421137220371" lon="-4.440520435846819"><ele>63.333333333333336</ele><time>2026-03-22T13:51:06Z</time></trkpt><trkpt lat="48.414239845219775" lon="-4.440401340402844"><ele>63.66666666666667</ele><time>2026-03-22T13:51:08Z</time></trkpt><trkpt lat="48.41427079760353" lon="-4.440271882373216"><ele>64.0</ele><time>2026-03-22T13:51:10Z</time></trkpt><trkpt lat="48.414286207596" lon="-4.440148150934408"><ele>64.33333333333334</ele><time>2026-03-22T13:51:12Z</time></trkpt><trkpt lat="48.4143087964967" lon="-4.440025340209069"><ele>64.66666666666667</ele><time>2026-03-22T13:51:14Z</time></trkpt><trkpt lat="48.41433218803205" lon="-4.439906626396409"><ele>65.0</ele><time>2026-03-22T13:51:16Z</time></trkpt><trkpt lat="48.41435211727052" lon="-4.439783170745812"><ele>65.0</ele><time>2026-03-22T13:51:18Z</time></trkpt><trkpt lat="48.41436211431876" lon="-4.439664019722211"><ele>65.0</ele><time>2026-03-22T13:51:20Z</time></trkpt><trkpt lat="48.414376361788065" lon="-4.439539346379844"><ele>65.0</ele><time>2026-03-22T13:51:22Z</time></trkpt><trkpt lat="48.4143809843344" lon="-4.439421875636376"><ele>65.0</ele><time>2026-03-22T13:51:24Z</time></trkpt><trkpt lat="48.41439903013992" lon="-4.439303361778355"><ele>65.0</ele><time>2026-03-22T13:51:26Z</time></trkpt><trkpt lat="48.41441371069714" lon="-4.439192773467749"><ele>65.0</ele><time>2026-03-22T13:51:28Z</time></trkpt><trkpt lat="48.41444320531943" lon="-4.439080171717622"><ele>65.0</ele><time>2026-03-22T13:51:30Z</time></trkpt><trkpt lat="48.414448230863556" lon="-4.4389588791521275"><ele>65.0</ele><time>2026-03-22T13:51:32Z</time></trkpt><trkpt lat="48.414458734975845" lon="-4.438844196590698"><ele>65.0</ele><time>2026-03-22T13:51:34Z</time></trkpt><trkpt lat="48.414486935074095" lon="-4.438742660913018"><ele>65.0</ele><time>2026-03-22T13:51:36Z</time></trkpt><trkpt lat="48.4145080931331" lon="-4.43862666268509"><ele>65.0</ele><time>2026-03-22T13:51:38Z</time></trkpt><trkpt lat="48.414541936214" lon="-4.438512316362379"><ele>65.0</ele><time>2026-03-22T13:51:40Z</time></trkpt><trkpt lat="48.414570963899884" lon="-4.438402249869253"><ele>65.0</ele><time>2026-03-22T13:51:42Z</time></trkpt><trkpt lat="48.41461007567041" lon="-4.438275488142881"><ele>65.0</ele><time>2026-03-22T13:51:44Z</time></trkpt><trkpt lat="48.414641163539834" lon="-4.438149325186596"><ele>65.0</ele><time>2026-03-22T13:51:46Z</time></trkpt><trkpt lat="48.41466246216364" lon="-4.437995790885761"><ele>65.0</ele><time>2026-03-22T13:51:48Z</time></trkpt><trkpt lat="48.4146540620663" lon="-4.4378304114118725"><ele>65.0</ele><time>2026-03-22T13:51:50Z</time></trkpt><trkpt lat="48.414689459556875" lon="-4.437686897521528"><ele>65.0</ele><time>2026-03-22T13:51:52Z</time></trkpt><trkpt lat="48.41474202538059" lon="-4.437548780366662"><ele>65.0</ele><time>2026-03-22T13:51:54Z</time></trkpt><trkpt lat="48.41475288123502" lon="-4.437380319790726"><ele>65.0</ele><time>2026-03-22T13:51:56Z</time></trkpt><trkpt lat="48.41478178416773" lon="-4.437293192999407"><ele>65.0</ele><time>2026-03-22T13:51:57Z</time></trkpt><trkpt lat="48.41481281601012" lon="-4.437112367052509"><ele>65.0</ele><time>2026-03-22T13:51:59Z</time></trkpt><trkpt lat="48.41482926450734" lon="-4.437008815775665"><ele>65.0</ele><time>2026-03-22T13:52:00Z</time></trkpt><trkpt lat="48.41485375122977" lon="-4.436905520477724"><ele>65.0</ele><time>2026-03-22T13:52:01Z</time></trkpt><trkpt lat="48.414873617205124" lon="-4.436801644523853"><ele>65.0</ele><time>2026-03-22T13:52:02Z</time></trkpt><trkpt lat="48.41489693843351" lon="-4.436696594927575"><ele>65.0</ele><time>2026-03-22T13:52:03Z</time></trkpt><trkpt lat="48.414924741176925" lon="-4.4365931648992"><ele>65.0</ele><time>2026-03-22T13:52:04Z</time></trkpt><trkpt lat="48.41493637210863" lon="-4.436467447913948"><ele>65.0</ele><time>2026-03-22T13:52:05Z</time></trkpt><trkpt lat="48.414964820469734" lon="-4.436354771290308"><ele>64.66666666666667</ele><time>2026-03-22T13:52:06Z</time></trkpt><trkpt lat="48.41500906349822" lon="-4.436253892522231"><ele>64.33333333333334</ele><time>2026-03-22T13:52:07Z</time></trkpt><trkpt lat="48.41503944371768" lon="-4.436130716804495"><ele>64.0</ele><time>2026-03-22T13:52:08Z</time></trkpt><trkpt lat="48.415084862796" lon="-4.436018906123966"><ele>63.66666666666667</ele><time>2026-03-22T13:52:09Z</time></trkpt><trkpt lat="48.41513029678174" lon="-4.435914448241678"><ele>63.333333333333336</ele><time>2026-03-22T13:52:10Z</time></trkpt><trkpt lat="48.415181677143" lon="-4.435812452163166"><ele>63.0</ele><time>2026-03-22T13:52:11Z</time></trkpt><trkpt lat="48.415227171268725" lon="-4.4357245852713785"><ele>63.0</ele><time>2026-03-22T13:52:12Z</time></trkpt><trkpt lat="48.41528174828514" lon="-4.435635932105918"><ele>63.0</ele><time>2026-03-22T13:52:13Z</time></trkpt><trkpt lat="48.41533914860611" lon="-4.43554065866252"><ele>63.0</ele><time>2026-03-22T13:52:14Z</time></trkpt><trkpt lat="48.41538231884127" lon="-4.435421127440479"><ele>63.0</ele><time>2026-03-22T13:52:15Z</time></trkpt><trkpt lat="48.41540609725578" lon="-4.435307301555203"><ele>63.0</ele><time>2026-03-22T13:52:16Z</time></trkpt><trkpt lat="48.41545814328089" lon="-4.435200276293654"><ele>63.0</ele><time>2026-03-22T13:52:17Z</time></trkpt><trkpt lat="48.415504529494775" lon="-4.435081796094013"><ele>62.4</ele><time>2026-03-22T13:52:18Z</time></trkpt><trkpt lat="48.41557543107926" lon="-4.434976081012892"><ele>61.8</ele><time>2026-03-22T13:52:19Z</time></trkpt><trkpt lat="48.41562920537727" lon="-4.434860472077102"><ele>61.2</ele><time>2026-03-22T13:52:20Z</time></trkpt><trkpt lat="48.41566698249485" lon="-4.434722675288326"><ele>60.6</ele><time>2026-03-22T13:52:21Z</time></trkpt><trkpt lat="48.41572684281315" lon="-4.434630947015939"><ele>60.0</ele><time>2026-03-22T13:52:22Z</time></trkpt><trkpt lat="48.41575964243972" lon="-4.434499810654889"><ele>59.2</ele><time>2026-03-22T13:52:23Z</time></trkpt><trkpt lat="48.41579240682499" lon="-4.434375475399137"><ele>58.4</ele><time>2026-03-22T13:52:24Z</time></trkpt><trkpt lat="48.4158534087644" lon="-4.4342505484790795"><ele>57.599999999999994</ele><time>2026-03-22T13:52:25Z</time></trkpt><trkpt lat="48.41590760796045" lon="-4.434130226396198"><ele>56.8</ele><time>2026-03-22T13:52:26Z</time></trkpt><trkpt lat="48.41595677666003" lon="-4.434019061024435"><ele>56.0</ele><time>2026-03-22T13:52:26.999Z</time></trkpt><trkpt lat="48.41600831338025" lon="-4.4338978582919735"><ele>55.4</ele><time>2026-03-22T13:52:27.999Z</time></trkpt><trkpt lat="48.416070684675546" lon="-4.433781732204615"><ele>54.8</ele><time>2026-03-22T13:52:28.999Z</time></trkpt><trkpt lat="48.41611555947731" lon="-4.433661417271347"><ele>54.199999999999996</ele><time>2026-03-22T13:52:29.999Z</time></trkpt><trkpt lat="48.41616956470414" lon="-4.43354190036153"><ele>53.599999999999994</ele><time>2026-03-22T13:52:30.999Z</time></trkpt><trkpt lat="48.416242692648524" lon="-4.433416316133521"><ele>53.0</ele><time>2026-03-22T13:52:31.999Z</time></trkpt><trkpt lat="48.41630381570491" lon="-4.433295551598168"><ele>52.8</ele><time>2026-03-22T13:52:32.999Z</time></trkpt><trkpt lat="48.41635939286419" lon="-4.433170314702658"><ele>52.599999999999994</ele><time>2026-03-22T13:52:33.999Z</time></trkpt><trkpt lat="48.416416201573384" lon="-4.4330382799997805"><ele>52.400000000000006</ele><time>2026-03-22T13:52:34.999Z</time></trkpt><trkpt lat="48.41646599684259" lon="-4.432910143856133"><ele>52.2</ele><time>2026-03-22T13:52:35.999Z</time></trkpt><trkpt lat="48.416512073007496" lon="-4.43278712270804"><ele>52.0</ele><time>2026-03-22T13:52:36.999Z</time></trkpt><trkpt lat="48.41656502410475" lon="-4.432665264016495"><ele>51.83333333333333</ele><time>2026-03-22T13:52:37.999Z</time></trkpt><trkpt lat="48.41661658414859" lon="-4.432559385787958"><ele>51.666666666666664</ele><time>2026-03-22T13:52:38.999Z</time></trkpt><trkpt lat="48.41666088867635" lon="-4.432458864074009"><ele>51.5</ele><time>2026-03-22T13:52:39.999Z</time></trkpt><trkpt lat="48.41670329815695" lon="-4.432353860766922"><ele>51.33333333333333</ele><time>2026-03-22T13:52:40.999Z</time></trkpt><trkpt lat="48.41674295121327" lon="-4.432265173622058"><ele>51.166666666666664</ele><time>2026-03-22T13:52:41.999Z</time></trkpt><trkpt lat="48.41678866424543" lon="-4.43218829777402"><ele>51.0</ele><time>2026-03-22T13:52:42.999Z</time></trkpt><trkpt lat="48.416836360748896" lon="-4.43203166005707"><ele>51.0</ele><time>2026-03-22T13:52:44.999Z</time></trkpt><trkpt lat="48.416898038634386" lon="-4.431904239686124"><ele>51.0</ele><time>2026-03-22T13:52:46.999Z</time></trkpt><trkpt lat="48.416953601053336" lon="-4.431778927219684"><ele>51.0</ele><time>2026-03-22T13:52:48.999Z</time></trkpt><trkpt lat="48.41699327875524" lon="-4.431650540196247"><ele>51.0</ele><time>2026-03-22T13:52:50.999Z</time></trkpt><trkpt lat="48.41705433901106" lon="-4.4315432225756615"><ele>51.0</ele><time>2026-03-22T13:52:52.999Z</time></trkpt><trkpt lat="48.417104223300726" lon="-4.431428878095091"><ele>51.0</ele><time>2026-03-22T13:52:54.999Z</time></trkpt><trkpt lat="48.417060407699914" lon="-4.431304031418685"><ele>51.0</ele><time>2026-03-22T13:52:55.999Z</time></trkpt><trkpt lat="48.41706767731687" lon="-4.431155664839206"><ele>51.0</ele><time>2026-03-22T13:52:57.999Z</time></trkpt><trkpt lat="48.41710581785289" lon="-4.431028999848639"><ele>51.0</ele><time>2026-03-22T13:52:59.999Z</time></trkpt><trkpt lat="48.41715542901608" lon="-4.43093421675251"><ele>51.0</ele><time>2026-03-22T13:53:01.999Z</time></trkpt><trkpt lat="48.417226207467266" lon="-4.430918780885143"><ele>51.0</ele><time>2026-03-22T13:53:02.999Z</time></trkpt><trkpt lat="48.41730881050223" lon="-4.430861459035448"><ele>52.5</ele><time>2026-03-22T13:53:04.999Z</time></trkpt><trkpt lat="48.41739088766753" lon="-4.430798225139811"><ele>54.0</ele><time>2026-03-22T13:53:06.999Z</time></trkpt><trkpt lat="48.417441859222734" lon="-4.430687596972395"><ele>55.5</ele><time>2026-03-22T13:53:08.999Z</time></trkpt><trkpt lat="48.41749973849685" lon="-4.430611271160372"><ele>57.0</ele><time>2026-03-22T13:53:11Z</time></trkpt><trkpt lat="48.41755126279477" lon="-4.4305170691242735"><ele>58.5</ele><time>2026-03-22T13:53:13Z</time></trkpt><trkpt lat="48.417604542080866" lon="-4.4304467537675585"><ele>60.0</ele><time>2026-03-22T13:53:15Z</time></trkpt><trkpt lat="48.41766067281099" lon="-4.430383220440806"><ele>60.333333333333336</ele><time>2026-03-22T13:53:17Z</time></trkpt><trkpt lat="48.417697698361806" lon="-4.43027564591367"><ele>60.66666666666667</ele><time>2026-03-22T13:53:19Z</time></trkpt><trkpt lat="48.41778397300146" lon="-4.43021036547469"><ele>61.0</ele><time>2026-03-22T13:53:21Z</time></trkpt><trkpt lat="48.4177981970834" lon="-4.430116665650391"><ele>61.333333333333336</ele><time>2026-03-22T13:53:22Z</time></trkpt><trkpt lat="48.417805013244134" lon="-4.430006784058021"><ele>61.66666666666667</ele><time>2026-03-22T13:53:25Z</time></trkpt><trkpt lat="48.41787314079022" lon="-4.42987961963971"><ele>62.0</ele><time>2026-03-22T13:53:28Z</time></trkpt><trkpt lat="48.41794013765778" lon="-4.429785051338558"><ele>62.50000000000001</ele><time>2026-03-22T13:53:30Z</time></trkpt><trkpt lat="48.41799741535568" lon="-4.42969011248222"><ele>63.0</ele><time>2026-03-22T13:53:32Z</time></trkpt><trkpt lat="48.418055589302405" lon="-4.429605333184486"><ele>63.5</ele><time>2026-03-22T13:53:34Z</time></trkpt><trkpt lat="48.41808429783945" lon="-4.42950823812852"><ele>64.0</ele><time>2026-03-22T13:53:36Z</time></trkpt><trkpt lat="48.418137627829495" lon="-4.429421904730075"><ele>64.5</ele><time>2026-03-22T13:53:38Z</time></trkpt><trkpt lat="48.418172503321564" lon="-4.429329941730907"><ele>65.0</ele><time>2026-03-22T13:53:40Z</time></trkpt><trkpt lat="48.418215315500014" lon="-4.429231400281756"><ele>65.33333333333334</ele><time>2026-03-22T13:53:42Z</time></trkpt><trkpt lat="48.41822934363218" lon="-4.42911573536804"><ele>65.66666666666667</ele><time>2026-03-22T13:53:44Z</time></trkpt><trkpt lat="48.41825634547578" lon="-4.429004839971899"><ele>66.0</ele><time>2026-03-22T13:53:46Z</time></trkpt><trkpt lat="48.4183094656136" lon="-4.428919696545454"><ele>66.33333333333333</ele><time>2026-03-22T13:53:48Z</time></trkpt><trkpt lat="48.418383123351845" lon="-4.4288743773252435"><ele>66.66666666666666</ele><time>2026-03-22T13:53:50Z</time></trkpt><trkpt lat="48.41845243333359" lon="-4.428855087266164"><ele>67.0</ele><time>2026-03-22T13:53:52Z</time></trkpt><trkpt lat="48.41850171592304" lon="-4.428780804762038"><ele>67.16666666666666</ele><time>2026-03-22T13:53:54Z</time></trkpt><trkpt lat="48.418550629689946" lon="-4.4286845971010855"><ele>67.33333333333333</ele><time>2026-03-22T13:53:56Z</time></trkpt><trkpt lat="48.41860064768971" lon="-4.42861865199416"><ele>67.5</ele><time>2026-03-22T13:53:58Z</time></trkpt><trkpt lat="48.41865867705474" lon="-4.428528755546698"><ele>67.66666666666667</ele><time>2026-03-22T13:54:00Z</time></trkpt><trkpt lat="48.418710553635854" lon="-4.42843515552811"><ele>67.83333333333334</ele><time>2026-03-22T13:54:02Z</time></trkpt><trkpt lat="48.418764386963694" lon="-4.428342253109747"><ele>68.0</ele><time>2026-03-22T13:54:04Z</time></trkpt><trkpt lat="48.4188336220453" lon="-4.428225071808985"><ele>67.83333333333334</ele><time>2026-03-22T13:54:06Z</time></trkpt><trkpt lat="48.41890131760061" lon="-4.428135867175488"><ele>67.66666666666667</ele><time>2026-03-22T13:54:08Z</time></trkpt><trkpt lat="48.41895878634522" lon="-4.428039530574032"><ele>67.5</ele><time>2026-03-22T13:54:10Z</time></trkpt><trkpt lat="48.41901988929326" lon="-4.427933680688101"><ele>67.33333333333333</ele><time>2026-03-22T13:54:12Z</time></trkpt><trkpt lat="48.41907963982673" lon="-4.427840989770528"><ele>67.16666666666666</ele><time>2026-03-22T13:54:14Z</time></trkpt><trkpt lat="48.419129592351375" lon="-4.427747647233783"><ele>67.0</ele><time>2026-03-22T13:54:16Z</time></trkpt><trkpt lat="48.41918205559069" lon="-4.427644256642005"><ele>67.0</ele><time>2026-03-22T13:54:18Z</time></trkpt><trkpt lat="48.41924720024595" lon="-4.427543601512825"><ele>67.0</ele><time>2026-03-22T13:54:20Z</time></trkpt><trkpt lat="48.41930770795365" lon="-4.427434383004548"><ele>67.0</ele><time>2026-03-22T13:54:22Z</time></trkpt><trkpt lat="48.41937290764365" lon="-4.427327387075885"><ele>67.0</ele><time>2026-03-22T13:54:24Z</time></trkpt><trkpt lat="48.41944002834017" lon="-4.427230996871332"><ele>67.0</ele><time>2026-03-22T13:54:26Z</time></trkpt><trkpt lat="48.419485258335165" lon="-4.427115131392217"><ele>67.0</ele><time>2026-03-22T13:54:27.999Z</time></trkpt><trkpt lat="48.41954536266424" lon="-4.427020203452113"><ele>67.0</ele><time>2026-03-22T13:54:29.999Z</time></trkpt><trkpt lat="48.41960341211132" lon="-4.426923107386871"><ele>67.0</ele><time>2026-03-22T13:54:31.999Z</time></trkpt><trkpt lat="48.41966218375619" lon="-4.426800942153695"><ele>67.0</ele><time>2026-03-22T13:54:33.999Z</time></trkpt><trkpt lat="48.419732521311374" lon="-4.426684753784484"><ele>67.0</ele><time>2026-03-22T13:54:35.999Z</time></trkpt><trkpt lat="48.419794551117896" lon="-4.426574730875191"><ele>67.16666666666666</ele><time>2026-03-22T13:54:37.999Z</time></trkpt><trkpt lat="48.41986412117169" lon="-4.426474962277835"><ele>67.33333333333333</ele><time>2026-03-22T13:54:39.999Z</time></trkpt><trkpt lat="48.41993239216077" lon="-4.42638753331209"><ele>67.5</ele><time>2026-03-22T13:54:41.999Z</time></trkpt><trkpt lat="48.41998133120854" lon="-4.426280072998568"><ele>67.66666666666667</ele><time>2026-03-22T13:54:43.999Z</time></trkpt><trkpt lat="48.42004464866748" lon="-4.426180260007529"><ele>67.83333333333334</ele><time>2026-03-22T13:54:45.999Z</time></trkpt><trkpt lat="48.42010108836652" lon="-4.426103343678427"><ele>68.0</ele><time>2026-03-22T13:54:47.999Z</time></trkpt><trkpt lat="48.420150860498715" lon="-4.4260241084680105"><ele>68.0</ele><time>2026-03-22T13:54:49.999Z</time></trkpt><trkpt lat="48.42020130417588" lon="-4.425924610138161"><ele>68.0</ele><time>2026-03-22T13:54:51.999Z</time></trkpt><trkpt lat="48.420257744138446" lon="-4.425838170466468"><ele>68.0</ele><time>2026-03-22T13:54:53.999Z</time></trkpt><trkpt lat="48.420303514505534" lon="-4.425739969126496"><ele>68.0</ele><time>2026-03-22T13:54:55.999Z</time></trkpt><trkpt lat="48.420360635562446" lon="-4.425646761037195"><ele>68.0</ele><time>2026-03-22T13:54:57.999Z</time></trkpt><trkpt lat="48.420415760683326" lon="-4.425561644111878"><ele>68.0</ele><time>2026-03-22T13:54:59.999Z</time></trkpt><trkpt lat="48.42046714800133" lon="-4.4254590314133"><ele>68.0</ele><time>2026-03-22T13:55:01.999Z</time></trkpt><trkpt lat="48.420523041272524" lon="-4.425352642579259"><ele>68.0</ele><time>2026-03-22T13:55:03.999Z</time></trkpt><trkpt lat="48.420574595244425" lon="-4.425240016708122"><ele>68.0</ele><time>2026-03-22T13:55:05.999Z</time></trkpt><trkpt lat="48.42063543866468" lon="-4.4251526187416665"><ele>68.0</ele><time>2026-03-22T13:55:07.999Z</time></trkpt><trkpt lat="48.42068647499872" lon="-4.425047830624153"><ele>68.0</ele><time>2026-03-22T13:55:09.999Z</time></trkpt><trkpt lat="48.420732887782776" lon="-4.424942857162428"><ele>68.0</ele><time>2026-03-22T13:55:11.999Z</time></trkpt><trkpt lat="48.42080164977693" lon="-4.42483512166786"><ele>68.0</ele><time>2026-03-22T13:55:13.999Z</time></trkpt><trkpt lat="48.420828886121214" lon="-4.424717334129717"><ele>68.0</ele><time>2026-03-22T13:55:16Z</time></trkpt><trkpt lat="48.420891644545485" lon="-4.424629640994092"><ele>68.0</ele><time>2026-03-22T13:55:18Z</time></trkpt><trkpt lat="48.42095193746691" lon="-4.424519541549514"><ele>68.0</ele><time>2026-03-22T13:55:20Z</time></trkpt><trkpt lat="48.421014162203036" lon="-4.424397083674394"><ele>68.0</ele><time>2026-03-22T13:55:22Z</time></trkpt><trkpt lat="48.42108739702156" lon="-4.424290466753337"><ele>68.0</ele><time>2026-03-22T13:55:24Z</time></trkpt><trkpt lat="48.42118153122146" lon="-4.424299357504301"><ele>68.0</ele><time>2026-03-22T13:55:25Z</time></trkpt><trkpt lat="48.42125463642269" lon="-4.42417777414142"><ele>68.0</ele><time>2026-03-22T13:55:27Z</time></trkpt><trkpt lat="48.42132969201189" lon="-4.424052947048896"><ele>68.0</ele><time>2026-03-22T13:55:29Z</time></trkpt><trkpt lat="48.421395224716825" lon="-4.423922207399503"><ele>68.0</ele><time>2026-03-22T13:55:31Z</time></trkpt><trkpt lat="48.42147355281872" lon="-4.423801270775411"><ele>67.5</ele><time>2026-03-22T13:55:33Z</time></trkpt><trkpt lat="48.42155972909693" lon="-4.423660940537795"><ele>67.0</ele><time>2026-03-22T13:55:35Z</time></trkpt><trkpt lat="48.42162675203989" lon="-4.423515273900325"><ele>66.5</ele><time>2026-03-22T13:55:37Z</time></trkpt><trkpt lat="48.4217032256481" lon="-4.423365418163087"><ele>66.0</ele><time>2026-03-22T13:55:39Z</time></trkpt><trkpt lat="48.4217915866296" lon="-4.423246122579373"><ele>66.0</ele><time>2026-03-22T13:55:41Z</time></trkpt><trkpt lat="48.42187229291216" lon="-4.423100996431203"><ele>66.0</ele><time>2026-03-22T13:55:43Z</time></trkpt><trkpt lat="48.421947920161976" lon="-4.422962328106519"><ele>66.0</ele><time>2026-03-22T13:55:45Z</time></trkpt><trkpt lat="48.42198810608411" lon="-4.422886742547947"><ele>66.0</ele><time>2026-03-22T13:55:46Z</time></trkpt><trkpt lat="48.422061696809145" lon="-4.422745190422579"><ele>66.0</ele><time>2026-03-22T13:55:48Z</time></trkpt><trkpt lat="48.422125307120595" lon="-4.422586455898661"><ele>66.39999999999999</ele><time>2026-03-22T13:55:50Z</time></trkpt><trkpt lat="48.422176130462134" lon="-4.422528147415102"><ele>66.8</ele><time>2026-03-22T13:55:51Z</time></trkpt><trkpt lat="48.42225066716673" lon="-4.422394363811042"><ele>67.19999999999999</ele><time>2026-03-22T13:55:53Z</time></trkpt><trkpt lat="48.4223321452729" lon="-4.422255453630927"><ele>67.6</ele><time>2026-03-22T13:55:55Z</time></trkpt><trkpt lat="48.422381443572135" lon="-4.422108003458265"><ele>68.0</ele><time>2026-03-22T13:55:57Z</time></trkpt><trkpt lat="48.422456240768405" lon="-4.4219746231436226"><ele>68.0</ele><time>2026-03-22T13:55:59Z</time></trkpt><trkpt lat="48.422545935751785" lon="-4.42186974176817"><ele>68.0</ele><time>2026-03-22T13:56:01Z</time></trkpt><trkpt lat="48.422583416587294" lon="-4.421729464757357"><ele>68.0</ele><time>2026-03-22T13:56:03Z</time></trkpt><trkpt lat="48.42265343871757" lon="-4.421605627497304"><ele>68.0</ele><time>2026-03-22T13:56:05Z</time></trkpt><trkpt lat="48.422727232178744" lon="-4.4214887589441565"><ele>68.0</ele><time>2026-03-22T13:56:07Z</time></trkpt><trkpt lat="48.422819056890376" lon="-4.42141158028407"><ele>67.66666666666667</ele><time>2026-03-22T13:56:09Z</time></trkpt><trkpt lat="48.422885927592695" lon="-4.421297511381673"><ele>67.33333333333334</ele><time>2026-03-22T13:56:11Z</time></trkpt><trkpt lat="48.42295230978236" lon="-4.4211874338422055"><ele>67.0</ele><time>2026-03-22T13:56:13Z</time></trkpt><trkpt lat="48.42300791030435" lon="-4.421092874718543"><ele>66.66666666666667</ele><time>2026-03-22T13:56:16Z</time></trkpt><trkpt lat="48.42305163271359" lon="-4.421020365175294"><ele>66.33333333333333</ele><time>2026-03-22T13:56:18Z</time></trkpt><trkpt lat="48.423108144820425" lon="-4.420926646849462"><ele>66.0</ele><time>2026-03-22T13:56:21Z</time></trkpt><trkpt lat="48.42306866899998" lon="-4.420811018477021"><ele>66.6</ele><time>2026-03-22T13:56:22Z</time></trkpt><trkpt lat="48.42307610520101" lon="-4.420708495029742"><ele>67.19999999999999</ele><time>2026-03-22T13:56:24Z</time></trkpt><trkpt lat="48.423123418807116" lon="-4.4205894809683555"><ele>67.80000000000001</ele><time>2026-03-22T13:56:26Z</time></trkpt><trkpt lat="48.423168638564654" lon="-4.420460438438885"><ele>68.4</ele><time>2026-03-22T13:56:28.999Z</time></trkpt><trkpt lat="48.42328721159483" lon="-4.420389302644264"><ele>69.0</ele><time>2026-03-22T13:56:31.999Z</time></trkpt><trkpt lat="48.42339278623261" lon="-4.420252697347818"><ele>69.0</ele><time>2026-03-22T13:56:33.999Z</time></trkpt><trkpt lat="48.42346384106075" lon="-4.420136041892207"><ele>69.0</ele><time>2026-03-22T13:56:34.999Z</time></trkpt><trkpt lat="48.42353059406996" lon="-4.420036335797493"><ele>69.0</ele><time>2026-03-22T13:56:35.999Z</time></trkpt><trkpt lat="48.423589016570084" lon="-4.419933715175412"><ele>69.0</ele><time>2026-03-22T13:56:36.999Z</time></trkpt><trkpt lat="48.42365891244655" lon="-4.41984231813728"><ele>69.0</ele><time>2026-03-22T13:56:37.999Z</time></trkpt><trkpt lat="48.423723961988344" lon="-4.41973803100226"><ele>68.8</ele><time>2026-03-22T13:56:38.999Z</time></trkpt><trkpt lat="48.423788214064125" lon="-4.419635276238395"><ele>68.60000000000001</ele><time>2026-03-22T13:56:39.999Z</time></trkpt><trkpt lat="48.42386412958345" lon="-4.419521594085247"><ele>68.4</ele><time>2026-03-22T13:56:40.999Z</time></trkpt><trkpt lat="48.423931121493794" lon="-4.419420405178622"><ele>68.2</ele><time>2026-03-22T13:56:41.999Z</time></trkpt><trkpt lat="48.42399876004918" lon="-4.419314747717339"><ele>68.0</ele><time>2026-03-22T13:56:42.999Z</time></trkpt><trkpt lat="48.424072499417726" lon="-4.419216933699543"><ele>67.8</ele><time>2026-03-22T13:56:43.999Z</time></trkpt><trkpt lat="48.42413337713842" lon="-4.419112655003885"><ele>67.6</ele><time>2026-03-22T13:56:44.999Z</time></trkpt><trkpt lat="48.42421864241111" lon="-4.419033461471895"><ele>67.4</ele><time>2026-03-22T13:56:45.999Z</time></trkpt><trkpt lat="48.424281083794234" lon="-4.418927674980335"><ele>67.2</ele><time>2026-03-22T13:56:46.999Z</time></trkpt><trkpt lat="48.4243381634676" lon="-4.418831074761919"><ele>67.0</ele><time>2026-03-22T13:56:47.999Z</time></trkpt><trkpt lat="48.42439023616396" lon="-4.418742948054261"><ele>67.0</ele><time>2026-03-22T13:56:48.999Z</time></trkpt><trkpt lat="48.42444425594197" lon="-4.418651526424295"><ele>67.0</ele><time>2026-03-22T13:56:49.999Z</time></trkpt><trkpt lat="48.42449982323184" lon="-4.418557341200864"><ele>67.0</ele><time>2026-03-22T13:56:50.999Z</time></trkpt><trkpt lat="48.42455285501397" lon="-4.418467420472814"><ele>67.0</ele><time>2026-03-22T13:56:51.999Z</time></trkpt><trkpt lat="48.424607337808496" lon="-4.418375039914478"><ele>67.0</ele><time>2026-03-22T13:56:52.999Z</time></trkpt><trkpt lat="48.42466403882787" lon="-4.418278897848412"><ele>67.0</ele><time>2026-03-22T13:56:53.999Z</time></trkpt><trkpt lat="48.42471609098" lon="-4.418189495483436"><ele>67.0</ele><time>2026-03-22T13:56:54.999Z</time></trkpt><trkpt lat="48.42476381364468" lon="-4.418106989360297"><ele>67.0</ele><time>2026-03-22T13:56:55.999Z</time></trkpt><trkpt lat="48.424808528480085" lon="-4.4180281943740125"><ele>67.0</ele><time>2026-03-22T13:56:56.999Z</time></trkpt><trkpt lat="48.424856516669315" lon="-4.41794286693567"><ele>67.0</ele><time>2026-03-22T13:56:57.999Z</time></trkpt><trkpt lat="48.424901220655414" lon="-4.417863379652024"><ele>67.0</ele><time>2026-03-22T13:56:58.999Z</time></trkpt><trkpt lat="48.424942552797596" lon="-4.417789887303374"><ele>67.0</ele><time>2026-03-22T13:56:59.999Z</time></trkpt><trkpt lat="48.42498777437217" lon="-4.417709479248879"><ele>67.0</ele><time>2026-03-22T13:57:00.999Z</time></trkpt><trkpt lat="48.42503094559329" lon="-4.417631901374736"><ele>67.0</ele><time>2026-03-22T13:57:01.999Z</time></trkpt><trkpt lat="48.42510836126788" lon="-4.417492679889054"><ele>67.0</ele><time>2026-03-22T13:57:03.999Z</time></trkpt><trkpt lat="48.42518910822708" lon="-4.417345850067351"><ele>67.0</ele><time>2026-03-22T13:57:05.999Z</time></trkpt><trkpt lat="48.4252621611291" lon="-4.417213453348964"><ele>67.0</ele><time>2026-03-22T13:57:07.999Z</time></trkpt><trkpt lat="48.4253026998504" lon="-4.417139983403698"><ele>67.0</ele><time>2026-03-22T13:57:08.999Z</time></trkpt><trkpt lat="48.425375840671535" lon="-4.4170074271601765"><ele>67.0</ele><time>2026-03-22T13:57:10.999Z</time></trkpt><trkpt lat="48.42545194771383" lon="-4.416866405099492"><ele>67.0</ele><time>2026-03-22T13:57:12.999Z</time></trkpt><trkpt lat="48.42552309256343" lon="-4.41673727656376"><ele>67.0</ele><time>2026-03-22T13:57:14.999Z</time></trkpt><trkpt lat="48.42556339894613" lon="-4.416663487927162"><ele>67.0</ele><time>2026-03-22T13:57:15.999Z</time></trkpt><trkpt lat="48.42563811101266" lon="-4.416526712958279"><ele>67.0</ele><time>2026-03-22T13:57:17.999Z</time></trkpt><trkpt lat="48.42567867033299" lon="-4.416452423083684"><ele>67.25</ele><time>2026-03-22T13:57:18.999Z</time></trkpt><trkpt lat="48.42575629834523" lon="-4.416311593277012"><ele>67.5</ele><time>2026-03-22T13:57:20.999Z</time></trkpt><trkpt lat="48.425831248362336" lon="-4.416175621511845"><ele>67.75</ele><time>2026-03-22T13:57:23Z</time></trkpt><trkpt lat="48.425906259672196" lon="-4.416040137061457"><ele>68.0</ele><time>2026-03-22T13:57:25Z</time></trkpt><trkpt lat="48.42598392528904" lon="-4.415903106004229"><ele>68.0</ele><time>2026-03-22T13:57:27Z</time></trkpt><trkpt lat="48.42605881713159" lon="-4.415770968853934"><ele>68.0</ele><time>2026-03-22T13:57:29Z</time></trkpt><trkpt lat="48.42613981101393" lon="-4.41562837524817"><ele>68.0</ele><time>2026-03-22T13:57:31Z</time></trkpt><trkpt lat="48.426217537602525" lon="-4.415493779420748"><ele>68.0</ele><time>2026-03-22T13:57:33Z</time></trkpt><trkpt lat="48.42625946724945" lon="-4.415421171632986"><ele>68.0</ele><time>2026-03-22T13:57:34Z</time></trkpt><trkpt lat="48.426302145746504" lon="-4.415347267001334"><ele>67.57142857142857</ele><time>2026-03-22T13:57:35Z</time></trkpt><trkpt lat="48.426348318059254" lon="-4.415267312255224"><ele>67.14285714285714</ele><time>2026-03-22T13:57:36Z</time></trkpt><trkpt lat="48.42639255487097" lon="-4.415190709277901"><ele>66.71428571428572</ele><time>2026-03-22T13:57:37Z</time></trkpt><trkpt lat="48.426441707357526" lon="-4.41510559392704"><ele>66.28571428571428</ele><time>2026-03-22T13:57:38Z</time></trkpt><trkpt lat="48.42647788808012" lon="-4.415014659996048"><ele>65.85714285714286</ele><time>2026-03-22T13:57:39Z</time></trkpt><trkpt lat="48.426534897497824" lon="-4.414943958232497"><ele>65.42857142857143</ele><time>2026-03-22T13:57:40Z</time></trkpt><trkpt lat="48.42658267666554" lon="-4.414861005806995"><ele>65.0</ele><time>2026-03-22T13:57:41Z</time></trkpt><trkpt lat="48.42663236481544" lon="-4.414774738868337"><ele>65.0</ele><time>2026-03-22T13:57:42Z</time></trkpt><trkpt lat="48.426678263636994" lon="-4.414695051071906"><ele>65.0</ele><time>2026-03-22T13:57:43Z</time></trkpt><trkpt lat="48.42672674995472" lon="-4.414610871853267"><ele>65.0</ele><time>2026-03-22T13:57:44Z</time></trkpt><trkpt lat="48.42677689646769" lon="-4.414525531360218"><ele>65.0</ele><time>2026-03-22T13:57:45Z</time></trkpt><trkpt lat="48.426829399690384" lon="-4.414435890754248"><ele>65.0</ele><time>2026-03-22T13:57:46Z</time></trkpt><trkpt lat="48.426885318486406" lon="-4.4143395732837725"><ele>65.0</ele><time>2026-03-22T13:57:47Z</time></trkpt><trkpt lat="48.42693161732381" lon="-4.414259814987418"><ele>65.0</ele><time>2026-03-22T13:57:48Z</time></trkpt><trkpt lat="48.42698482001363" lon="-4.414168647034933"><ele>65.0</ele><time>2026-03-22T13:57:49Z</time></trkpt><trkpt lat="48.42703915836374" lon="-4.414075469283949"><ele>65.0</ele><time>2026-03-22T13:57:50Z</time></trkpt><trkpt lat="48.42709308131974" lon="-4.413983003814728"><ele>65.0</ele><time>2026-03-22T13:57:51Z</time></trkpt><trkpt lat="48.427143344528595" lon="-4.413896904396991"><ele>65.0</ele><time>2026-03-22T13:57:52Z</time></trkpt><trkpt lat="48.42719959760519" lon="-4.413801024459077"><ele>65.0</ele><time>2026-03-22T13:57:53Z</time></trkpt><trkpt lat="48.427262255640514" lon="-4.413694775467542"><ele>64.14285714285715</ele><time>2026-03-22T13:57:54Z</time></trkpt><trkpt lat="48.42731518965573" lon="-4.413604088678672"><ele>63.28571428571429</ele><time>2026-03-22T13:57:55Z</time></trkpt><trkpt lat="48.42736768044" lon="-4.413513367239359"><ele>62.42857142857143</ele><time>2026-03-22T13:57:56Z</time></trkpt><trkpt lat="48.42742322108886" lon="-4.41341436746224"><ele>61.57142857142858</ele><time>2026-03-22T13:57:57Z</time></trkpt><trkpt lat="48.42746618331913" lon="-4.413335321185136"><ele>60.71428571428572</ele><time>2026-03-22T13:57:58Z</time></trkpt><trkpt lat="48.42749790796243" lon="-4.4132456297350515"><ele>59.857142857142854</ele><time>2026-03-22T13:57:59Z</time></trkpt><trkpt lat="48.42755900298401" lon="-4.413202048396907"><ele>59.0</ele><time>2026-03-22T13:58:00Z</time></trkpt><trkpt lat="48.42761806162308" lon="-4.413129654175748"><ele>59.0</ele><time>2026-03-22T13:58:01Z</time></trkpt><trkpt lat="48.4276674193329" lon="-4.413052085935223"><ele>59.0</ele><time>2026-03-22T13:58:02Z</time></trkpt><trkpt lat="48.42771078821373" lon="-4.41296939949783"><ele>59.0</ele><time>2026-03-22T13:58:03Z</time></trkpt><trkpt lat="48.427754898980695" lon="-4.412886487718148"><ele>59.0</ele><time>2026-03-22T13:58:04Z</time></trkpt><trkpt lat="48.427785628078865" lon="-4.4127889671524985"><ele>59.0</ele><time>2026-03-22T13:58:05Z</time></trkpt><trkpt lat="48.427842645905976" lon="-4.412700588270527"><ele>59.0</ele><time>2026-03-22T13:58:06Z</time></trkpt><trkpt lat="48.427892401306316" lon="-4.412602772505605"><ele>59.0</ele><time>2026-03-22T13:58:07Z</time></trkpt><trkpt lat="48.42794400093428" lon="-4.412487574610109"><ele>58.833333333333336</ele><time>2026-03-22T13:58:08Z</time></trkpt><trkpt lat="48.42795331488024" lon="-4.412364550010938"><ele>58.66666666666667</ele><time>2026-03-22T13:58:09Z</time></trkpt><trkpt lat="48.42791834204609" lon="-4.412240026082236"><ele>58.5</ele><time>2026-03-22T13:58:10Z</time></trkpt><trkpt lat="48.42794091150724" lon="-4.412131950138133"><ele>58.33333333333333</ele><time>2026-03-22T13:58:11Z</time></trkpt><trkpt lat="48.42799179084979" lon="-4.412042990941426"><ele>58.166666666666664</ele><time>2026-03-22T13:58:12Z</time></trkpt><trkpt lat="48.42805163676622" lon="-4.411958818575115"><ele>58.0</ele><time>2026-03-22T13:58:13Z</time></trkpt><trkpt lat="48.42814329856812" lon="-4.41191165728548"><ele>57.599999999999994</ele><time>2026-03-22T13:58:14Z</time></trkpt><trkpt lat="48.4282219675973" lon="-4.411877973717908"><ele>57.199999999999996</ele><time>2026-03-22T13:58:15Z</time></trkpt><trkpt lat="48.42835976014205" lon="-4.411798881376293"><ele>56.8</ele><time>2026-03-22T13:58:17Z</time></trkpt><trkpt lat="48.428427376125384" lon="-4.411766562156209"><ele>56.4</ele><time>2026-03-22T13:58:18Z</time></trkpt><trkpt lat="48.42845348323644" lon="-4.411648083955161"><ele>56.0</ele><time>2026-03-22T13:58:19Z</time></trkpt><trkpt lat="48.42852778819896" lon="-4.411521886190636"><ele>56.0</ele><time>2026-03-22T13:58:21Z</time></trkpt><trkpt lat="48.42858682272886" lon="-4.4113832696303685"><ele>55.99999999999999</ele><time>2026-03-22T13:58:23Z</time></trkpt><trkpt lat="48.42863592926485" lon="-4.4112580710210425"><ele>55.99999999999999</ele><time>2026-03-22T13:58:25Z</time></trkpt><trkpt lat="48.42870932188288" lon="-4.411155158878555"><ele>56.0</ele><time>2026-03-22T13:58:27Z</time></trkpt><trkpt lat="48.42877185200285" lon="-4.411058678727375"><ele>56.0</ele><time>2026-03-22T13:58:29Z</time></trkpt><trkpt lat="48.42883044438138" lon="-4.41095459539676"><ele>56.833333333333336</ele><time>2026-03-22T13:58:31Z</time></trkpt><trkpt lat="48.42889678021745" lon="-4.41086187196756"><ele>57.66666666666667</ele><time>2026-03-22T13:58:32.999Z</time></trkpt><trkpt lat="48.428960761266225" lon="-4.41077396473752"><ele>58.5</ele><time>2026-03-22T13:58:34.999Z</time></trkpt><trkpt lat="48.429008246287545" lon="-4.410681621540346"><ele>59.33333333333333</ele><time>2026-03-22T13:58:36.999Z</time></trkpt><trkpt lat="48.42905932404458" lon="-4.410606457427406"><ele>60.166666666666664</ele><time>2026-03-22T13:58:38.999Z</time></trkpt><trkpt lat="48.42909733531069" lon="-4.410505202314701"><ele>61.0</ele><time>2026-03-22T13:58:40.999Z</time></trkpt><trkpt lat="48.42915792808302" lon="-4.4104247527195115"><ele>61.666666666666664</ele><time>2026-03-22T13:58:42.999Z</time></trkpt><trkpt lat="48.42921610646227" lon="-4.410339592200523"><ele>62.33333333333333</ele><time>2026-03-22T13:58:44.999Z</time></trkpt><trkpt lat="48.429269894256144" lon="-4.410263755481632"><ele>63.0</ele><time>2026-03-22T13:58:46.999Z</time></trkpt><trkpt lat="48.429336790100855" lon="-4.410178951530177"><ele>63.66666666666667</ele><time>2026-03-22T13:58:48.999Z</time></trkpt><trkpt lat="48.42939996549817" lon="-4.410096363115248"><ele>64.33333333333334</ele><time>2026-03-22T13:58:50.999Z</time></trkpt><trkpt lat="48.4294449186073" lon="-4.410008746979579"><ele>65.0</ele><time>2026-03-22T13:58:52.999Z</time></trkpt><trkpt lat="48.42948707982239" lon="-4.409909780162897"><ele>65.0</ele><time>2026-03-22T13:58:54.999Z</time></trkpt><trkpt lat="48.429531213392316" lon="-4.409803829027549"><ele>65.0</ele><time>2026-03-22T13:58:56.999Z</time></trkpt><trkpt lat="48.4295799356096" lon="-4.409706157764531"><ele>65.0</ele><time>2026-03-22T13:58:58.999Z</time></trkpt><trkpt lat="48.429639084192445" lon="-4.409631475769353"><ele>65.0</ele><time>2026-03-22T13:59:00.999Z</time></trkpt><trkpt lat="48.42969502809794" lon="-4.409539779013514"><ele>65.0</ele><time>2026-03-22T13:59:02.999Z</time></trkpt><trkpt lat="48.42974717201868" lon="-4.409462965521365"><ele>65.0</ele><time>2026-03-22T13:59:04.999Z</time></trkpt><trkpt lat="48.429797686572904" lon="-4.4093711756032885"><ele>65.16666666666667</ele><time>2026-03-22T13:59:06.999Z</time></trkpt><trkpt lat="48.42983742899747" lon="-4.409266856977575"><ele>65.33333333333334</ele><time>2026-03-22T13:59:08.999Z</time></trkpt><trkpt lat="48.42989064473172" lon="-4.409170494356335"><ele>65.5</ele><time>2026-03-22T13:59:10.999Z</time></trkpt><trkpt lat="48.42994208818049" lon="-4.409057892420139"><ele>65.66666666666667</ele><time>2026-03-22T13:59:12.999Z</time></trkpt><trkpt lat="48.4299979125647" lon="-4.408954111463986"><ele>65.83333333333333</ele><time>2026-03-22T13:59:14.999Z</time></trkpt><trkpt lat="48.43004242487048" lon="-4.408816386794939"><ele>66.0</ele><time>2026-03-22T13:59:16.999Z</time></trkpt><trkpt lat="48.430113822739386" lon="-4.408743264635066"><ele>66.5</ele><time>2026-03-22T13:59:18.999Z</time></trkpt><trkpt lat="48.43016576100298" lon="-4.408647249800182"><ele>67.0</ele><time>2026-03-22T13:59:20.999Z</time></trkpt><trkpt lat="48.43021531750481" lon="-4.408551604225917"><ele>67.5</ele><time>2026-03-22T13:59:22.999Z</time></trkpt><trkpt lat="48.4302679206412" lon="-4.408443332630492"><ele>68.0</ele><time>2026-03-22T13:59:24.999Z</time></trkpt><trkpt lat="48.43031228733649" lon="-4.408367955212711"><ele>68.5</ele><time>2026-03-22T13:59:26.999Z</time></trkpt><trkpt lat="48.4303711261633" lon="-4.408292730507132"><ele>69.0</ele><time>2026-03-22T13:59:29Z</time></trkpt><trkpt lat="48.430435502122535" lon="-4.40820363975265"><ele>68.60000000000001</ele><time>2026-03-22T13:59:31Z</time></trkpt><trkpt lat="48.43049868361222" lon="-4.40811539346176"><ele>68.2</ele><time>2026-03-22T13:59:33Z</time></trkpt><trkpt lat="48.43055829929571" lon="-4.408020785550057"><ele>67.80000000000001</ele><time>2026-03-22T13:59:35Z</time></trkpt><trkpt lat="48.43062762485282" lon="-4.407900170204791"><ele>67.4</ele><time>2026-03-22T13:59:39Z</time></trkpt><trkpt lat="48.430683258609015" lon="-4.40778361401867"><ele>67.0</ele><time>2026-03-22T13:59:41Z</time></trkpt><trkpt lat="48.43075262047604" lon="-4.407700235203142"><ele>67.66666666666666</ele><time>2026-03-22T13:59:43Z</time></trkpt><trkpt lat="48.430809161259894" lon="-4.4076031077878195"><ele>68.33333333333333</ele><time>2026-03-22T13:59:45Z</time></trkpt><trkpt lat="48.43086154611077" lon="-4.407500521955767"><ele>69.0</ele><time>2026-03-22T13:59:47Z</time></trkpt><trkpt lat="48.43090472127564" lon="-4.407388795324616"><ele>69.66666666666667</ele><time>2026-03-22T13:59:49Z</time></trkpt><trkpt lat="48.43097281771411" lon="-4.40728909184458"><ele>70.33333333333334</ele><time>2026-03-22T13:59:51Z</time></trkpt><trkpt lat="48.43105626931957" lon="-4.407215617458716"><ele>71.0</ele><time>2026-03-22T13:59:53Z</time></trkpt><trkpt lat="48.4311069889589" lon="-4.407109097858918"><ele>71.2</ele><time>2026-03-22T13:59:55Z</time></trkpt><trkpt lat="48.43116000573041" lon="-4.40700605655117"><ele>71.39999999999999</ele><time>2026-03-22T13:59:57Z</time></trkpt><trkpt lat="48.43121779748089" lon="-4.406894561700992"><ele>71.6</ele><time>2026-03-22T13:59:59Z</time></trkpt><trkpt lat="48.43127921914183" lon="-4.406804742133636"><ele>71.8</ele><time>2026-03-22T14:00:01Z</time></trkpt><trkpt lat="48.43133366329924" lon="-4.406682381562053"><ele>72.0</ele><time>2026-03-22T14:00:03Z</time></trkpt><trkpt lat="48.43139711654286" lon="-4.406550528121959"><ele>72.0</ele><time>2026-03-22T14:00:05Z</time></trkpt><trkpt lat="48.431463473449945" lon="-4.4064269751348855"><ele>72.0</ele><time>2026-03-22T14:00:07Z</time></trkpt><trkpt lat="48.43153443028111" lon="-4.406268559309164"><ele>72.0</ele><time>2026-03-22T14:00:09Z</time></trkpt><trkpt lat="48.43158196550836" lon="-4.406184494289574"><ele>72.0</ele><time>2026-03-22T14:00:10Z</time></trkpt><trkpt lat="48.43165487976171" lon="-4.406056647168971"><ele>72.0</ele><time>2026-03-22T14:00:12Z</time></trkpt><trkpt lat="48.431713348252124" lon="-4.405956694344358"><ele>72.0</ele><time>2026-03-22T14:00:14Z</time></trkpt><trkpt lat="48.43178268088632" lon="-4.405837385226503"><ele>72.0</ele><time>2026-03-22T14:00:16Z</time></trkpt><trkpt lat="48.431855630253686" lon="-4.405738926791752"><ele>72.0</ele><time>2026-03-22T14:00:18Z</time></trkpt><trkpt lat="48.43191829970229" lon="-4.405618040959275"><ele>72.0</ele><time>2026-03-22T14:00:20Z</time></trkpt><trkpt lat="48.43197764077323" lon="-4.405501886833375"><ele>72.0</ele><time>2026-03-22T14:00:22Z</time></trkpt><trkpt lat="48.432058682928876" lon="-4.405393774901321"><ele>72.0</ele><time>2026-03-22T14:00:24Z</time></trkpt><trkpt lat="48.43210902557185" lon="-4.405245907778707"><ele>72.0</ele><time>2026-03-22T14:00:26Z</time></trkpt><trkpt lat="48.43217967308512" lon="-4.4051128380199795"><ele>72.0</ele><time>2026-03-22T14:00:28Z</time></trkpt><trkpt lat="48.43225081871125" lon="-4.405000156797846"><ele>72.0</ele><time>2026-03-22T14:00:30Z</time></trkpt><trkpt lat="48.432323721073274" lon="-4.4048932757225225"><ele>72.0</ele><time>2026-03-22T14:00:32Z</time></trkpt><trkpt lat="48.43237607744735" lon="-4.404818068374194"><ele>72.4</ele><time>2026-03-22T14:00:33Z</time></trkpt><trkpt lat="48.43245123142627" lon="-4.4046951116997155"><ele>72.80000000000001</ele><time>2026-03-22T14:00:34.999Z</time></trkpt><trkpt lat="48.43252398263184" lon="-4.404563961319116"><ele>73.2</ele><time>2026-03-22T14:00:36.999Z</time></trkpt><trkpt lat="48.432592789706156" lon="-4.404459659012762"><ele>73.60000000000001</ele><time>2026-03-22T14:00:38.999Z</time></trkpt><trkpt lat="48.432651390424375" lon="-4.4043297016211085"><ele>74.0</ele><time>2026-03-22T14:00:40.999Z</time></trkpt><trkpt lat="48.43271361518084" lon="-4.404225845937453"><ele>74.0</ele><time>2026-03-22T14:00:42.999Z</time></trkpt><trkpt lat="48.43277482887212" lon="-4.40412704342817"><ele>74.0</ele><time>2026-03-22T14:00:44.999Z</time></trkpt><trkpt lat="48.43283593664594" lon="-4.404027386546442"><ele>74.0</ele><time>2026-03-22T14:00:48.999Z</time></trkpt><trkpt lat="48.43288446394185" lon="-4.403932948691255"><ele>74.0</ele><time>2026-03-22T14:00:50.999Z</time></trkpt><trkpt lat="48.4329484995828" lon="-4.4038393061783045"><ele>74.0</ele><time>2026-03-22T14:00:52.999Z</time></trkpt><trkpt lat="48.432987000512824" lon="-4.403754588985774"><ele>74.0</ele><time>2026-03-22T14:00:55.999Z</time></trkpt><trkpt lat="48.43301027450572" lon="-4.403641959016979"><ele>75.2</ele><time>2026-03-22T14:00:57.999Z</time></trkpt><trkpt lat="48.43306747533248" lon="-4.403584310539982"><ele>76.4</ele><time>2026-03-22T14:00:59.999Z</time></trkpt><trkpt lat="48.4331214140754" lon="-4.403450815577959"><ele>77.6</ele><time>2026-03-22T14:01:02.999Z</time></trkpt><trkpt lat="48.43318896715759" lon="-4.403338963490236"><ele>78.8</ele><time>2026-03-22T14:01:04.999Z</time></trkpt><trkpt lat="48.43327160148164" lon="-4.403240058509459"><ele>80.0</ele><time>2026-03-22T14:01:06.999Z</time></trkpt><trkpt lat="48.43335056640993" lon="-4.403170515508846"><ele>80.0</ele><time>2026-03-22T14:01:08.999Z</time></trkpt><trkpt lat="48.433420986908864" lon="-4.403066738337156"><ele>80.0</ele><time>2026-03-22T14:01:10.999Z</time></trkpt><trkpt lat="48.43345667527259" lon="-4.402949689286049"><ele>80.0</ele><time>2026-03-22T14:01:12.999Z</time></trkpt><trkpt lat="48.43352002231863" lon="-4.402844233868763"><ele>80.0</ele><time>2026-03-22T14:01:14.999Z</time></trkpt><trkpt lat="48.43359448095885" lon="-4.402748026070892"><ele>80.0</ele><time>2026-03-22T14:01:16.999Z</time></trkpt><trkpt lat="48.43365929483296" lon="-4.402646395648338"><ele>80.16666666666667</ele><time>2026-03-22T14:01:18.999Z</time></trkpt><trkpt lat="48.43371651221739" lon="-4.402561074953762"><ele>80.33333333333334</ele><time>2026-03-22T14:01:20.999Z</time></trkpt><trkpt lat="48.433775639355915" lon="-4.402457928819108"><ele>80.5</ele><time>2026-03-22T14:01:22.999Z</time></trkpt><trkpt lat="48.433833592077306" lon="-4.402363809493215"><ele>80.66666666666667</ele><time>2026-03-22T14:01:24.999Z</time></trkpt><trkpt lat="48.43388204877151" lon="-4.402265426017739"><ele>80.83333333333333</ele><time>2026-03-22T14:01:26.999Z</time></trkpt><trkpt lat="48.433930647135696" lon="-4.402165425161958"><ele>81.0</ele><time>2026-03-22T14:01:28.999Z</time></trkpt><trkpt lat="48.43398305559824" lon="-4.402063053008075"><ele>81.66666666666667</ele><time>2026-03-22T14:01:30.999Z</time></trkpt><trkpt lat="48.43408111728368" lon="-4.401987577901668"><ele>82.33333333333333</ele><time>2026-03-22T14:01:34Z</time></trkpt><trkpt lat="48.43416968968384" lon="-4.401915706524736"><ele>83.0</ele><time>2026-03-22T14:01:36Z</time></trkpt><trkpt lat="48.434235400608024" lon="-4.401862570811112"><ele>83.66666666666666</ele><time>2026-03-22T14:01:38Z</time></trkpt><trkpt lat="48.43429558541187" lon="-4.401788052084377"><ele>84.33333333333333</ele><time>2026-03-22T14:01:40Z</time></trkpt><trkpt lat="48.43436350556753" lon="-4.401755771212734"><ele>85.0</ele><time>2026-03-22T14:01:42Z</time></trkpt><trkpt lat="48.43442224627387" lon="-4.40166450552538"><ele>85.0</ele><time>2026-03-22T14:01:44Z</time></trkpt><trkpt lat="48.43448168292431" lon="-4.401578797868207"><ele>85.0</ele><time>2026-03-22T14:01:46Z</time></trkpt><trkpt lat="48.43454078678551" lon="-4.401479944602973"><ele>85.0</ele><time>2026-03-22T14:01:48Z</time></trkpt><trkpt lat="48.43461334560224" lon="-4.401431884250382"><ele>85.0</ele><time>2026-03-22T14:01:50Z</time></trkpt><trkpt lat="48.4346694234986" lon="-4.401353948378606"><ele>85.0</ele><time>2026-03-22T14:01:52Z</time></trkpt><trkpt lat="48.43472074945967" lon="-4.40125102463406"><ele>85.0</ele><time>2026-03-22T14:01:54Z</time></trkpt><trkpt lat="48.434779415707084" lon="-4.401131746551183"><ele>86.0</ele><time>2026-03-22T14:01:56Z</time></trkpt><trkpt lat="48.434833342250485" lon="-4.401011216086778"><ele>87.0</ele><time>2026-03-22T14:01:58Z</time></trkpt><trkpt lat="48.43487029478165" lon="-4.400916630597101"><ele>88.0</ele><time>2026-03-22T14:02:00Z</time></trkpt><trkpt lat="48.43489147919512" lon="-4.400794139232881"><ele>89.0</ele><time>2026-03-22T14:02:04Z</time></trkpt><trkpt lat="48.43494000560379" lon="-4.400714340110601"><ele>90.0</ele><time>2026-03-22T14:02:06Z</time></trkpt><trkpt lat="48.434988806805066" lon="-4.400637815747051"><ele>91.0</ele><time>2026-03-22T14:02:08Z</time></trkpt><trkpt lat="48.435042855338" lon="-4.400559350867287"><ele>90.83333333333333</ele><time>2026-03-22T14:02:12Z</time></trkpt><trkpt lat="48.4351041015558" lon="-4.400490030058057"><ele>90.66666666666666</ele><time>2026-03-22T14:02:14Z</time></trkpt><trkpt lat="48.435167277121" lon="-4.400387224633355"><ele>90.5</ele><time>2026-03-22T14:02:16Z</time></trkpt><trkpt lat="48.4352262311614" lon="-4.400312459876804"><ele>90.33333333333333</ele><time>2026-03-22T14:02:18Z</time></trkpt><trkpt lat="48.435258878895766" lon="-4.400206804045413"><ele>90.16666666666667</ele><time>2026-03-22T14:02:20Z</time></trkpt><trkpt lat="48.43531324270482" lon="-4.400106506902355"><ele>90.0</ele><time>2026-03-22T14:02:22Z</time></trkpt><trkpt lat="48.435354266311975" lon="-4.400002377356143"><ele>90.0</ele><time>2026-03-22T14:02:24Z</time></trkpt><trkpt lat="48.43537871997636" lon="-4.399900324000796"><ele>90.0</ele><time>2026-03-22T14:02:26Z</time></trkpt><trkpt lat="48.435414207667584" lon="-4.399760245670913"><ele>90.0</ele><time>2026-03-22T14:02:28Z</time></trkpt><trkpt lat="48.43544700383507" lon="-4.399651480720858"><ele>90.0</ele><time>2026-03-22T14:02:30Z</time></trkpt><trkpt lat="48.43544700702065" lon="-4.399552151534393"><ele>90.0</ele><time>2026-03-22T14:02:57.999Z</time></trkpt><trkpt lat="48.43545687164031" lon="-4.399436770381054"><ele>90.0</ele><time>2026-03-22T14:03:00.999Z</time></trkpt><trkpt lat="48.43547114582937" lon="-4.39928600034234"><ele>90.4</ele><time>2026-03-22T14:03:03.999Z</time></trkpt><trkpt lat="48.435496814404715" lon="-4.3991718421253845"><ele>90.8</ele><time>2026-03-22T14:03:05.999Z</time></trkpt><trkpt lat="48.43550025162234" lon="-4.399028763856218"><ele>91.19999999999999</ele><time>2026-03-22T14:03:07.999Z</time></trkpt><trkpt lat="48.435505938041366" lon="-4.398865596985771"><ele>91.6</ele><time>2026-03-22T14:03:09.999Z</time></trkpt><trkpt lat="48.4355331661521" lon="-4.398719024643767"><ele>92.0</ele><time>2026-03-22T14:03:11.999Z</time></trkpt><trkpt lat="48.43549063956483" lon="-4.3986391889466745"><ele>92.0</ele><time>2026-03-22T14:03:12.999Z</time></trkpt><trkpt lat="48.43549360405761" lon="-4.398459828361067"><ele>92.0</ele><time>2026-03-22T14:03:14.999Z</time></trkpt><trkpt lat="48.435467813970604" lon="-4.398271331043298"><ele>92.0</ele><time>2026-03-22T14:03:16.999Z</time></trkpt><trkpt lat="48.435494031094635" lon="-4.398173153602363"><ele>92.0</ele><time>2026-03-22T14:03:17.999Z</time></trkpt><trkpt lat="48.43551154122347" lon="-4.398063418854556"><ele>92.0</ele><time>2026-03-22T14:03:18.999Z</time></trkpt><trkpt lat="48.43553744723991" lon="-4.397955306279645"><ele>91.66666666666667</ele><time>2026-03-22T14:03:19.999Z</time></trkpt><trkpt lat="48.43551113793171" lon="-4.397827656807055"><ele>91.33333333333334</ele><time>2026-03-22T14:03:20.999Z</time></trkpt><trkpt lat="48.43551277304439" lon="-4.397710612592204"><ele>91.0</ele><time>2026-03-22T14:03:21.999Z</time></trkpt><trkpt lat="48.43552467737439" lon="-4.397594022690032"><ele>90.66666666666667</ele><time>2026-03-22T14:03:22.999Z</time></trkpt><trkpt lat="48.435527173166115" lon="-4.397477273179786"><ele>90.33333333333333</ele><time>2026-03-22T14:03:23.999Z</time></trkpt><trkpt lat="48.43551614896244" lon="-4.39735861427983"><ele>90.0</ele><time>2026-03-22T14:03:24.999Z</time></trkpt><trkpt lat="48.43553075330342" lon="-4.397227767728806"><ele>88.8</ele><time>2026-03-22T14:03:25.999Z</time></trkpt><trkpt lat="48.43552494283568" lon="-4.3970959441249144"><ele>87.6</ele><time>2026-03-22T14:03:26.999Z</time></trkpt><trkpt lat="48.435533629649214" lon="-4.3969503941607355"><ele>86.4</ele><time>2026-03-22T14:03:27.999Z</time></trkpt><trkpt lat="48.43554401288229" lon="-4.396813726700744"><ele>85.2</ele><time>2026-03-22T14:03:28.999Z</time></trkpt><trkpt lat="48.43553238833071" lon="-4.396667322826032"><ele>84.0</ele><time>2026-03-22T14:03:29.999Z</time></trkpt><trkpt lat="48.435535538031736" lon="-4.3965329314013"><ele>84.0</ele><time>2026-03-22T14:03:30.999Z</time></trkpt><trkpt lat="48.43553921550498" lon="-4.396388479742037"><ele>84.0</ele><time>2026-03-22T14:03:31.999Z</time></trkpt><trkpt lat="48.435542907792744" lon="-4.396253526864311"><ele>84.0</ele><time>2026-03-22T14:03:32.999Z</time></trkpt><trkpt lat="48.43554686611333" lon="-4.396108846677482"><ele>84.0</ele><time>2026-03-22T14:03:33.999Z</time></trkpt><trkpt lat="48.43554998683997" lon="-4.395964912536675"><ele>84.0</ele><time>2026-03-22T14:03:34.999Z</time></trkpt><trkpt lat="48.435567694937326" lon="-4.395820499390579"><ele>83.4</ele><time>2026-03-22T14:03:35.999Z</time></trkpt><trkpt lat="48.4355655882937" lon="-4.39566919970297"><ele>82.80000000000001</ele><time>2026-03-22T14:03:36.999Z</time></trkpt><trkpt lat="48.435575739387076" lon="-4.395513985703958"><ele>82.19999999999999</ele><time>2026-03-22T14:03:37.999Z</time></trkpt><trkpt lat="48.4355744417112" lon="-4.395360476911526"><ele>81.6</ele><time>2026-03-22T14:03:38.999Z</time></trkpt><trkpt lat="48.43557653884247" lon="-4.395198421840855"><ele>81.0</ele><time>2026-03-22T14:03:40Z</time></trkpt><trkpt lat="48.43557985858998" lon="-4.39503186007209"><ele>80.5</ele><time>2026-03-22T14:03:41Z</time></trkpt><trkpt lat="48.43557925095056" lon="-4.394860257748579"><ele>80.0</ele><time>2026-03-22T14:03:42Z</time></trkpt><trkpt lat="48.43557561060617" lon="-4.394688179008581"><ele>79.5</ele><time>2026-03-22T14:03:43Z</time></trkpt><trkpt lat="48.435573604113976" lon="-4.394516599920302"><ele>79.0</ele><time>2026-03-22T14:03:44Z</time></trkpt><trkpt lat="48.4355741003702" lon="-4.394341819692075"><ele>78.5</ele><time>2026-03-22T14:03:45Z</time></trkpt><trkpt lat="48.43559077198411" lon="-4.394166421117876"><ele>78.0</ele><time>2026-03-22T14:03:46Z</time></trkpt><trkpt lat="48.435601227952624" lon="-4.39398879170011"><ele>77.5</ele><time>2026-03-22T14:03:47Z</time></trkpt><trkpt lat="48.43561316066294" lon="-4.393813894260051"><ele>77.0</ele><time>2026-03-22T14:03:48Z</time></trkpt><trkpt lat="48.43560499418207" lon="-4.393640061030605"><ele>76.2</ele><time>2026-03-22T14:03:49Z</time></trkpt><trkpt lat="48.43560927765275" lon="-4.393463906546433"><ele>75.4</ele><time>2026-03-22T14:03:50Z</time></trkpt><trkpt lat="48.43561320799588" lon="-4.393298008626184"><ele>74.6</ele><time>2026-03-22T14:03:51Z</time></trkpt><trkpt lat="48.43561662326764" lon="-4.3931391705335745"><ele>73.8</ele><time>2026-03-22T14:03:52Z</time></trkpt><trkpt lat="48.435619858326575" lon="-4.392988714824778"><ele>73.0</ele><time>2026-03-22T14:03:53Z</time></trkpt><trkpt lat="48.435623305735426" lon="-4.392828382106585"><ele>73.0</ele><time>2026-03-22T14:03:54Z</time></trkpt><trkpt lat="48.435638442315714" lon="-4.392674736307962"><ele>73.0</ele><time>2026-03-22T14:03:55Z</time></trkpt><trkpt lat="48.43564649125039" lon="-4.39253986888334"><ele>73.0</ele><time>2026-03-22T14:03:56Z</time></trkpt><trkpt lat="48.435660695868656" lon="-4.392395070264086"><ele>73.0</ele><time>2026-03-22T14:03:57Z</time></trkpt><trkpt lat="48.43566480459395" lon="-4.3922618093139665"><ele>73.0</ele><time>2026-03-22T14:03:58Z</time></trkpt><trkpt lat="48.43566443844128" lon="-4.3921232516410535"><ele>73.33333333333333</ele><time>2026-03-22T14:03:59Z</time></trkpt><trkpt lat="48.435680395900185" lon="-4.391996558805198"><ele>73.66666666666666</ele><time>2026-03-22T14:04:00Z</time></trkpt><trkpt lat="48.43568171025278" lon="-4.391871404851892"><ele>74.0</ele><time>2026-03-22T14:04:01Z</time></trkpt><trkpt lat="48.43567603823227" lon="-4.391743862088758"><ele>74.33333333333333</ele><time>2026-03-22T14:04:02Z</time></trkpt><trkpt lat="48.435682315320996" lon="-4.391624789150013"><ele>74.66666666666667</ele><time>2026-03-22T14:04:03Z</time></trkpt><trkpt lat="48.4356830668739" lon="-4.3915090870329445"><ele>75.0</ele><time>2026-03-22T14:04:04Z</time></trkpt><trkpt lat="48.43566976331451" lon="-4.391391589622504"><ele>75.16666666666667</ele><time>2026-03-22T14:04:05Z</time></trkpt><trkpt lat="48.43566976331866" lon="-4.391270497484251"><ele>75.33333333333333</ele><time>2026-03-22T14:04:06Z</time></trkpt><trkpt lat="48.43566976331814" lon="-4.391165411376179"><ele>75.5</ele><time>2026-03-22T14:04:07Z</time></trkpt><trkpt lat="48.43566816266372" lon="-4.391043566727077"><ele>75.66666666666666</ele><time>2026-03-22T14:04:08Z</time></trkpt><trkpt lat="48.43566837318677" lon="-4.390935688546751"><ele>75.83333333333333</ele><time>2026-03-22T14:04:09Z</time></trkpt><trkpt lat="48.43566897014988" lon="-4.3908191458646435"><ele>76.0</ele><time>2026-03-22T14:04:10Z</time></trkpt><trkpt lat="48.43567214466018" lon="-4.3906997569116095"><ele>76.0</ele><time>2026-03-22T14:04:11Z</time></trkpt><trkpt lat="48.43567482716157" lon="-4.390585386419811"><ele>76.0</ele><time>2026-03-22T14:04:12Z</time></trkpt><trkpt lat="48.43567732388945" lon="-4.390478936411617"><ele>76.0</ele><time>2026-03-22T14:04:13Z</time></trkpt><trkpt lat="48.43567989754792" lon="-4.390369206599312"><ele>76.0</ele><time>2026-03-22T14:04:14Z</time></trkpt><trkpt lat="48.435698869155615" lon="-4.3902557647957305"><ele>76.0</ele><time>2026-03-22T14:04:15Z</time></trkpt><trkpt lat="48.43568484644521" lon="-4.390158204552953"><ele>76.0</ele><time>2026-03-22T14:04:16Z</time></trkpt><trkpt lat="48.43570240342819" lon="-4.390051023309712"><ele>76.0</ele><time>2026-03-22T14:04:17Z</time></trkpt><trkpt lat="48.43569004376618" lon="-4.389947702379135"><ele>76.16666666666666</ele><time>2026-03-22T14:04:18Z</time></trkpt><trkpt lat="48.43569467203432" lon="-4.389758826880034"><ele>76.33333333333333</ele><time>2026-03-22T14:04:20Z</time></trkpt><trkpt lat="48.43569721863645" lon="-4.389654902253874"><ele>76.5</ele><time>2026-03-22T14:04:21Z</time></trkpt><trkpt lat="48.43569966996157" lon="-4.38955486601465"><ele>76.66666666666667</ele><time>2026-03-22T14:04:22Z</time></trkpt><trkpt lat="48.43570400012102" lon="-4.389378156169368"><ele>76.83333333333334</ele><time>2026-03-22T14:04:24Z</time></trkpt><trkpt lat="48.435706396631325" lon="-4.389280356845954"><ele>77.0</ele><time>2026-03-22T14:04:25Z</time></trkpt><trkpt lat="48.435708794731596" lon="-4.389182492487407"><ele>77.0</ele><time>2026-03-22T14:04:26Z</time></trkpt><trkpt lat="48.435711134509326" lon="-4.389087008122893"><ele>77.0</ele><time>2026-03-22T14:04:27Z</time></trkpt><trkpt lat="48.43571571446075" lon="-4.3889001046089495"><ele>77.0</ele><time>2026-03-22T14:04:29Z</time></trkpt><trkpt lat="48.435720021575676" lon="-4.388724327990734"><ele>77.0</ele><time>2026-03-22T14:04:31Z</time></trkpt><trkpt lat="48.435759343588934" lon="-4.3885441735225195"><ele>77.0</ele><time>2026-03-22T14:04:33Z</time></trkpt><trkpt lat="48.435769834762745" lon="-4.388362131429185"><ele>77.0</ele><time>2026-03-22T14:04:35Z</time></trkpt><trkpt lat="48.435800305520196" lon="-4.3881942491115895"><ele>77.0</ele><time>2026-03-22T14:04:37Z</time></trkpt><trkpt lat="48.43579616634528" lon="-4.38801709649464"><ele>77.0</ele><time>2026-03-22T14:04:39Z</time></trkpt><trkpt lat="48.43574237809703" lon="-4.387839241092802"><ele>77.0</ele><time>2026-03-22T14:04:41Z</time></trkpt><trkpt lat="48.43574729936703" lon="-4.387744080351793"><ele>77.0</ele><time>2026-03-22T14:04:42Z</time></trkpt><trkpt lat="48.43575153084963" lon="-4.387558763032671"><ele>77.0</ele><time>2026-03-22T14:04:44Z</time></trkpt><trkpt lat="48.43575426538968" lon="-4.387384538315139"><ele>77.0</ele><time>2026-03-22T14:04:46Z</time></trkpt><trkpt lat="48.43575703291406" lon="-4.387208212536715"><ele>77.0</ele><time>2026-03-22T14:04:47.999Z</time></trkpt><trkpt lat="48.435758541897776" lon="-4.387112073842425"><ele>77.0</ele><time>2026-03-22T14:04:48.999Z</time></trkpt><trkpt lat="48.43577866618196" lon="-4.386936187371094"><ele>77.0</ele><time>2026-03-22T14:04:50.999Z</time></trkpt><trkpt lat="48.43577793301378" lon="-4.386751457154203"><ele>76.85714285714286</ele><time>2026-03-22T14:04:52.999Z</time></trkpt><trkpt lat="48.435776435648485" lon="-4.386654077312106"><ele>76.71428571428572</ele><time>2026-03-22T14:04:53.999Z</time></trkpt><trkpt lat="48.435778427834364" lon="-4.386558150448954"><ele>76.57142857142857</ele><time>2026-03-22T14:04:54.999Z</time></trkpt><trkpt lat="48.43577728997874" lon="-4.3864558342756865"><ele>76.42857142857143</ele><time>2026-03-22T14:04:55.999Z</time></trkpt><trkpt lat="48.435765241894124" lon="-4.386349978259649"><ele>76.28571428571429</ele><time>2026-03-22T14:04:56.999Z</time></trkpt><trkpt lat="48.435767682865524" lon="-4.386245430410136"><ele>76.14285714285714</ele><time>2026-03-22T14:04:57.999Z</time></trkpt><trkpt lat="48.43576728796977" lon="-4.386137545420446"><ele>76.0</ele><time>2026-03-22T14:04:58.999Z</time></trkpt><trkpt lat="48.43576491497478" lon="-4.386022604012611"><ele>75.5</ele><time>2026-03-22T14:04:59.999Z</time></trkpt><trkpt lat="48.43577042863321" lon="-4.385905832705019"><ele>75.0</ele><time>2026-03-22T14:05:00.999Z</time></trkpt><trkpt lat="48.435785943765005" lon="-4.385790106140757"><ele>74.5</ele><time>2026-03-22T14:05:01.999Z</time></trkpt><trkpt lat="48.43578776264761" lon="-4.385669357793449"><ele>74.0</ele><time>2026-03-22T14:05:02.999Z</time></trkpt><trkpt lat="48.43579814336225" lon="-4.385551801658849"><ele>73.5</ele><time>2026-03-22T14:05:03.999Z</time></trkpt><trkpt lat="48.43580269442276" lon="-4.385444655482979"><ele>73.0</ele><time>2026-03-22T14:05:04.999Z</time></trkpt><trkpt lat="48.43580124862882" lon="-4.385330696015541"><ele>72.5</ele><time>2026-03-22T14:05:05.999Z</time></trkpt><trkpt lat="48.43580557887355" lon="-4.385206595272521"><ele>72.0</ele><time>2026-03-22T14:05:06.999Z</time></trkpt><trkpt lat="48.435815665897195" lon="-4.385084883552438"><ele>71.5</ele><time>2026-03-22T14:05:07.999Z</time></trkpt><trkpt lat="48.435819262165985" lon="-4.384963001650991"><ele>71.0</ele><time>2026-03-22T14:05:08.999Z</time></trkpt><trkpt lat="48.4358111681197" lon="-4.384832040163097"><ele>70.5</ele><time>2026-03-22T14:05:09.999Z</time></trkpt><trkpt lat="48.435824244686124" lon="-4.384699771909925"><ele>70.0</ele><time>2026-03-22T14:05:10.999Z</time></trkpt><trkpt lat="48.43581756713677" lon="-4.384560645452084"><ele>69.8</ele><time>2026-03-22T14:05:11.999Z</time></trkpt><trkpt lat="48.435825402791984" lon="-4.3844268374811435"><ele>69.6</ele><time>2026-03-22T14:05:12.999Z</time></trkpt><trkpt lat="48.43582733079693" lon="-4.384287487533757"><ele>69.4</ele><time>2026-03-22T14:05:13.999Z</time></trkpt><trkpt lat="48.43582551756939" lon="-4.3841508880953866"><ele>69.2</ele><time>2026-03-22T14:05:14.999Z</time></trkpt><trkpt lat="48.43584471990502" lon="-4.384018282805075"><ele>69.0</ele><time>2026-03-22T14:05:15.999Z</time></trkpt><trkpt lat="48.435836989208376" lon="-4.383886141346211"><ele>68.5</ele><time>2026-03-22T14:05:16.999Z</time></trkpt><trkpt lat="48.43583355834564" lon="-4.383766173209786"><ele>68.0</ele><time>2026-03-22T14:05:17.999Z</time></trkpt><trkpt lat="48.43583324305795" lon="-4.38364269713393"><ele>67.5</ele><time>2026-03-22T14:05:18.999Z</time></trkpt><trkpt lat="48.435813019804506" lon="-4.383533870534547"><ele>67.0</ele><time>2026-03-22T14:05:19.999Z</time></trkpt><trkpt lat="48.43575630411874" lon="-4.383351356433283"><ele>66.5</ele><time>2026-03-22T14:05:21.999Z</time></trkpt><trkpt lat="48.43569406086668" lon="-4.383281606345351"><ele>66.0</ele><time>2026-03-22T14:05:22.999Z</time></trkpt><trkpt lat="48.43564178262916" lon="-4.3832021743521645"><ele>66.0</ele><time>2026-03-22T14:05:23.999Z</time></trkpt><trkpt lat="48.43560715007539" lon="-4.383101742818541"><ele>66.0</ele><time>2026-03-22T14:05:24.999Z</time></trkpt><trkpt lat="48.43564425965245" lon="-4.382974726528098"><ele>66.0</ele><time>2026-03-22T14:05:25.999Z</time></trkpt><trkpt lat="48.43566781458103" lon="-4.3828713995660875"><ele>66.0</ele><time>2026-03-22T14:05:26.999Z</time></trkpt><trkpt lat="48.435714348401504" lon="-4.382766426745082"><ele>66.0</ele><time>2026-03-22T14:05:27.999Z</time></trkpt><trkpt lat="48.43580794247518" lon="-4.382750445575112"><ele>66.0</ele><time>2026-03-22T14:05:28.999Z</time></trkpt><trkpt lat="48.43585134164706" lon="-4.3825917203003755"><ele>65.6</ele><time>2026-03-22T14:05:29.999Z</time></trkpt><trkpt lat="48.435909123535346" lon="-4.382473577645837"><ele>65.19999999999999</ele><time>2026-03-22T14:05:30.999Z</time></trkpt><trkpt lat="48.43589975621683" lon="-4.382288111702165"><ele>64.80000000000001</ele><time>2026-03-22T14:05:31.999Z</time></trkpt><trkpt lat="48.43590530503759" lon="-4.382140299493665"><ele>64.4</ele><time>2026-03-22T14:05:32.999Z</time></trkpt><trkpt lat="48.43591019885776" lon="-4.382004685269501"><ele>64.0</ele><time>2026-03-22T14:05:33.999Z</time></trkpt><trkpt lat="48.43590724347125" lon="-4.381858311858926"><ele>63.2</ele><time>2026-03-22T14:05:34.999Z</time></trkpt><trkpt lat="48.435905105417945" lon="-4.381700157869719"><ele>62.400000000000006</ele><time>2026-03-22T14:05:35.999Z</time></trkpt><trkpt lat="48.43591226433127" lon="-4.3815485889495935"><ele>61.6</ele><time>2026-03-22T14:05:36.999Z</time></trkpt><trkpt lat="48.435903201338384" lon="-4.381390886771783"><ele>60.8</ele><time>2026-03-22T14:05:37.999Z</time></trkpt><trkpt lat="48.435906549277526" lon="-4.381234889945111"><ele>60.0</ele><time>2026-03-22T14:05:38.999Z</time></trkpt><trkpt lat="48.43591016408525" lon="-4.381066458557994"><ele>58.25</ele><time>2026-03-22T14:05:39.999Z</time></trkpt><trkpt lat="48.43591364123538" lon="-4.380889374162149"><ele>56.5</ele><time>2026-03-22T14:05:40.999Z</time></trkpt><trkpt lat="48.435917702502955" lon="-4.380715207127375"><ele>54.75</ele><time>2026-03-22T14:05:41.999Z</time></trkpt><trkpt lat="48.43592192005185" lon="-4.380538788296344"><ele>53.0</ele><time>2026-03-22T14:05:42.999Z</time></trkpt><trkpt lat="48.43592628427352" lon="-4.380358236975526"><ele>52.0</ele><time>2026-03-22T14:05:43.999Z</time></trkpt><trkpt lat="48.435930654772704" lon="-4.3801774258078945"><ele>51.0</ele><time>2026-03-22T14:05:44.999Z</time></trkpt><trkpt lat="48.4359349409571" lon="-4.380000102642414"><ele>50.0</ele><time>2026-03-22T14:05:46Z</time></trkpt><trkpt lat="48.43593961998073" lon="-4.379821512810174"><ele>49.0</ele><time>2026-03-22T14:05:47Z</time></trkpt><trkpt lat="48.43594464836122" lon="-4.379633607440501"><ele>49.0</ele><time>2026-03-22T14:05:48Z</time></trkpt><trkpt lat="48.43594954670422" lon="-4.379450561121127"><ele>49.0</ele><time>2026-03-22T14:05:49Z</time></trkpt><trkpt lat="48.43595468772938" lon="-4.37925844696158"><ele>49.0</ele><time>2026-03-22T14:05:50Z</time></trkpt><trkpt lat="48.43595912556198" lon="-4.3790721064700655"><ele>49.0</ele><time>2026-03-22T14:05:51Z</time></trkpt><trkpt lat="48.43596196442147" lon="-4.378890867606624"><ele>48.75</ele><time>2026-03-22T14:05:52Z</time></trkpt><trkpt lat="48.43597047831877" lon="-4.3786971353252975"><ele>48.5</ele><time>2026-03-22T14:05:53Z</time></trkpt><trkpt lat="48.43597176164229" lon="-4.378509744535588"><ele>48.25</ele><time>2026-03-22T14:05:54Z</time></trkpt><trkpt lat="48.435950473472424" lon="-4.378322104380397"><ele>48.0</ele><time>2026-03-22T14:05:55Z</time></trkpt><trkpt lat="48.43593942856011" lon="-4.378140456355344"><ele>47.0</ele><time>2026-03-22T14:05:56Z</time></trkpt><trkpt lat="48.43592587051882" lon="-4.3779508032440635"><ele>46.0</ele><time>2026-03-22T14:05:57Z</time></trkpt><trkpt lat="48.435912207272956" lon="-4.377764072119345"><ele>45.0</ele><time>2026-03-22T14:05:58Z</time></trkpt><trkpt lat="48.43590872154412" lon="-4.377586884139419"><ele>44.0</ele><time>2026-03-22T14:05:59Z</time></trkpt><trkpt lat="48.43588314123782" lon="-4.377389548300388"><ele>44.0</ele><time>2026-03-22T14:06:00Z</time></trkpt><trkpt lat="48.435867825643044" lon="-4.377202081495688"><ele>44.0</ele><time>2026-03-22T14:06:01Z</time></trkpt><trkpt lat="48.43585213611253" lon="-4.377012816660246"><ele>44.0</ele><time>2026-03-22T14:06:02Z</time></trkpt><trkpt lat="48.435836078282044" lon="-4.376830539818084"><ele>44.0</ele><time>2026-03-22T14:06:03Z</time></trkpt><trkpt lat="48.435835191654384" lon="-4.376651664386044"><ele>43.6</ele><time>2026-03-22T14:06:04Z</time></trkpt><trkpt lat="48.435819714009035" lon="-4.376501431745139"><ele>43.2</ele><time>2026-03-22T14:06:05Z</time></trkpt><trkpt lat="48.43579462543348" lon="-4.37636502670657"><ele>42.800000000000004</ele><time>2026-03-22T14:06:06Z</time></trkpt><trkpt lat="48.43578917405711" lon="-4.3762195867568945"><ele>42.400000000000006</ele><time>2026-03-22T14:06:07Z</time></trkpt><trkpt lat="48.4357759488711" lon="-4.37609914227905"><ele>42.0</ele><time>2026-03-22T14:06:08Z</time></trkpt><trkpt lat="48.43576193671878" lon="-4.375969774661555"><ele>42.0</ele><time>2026-03-22T14:06:09Z</time></trkpt><trkpt lat="48.43575435129762" lon="-4.375853322839247"><ele>42.0</ele><time>2026-03-22T14:06:10Z</time></trkpt><trkpt lat="48.43573807361921" lon="-4.375735871039136"><ele>42.0</ele><time>2026-03-22T14:06:11Z</time></trkpt><trkpt lat="48.435717995515894" lon="-4.3756362943313425"><ele>42.0</ele><time>2026-03-22T14:06:12Z</time></trkpt><trkpt lat="48.43571119073103" lon="-4.375533565366469"><ele>42.0</ele><time>2026-03-22T14:06:13Z</time></trkpt><trkpt lat="48.43570551957012" lon="-4.375434358365302"><ele>42.0</ele><time>2026-03-22T14:06:14Z</time></trkpt><trkpt lat="48.43569852073361" lon="-4.375241427552418"><ele>42.8</ele><time>2026-03-22T14:06:16Z</time></trkpt><trkpt lat="48.43568151272604" lon="-4.375062530731611"><ele>43.6</ele><time>2026-03-22T14:06:18Z</time></trkpt><trkpt lat="48.43567256444814" lon="-4.3748865449875485"><ele>44.4</ele><time>2026-03-22T14:06:20Z</time></trkpt><trkpt lat="48.43566063171121" lon="-4.374738973148081"><ele>45.199999999999996</ele><time>2026-03-22T14:06:22Z</time></trkpt><trkpt lat="48.43562908441709" lon="-4.374591364835927"><ele>46.0</ele><time>2026-03-22T14:06:24Z</time></trkpt><trkpt lat="48.43561167864522" lon="-4.37419004451927"><ele>46.8</ele><time>2026-03-22T14:06:32Z</time></trkpt><trkpt lat="48.43559761529419" lon="-4.37409661399085"><ele>47.599999999999994</ele><time>2026-03-22T14:06:34Z</time></trkpt><trkpt lat="48.43558789381418" lon="-4.373979975592427"><ele>48.4</ele><time>2026-03-22T14:06:37Z</time></trkpt><trkpt lat="48.43557168479573" lon="-4.373785499555848"><ele>49.2</ele><time>2026-03-22T14:06:40Z</time></trkpt><trkpt lat="48.43555673648216" lon="-4.373606149619135"><ele>50.0</ele><time>2026-03-22T14:06:42Z</time></trkpt><trkpt lat="48.43556004127128" lon="-4.373452726121534"><ele>51.0</ele><time>2026-03-22T14:06:44Z</time></trkpt><trkpt lat="48.435536973214845" lon="-4.373314543776966"><ele>52.0</ele><time>2026-03-22T14:06:46Z</time></trkpt><trkpt lat="48.43552346677648" lon="-4.3731614419881515"><ele>53.0</ele><time>2026-03-22T14:06:48Z</time></trkpt><trkpt lat="48.43551379794073" lon="-4.373012768386179"><ele>54.0</ele><time>2026-03-22T14:06:50Z</time></trkpt><trkpt lat="48.43550784064518" lon="-4.372879413748294"><ele>55.0</ele><time>2026-03-22T14:06:52Z</time></trkpt><trkpt lat="48.435484902303315" lon="-4.3727529466623025"><ele>55.33333333333333</ele><time>2026-03-22T14:06:54Z</time></trkpt><trkpt lat="48.43546859837414" lon="-4.372632958758275"><ele>55.666666666666664</ele><time>2026-03-22T14:06:56Z</time></trkpt><trkpt lat="48.4354611369615" lon="-4.37251309452854"><ele>56.0</ele><time>2026-03-22T14:06:57.999Z</time></trkpt><trkpt lat="48.43544866089735" lon="-4.37239965078012"><ele>56.33333333333333</ele><time>2026-03-22T14:06:59.999Z</time></trkpt><trkpt lat="48.4354413132677" lon="-4.372272924498357"><ele>56.666666666666664</ele><time>2026-03-22T14:07:01.999Z</time></trkpt><trkpt lat="48.435427571609935" lon="-4.372144755952269"><ele>57.0</ele><time>2026-03-22T14:07:03.999Z</time></trkpt><trkpt lat="48.43541342524886" lon="-4.371995591311561"><ele>57.333333333333336</ele><time>2026-03-22T14:07:06.999Z</time></trkpt><trkpt lat="48.435392682025146" lon="-4.371849969075232"><ele>57.66666666666667</ele><time>2026-03-22T14:07:08.999Z</time></trkpt><trkpt lat="48.4353974151848" lon="-4.371739539468647"><ele>58.0</ele><time>2026-03-22T14:07:10.999Z</time></trkpt><trkpt lat="48.43537024589095" lon="-4.371601032726163"><ele>58.333333333333336</ele><time>2026-03-22T14:07:12.999Z</time></trkpt><trkpt lat="48.43538312864003" lon="-4.371481340924586"><ele>58.66666666666667</ele><time>2026-03-22T14:07:14.999Z</time></trkpt><trkpt lat="48.435368756188296" lon="-4.371364923933237"><ele>59.0</ele><time>2026-03-22T14:07:16.999Z</time></trkpt><trkpt lat="48.43535141203358" lon="-4.37124060168025"><ele>58.833333333333336</ele><time>2026-03-22T14:07:18.999Z</time></trkpt><trkpt lat="48.43533522541927" lon="-4.371121477470613"><ele>58.66666666666667</ele><time>2026-03-22T14:07:20.999Z</time></trkpt><trkpt lat="48.43532414289388" lon="-4.371009906795261"><ele>58.5</ele><time>2026-03-22T14:07:22.999Z</time></trkpt><trkpt lat="48.43531542678413" lon="-4.370882975229953"><ele>58.33333333333333</ele><time>2026-03-22T14:07:24.999Z</time></trkpt><trkpt lat="48.435303189322404" lon="-4.370758681996189"><ele>58.166666666666664</ele><time>2026-03-22T14:07:26.999Z</time></trkpt><trkpt lat="48.43529831050537" lon="-4.37063537143562"><ele>58.0</ele><time>2026-03-22T14:07:28.999Z</time></trkpt><trkpt lat="48.435306598875094" lon="-4.370506163765664"><ele>57.99999999999999</ele><time>2026-03-22T14:07:30.999Z</time></trkpt><trkpt lat="48.43529588263221" lon="-4.370396920635299"><ele>58.0</ele><time>2026-03-22T14:07:32.999Z</time></trkpt><trkpt lat="48.435274655118455" lon="-4.370271646906318"><ele>58.0</ele><time>2026-03-22T14:07:35.999Z</time></trkpt><trkpt lat="48.43529197637426" lon="-4.37014769519589"><ele>58.0</ele><time>2026-03-22T14:07:39.999Z</time></trkpt><trkpt lat="48.4352578759297" lon="-4.370034253060963"><ele>57.99999999999999</ele><time>2026-03-22T14:07:41.999Z</time></trkpt><trkpt lat="48.43525659507746" lon="-4.369934530384837"><ele>58.0</ele><time>2026-03-22T14:07:43.999Z</time></trkpt><trkpt lat="48.435237127133284" lon="-4.36979645777361"><ele>57.99999999999999</ele><time>2026-03-22T14:07:47.999Z</time></trkpt><trkpt lat="48.43522943432394" lon="-4.369690478487933"><ele>58.0</ele><time>2026-03-22T14:07:49.999Z</time></trkpt><trkpt lat="48.435198870237855" lon="-4.369522658313316"><ele>58.0</ele><time>2026-03-22T14:07:54Z</time></trkpt><trkpt lat="48.43517565514522" lon="-4.3694275116830585"><ele>58.0</ele><time>2026-03-22T14:07:56Z</time></trkpt><trkpt lat="48.43517507868252" lon="-4.369320065494267"><ele>57.99999999999999</ele><time>2026-03-22T14:07:58Z</time></trkpt><trkpt lat="48.43515744207591" lon="-4.3691636783853225"><ele>58.0</ele><time>2026-03-22T14:08:00Z</time></trkpt><trkpt lat="48.435129746650716" lon="-4.369013029975365"><ele>57.99999999999999</ele><time>2026-03-22T14:08:03Z</time></trkpt><trkpt lat="48.43510093993923" lon="-4.368877055492825"><ele>58.0</ele><time>2026-03-22T14:08:05Z</time></trkpt><trkpt lat="48.435085076713214" lon="-4.36878218025954"><ele>58.0</ele><time>2026-03-22T14:08:06Z</time></trkpt><trkpt lat="48.435078680015685" lon="-4.368674838399644"><ele>58.0</ele><time>2026-03-22T14:08:07Z</time></trkpt><trkpt lat="48.43506979716905" lon="-4.368567146102772"><ele>57.99999999999999</ele><time>2026-03-22T14:08:08Z</time></trkpt><trkpt lat="48.43504736128762" lon="-4.368389130390977"><ele>58.0</ele><time>2026-03-22T14:08:10Z</time></trkpt><trkpt lat="48.43504522714156" lon="-4.368236030139609"><ele>58.8</ele><time>2026-03-22T14:08:12Z</time></trkpt><trkpt lat="48.4350447397055" lon="-4.36809101506997"><ele>59.599999999999994</ele><time>2026-03-22T14:08:14Z</time></trkpt><trkpt lat="48.43505111262626" lon="-4.367941967515688"><ele>60.400000000000006</ele><time>2026-03-22T14:08:16Z</time></trkpt><trkpt lat="48.435044010944445" lon="-4.367801985690769"><ele>61.2</ele><time>2026-03-22T14:08:18Z</time></trkpt><trkpt lat="48.43504480702001" lon="-4.36767368622519"><ele>62.0</ele><time>2026-03-22T14:08:20Z</time></trkpt><trkpt lat="48.43504844972875" lon="-4.367557999967743"><ele>63.16666666666667</ele><time>2026-03-22T14:08:22Z</time></trkpt><trkpt lat="48.43502662052745" lon="-4.367434352229465"><ele>64.33333333333334</ele><time>2026-03-22T14:08:24Z</time></trkpt><trkpt lat="48.43503476112044" lon="-4.367319309196894"><ele>65.5</ele><time>2026-03-22T14:08:26Z</time></trkpt><trkpt lat="48.43502942605431" lon="-4.367201816690001"><ele>66.66666666666667</ele><time>2026-03-22T14:08:28Z</time></trkpt><trkpt lat="48.43500599369611" lon="-4.3670773596835595"><ele>67.83333333333333</ele><time>2026-03-22T14:08:30Z</time></trkpt><trkpt lat="48.43499529368036" lon="-4.3669545029266175"><ele>69.0</ele><time>2026-03-22T14:08:32Z</time></trkpt><trkpt lat="48.43498543752931" lon="-4.366838232696175"><ele>69.85714285714286</ele><time>2026-03-22T14:08:34Z</time></trkpt><trkpt lat="48.43498349337037" lon="-4.36672609461234"><ele>70.71428571428572</ele><time>2026-03-22T14:08:36Z</time></trkpt><trkpt lat="48.43496444189195" lon="-4.36661273080443"><ele>71.57142857142857</ele><time>2026-03-22T14:08:38Z</time></trkpt><trkpt lat="48.43495526572106" lon="-4.3665010677288105"><ele>72.42857142857143</ele><time>2026-03-22T14:08:40Z</time></trkpt><trkpt lat="48.434948802590924" lon="-4.3663954461781005"><ele>73.28571428571428</ele><time>2026-03-22T14:08:42Z</time></trkpt><trkpt lat="48.434935794815914" lon="-4.366287602222557"><ele>74.14285714285714</ele><time>2026-03-22T14:08:44Z</time></trkpt><trkpt lat="48.434923614700935" lon="-4.366177700141008"><ele>75.0</ele><time>2026-03-22T14:08:46Z</time></trkpt><trkpt lat="48.434914108889956" lon="-4.366052033626555"><ele>75.42857142857142</ele><time>2026-03-22T14:08:48Z</time></trkpt><trkpt lat="48.43490101377075" lon="-4.365939657036513"><ele>75.85714285714286</ele><time>2026-03-22T14:08:50Z</time></trkpt><trkpt lat="48.43488394803282" lon="-4.365825162069632"><ele>76.28571428571428</ele><time>2026-03-22T14:08:52Z</time></trkpt><trkpt lat="48.434883360172044" lon="-4.365720718378899"><ele>76.71428571428571</ele><time>2026-03-22T14:08:54Z</time></trkpt><trkpt lat="48.43487390790744" lon="-4.3656208509605126"><ele>77.14285714285714</ele><time>2026-03-22T14:08:56Z</time></trkpt><trkpt lat="48.43485560820123" lon="-4.365511742448459"><ele>77.57142857142857</ele><time>2026-03-22T14:08:58Z</time></trkpt><trkpt lat="48.434850923284316" lon="-4.365399241194113"><ele>78.0</ele><time>2026-03-22T14:09:00Z</time></trkpt><trkpt lat="48.434838725725804" lon="-4.365279644877344"><ele>78.33333333333333</ele><time>2026-03-22T14:09:01.999Z</time></trkpt><trkpt lat="48.434832693393886" lon="-4.365158594574768"><ele>78.66666666666667</ele><time>2026-03-22T14:09:03.999Z</time></trkpt><trkpt lat="48.434825863521276" lon="-4.365037111958323"><ele>79.0</ele><time>2026-03-22T14:09:05.999Z</time></trkpt><trkpt lat="48.434811405971665" lon="-4.3649192285181995"><ele>79.33333333333334</ele><time>2026-03-22T14:09:07.999Z</time></trkpt><trkpt lat="48.43480648333243" lon="-4.364808173089571"><ele>79.66666666666667</ele><time>2026-03-22T14:09:09.999Z</time></trkpt><trkpt lat="48.43479875958856" lon="-4.364694964788162"><ele>80.0</ele><time>2026-03-22T14:09:11.999Z</time></trkpt><trkpt lat="48.43478950386566" lon="-4.364579630670531"><ele>80.16666666666667</ele><time>2026-03-22T14:09:13.999Z</time></trkpt><trkpt lat="48.434785192007354" lon="-4.364465700895524"><ele>80.33333333333334</ele><time>2026-03-22T14:09:15.999Z</time></trkpt><trkpt lat="48.434768667072845" lon="-4.3643501627338175"><ele>80.5</ele><time>2026-03-22T14:09:17.999Z</time></trkpt><trkpt lat="48.434763825003714" lon="-4.364235786042013"><ele>80.66666666666667</ele><time>2026-03-22T14:09:19.999Z</time></trkpt><trkpt lat="48.43476225390612" lon="-4.36411307051684"><ele>80.83333333333333</ele><time>2026-03-22T14:09:21.999Z</time></trkpt><trkpt lat="48.43475651371468" lon="-4.363996157817159"><ele>81.0</ele><time>2026-03-22T14:09:23.999Z</time></trkpt><trkpt lat="48.43474313444556" lon="-4.363883686021359"><ele>81.16666666666667</ele><time>2026-03-22T14:09:25.999Z</time></trkpt><trkpt lat="48.43473316679202" lon="-4.36375896492445"><ele>81.33333333333333</ele><time>2026-03-22T14:09:27.999Z</time></trkpt><trkpt lat="48.434720551791926" lon="-4.363643460687626"><ele>81.5</ele><time>2026-03-22T14:09:29.999Z</time></trkpt><trkpt lat="48.43470757518572" lon="-4.3635356582820375"><ele>81.66666666666666</ele><time>2026-03-22T14:09:31.999Z</time></trkpt><trkpt lat="48.4347023423534" lon="-4.363402636939097"><ele>81.83333333333333</ele><time>2026-03-22T14:09:33.999Z</time></trkpt><trkpt lat="48.43469773058175" lon="-4.363281053672098"><ele>82.0</ele><time>2026-03-22T14:09:35.999Z</time></trkpt><trkpt lat="48.434688359173705" lon="-4.363095049576358"><ele>81.8</ele><time>2026-03-22T14:09:40.999Z</time></trkpt><trkpt lat="48.434684575217226" lon="-4.3629805499023435"><ele>81.6</ele><time>2026-03-22T14:09:43.999Z</time></trkpt><trkpt lat="48.43467892396064" lon="-4.362749484307894"><ele>81.39999999999999</ele><time>2026-03-22T14:09:48.999Z</time></trkpt><trkpt lat="48.434626265797405" lon="-4.362670625699061"><ele>81.19999999999999</ele><time>2026-03-22T14:09:53.999Z</time></trkpt><trkpt lat="48.4346275152846" lon="-4.362540411446437"><ele>81.0</ele><time>2026-03-22T14:09:54.999Z</time></trkpt><trkpt lat="48.43465583198872" lon="-4.3623716619216735"><ele>80.83333333333333</ele><time>2026-03-22T14:09:56.999Z</time></trkpt><trkpt lat="48.43462578384437" lon="-4.362245290763444"><ele>80.66666666666667</ele><time>2026-03-22T14:10:01Z</time></trkpt><trkpt lat="48.43457651861971" lon="-4.362155280360249"><ele>80.5</ele><time>2026-03-22T14:10:04Z</time></trkpt><trkpt lat="48.434556939367425" lon="-4.362051273169368"><ele>80.33333333333334</ele><time>2026-03-22T14:10:06Z</time></trkpt><trkpt lat="48.434583621843935" lon="-4.361935194524003"><ele>80.16666666666667</ele><time>2026-03-22T14:10:10Z</time></trkpt><trkpt lat="48.434588855011796" lon="-4.36181558565026"><ele>80.0</ele><time>2026-03-22T14:10:13Z</time></trkpt><trkpt lat="48.434553805700524" lon="-4.361718709118456"><ele>80.0</ele><time>2026-03-22T14:10:15Z</time></trkpt><trkpt lat="48.43459810936345" lon="-4.361441409755326"><ele>80.0</ele><time>2026-03-22T14:10:18Z</time></trkpt><trkpt lat="48.434568062566576" lon="-4.361299469727565"><ele>80.0</ele><time>2026-03-22T14:10:19Z</time></trkpt><trkpt lat="48.434540178790435" lon="-4.36113766994671"><ele>80.0</ele><time>2026-03-22T14:10:20Z</time></trkpt><trkpt lat="48.43453165442766" lon="-4.36101775154827"><ele>80.0</ele><time>2026-03-22T14:10:21Z</time></trkpt><trkpt lat="48.43454090818766" lon="-4.36087236138484"><ele>80.0</ele><time>2026-03-22T14:10:22Z</time></trkpt><trkpt lat="48.43454932057401" lon="-4.360738963550699"><ele>80.0</ele><time>2026-03-22T14:10:23Z</time></trkpt><trkpt lat="48.4345284298247" lon="-4.3606064991126114"><ele>80.0</ele><time>2026-03-22T14:10:24Z</time></trkpt><trkpt lat="48.43452795728231" lon="-4.360480374095757"><ele>80.0</ele><time>2026-03-22T14:10:25Z</time></trkpt><trkpt lat="48.434526602214724" lon="-4.360335890205959"><ele>79.8</ele><time>2026-03-22T14:10:26Z</time></trkpt><trkpt lat="48.434496673066924" lon="-4.360179712192572"><ele>79.6</ele><time>2026-03-22T14:10:27Z</time></trkpt><trkpt lat="48.43447813364288" lon="-4.360014237478986"><ele>79.4</ele><time>2026-03-22T14:10:28Z</time></trkpt><trkpt lat="48.43447633122708" lon="-4.35987523365232"><ele>79.2</ele><time>2026-03-22T14:10:29Z</time></trkpt><trkpt lat="48.434462005594185" lon="-4.359709786780119"><ele>79.0</ele><time>2026-03-22T14:10:30Z</time></trkpt><trkpt lat="48.43446013570836" lon="-4.359548491789884"><ele>78.8</ele><time>2026-03-22T14:10:31Z</time></trkpt><trkpt lat="48.43445876911326" lon="-4.359368985163561"><ele>78.60000000000001</ele><time>2026-03-22T14:10:32Z</time></trkpt><trkpt lat="48.43444478764955" lon="-4.359200859589667"><ele>78.4</ele><time>2026-03-22T14:10:33Z</time></trkpt><trkpt lat="48.43441359094561" lon="-4.359039850579152"><ele>78.2</ele><time>2026-03-22T14:10:34Z</time></trkpt><trkpt lat="48.43443772091908" lon="-4.358900900579601"><ele>78.0</ele><time>2026-03-22T14:10:35Z</time></trkpt><trkpt lat="48.434416468445534" lon="-4.358762567254833"><ele>77.83333333333333</ele><time>2026-03-22T14:10:36Z</time></trkpt><trkpt lat="48.43442348116766" lon="-4.3586390235215955"><ele>77.66666666666667</ele><time>2026-03-22T14:10:37Z</time></trkpt><trkpt lat="48.43440831114804" lon="-4.358506152206995"><ele>77.5</ele><time>2026-03-22T14:10:38Z</time></trkpt><trkpt lat="48.434399253920695" lon="-4.358384741459907"><ele>77.33333333333334</ele><time>2026-03-22T14:10:39Z</time></trkpt><trkpt lat="48.43440934734587" lon="-4.358231387910217"><ele>77.16666666666667</ele><time>2026-03-22T14:10:40Z</time></trkpt><trkpt lat="48.434403510521086" lon="-4.358091438232706"><ele>77.0</ele><time>2026-03-22T14:10:41Z</time></trkpt><trkpt lat="48.43439202518369" lon="-4.357957138135792"><ele>77.0</ele><time>2026-03-22T14:10:42Z</time></trkpt><trkpt lat="48.43438400684405" lon="-4.3578178412585675"><ele>77.0</ele><time>2026-03-22T14:10:43Z</time></trkpt><trkpt lat="48.434373259847234" lon="-4.357685513730325"><ele>77.0</ele><time>2026-03-22T14:10:44Z</time></trkpt><trkpt lat="48.434378981438265" lon="-4.3575191116964485"><ele>77.0</ele><time>2026-03-22T14:10:45Z</time></trkpt><trkpt lat="48.434371446576066" lon="-4.357348535536413"><ele>77.0</ele><time>2026-03-22T14:10:46Z</time></trkpt><trkpt lat="48.43436311728752" lon="-4.357176429689077"><ele>77.4</ele><time>2026-03-22T14:10:47Z</time></trkpt><trkpt lat="48.43436990780323" lon="-4.357024163442122"><ele>77.80000000000001</ele><time>2026-03-22T14:10:48Z</time></trkpt><trkpt lat="48.43437877153397" lon="-4.356878833882943"><ele>78.2</ele><time>2026-03-22T14:10:49Z</time></trkpt><trkpt lat="48.43439077043565" lon="-4.356733789734642"><ele>78.60000000000001</ele><time>2026-03-22T14:10:50Z</time></trkpt><trkpt lat="48.434361305251954" lon="-4.356536789830051"><ele>79.0</ele><time>2026-03-22T14:10:51Z</time></trkpt><trkpt lat="48.434365503672886" lon="-4.356416752953935"><ele>79.6</ele><time>2026-03-22T14:10:52Z</time></trkpt><trkpt lat="48.434348698218514" lon="-4.356255013855372"><ele>80.2</ele><time>2026-03-22T14:10:53Z</time></trkpt><trkpt lat="48.434341828207046" lon="-4.356098943042444"><ele>80.8</ele><time>2026-03-22T14:10:54Z</time></trkpt><trkpt lat="48.43433160392559" lon="-4.3559790759278085"><ele>81.39999999999999</ele><time>2026-03-22T14:10:55Z</time></trkpt><trkpt lat="48.43432253004752" lon="-4.355862935150699"><ele>82.0</ele><time>2026-03-22T14:10:56Z</time></trkpt><trkpt lat="48.4343310381449" lon="-4.355667475177088"><ele>82.0</ele><time>2026-03-22T14:10:58Z</time></trkpt><trkpt lat="48.43432425705639" lon="-4.355559690174761"><ele>82.0</ele><time>2026-03-22T14:10:59Z</time></trkpt><trkpt lat="48.43432556972172" lon="-4.355371079106736"><ele>82.0</ele><time>2026-03-22T14:11:01Z</time></trkpt><trkpt lat="48.43431691390588" lon="-4.355272067593368"><ele>82.0</ele><time>2026-03-22T14:11:02Z</time></trkpt><trkpt lat="48.43430855693033" lon="-4.3551765093355055"><ele>82.0</ele><time>2026-03-22T14:11:03Z</time></trkpt><trkpt lat="48.43429616192913" lon="-4.3549926335047315"><ele>82.19999999999999</ele><time>2026-03-22T14:11:04.999Z</time></trkpt><trkpt lat="48.43428745656422" lon="-4.354818122691488"><ele>82.4</ele><time>2026-03-22T14:11:06.999Z</time></trkpt><trkpt lat="48.43427554682641" lon="-4.354646127180996"><ele>82.6</ele><time>2026-03-22T14:11:08.999Z</time></trkpt><trkpt lat="48.43426902589891" lon="-4.354485837159952"><ele>82.80000000000001</ele><time>2026-03-22T14:11:10.999Z</time></trkpt><trkpt lat="48.4342630832332" lon="-4.354329876220386"><ele>83.0</ele><time>2026-03-22T14:11:12.999Z</time></trkpt><trkpt lat="48.434250892829006" lon="-4.354162110471677"><ele>83.4</ele><time>2026-03-22T14:11:14.999Z</time></trkpt><trkpt lat="48.434242645365586" lon="-4.353999242776927"><ele>83.80000000000001</ele><time>2026-03-22T14:11:16.999Z</time></trkpt><trkpt lat="48.43423752999415" lon="-4.353834865123431"><ele>84.2</ele><time>2026-03-22T14:11:18.999Z</time></trkpt><trkpt lat="48.434223623417296" lon="-4.3536699049704985"><ele>84.6</ele><time>2026-03-22T14:11:20.999Z</time></trkpt><trkpt lat="48.434224288853216" lon="-4.353516042141642"><ele>85.0</ele><time>2026-03-22T14:11:22.999Z</time></trkpt><trkpt lat="48.43422480083908" lon="-4.353357734811729"><ele>85.5</ele><time>2026-03-22T14:11:24.999Z</time></trkpt><trkpt lat="48.43421111312346" lon="-4.353183492336027"><ele>86.0</ele><time>2026-03-22T14:11:26.999Z</time></trkpt><trkpt lat="48.43420970242978" lon="-4.3530171291148525"><ele>86.5</ele><time>2026-03-22T14:11:28.999Z</time></trkpt><trkpt lat="48.434196950001365" lon="-4.3528494403467075"><ele>87.0</ele><time>2026-03-22T14:11:30.999Z</time></trkpt><trkpt lat="48.43419013802928" lon="-4.352682785650289"><ele>87.19999999999999</ele><time>2026-03-22T14:11:32.999Z</time></trkpt><trkpt lat="48.434183271670946" lon="-4.352526125518145"><ele>87.4</ele><time>2026-03-22T14:11:34.999Z</time></trkpt><trkpt lat="48.4341601729295" lon="-4.352362681836849"><ele>87.6</ele><time>2026-03-22T14:11:36.999Z</time></trkpt><trkpt lat="48.434139334697036" lon="-4.35221878461437"><ele>87.80000000000001</ele><time>2026-03-22T14:11:39.999Z</time></trkpt><trkpt lat="48.43416010235312" lon="-4.352060673071793"><ele>88.0</ele><time>2026-03-22T14:11:43.999Z</time></trkpt><trkpt lat="48.43415209592244" lon="-4.351932848578386"><ele>88.25</ele><time>2026-03-22T14:11:46.999Z</time></trkpt><trkpt lat="48.43413343047406" lon="-4.3517909088841"><ele>88.5</ele><time>2026-03-22T14:11:48.999Z</time></trkpt><trkpt lat="48.43411097094376" lon="-4.351669667897607"><ele>88.75</ele><time>2026-03-22T14:11:50.999Z</time></trkpt><trkpt lat="48.43413456790744" lon="-4.351574979011394"><ele>89.0</ele><time>2026-03-22T14:11:53.999Z</time></trkpt><trkpt lat="48.43408346667709" lon="-4.350797659355701"><ele>89.16666666666667</ele><time>2026-03-22T14:11:54.999Z</time></trkpt><trkpt lat="48.434077604128916" lon="-4.350616049469243"><ele>89.33333333333334</ele><time>2026-03-22T14:11:56.999Z</time></trkpt><trkpt lat="48.434064976891484" lon="-4.3505129905598015"><ele>89.5</ele><time>2026-03-22T14:11:57.999Z</time></trkpt><trkpt lat="48.43405904057405" lon="-4.3504055018878045"><ele>89.66666666666667</ele><time>2026-03-22T14:11:58.999Z</time></trkpt><trkpt lat="48.43405549970895" lon="-4.350286150387618"><ele>89.83333333333333</ele><time>2026-03-22T14:11:59.999Z</time></trkpt><trkpt lat="48.43404981820748" lon="-4.350177338627992"><ele>90.0</ele><time>2026-03-22T14:12:00.999Z</time></trkpt><trkpt lat="48.43404720897529" lon="-4.350066510050022"><ele>89.6</ele><time>2026-03-22T14:12:01.999Z</time></trkpt><trkpt lat="48.43404765444612" lon="-4.349837580083046"><ele>89.2</ele><time>2026-03-22T14:12:04Z</time></trkpt><trkpt lat="48.4340228832251" lon="-4.349684588908333"><ele>88.80000000000001</ele><time>2026-03-22T14:12:05Z</time></trkpt><trkpt lat="48.43402311419058" lon="-4.349573117366313"><ele>88.4</ele><time>2026-03-22T14:12:06Z</time></trkpt><trkpt lat="48.434023414918244" lon="-4.349436513726459"><ele>88.0</ele><time>2026-03-22T14:12:07Z</time></trkpt><trkpt lat="48.434021657982065" lon="-4.349309298298425"><ele>87.60000000000001</ele><time>2026-03-22T14:12:08Z</time></trkpt><trkpt lat="48.43400023411738" lon="-4.349138846409389"><ele>87.2</ele><time>2026-03-22T14:12:09Z</time></trkpt><trkpt lat="48.43398467341288" lon="-4.3489834683217445"><ele>86.8</ele><time>2026-03-22T14:12:10Z</time></trkpt><trkpt lat="48.43398736489908" lon="-4.348839177903413"><ele>86.4</ele><time>2026-03-22T14:12:11Z</time></trkpt><trkpt lat="48.4339759346837" lon="-4.348696508571569"><ele>86.0</ele><time>2026-03-22T14:12:12Z</time></trkpt><trkpt lat="48.433977861551966" lon="-4.348545736174881"><ele>85.4</ele><time>2026-03-22T14:12:13Z</time></trkpt><trkpt lat="48.43392910602494" lon="-4.348444936303537"><ele>84.8</ele><time>2026-03-22T14:12:14Z</time></trkpt><trkpt lat="48.433921256557426" lon="-4.3482801452484505"><ele>84.2</ele><time>2026-03-22T14:12:15Z</time></trkpt><trkpt lat="48.43390997971036" lon="-4.348112815893679"><ele>83.60000000000001</ele><time>2026-03-22T14:12:16Z</time></trkpt><trkpt lat="48.43390591110837" lon="-4.347944971146249"><ele>83.0</ele><time>2026-03-22T14:12:17Z</time></trkpt><trkpt lat="48.43389674918304" lon="-4.347824871604848"><ele>82.60000000000001</ele><time>2026-03-22T14:12:18Z</time></trkpt><trkpt lat="48.433886297044424" lon="-4.34766436881482"><ele>82.2</ele><time>2026-03-22T14:12:19Z</time></trkpt><trkpt lat="48.43387419669368" lon="-4.347494874888718"><ele>81.8</ele><time>2026-03-22T14:12:20Z</time></trkpt><trkpt lat="48.43386828435025" lon="-4.347333314666756"><ele>81.4</ele><time>2026-03-22T14:12:21Z</time></trkpt><trkpt lat="48.4338639047833" lon="-4.347165079230261"><ele>81.0</ele><time>2026-03-22T14:12:22Z</time></trkpt><trkpt lat="48.43385033176836" lon="-4.346998285108005"><ele>80.2</ele><time>2026-03-22T14:12:23Z</time></trkpt><trkpt lat="48.433858019937226" lon="-4.346837926546158"><ele>79.39999999999999</ele><time>2026-03-22T14:12:24Z</time></trkpt><trkpt lat="48.433862102493805" lon="-4.3466728969459805"><ele>78.6</ele><time>2026-03-22T14:12:25Z</time></trkpt><trkpt lat="48.43387570836003" lon="-4.346507139233348"><ele>77.8</ele><time>2026-03-22T14:12:26Z</time></trkpt><trkpt lat="48.43390824160932" lon="-4.34634632498154"><ele>77.0</ele><time>2026-03-22T14:12:27Z</time></trkpt><trkpt lat="48.43394377560301" lon="-4.3461913741160965"><ele>76.4</ele><time>2026-03-22T14:12:28Z</time></trkpt><trkpt lat="48.43397836514017" lon="-4.346034207021052"><ele>75.80000000000001</ele><time>2026-03-22T14:12:29Z</time></trkpt><trkpt lat="48.434010497385195" lon="-4.345877450418401"><ele>75.2</ele><time>2026-03-22T14:12:30Z</time></trkpt><trkpt lat="48.43404188519422" lon="-4.345713800128559"><ele>74.60000000000001</ele><time>2026-03-22T14:12:31Z</time></trkpt><trkpt lat="48.43407520337912" lon="-4.345551723692284"><ele>74.0</ele><time>2026-03-22T14:12:32Z</time></trkpt><trkpt lat="48.434111394957235" lon="-4.345392128461227"><ele>73.8</ele><time>2026-03-22T14:12:33Z</time></trkpt><trkpt lat="48.43415332303798" lon="-4.345232939962201"><ele>73.60000000000001</ele><time>2026-03-22T14:12:34Z</time></trkpt><trkpt lat="48.43418750280918" lon="-4.345073419010745"><ele>73.4</ele><time>2026-03-22T14:12:35Z</time></trkpt><trkpt lat="48.43422764646292" lon="-4.344925408091219"><ele>73.2</ele><time>2026-03-22T14:12:36Z</time></trkpt><trkpt lat="48.434268503503766" lon="-4.34476959997626"><ele>73.0</ele><time>2026-03-22T14:12:37Z</time></trkpt><trkpt lat="48.43429731808738" lon="-4.3446267357151"><ele>72.25</ele><time>2026-03-22T14:12:38Z</time></trkpt><trkpt lat="48.434327047614396" lon="-4.344443906202658"><ele>71.5</ele><time>2026-03-22T14:12:39Z</time></trkpt><trkpt lat="48.43435785988556" lon="-4.3442756856680935"><ele>70.75</ele><time>2026-03-22T14:12:40Z</time></trkpt><trkpt lat="48.434394191569694" lon="-4.344101309509752"><ele>70.0</ele><time>2026-03-22T14:12:41Z</time></trkpt><trkpt lat="48.43443014812514" lon="-4.343964134107847"><ele>69.0</ele><time>2026-03-22T14:12:42Z</time></trkpt><trkpt lat="48.43446065696478" lon="-4.343797120044527"><ele>68.0</ele><time>2026-03-22T14:12:43Z</time></trkpt><trkpt lat="48.43449388564481" lon="-4.343637892315018"><ele>67.0</ele><time>2026-03-22T14:12:44Z</time></trkpt><trkpt lat="48.43453710083146" lon="-4.343479478107646"><ele>66.0</ele><time>2026-03-22T14:12:45Z</time></trkpt><trkpt lat="48.43458190621704" lon="-4.343313566041027"><ele>66.0</ele><time>2026-03-22T14:12:46Z</time></trkpt><trkpt lat="48.43462316594012" lon="-4.3431628978830865"><ele>66.0</ele><time>2026-03-22T14:12:47Z</time></trkpt><trkpt lat="48.43464200564124" lon="-4.342999311887824"><ele>66.0</ele><time>2026-03-22T14:12:48Z</time></trkpt><trkpt lat="48.43468873234136" lon="-4.3428441479715465"><ele>66.0</ele><time>2026-03-22T14:12:49Z</time></trkpt><trkpt lat="48.43471076596214" lon="-4.342667965026758"><ele>66.0</ele><time>2026-03-22T14:12:50Z</time></trkpt><trkpt lat="48.434747192183" lon="-4.34251004417183"><ele>66.0</ele><time>2026-03-22T14:12:51Z</time></trkpt><trkpt lat="48.43478119221775" lon="-4.342343173972473"><ele>66.0</ele><time>2026-03-22T14:12:52Z</time></trkpt><trkpt lat="48.43481131762932" lon="-4.342185903332797"><ele>66.0</ele><time>2026-03-22T14:12:53Z</time></trkpt><trkpt lat="48.43483698175413" lon="-4.342029241369108"><ele>66.0</ele><time>2026-03-22T14:12:54Z</time></trkpt><trkpt lat="48.43486011114292" lon="-4.34185436498312"><ele>66.0</ele><time>2026-03-22T14:12:55Z</time></trkpt><trkpt lat="48.43489906982897" lon="-4.341686156837007"><ele>66.0</ele><time>2026-03-22T14:12:56Z</time></trkpt><trkpt lat="48.434909247881016" lon="-4.341528079293408"><ele>66.0</ele><time>2026-03-22T14:12:57Z</time></trkpt><trkpt lat="48.43493723906078" lon="-4.341379423189767"><ele>66.0</ele><time>2026-03-22T14:12:58Z</time></trkpt><trkpt lat="48.43495800759619" lon="-4.341221892316901"><ele>66.0</ele><time>2026-03-22T14:12:59Z</time></trkpt><trkpt lat="48.43498358205996" lon="-4.34110907937038"><ele>65.83333333333333</ele><time>2026-03-22T14:13:00Z</time></trkpt><trkpt lat="48.43500480077563" lon="-4.340972639956847"><ele>65.66666666666667</ele><time>2026-03-22T14:13:01Z</time></trkpt><trkpt lat="48.43501468183646" lon="-4.340852549381357"><ele>65.5</ele><time>2026-03-22T14:13:02Z</time></trkpt><trkpt lat="48.435048487552024" lon="-4.340738950460831"><ele>65.33333333333334</ele><time>2026-03-22T14:13:03Z</time></trkpt><trkpt lat="48.43504596317407" lon="-4.340619277659739"><ele>65.16666666666667</ele><time>2026-03-22T14:13:04Z</time></trkpt><trkpt lat="48.43505451240757" lon="-4.340522148330497"><ele>65.0</ele><time>2026-03-22T14:13:05Z</time></trkpt><trkpt lat="48.435068917253055" lon="-4.340429136173001"><ele>65.8</ele><time>2026-03-22T14:13:06Z</time></trkpt><trkpt lat="48.43509218963137" lon="-4.340334098668727"><ele>66.6</ele><time>2026-03-22T14:13:07Z</time></trkpt><trkpt lat="48.435115998927294" lon="-4.340166678021089"><ele>67.4</ele><time>2026-03-22T14:13:09Z</time></trkpt><trkpt lat="48.43513013447491" lon="-4.33998737526992"><ele>68.2</ele><time>2026-03-22T14:13:11Z</time></trkpt><trkpt lat="48.435158257585194" lon="-4.339837193969782"><ele>69.0</ele><time>2026-03-22T14:13:13Z</time></trkpt><trkpt lat="48.43519649825593" lon="-4.339699693713186"><ele>69.5</ele><time>2026-03-22T14:13:15Z</time></trkpt><trkpt lat="48.435210194635374" lon="-4.339589977524262"><ele>70.0</ele><time>2026-03-22T14:13:16.999Z</time></trkpt><trkpt lat="48.43523946456854" lon="-4.339428677125578"><ele>70.5</ele><time>2026-03-22T14:13:18.999Z</time></trkpt><trkpt lat="48.43527478095853" lon="-4.339301413106777"><ele>71.0</ele><time>2026-03-22T14:13:20.999Z</time></trkpt><trkpt lat="48.43531983245766" lon="-4.339224891539997"><ele>71.5</ele><time>2026-03-22T14:13:22.999Z</time></trkpt><trkpt lat="48.435333863239876" lon="-4.33909065250938"><ele>72.0</ele><time>2026-03-22T14:13:24.999Z</time></trkpt><trkpt lat="48.435349737713814" lon="-4.338930319700906"><ele>72.33333333333333</ele><time>2026-03-22T14:13:26.999Z</time></trkpt><trkpt lat="48.43536207875919" lon="-4.338807857925399"><ele>72.66666666666667</ele><time>2026-03-22T14:13:30.999Z</time></trkpt><trkpt lat="48.43536765819586" lon="-4.3386782012576095"><ele>73.0</ele><time>2026-03-22T14:13:32.999Z</time></trkpt><trkpt lat="48.43539074163861" lon="-4.338584596211632"><ele>73.33333333333334</ele><time>2026-03-22T14:13:35.999Z</time></trkpt><trkpt lat="48.43540904721651" lon="-4.338410497621012"><ele>73.66666666666667</ele><time>2026-03-22T14:13:37.999Z</time></trkpt><trkpt lat="48.435433360885824" lon="-4.3382946117636925"><ele>74.0</ele><time>2026-03-22T14:13:39.999Z</time></trkpt><trkpt lat="48.43545534967032" lon="-4.338137925020455"><ele>75.0</ele><time>2026-03-22T14:13:41.999Z</time></trkpt><trkpt lat="48.435483211943904" lon="-4.3379933085984845"><ele>76.0</ele><time>2026-03-22T14:13:43.999Z</time></trkpt><trkpt lat="48.435508870885975" lon="-4.337869556223052"><ele>77.0</ele><time>2026-03-22T14:13:45.999Z</time></trkpt><trkpt lat="48.435528644372425" lon="-4.337737265134352"><ele>78.0</ele><time>2026-03-22T14:13:47.999Z</time></trkpt><trkpt lat="48.435558855032916" lon="-4.337605868095647"><ele>79.0</ele><time>2026-03-22T14:13:50.999Z</time></trkpt><trkpt lat="48.43559140423287" lon="-4.337469573081517"><ele>79.0</ele><time>2026-03-22T14:13:52.999Z</time></trkpt><trkpt lat="48.43560461114885" lon="-4.337345230442176"><ele>79.0</ele><time>2026-03-22T14:13:54.999Z</time></trkpt><trkpt lat="48.435649908736906" lon="-4.337240379261416"><ele>79.0</ele><time>2026-03-22T14:13:59.999Z</time></trkpt><trkpt lat="48.4356873414596" lon="-4.337071489224529"><ele>79.0</ele><time>2026-03-22T14:14:03.999Z</time></trkpt><trkpt lat="48.43568646531509" lon="-4.336966670415455"><ele>79.0</ele><time>2026-03-22T14:14:04.999Z</time></trkpt><trkpt lat="48.435694645505805" lon="-4.336838748885325"><ele>79.0</ele><time>2026-03-22T14:14:06.999Z</time></trkpt><trkpt lat="48.43572625415257" lon="-4.336678375474681"><ele>79.5</ele><time>2026-03-22T14:14:08.999Z</time></trkpt><trkpt lat="48.435762375962305" lon="-4.336557746792378"><ele>80.0</ele><time>2026-03-22T14:14:12Z</time></trkpt><trkpt lat="48.43580197778784" lon="-4.336415303927908"><ele>80.5</ele><time>2026-03-22T14:14:14Z</time></trkpt><trkpt lat="48.43581590503644" lon="-4.33632054519165"><ele>81.0</ele><time>2026-03-22T14:14:17Z</time></trkpt><trkpt lat="48.435835717436774" lon="-4.3362232375168475"><ele>81.5</ele><time>2026-03-22T14:14:18Z</time></trkpt><trkpt lat="48.43587246182868" lon="-4.336089053653086"><ele>82.0</ele><time>2026-03-22T14:14:23Z</time></trkpt><trkpt lat="48.43589742596807" lon="-4.335994909754252"><ele>82.33333333333333</ele><time>2026-03-22T14:14:25Z</time></trkpt><trkpt lat="48.43593258151693" lon="-4.335862772178399"><ele>82.66666666666666</ele><time>2026-03-22T14:14:27Z</time></trkpt><trkpt lat="48.43596321790078" lon="-4.335718834535498"><ele>83.0</ele><time>2026-03-22T14:14:29Z</time></trkpt><trkpt lat="48.43599378731016" lon="-4.335622943298412"><ele>83.33333333333333</ele><time>2026-03-22T14:14:31Z</time></trkpt><trkpt lat="48.436008162156796" lon="-4.3355025795407505"><ele>83.66666666666667</ele><time>2026-03-22T14:14:33Z</time></trkpt><trkpt lat="48.43604278140281" lon="-4.335413558348112"><ele>84.0</ele><time>2026-03-22T14:14:35Z</time></trkpt><trkpt lat="48.43608728236347" lon="-4.335294879126402"><ele>84.4</ele><time>2026-03-22T14:14:38Z</time></trkpt><trkpt lat="48.43613399974045" lon="-4.335183002107435"><ele>84.80000000000001</ele><time>2026-03-22T14:14:42Z</time></trkpt><trkpt lat="48.43616216777261" lon="-4.335054940113446"><ele>85.19999999999999</ele><time>2026-03-22T14:14:44Z</time></trkpt><trkpt lat="48.436230724540096" lon="-4.334860421273948"><ele>85.6</ele><time>2026-03-22T14:14:48Z</time></trkpt><trkpt lat="48.4362331832562" lon="-4.334749279474715"><ele>86.0</ele><time>2026-03-22T14:14:50Z</time></trkpt><trkpt lat="48.43626121302804" lon="-4.334635430077274"><ele>86.28571428571429</ele><time>2026-03-22T14:14:52Z</time></trkpt><trkpt lat="48.436292602409615" lon="-4.334525925294295"><ele>86.57142857142857</ele><time>2026-03-22T14:14:55Z</time></trkpt><trkpt lat="48.43631372878186" lon="-4.334419332224624"><ele>86.85714285714286</ele><time>2026-03-22T14:14:57Z</time></trkpt><trkpt lat="48.43635249150096" lon="-4.33432512529776"><ele>87.14285714285714</ele><time>2026-03-22T14:14:59Z</time></trkpt><trkpt lat="48.43637200484779" lon="-4.334220162746579"><ele>87.42857142857143</ele><time>2026-03-22T14:15:01Z</time></trkpt><trkpt lat="48.4363806399985" lon="-4.334118145922055"><ele>87.71428571428572</ele><time>2026-03-22T14:15:03Z</time></trkpt><trkpt lat="48.43639959578459" lon="-4.334004301385333"><ele>88.0</ele><time>2026-03-22T14:15:05Z</time></trkpt><trkpt lat="48.436454375094456" lon="-4.333869396939178"><ele>88.5</ele><time>2026-03-22T14:15:08Z</time></trkpt><trkpt lat="48.436480172924114" lon="-4.3337305971693825"><ele>89.0</ele><time>2026-03-22T14:15:11Z</time></trkpt><trkpt lat="48.43650295474946" lon="-4.333619455671106"><ele>89.5</ele><time>2026-03-22T14:15:13Z</time></trkpt><trkpt lat="48.4365265204139" lon="-4.333503469145191"><ele>90.0</ele><time>2026-03-22T14:15:15Z</time></trkpt><trkpt lat="48.43656179958" lon="-4.333423968596814"><ele>90.5</ele><time>2026-03-22T14:15:17Z</time></trkpt><trkpt lat="48.43660899242549" lon="-4.333293328314769"><ele>91.0</ele><time>2026-03-22T14:15:20.999Z</time></trkpt><trkpt lat="48.43664093722917" lon="-4.333201161597282"><ele>91.0</ele><time>2026-03-22T14:15:22.999Z</time></trkpt><trkpt lat="48.43662386730626" lon="-4.3330790540312405"><ele>91.0</ele><time>2026-03-22T14:15:24.999Z</time></trkpt><trkpt lat="48.43667192271784" lon="-4.332918258657479"><ele>91.0</ele><time>2026-03-22T14:15:27.999Z</time></trkpt><trkpt lat="48.43670081035719" lon="-4.3327982790825095"><ele>91.0</ele><time>2026-03-22T14:15:29.999Z</time></trkpt><trkpt lat="48.43675154456444" lon="-4.332681496088239"><ele>91.0</ele><time>2026-03-22T14:15:32.999Z</time></trkpt><trkpt lat="48.436767315332276" lon="-4.332565756326962"><ele>91.14285714285714</ele><time>2026-03-22T14:15:34.999Z</time></trkpt><trkpt lat="48.43679642172208" lon="-4.332464029598488"><ele>91.28571428571428</ele><time>2026-03-22T14:15:36.999Z</time></trkpt><trkpt lat="48.43683454927455" lon="-4.332382782615169"><ele>91.42857142857143</ele><time>2026-03-22T14:15:38.999Z</time></trkpt><trkpt lat="48.436863675507745" lon="-4.332254029647571"><ele>91.57142857142857</ele><time>2026-03-22T14:15:40.999Z</time></trkpt><trkpt lat="48.4368761163591" lon="-4.332136986515864"><ele>91.71428571428571</ele><time>2026-03-22T14:15:42.999Z</time></trkpt><trkpt lat="48.43690149369573" lon="-4.33204691464923"><ele>91.85714285714286</ele><time>2026-03-22T14:15:44.999Z</time></trkpt><trkpt lat="48.436920969018516" lon="-4.331939128182107"><ele>92.0</ele><time>2026-03-22T14:15:46.999Z</time></trkpt><trkpt lat="48.43694681671831" lon="-4.331831508770636"><ele>92.66666666666667</ele><time>2026-03-22T14:15:48.999Z</time></trkpt><trkpt lat="48.43698044153114" lon="-4.33170778307723"><ele>93.33333333333334</ele><time>2026-03-22T14:15:50.999Z</time></trkpt><trkpt lat="48.437013965446894" lon="-4.3315799393194965"><ele>94.0</ele><time>2026-03-22T14:15:53.999Z</time></trkpt><trkpt lat="48.437061740138326" lon="-4.331445778150624"><ele>94.66666666666667</ele><time>2026-03-22T14:15:56.999Z</time></trkpt><trkpt lat="48.437078028560066" lon="-4.331349865330888"><ele>95.33333333333333</ele><time>2026-03-22T14:15:58.999Z</time></trkpt><trkpt lat="48.43712131709223" lon="-4.331213507563945"><ele>96.0</ele><time>2026-03-22T14:16:01.999Z</time></trkpt><trkpt lat="48.43713973195182" lon="-4.33110752595631"><ele>96.0</ele><time>2026-03-22T14:16:03.999Z</time></trkpt><trkpt lat="48.437160137264925" lon="-4.331017476333881"><ele>96.0</ele><time>2026-03-22T14:16:05.999Z</time></trkpt><trkpt lat="48.43717873407427" lon="-4.330885603033775"><ele>96.0</ele><time>2026-03-22T14:16:07.999Z</time></trkpt><trkpt lat="48.437199640405964" lon="-4.330723048499593"><ele>96.0</ele><time>2026-03-22T14:16:09.999Z</time></trkpt><trkpt lat="48.43722906200394" lon="-4.330566051632805"><ele>96.0</ele><time>2026-03-22T14:16:12.999Z</time></trkpt><trkpt lat="48.43725773199675" lon="-4.330476219229326"><ele>96.0</ele><time>2026-03-22T14:16:14.999Z</time></trkpt><trkpt lat="48.43727745985884" lon="-4.330359825940079"><ele>96.5</ele><time>2026-03-22T14:16:17Z</time></trkpt><trkpt lat="48.43729421777944" lon="-4.330260841599355"><ele>97.0</ele><time>2026-03-22T14:16:19Z</time></trkpt><trkpt lat="48.437309809291314" lon="-4.330142287913806"><ele>97.5</ele><time>2026-03-22T14:16:21Z</time></trkpt><trkpt lat="48.43733816593888" lon="-4.330034700600419"><ele>98.0</ele><time>2026-03-22T14:16:23Z</time></trkpt><trkpt lat="48.43736488481072" lon="-4.329909794210874"><ele>98.5</ele><time>2026-03-22T14:16:25Z</time></trkpt><trkpt lat="48.437402673984366" lon="-4.329789821891342"><ele>99.0</ele><time>2026-03-22T14:16:27Z</time></trkpt><trkpt lat="48.43743378705763" lon="-4.329656658754196"><ele>99.16666666666667</ele><time>2026-03-22T14:16:29Z</time></trkpt><trkpt lat="48.43745083055173" lon="-4.329552482182017"><ele>99.33333333333334</ele><time>2026-03-22T14:16:31Z</time></trkpt><trkpt lat="48.43747099580308" lon="-4.329410645702647"><ele>99.5</ele><time>2026-03-22T14:16:33Z</time></trkpt><trkpt lat="48.43750050905089" lon="-4.329300447596591"><ele>99.66666666666667</ele><time>2026-03-22T14:16:35Z</time></trkpt><trkpt lat="48.43752486722392" lon="-4.329186194670807"><ele>99.83333333333334</ele><time>2026-03-22T14:16:37Z</time></trkpt><trkpt lat="48.43754212097964" lon="-4.329056762776324"><ele>100.0</ele><time>2026-03-22T14:16:39Z</time></trkpt><trkpt lat="48.437575716993706" lon="-4.328936493195679"><ele>101.4</ele><time>2026-03-22T14:16:41Z</time></trkpt><trkpt lat="48.437611624096746" lon="-4.328783083089945"><ele>102.8</ele><time>2026-03-22T14:16:44Z</time></trkpt><trkpt lat="48.43764569682676" lon="-4.328628586199328"><ele>104.19999999999999</ele><time>2026-03-22T14:16:47Z</time></trkpt><trkpt lat="48.437662096146056" lon="-4.32851739328144"><ele>105.6</ele><time>2026-03-22T14:16:49Z</time></trkpt><trkpt lat="48.43769514789888" lon="-4.3284024750513845"><ele>107.0</ele><time>2026-03-22T14:16:51Z</time></trkpt><trkpt lat="48.437721462400205" lon="-4.328247692492095"><ele>106.99999999999999</ele><time>2026-03-22T14:16:54Z</time></trkpt><trkpt lat="48.43777106473313" lon="-4.328111460067478"><ele>107.0</ele><time>2026-03-22T14:16:57Z</time></trkpt><trkpt lat="48.43779683531295" lon="-4.328005445280736"><ele>107.0</ele><time>2026-03-22T14:16:59Z</time></trkpt><trkpt lat="48.43782266123285" lon="-4.3278989037697055"><ele>107.0</ele><time>2026-03-22T14:17:01Z</time></trkpt><trkpt lat="48.4378496650642" lon="-4.327810712867549"><ele>106.99999999999999</ele><time>2026-03-22T14:17:03Z</time></trkpt><trkpt lat="48.437876208182104" lon="-4.327719651778261"><ele>107.0</ele><time>2026-03-22T14:17:05Z</time></trkpt><trkpt lat="48.43792988801525" lon="-4.3275597048709376"><ele>106.83333333333333</ele><time>2026-03-22T14:17:08Z</time></trkpt><trkpt lat="48.43795048126948" lon="-4.3274469286271255"><ele>106.66666666666666</ele><time>2026-03-22T14:17:10Z</time></trkpt><trkpt lat="48.43797021705108" lon="-4.327352741063118"><ele>106.5</ele><time>2026-03-22T14:17:11Z</time></trkpt><trkpt lat="48.437984378014285" lon="-4.327245315455027"><ele>106.33333333333334</ele><time>2026-03-22T14:17:12Z</time></trkpt><trkpt lat="48.43800744232136" lon="-4.3270648951698725"><ele>106.16666666666667</ele><time>2026-03-22T14:17:14Z</time></trkpt><trkpt lat="48.43802066118534" lon="-4.326945894721459"><ele>106.0</ele><time>2026-03-22T14:17:15Z</time></trkpt><trkpt lat="48.43802558246873" lon="-4.326793727302883"><ele>106.0</ele><time>2026-03-22T14:17:16Z</time></trkpt><trkpt lat="48.43803492463773" lon="-4.326676800855259"><ele>106.0</ele><time>2026-03-22T14:17:17Z</time></trkpt><trkpt lat="48.4380479645975" lon="-4.32655072065362"><ele>106.0</ele><time>2026-03-22T14:17:18Z</time></trkpt><trkpt lat="48.43808159640529" lon="-4.326328952832603"><ele>106.0</ele><time>2026-03-22T14:17:20Z</time></trkpt><trkpt lat="48.43809747513461" lon="-4.326186510101242"><ele>106.0</ele><time>2026-03-22T14:17:21Z</time></trkpt><trkpt lat="48.43811878170881" lon="-4.326094477804659"><ele>106.50000000000001</ele><time>2026-03-22T14:17:22Z</time></trkpt><trkpt lat="48.43813745139345" lon="-4.3259791338171825"><ele>107.0</ele><time>2026-03-22T14:17:22.999Z</time></trkpt><trkpt lat="48.438153046619" lon="-4.3258860466815126"><ele>107.5</ele><time>2026-03-22T14:17:23.999Z</time></trkpt><trkpt lat="48.438182218844666" lon="-4.325721093804461"><ele>108.0</ele><time>2026-03-22T14:17:25.999Z</time></trkpt><trkpt lat="48.43822915321264" lon="-4.325653281626277"><ele>108.50000000000001</ele><time>2026-03-22T14:17:26.999Z</time></trkpt><trkpt lat="48.43821550185668" lon="-4.325555636058679"><ele>109.0</ele><time>2026-03-22T14:17:27.999Z</time></trkpt><trkpt lat="48.43824740012495" lon="-4.325377847112895"><ele>109.0</ele><time>2026-03-22T14:17:29.999Z</time></trkpt><trkpt lat="48.438277846558286" lon="-4.325226123788212"><ele>109.0</ele><time>2026-03-22T14:17:31.999Z</time></trkpt><trkpt lat="48.43831790893186" lon="-4.3250809552235605"><ele>109.0</ele><time>2026-03-22T14:17:33.999Z</time></trkpt><trkpt lat="48.43837902490023" lon="-4.324961579944134"><ele>109.0</ele><time>2026-03-22T14:17:35.999Z</time></trkpt><trkpt lat="48.43841275783332" lon="-4.324806379474544"><ele>109.0</ele><time>2026-03-22T14:17:37.999Z</time></trkpt><trkpt lat="48.43844223715917" lon="-4.324668045883894"><ele>109.00000000000001</ele><time>2026-03-22T14:17:39.999Z</time></trkpt><trkpt lat="48.43847007298012" lon="-4.324533593629106"><ele>109.0</ele><time>2026-03-22T14:17:41.999Z</time></trkpt><trkpt lat="48.43846574276642" lon="-4.324433312987764"><ele>109.0</ele><time>2026-03-22T14:17:46.999Z</time></trkpt><trkpt lat="48.43847775632421" lon="-4.324330187251041"><ele>109.0</ele><time>2026-03-22T14:17:48.999Z</time></trkpt><trkpt lat="48.43850620416953" lon="-4.3241778957709025"><ele>109.00000000000001</ele><time>2026-03-22T14:17:50.999Z</time></trkpt><trkpt lat="48.438547696203855" lon="-4.324059693795755"><ele>109.0</ele><time>2026-03-22T14:17:52.999Z</time></trkpt><trkpt lat="48.4385735190155" lon="-4.323915657638911"><ele>108.80000000000001</ele><time>2026-03-22T14:17:54.999Z</time></trkpt><trkpt lat="48.43861235659203" lon="-4.323784555569806"><ele>108.60000000000001</ele><time>2026-03-22T14:17:56.999Z</time></trkpt><trkpt lat="48.4386492566268" lon="-4.323658160978914"><ele>108.4</ele><time>2026-03-22T14:17:58.999Z</time></trkpt><trkpt lat="48.438683533501745" lon="-4.3235428669925104"><ele>108.2</ele><time>2026-03-22T14:18:00.999Z</time></trkpt><trkpt lat="48.438692463800244" lon="-4.32338531228571"><ele>108.0</ele><time>2026-03-22T14:18:02.999Z</time></trkpt><trkpt lat="48.43873930812301" lon="-4.3232693408875456"><ele>108.0</ele><time>2026-03-22T14:18:04.999Z</time></trkpt><trkpt lat="48.43876898746942" lon="-4.323125872486544"><ele>108.00000000000001</ele><time>2026-03-22T14:18:06.999Z</time></trkpt><trkpt lat="48.43878894781158" lon="-4.322968473096573"><ele>108.00000000000001</ele><time>2026-03-22T14:18:08.999Z</time></trkpt><trkpt lat="48.4388107192032" lon="-4.32280468053794"><ele>108.0</ele><time>2026-03-22T14:18:10.999Z</time></trkpt><trkpt lat="48.438794077442274" lon="-4.322642624283289"><ele>108.0</ele><time>2026-03-22T14:18:12.999Z</time></trkpt><trkpt lat="48.4387733792706" lon="-4.322550455212397"><ele>107.5</ele><time>2026-03-22T14:18:13.999Z</time></trkpt><trkpt lat="48.43878760220953" lon="-4.322369587432444"><ele>107.0</ele><time>2026-03-22T14:18:15.999Z</time></trkpt><trkpt lat="48.438835567752974" lon="-4.322287032224163"><ele>106.5</ele><time>2026-03-22T14:18:16.999Z</time></trkpt><trkpt lat="48.43899780938466" lon="-4.322203849809403"><ele>106.0</ele><time>2026-03-22T14:18:19.999Z</time></trkpt><trkpt lat="48.438999403574975" lon="-4.322038443521895"><ele>105.6</ele><time>2026-03-22T14:18:20.999Z</time></trkpt><trkpt lat="48.439049569269976" lon="-4.321865414000438"><ele>105.19999999999999</ele><time>2026-03-22T14:18:23Z</time></trkpt><trkpt lat="48.43906762696651" lon="-4.321772333077037"><ele>104.80000000000001</ele><time>2026-03-22T14:18:24Z</time></trkpt><trkpt lat="48.43908768675399" lon="-4.321678251922317"><ele>104.4</ele><time>2026-03-22T14:18:25Z</time></trkpt><trkpt lat="48.439116730302096" lon="-4.321498876907203"><ele>104.0</ele><time>2026-03-22T14:18:27Z</time></trkpt><trkpt lat="48.43914671662703" lon="-4.321370389481263"><ele>103.49999999999999</ele><time>2026-03-22T14:18:29Z</time></trkpt><trkpt lat="48.43917947407452" lon="-4.321247280094346"><ele>103.0</ele><time>2026-03-22T14:18:32Z</time></trkpt><trkpt lat="48.43918338958662" lon="-4.321145153258965"><ele>102.5</ele><time>2026-03-22T14:18:36Z</time></trkpt><trkpt lat="48.43920299502158" lon="-4.321038234537426"><ele>102.0</ele><time>2026-03-22T14:19:57.999Z</time></trkpt><trkpt lat="48.4392420382483" lon="-4.3209328991035605"><ele>101.49999999999999</ele><time>2026-03-22T14:19:59.999Z</time></trkpt><trkpt lat="48.43927582840485" lon="-4.320790668127931"><ele>101.0</ele><time>2026-03-22T14:20:01.999Z</time></trkpt><trkpt lat="48.43931530914661" lon="-4.320622607336622"><ele>99.99999999999999</ele><time>2026-03-22T14:20:03.999Z</time></trkpt><trkpt lat="48.43933695183001" lon="-4.320521781012822"><ele>99.0</ele><time>2026-03-22T14:20:04.999Z</time></trkpt><trkpt lat="48.43935499723476" lon="-4.320413053834545"><ele>98.0</ele><time>2026-03-22T14:20:05.999Z</time></trkpt><trkpt lat="48.43938558959187" lon="-4.320293026584458"><ele>97.0</ele><time>2026-03-22T14:20:06.999Z</time></trkpt><trkpt lat="48.439423716891724" lon="-4.320167677903393"><ele>96.0</ele><time>2026-03-22T14:20:07.999Z</time></trkpt><trkpt lat="48.43945040467716" lon="-4.320041592590003"><ele>95.0</ele><time>2026-03-22T14:20:08.999Z</time></trkpt><trkpt lat="48.43948192341628" lon="-4.319917460305304"><ele>95.0</ele><time>2026-03-22T14:20:09.999Z</time></trkpt><trkpt lat="48.439508668216114" lon="-4.319784900040556"><ele>95.0</ele><time>2026-03-22T14:20:10.999Z</time></trkpt><trkpt lat="48.43954480955193" lon="-4.319630503932287"><ele>95.0</ele><time>2026-03-22T14:20:11.999Z</time></trkpt><trkpt lat="48.43956913955712" lon="-4.319499009355811"><ele>95.0</ele><time>2026-03-22T14:20:12.999Z</time></trkpt><trkpt lat="48.43959864077762" lon="-4.319373417704741"><ele>95.0</ele><time>2026-03-22T14:20:13.999Z</time></trkpt><trkpt lat="48.43962640687641" lon="-4.319223949061064"><ele>95.2</ele><time>2026-03-22T14:20:14.999Z</time></trkpt><trkpt lat="48.439658626783256" lon="-4.319098145387874"><ele>95.4</ele><time>2026-03-22T14:20:15.999Z</time></trkpt><trkpt lat="48.439689731009366" lon="-4.318965208921337"><ele>95.6</ele><time>2026-03-22T14:20:16.999Z</time></trkpt><trkpt lat="48.43972319180688" lon="-4.318840264904946"><ele>95.8</ele><time>2026-03-22T14:20:17.999Z</time></trkpt><trkpt lat="48.439749347838614" lon="-4.318708879362248"><ele>96.0</ele><time>2026-03-22T14:20:18.999Z</time></trkpt><trkpt lat="48.43976690432128" lon="-4.318553163088617"><ele>95.66666666666667</ele><time>2026-03-22T14:20:19.999Z</time></trkpt><trkpt lat="48.43979623833494" lon="-4.31842619116243"><ele>95.33333333333333</ele><time>2026-03-22T14:20:20.999Z</time></trkpt><trkpt lat="48.43982779244264" lon="-4.318308788786347"><ele>95.0</ele><time>2026-03-22T14:20:21.999Z</time></trkpt><trkpt lat="48.43985743353812" lon="-4.318200589095285"><ele>94.66666666666666</ele><time>2026-03-22T14:20:22.999Z</time></trkpt><trkpt lat="48.4398841608147" lon="-4.3180758752420765"><ele>94.33333333333333</ele><time>2026-03-22T14:20:23.999Z</time></trkpt><trkpt lat="48.43991179703384" lon="-4.317945355191651"><ele>94.0</ele><time>2026-03-22T14:20:24.999Z</time></trkpt><trkpt lat="48.43993889284288" lon="-4.317847254093261"><ele>93.85714285714286</ele><time>2026-03-22T14:20:25.999Z</time></trkpt><trkpt lat="48.439965599090826" lon="-4.31774185783524"><ele>93.71428571428571</ele><time>2026-03-22T14:20:26.999Z</time></trkpt><trkpt lat="48.439992395921266" lon="-4.317635575719028"><ele>93.57142857142858</ele><time>2026-03-22T14:20:28Z</time></trkpt><trkpt lat="48.44001870503133" lon="-4.317528773532347"><ele>93.42857142857143</ele><time>2026-03-22T14:20:29Z</time></trkpt><trkpt lat="48.440033335640436" lon="-4.317425293591385"><ele>93.28571428571429</ele><time>2026-03-22T14:20:30Z</time></trkpt><trkpt lat="48.44006027030864" lon="-4.317331743340766"><ele>93.14285714285715</ele><time>2026-03-22T14:20:31Z</time></trkpt><trkpt lat="48.44007860833522" lon="-4.317222895698502"><ele>93.0</ele><time>2026-03-22T14:20:32Z</time></trkpt><trkpt lat="48.44010186070825" lon="-4.317119383909202"><ele>93.0</ele><time>2026-03-22T14:20:33Z</time></trkpt><trkpt lat="48.440137612025346" lon="-4.316930858805693"><ele>93.0</ele><time>2026-03-22T14:20:35Z</time></trkpt><trkpt lat="48.44015646390455" lon="-4.31683596798793"><ele>93.0</ele><time>2026-03-22T14:20:36Z</time></trkpt><trkpt lat="48.44017306353968" lon="-4.31674359623474"><ele>93.0</ele><time>2026-03-22T14:20:37Z</time></trkpt><trkpt lat="48.440217519178745" lon="-4.316583516644696"><ele>93.0</ele><time>2026-03-22T14:20:39Z</time></trkpt><trkpt lat="48.44025971086166" lon="-4.316410827521845"><ele>92.80000000000001</ele><time>2026-03-22T14:20:41Z</time></trkpt><trkpt lat="48.44029489076981" lon="-4.316237332953905"><ele>92.6</ele><time>2026-03-22T14:20:43Z</time></trkpt><trkpt lat="48.44033144008583" lon="-4.316072978016337"><ele>92.4</ele><time>2026-03-22T14:20:45Z</time></trkpt><trkpt lat="48.44034684629474" lon="-4.315971365329666"><ele>92.19999999999999</ele><time>2026-03-22T14:20:46Z</time></trkpt><trkpt lat="48.44038450783545" lon="-4.315814895428019"><ele>92.0</ele><time>2026-03-22T14:20:48Z</time></trkpt><trkpt lat="48.44041965137249" lon="-4.315654002914877"><ele>92.0</ele><time>2026-03-22T14:20:50Z</time></trkpt><trkpt lat="48.440455274565615" lon="-4.315497117737057"><ele>92.0</ele><time>2026-03-22T14:20:52Z</time></trkpt><trkpt lat="48.440491407378005" lon="-4.3153368433403445"><ele>92.0</ele><time>2026-03-22T14:20:54Z</time></trkpt><trkpt lat="48.44052630358503" lon="-4.315178044288195"><ele>92.0</ele><time>2026-03-22T14:20:56Z</time></trkpt><trkpt lat="48.44056178057687" lon="-4.315016863211457"><ele>92.0</ele><time>2026-03-22T14:20:58Z</time></trkpt><trkpt lat="48.4405987769518" lon="-4.314867523525496"><ele>93.0</ele><time>2026-03-22T14:21:00Z</time></trkpt><trkpt lat="48.44064305410669" lon="-4.314746689596403"><ele>94.0</ele><time>2026-03-22T14:21:03Z</time></trkpt><trkpt lat="48.44067898404927" lon="-4.314631487297695"><ele>95.0</ele><time>2026-03-22T14:21:06Z</time></trkpt><trkpt lat="48.44070485815776" lon="-4.314521594763559"><ele>96.0</ele><time>2026-03-22T14:21:08Z</time></trkpt><trkpt lat="48.44077893879743" lon="-4.314195151960565"><ele>96.0</ele><time>2026-03-22T14:21:09Z</time></trkpt><trkpt lat="48.44080939053365" lon="-4.3140474007853475"><ele>96.0</ele><time>2026-03-22T14:21:11Z</time></trkpt><trkpt lat="48.44085188162776" lon="-4.313908380062431"><ele>96.0</ele><time>2026-03-22T14:21:13Z</time></trkpt><trkpt lat="48.44086887078622" lon="-4.313766847119883"><ele>96.0</ele><time>2026-03-22T14:21:15Z</time></trkpt><trkpt lat="48.44090365965513" lon="-4.31361088508232"><ele>96.0</ele><time>2026-03-22T14:21:17Z</time></trkpt><trkpt lat="48.44093770398185" lon="-4.313459019470449"><ele>96.4</ele><time>2026-03-22T14:21:19Z</time></trkpt><trkpt lat="48.44098856448106" lon="-4.3132949558988525"><ele>96.8</ele><time>2026-03-22T14:21:21Z</time></trkpt><trkpt lat="48.441026178421765" lon="-4.313121873503576"><ele>97.2</ele><time>2026-03-22T14:21:23Z</time></trkpt><trkpt lat="48.44106681667788" lon="-4.312943995777771"><ele>97.60000000000001</ele><time>2026-03-22T14:21:25Z</time></trkpt><trkpt lat="48.441075675299" lon="-4.312847335834398"><ele>98.0</ele><time>2026-03-22T14:21:26Z</time></trkpt><trkpt lat="48.44109141369506" lon="-4.312674315416742"><ele>98.0</ele><time>2026-03-22T14:21:28Z</time></trkpt><trkpt lat="48.44111440398208" lon="-4.312576313385645"><ele>98.0</ele><time>2026-03-22T14:21:29Z</time></trkpt><trkpt lat="48.441134924014776" lon="-4.312479708688775"><ele>98.0</ele><time>2026-03-22T14:21:30Z</time></trkpt><trkpt lat="48.441169858134366" lon="-4.3122953530999935"><ele>98.0</ele><time>2026-03-22T14:21:32Z</time></trkpt><trkpt lat="48.44120398713156" lon="-4.312195466336466"><ele>98.0</ele><time>2026-03-22T14:21:33Z</time></trkpt><trkpt lat="48.441249303623316" lon="-4.3120087460661045"><ele>97.85714285714286</ele><time>2026-03-22T14:21:35Z</time></trkpt><trkpt lat="48.441257527633184" lon="-4.31190475019804"><ele>97.71428571428572</ele><time>2026-03-22T14:21:36Z</time></trkpt><trkpt lat="48.441278001398416" lon="-4.31179161074213"><ele>97.57142857142857</ele><time>2026-03-22T14:21:36.999Z</time></trkpt><trkpt lat="48.44130406572599" lon="-4.311691685279365"><ele>97.42857142857143</ele><time>2026-03-22T14:21:37.999Z</time></trkpt><trkpt lat="48.441326107183926" lon="-4.311583279462847"><ele>97.28571428571429</ele><time>2026-03-22T14:21:38.999Z</time></trkpt><trkpt lat="48.44135169719923" lon="-4.31149050803498"><ele>97.14285714285714</ele><time>2026-03-22T14:21:39.999Z</time></trkpt><trkpt lat="48.441370032528496" lon="-4.311379818486052"><ele>97.0</ele><time>2026-03-22T14:21:40.999Z</time></trkpt><trkpt lat="48.44139481571189" lon="-4.311278763248316"><ele>96.85714285714285</ele><time>2026-03-22T14:21:41.999Z</time></trkpt><trkpt lat="48.44141615262105" lon="-4.311178183207083"><ele>96.71428571428572</ele><time>2026-03-22T14:21:42.999Z</time></trkpt><trkpt lat="48.44143901261748" lon="-4.311080168963552"><ele>96.57142857142857</ele><time>2026-03-22T14:21:43.999Z</time></trkpt><trkpt lat="48.44146151919439" lon="-4.310974896165268"><ele>96.42857142857142</ele><time>2026-03-22T14:21:44.999Z</time></trkpt><trkpt lat="48.4414831829994" lon="-4.310879388897067"><ele>96.28571428571428</ele><time>2026-03-22T14:21:45.999Z</time></trkpt><trkpt lat="48.44150412610748" lon="-4.310777904470542"><ele>96.14285714285714</ele><time>2026-03-22T14:21:46.999Z</time></trkpt><trkpt lat="48.44152145745448" lon="-4.310669161667264"><ele>96.0</ele><time>2026-03-22T14:21:47.999Z</time></trkpt><trkpt lat="48.44155003422905" lon="-4.310579418089565"><ele>95.66666666666667</ele><time>2026-03-22T14:21:48.999Z</time></trkpt><trkpt lat="48.44157161244945" lon="-4.310464804923187"><ele>95.33333333333333</ele><time>2026-03-22T14:21:49.999Z</time></trkpt><trkpt lat="48.441596555746614" lon="-4.310350019789754"><ele>95.0</ele><time>2026-03-22T14:21:50.999Z</time></trkpt><trkpt lat="48.44162561640644" lon="-4.31024657225674"><ele>94.66666666666666</ele><time>2026-03-22T14:21:51.999Z</time></trkpt><trkpt lat="48.44164691563009" lon="-4.310126127029451"><ele>94.33333333333333</ele><time>2026-03-22T14:21:52.999Z</time></trkpt><trkpt lat="48.44167584215688" lon="-4.309991726842435"><ele>94.0</ele><time>2026-03-22T14:21:53.999Z</time></trkpt><trkpt lat="48.441706387503714" lon="-4.309880719808137"><ele>94.0</ele><time>2026-03-22T14:21:54.999Z</time></trkpt><trkpt lat="48.44172951560486" lon="-4.309748459619872"><ele>94.0</ele><time>2026-03-22T14:21:55.999Z</time></trkpt><trkpt lat="48.441757983138245" lon="-4.309614570320607"><ele>94.0</ele><time>2026-03-22T14:21:56.999Z</time></trkpt><trkpt lat="48.44179252768302" lon="-4.3094848810844635"><ele>94.0</ele><time>2026-03-22T14:21:57.999Z</time></trkpt><trkpt lat="48.44182538013591" lon="-4.309355689536985"><ele>94.0</ele><time>2026-03-22T14:21:58.999Z</time></trkpt><trkpt lat="48.44185319712238" lon="-4.309206060309382"><ele>93.6</ele><time>2026-03-22T14:21:59.999Z</time></trkpt><trkpt lat="48.44189027825206" lon="-4.3090673950482"><ele>93.2</ele><time>2026-03-22T14:22:00.999Z</time></trkpt><trkpt lat="48.44192198683509" lon="-4.308916908415697"><ele>92.8</ele><time>2026-03-22T14:22:01.999Z</time></trkpt><trkpt lat="48.441950716082744" lon="-4.308763354959953"><ele>92.39999999999999</ele><time>2026-03-22T14:22:02.999Z</time></trkpt><trkpt lat="48.44198265313872" lon="-4.308610992026"><ele>92.0</ele><time>2026-03-22T14:22:03.999Z</time></trkpt><trkpt lat="48.442015906789656" lon="-4.308447831992997"><ele>91.6</ele><time>2026-03-22T14:22:04.999Z</time></trkpt><trkpt lat="48.44205183365064" lon="-4.308300624953621"><ele>91.19999999999999</ele><time>2026-03-22T14:22:05.999Z</time></trkpt><trkpt lat="48.442085712562054" lon="-4.3081401465441775"><ele>90.8</ele><time>2026-03-22T14:22:06.999Z</time></trkpt><trkpt lat="48.442128822672004" lon="-4.3079791642168"><ele>90.4</ele><time>2026-03-22T14:22:07.999Z</time></trkpt><trkpt lat="48.44216713204401" lon="-4.3078115424190555"><ele>90.0</ele><time>2026-03-22T14:22:08.999Z</time></trkpt><trkpt lat="48.442207926659556" lon="-4.3076394888128595"><ele>88.5</ele><time>2026-03-22T14:22:09.999Z</time></trkpt><trkpt lat="48.44225218355726" lon="-4.3074692758402655"><ele>87.0</ele><time>2026-03-22T14:22:10.999Z</time></trkpt><trkpt lat="48.442286608525286" lon="-4.307289315850363"><ele>85.5</ele><time>2026-03-22T14:22:11.999Z</time></trkpt><trkpt lat="48.442324793921166" lon="-4.307108298672075"><ele>84.0</ele><time>2026-03-22T14:22:12.999Z</time></trkpt><trkpt lat="48.442368541928964" lon="-4.3069287900808355"><ele>83.0</ele><time>2026-03-22T14:22:13.999Z</time></trkpt><trkpt lat="48.44241145735709" lon="-4.30674981183685"><ele>82.0</ele><time>2026-03-22T14:22:14.999Z</time></trkpt><trkpt lat="48.44245453910554" lon="-4.306559471722613"><ele>81.0</ele><time>2026-03-22T14:22:15.999Z</time></trkpt><trkpt lat="48.442497725720884" lon="-4.30637179289831"><ele>80.0</ele><time>2026-03-22T14:22:16.999Z</time></trkpt><trkpt lat="48.442527526603655" lon="-4.30617226059157"><ele>79.25</ele><time>2026-03-22T14:22:17.999Z</time></trkpt><trkpt lat="48.44257411270172" lon="-4.305980236688744"><ele>78.5</ele><time>2026-03-22T14:22:18.999Z</time></trkpt><trkpt lat="48.44261973360623" lon="-4.305793429006551"><ele>77.75</ele><time>2026-03-22T14:22:19.999Z</time></trkpt><trkpt lat="48.442666279141854" lon="-4.305597918661683"><ele>77.0</ele><time>2026-03-22T14:22:20.999Z</time></trkpt><trkpt lat="48.44271125409402" lon="-4.305403891621437"><ele>76.5</ele><time>2026-03-22T14:22:21.999Z</time></trkpt><trkpt lat="48.44275545020378" lon="-4.305201145729292"><ele>76.0</ele><time>2026-03-22T14:22:22.999Z</time></trkpt><trkpt lat="48.44279897925123" lon="-4.304995822550472"><ele>75.5</ele><time>2026-03-22T14:22:23.999Z</time></trkpt><trkpt lat="48.44284544466078" lon="-4.304793667579834"><ele>75.0</ele><time>2026-03-22T14:22:24.999Z</time></trkpt><trkpt lat="48.442890417025986" lon="-4.30459599538511"><ele>75.0</ele><time>2026-03-22T14:22:25.999Z</time></trkpt><trkpt lat="48.44293843396134" lon="-4.304397638986119"><ele>75.0</ele><time>2026-03-22T14:22:26.999Z</time></trkpt><trkpt lat="48.442981521241315" lon="-4.3042016796662566"><ele>75.0</ele><time>2026-03-22T14:22:27.999Z</time></trkpt><trkpt lat="48.44302496087618" lon="-4.304009323644594"><ele>75.0</ele><time>2026-03-22T14:22:28.999Z</time></trkpt><trkpt lat="48.443071363768105" lon="-4.303822388077748"><ele>73.25</ele><time>2026-03-22T14:22:29.999Z</time></trkpt><trkpt lat="48.443112417368226" lon="-4.303633759884711"><ele>71.5</ele><time>2026-03-22T14:22:30.999Z</time></trkpt><trkpt lat="48.443147096405774" lon="-4.303445927588898"><ele>69.75</ele><time>2026-03-22T14:22:31.999Z</time></trkpt><trkpt lat="48.443185451276754" lon="-4.303268090127519"><ele>68.0</ele><time>2026-03-22T14:22:32.999Z</time></trkpt><trkpt lat="48.44322563159063" lon="-4.303094775246051"><ele>68.5</ele><time>2026-03-22T14:22:34Z</time></trkpt><trkpt lat="48.443264853484315" lon="-4.302916986008825"><ele>69.0</ele><time>2026-03-22T14:22:35Z</time></trkpt><trkpt lat="48.44330958680434" lon="-4.302740395746183"><ele>69.5</ele><time>2026-03-22T14:22:36Z</time></trkpt><trkpt lat="48.44335407879197" lon="-4.302568207188192"><ele>70.0</ele><time>2026-03-22T14:22:37Z</time></trkpt><trkpt lat="48.44339403819934" lon="-4.302402018737461"><ele>70.5</ele><time>2026-03-22T14:22:38Z</time></trkpt><trkpt lat="48.44343938013885" lon="-4.302235006332897"><ele>71.0</ele><time>2026-03-22T14:22:39Z</time></trkpt><trkpt lat="48.44347111984504" lon="-4.3020586974179995"><ele>71.5</ele><time>2026-03-22T14:22:40Z</time></trkpt><trkpt lat="48.44350860006184" lon="-4.301899526161091"><ele>72.0</ele><time>2026-03-22T14:22:41Z</time></trkpt><trkpt lat="48.4435394865773" lon="-4.30172851887458"><ele>72.0</ele><time>2026-03-22T14:22:42Z</time></trkpt><trkpt lat="48.443573591632756" lon="-4.301545764727546"><ele>72.0</ele><time>2026-03-22T14:22:43Z</time></trkpt><trkpt lat="48.44360776800008" lon="-4.301370862833246"><ele>72.0</ele><time>2026-03-22T14:22:44Z</time></trkpt><trkpt lat="48.44365881558449" lon="-4.301193411453929"><ele>72.0</ele><time>2026-03-22T14:22:45Z</time></trkpt><trkpt lat="48.44368785457569" lon="-4.3010099148225835"><ele>72.0</ele><time>2026-03-22T14:22:46Z</time></trkpt><trkpt lat="48.443737260478166" lon="-4.300824032387901"><ele>72.0</ele><time>2026-03-22T14:22:47Z</time></trkpt><trkpt lat="48.44377915589736" lon="-4.300640296838746"><ele>72.0</ele><time>2026-03-22T14:22:48Z</time></trkpt><trkpt lat="48.443818156858775" lon="-4.300454363451553"><ele>72.0</ele><time>2026-03-22T14:22:49Z</time></trkpt><trkpt lat="48.443860794503436" lon="-4.300251016142023"><ele>69.5</ele><time>2026-03-22T14:22:50Z</time></trkpt><trkpt lat="48.44390458500932" lon="-4.300052539459962"><ele>67.0</ele><time>2026-03-22T14:22:51Z</time></trkpt><trkpt lat="48.44394392407933" lon="-4.299861802807475"><ele>64.5</ele><time>2026-03-22T14:22:52Z</time></trkpt><trkpt lat="48.44398806726209" lon="-4.2996633894407505"><ele>62.0</ele><time>2026-03-22T14:22:53Z</time></trkpt><trkpt lat="48.44403002996139" lon="-4.299458833522818"><ele>60.0</ele><time>2026-03-22T14:22:54Z</time></trkpt><trkpt lat="48.44407178063657" lon="-4.299254578810695"><ele>58.0</ele><time>2026-03-22T14:22:55Z</time></trkpt><trkpt lat="48.44412196774509" lon="-4.299052489412352"><ele>56.0</ele><time>2026-03-22T14:22:56Z</time></trkpt><trkpt lat="48.44416107549795" lon="-4.298845008189429"><ele>54.0</ele><time>2026-03-22T14:22:57Z</time></trkpt><trkpt lat="48.44420641951188" lon="-4.29862438008456"><ele>52.25</ele><time>2026-03-22T14:22:58Z</time></trkpt><trkpt lat="48.4442522415372" lon="-4.29841361909831"><ele>50.5</ele><time>2026-03-22T14:22:59Z</time></trkpt><trkpt lat="48.444300613046366" lon="-4.298211415038052"><ele>48.75</ele><time>2026-03-22T14:23:00Z</time></trkpt><trkpt lat="48.444339068688734" lon="-4.29799085693405"><ele>47.0</ele><time>2026-03-22T14:23:01Z</time></trkpt><trkpt lat="48.444385429016144" lon="-4.297781428514364"><ele>47.0</ele><time>2026-03-22T14:23:02Z</time></trkpt><trkpt lat="48.44443550633099" lon="-4.297568639426628"><ele>47.0</ele><time>2026-03-22T14:23:03Z</time></trkpt><trkpt lat="48.44448375322902" lon="-4.297360669804354"><ele>47.0</ele><time>2026-03-22T14:23:04Z</time></trkpt><trkpt lat="48.44452812084171" lon="-4.297142571957147"><ele>47.0</ele><time>2026-03-22T14:23:05Z</time></trkpt><trkpt lat="48.44457859619182" lon="-4.296938814866587"><ele>47.5</ele><time>2026-03-22T14:23:06Z</time></trkpt><trkpt lat="48.44462492943138" lon="-4.296730947172511"><ele>48.0</ele><time>2026-03-22T14:23:07Z</time></trkpt><trkpt lat="48.44467510377139" lon="-4.296516653099872"><ele>48.5</ele><time>2026-03-22T14:23:08Z</time></trkpt><trkpt lat="48.444720262438665" lon="-4.296301223309691"><ele>49.0</ele><time>2026-03-22T14:23:09Z</time></trkpt><trkpt lat="48.444770160796196" lon="-4.296088516007749"><ele>45.5</ele><time>2026-03-22T14:23:10Z</time></trkpt><trkpt lat="48.44481883902957" lon="-4.295882802111561"><ele>42.0</ele><time>2026-03-22T14:23:11Z</time></trkpt><trkpt lat="48.44486534036084" lon="-4.295683273101238"><ele>38.5</ele><time>2026-03-22T14:23:12Z</time></trkpt><trkpt lat="48.44490536763754" lon="-4.295486695048863"><ele>35.0</ele><time>2026-03-22T14:23:13Z</time></trkpt><trkpt lat="48.444950888166574" lon="-4.295291433351495"><ele>35.0</ele><time>2026-03-22T14:23:14Z</time></trkpt><trkpt lat="48.44500401758107" lon="-4.295106514624692"><ele>35.0</ele><time>2026-03-22T14:23:15Z</time></trkpt><trkpt lat="48.44505429826835" lon="-4.294922971567296"><ele>35.0</ele><time>2026-03-22T14:23:16Z</time></trkpt><trkpt lat="48.445083119217784" lon="-4.294731499792376"><ele>35.0</ele><time>2026-03-22T14:23:17Z</time></trkpt><trkpt lat="48.44512676360558" lon="-4.294548210068587"><ele>35.5</ele><time>2026-03-22T14:23:18Z</time></trkpt><trkpt lat="48.445161009188446" lon="-4.294367575543165"><ele>36.0</ele><time>2026-03-22T14:23:19Z</time></trkpt><trkpt lat="48.44519356879769" lon="-4.2941889026108795"><ele>36.5</ele><time>2026-03-22T14:23:20Z</time></trkpt><trkpt lat="48.44522657976271" lon="-4.2940073763534015"><ele>37.0</ele><time>2026-03-22T14:23:21Z</time></trkpt><trkpt lat="48.44526683163103" lon="-4.293837249209469"><ele>37.0</ele><time>2026-03-22T14:23:22Z</time></trkpt><trkpt lat="48.44530271824648" lon="-4.293665831656105"><ele>37.0</ele><time>2026-03-22T14:23:23Z</time></trkpt><trkpt lat="48.44533952873927" lon="-4.293490341360724"><ele>37.0</ele><time>2026-03-22T14:23:24Z</time></trkpt><trkpt lat="48.445367460786905" lon="-4.293319511224286"><ele>37.0</ele><time>2026-03-22T14:23:25Z</time></trkpt><trkpt lat="48.445377469002345" lon="-4.293148525532026"><ele>36.800000000000004</ele><time>2026-03-22T14:23:26Z</time></trkpt><trkpt lat="48.44539776986156" lon="-4.292987520650708"><ele>36.6</ele><time>2026-03-22T14:23:27Z</time></trkpt><trkpt lat="48.445414327739314" lon="-4.292818224714005"><ele>36.400000000000006</ele><time>2026-03-22T14:23:28Z</time></trkpt><trkpt lat="48.44542636026448" lon="-4.292664489960872"><ele>36.2</ele><time>2026-03-22T14:23:29Z</time></trkpt><trkpt lat="48.44543779595195" lon="-4.29251776636182"><ele>36.0</ele><time>2026-03-22T14:23:30Z</time></trkpt><trkpt lat="48.44544492022385" lon="-4.292417919837587"><ele>36.0</ele><time>2026-03-22T14:23:31Z</time></trkpt><trkpt lat="48.445462577358384" lon="-4.292307667086515"><ele>36.0</ele><time>2026-03-22T14:23:33Z</time></trkpt><trkpt lat="48.44545544055501" lon="-4.292203447181172"><ele>36.0</ele><time>2026-03-22T14:23:36Z</time></trkpt><trkpt lat="48.44560036686426" lon="-4.29211322308352"><ele>36.0</ele><time>2026-03-22T14:23:40Z</time></trkpt><trkpt lat="48.44567830301251" lon="-4.292025157489243"><ele>36.0</ele><time>2026-03-22T14:23:42Z</time></trkpt><trkpt lat="48.44573845875594" lon="-4.291918719445952"><ele>33.6</ele><time>2026-03-22T14:23:43.999Z</time></trkpt><trkpt lat="48.44576456956848" lon="-4.291775107714767"><ele>31.200000000000003</ele><time>2026-03-22T14:23:45.999Z</time></trkpt><trkpt lat="48.44579911924212" lon="-4.2916368702291185"><ele>28.799999999999997</ele><time>2026-03-22T14:23:47.999Z</time></trkpt><trkpt lat="48.4458326406265" lon="-4.291477436466236"><ele>26.4</ele><time>2026-03-22T14:23:49.999Z</time></trkpt><trkpt lat="48.44585957306327" lon="-4.291355626666648"><ele>24.0</ele><time>2026-03-22T14:23:50.999Z</time></trkpt><trkpt lat="48.44589176734127" lon="-4.291209268622056"><ele>24.0</ele><time>2026-03-22T14:23:52.999Z</time></trkpt><trkpt lat="48.44592611240391" lon="-4.291051654336779"><ele>24.0</ele><time>2026-03-22T14:23:54.999Z</time></trkpt><trkpt lat="48.44595887972648" lon="-4.290901535222987"><ele>24.0</ele><time>2026-03-22T14:23:56.999Z</time></trkpt><trkpt lat="48.44598876894668" lon="-4.290764601499282"><ele>24.0</ele><time>2026-03-22T14:23:58.999Z</time></trkpt><trkpt lat="48.44601973495093" lon="-4.290624065342481"><ele>24.0</ele><time>2026-03-22T14:24:00.999Z</time></trkpt><trkpt lat="48.44605176333084" lon="-4.290482110079819"><ele>24.0</ele><time>2026-03-22T14:24:02.999Z</time></trkpt><trkpt lat="48.44608135554937" lon="-4.290350952254221"><ele>24.0</ele><time>2026-03-22T14:24:04.999Z</time></trkpt><trkpt lat="48.44610965891802" lon="-4.290225507021395"><ele>24.0</ele><time>2026-03-22T14:24:06.999Z</time></trkpt><trkpt lat="48.4461453008527" lon="-4.290067736327168"><ele>24.0</ele><time>2026-03-22T14:24:08.999Z</time></trkpt><trkpt lat="48.446174568348965" lon="-4.289936499726934"><ele>24.0</ele><time>2026-03-22T14:24:10.999Z</time></trkpt><trkpt lat="48.44621035989939" lon="-4.289777281096432"><ele>23.833333333333332</ele><time>2026-03-22T14:24:12.999Z</time></trkpt><trkpt lat="48.44623725906739" lon="-4.289656066760694"><ele>23.666666666666668</ele><time>2026-03-22T14:24:14.999Z</time></trkpt><trkpt lat="48.446275682589125" lon="-4.289547148332021"><ele>23.5</ele><time>2026-03-22T14:24:16.999Z</time></trkpt><trkpt lat="48.44630690277027" lon="-4.28946247719305"><ele>23.333333333333336</ele><time>2026-03-22T14:24:20.999Z</time></trkpt><trkpt lat="48.44633125815505" lon="-4.289374054839877"><ele>23.166666666666668</ele><time>2026-03-22T14:24:21.999Z</time></trkpt><trkpt lat="48.44635623095438" lon="-4.2892689739325895"><ele>23.0</ele><time>2026-03-22T14:24:22.999Z</time></trkpt><trkpt lat="48.446390450172736" lon="-4.289105538236279"><ele>24.799999999999997</ele><time>2026-03-22T14:24:24.999Z</time></trkpt><trkpt lat="48.446392932791184" lon="-4.2889541048199815"><ele>26.6</ele><time>2026-03-22T14:24:26.999Z</time></trkpt><trkpt lat="48.44642341967318" lon="-4.288815916157944"><ele>28.400000000000002</ele><time>2026-03-22T14:24:28.999Z</time></trkpt><trkpt lat="48.44645361085899" lon="-4.288679068048653"><ele>30.200000000000003</ele><time>2026-03-22T14:24:30.999Z</time></trkpt><trkpt lat="48.44647486786188" lon="-4.288582716037023"><ele>32.0</ele><time>2026-03-22T14:24:31.999Z</time></trkpt><trkpt lat="48.44650896392223" lon="-4.288428168289932"><ele>31.999999999999996</ele><time>2026-03-22T14:24:33.999Z</time></trkpt><trkpt lat="48.44653606460102" lon="-4.288305328519723"><ele>32.0</ele><time>2026-03-22T14:24:35.999Z</time></trkpt><trkpt lat="48.44656416291741" lon="-4.288177966884307"><ele>32.0</ele><time>2026-03-22T14:24:37.999Z</time></trkpt><trkpt lat="48.446593400596925" lon="-4.288045440627916"><ele>32.0</ele><time>2026-03-22T14:24:40Z</time></trkpt><trkpt lat="48.44661382770983" lon="-4.287952850650935"><ele>31.999999999999996</ele><time>2026-03-22T14:24:42Z</time></trkpt><trkpt lat="48.446635402242684" lon="-4.287855059263371"><ele>32.0</ele><time>2026-03-22T14:24:44Z</time></trkpt><trkpt lat="48.44665776282845" lon="-4.287751791449626"><ele>32.0</ele><time>2026-03-22T14:24:46Z</time></trkpt><trkpt lat="48.44668895404887" lon="-4.287607742115453"><ele>32.0</ele><time>2026-03-22T14:24:49Z</time></trkpt><trkpt lat="48.4467183489393" lon="-4.287471988688784"><ele>32.0</ele><time>2026-03-22T14:24:51Z</time></trkpt><trkpt lat="48.446743591244356" lon="-4.287353403846951"><ele>32.0</ele><time>2026-03-22T14:24:53Z</time></trkpt><trkpt lat="48.446806951119214" lon="-4.287223191214803"><ele>32.0</ele><time>2026-03-22T14:24:55Z</time></trkpt><trkpt lat="48.44683501137085" lon="-4.287103537942281"><ele>32.33333333333333</ele><time>2026-03-22T14:24:57Z</time></trkpt><trkpt lat="48.446883532276985" lon="-4.28695803008169"><ele>32.666666666666664</ele><time>2026-03-22T14:25:00Z</time></trkpt><trkpt lat="48.44690972346152" lon="-4.286849286128461"><ele>33.0</ele><time>2026-03-22T14:25:02Z</time></trkpt><trkpt lat="48.44694601697889" lon="-4.286730626282398"><ele>33.333333333333336</ele><time>2026-03-22T14:25:04Z</time></trkpt><trkpt lat="48.446976031447484" lon="-4.286613877126401"><ele>33.66666666666667</ele><time>2026-03-22T14:25:06Z</time></trkpt><trkpt lat="48.44702419747691" lon="-4.286504931410734"><ele>34.0</ele><time>2026-03-22T14:25:09Z</time></trkpt><trkpt lat="48.44707301259537" lon="-4.286410938921928"><ele>34.0</ele><time>2026-03-22T14:25:13Z</time></trkpt><trkpt lat="48.44710336726332" lon="-4.286263246775967"><ele>34.0</ele><time>2026-03-22T14:25:15Z</time></trkpt><trkpt lat="48.44712406401038" lon="-4.286160252630745"><ele>34.0</ele><time>2026-03-22T14:25:17Z</time></trkpt><trkpt lat="48.44713970510311" lon="-4.286052736616783"><ele>34.0</ele><time>2026-03-22T14:25:20Z</time></trkpt><trkpt lat="48.44712737347622" lon="-4.285925186885194"><ele>34.0</ele><time>2026-03-22T14:25:22Z</time></trkpt><trkpt lat="48.44715632438314" lon="-4.285824542541008"><ele>34.0</ele><time>2026-03-22T14:25:25Z</time></trkpt><trkpt lat="48.44715908231201" lon="-4.285691663351378"><ele>36.4</ele><time>2026-03-22T14:25:29Z</time></trkpt><trkpt lat="48.447155480192095" lon="-4.285547241128978"><ele>38.8</ele><time>2026-03-22T14:25:32Z</time></trkpt><trkpt lat="48.44718189085948" lon="-4.285409320685029"><ele>41.199999999999996</ele><time>2026-03-22T14:25:34Z</time></trkpt><trkpt lat="48.44722627240865" lon="-4.285269102898259"><ele>43.599999999999994</ele><time>2026-03-22T14:25:36Z</time></trkpt><trkpt lat="48.44722711414688" lon="-4.285148097103921"><ele>46.0</ele><time>2026-03-22T14:25:40Z</time></trkpt><trkpt lat="48.44726734229991" lon="-4.285021833518482"><ele>46.0</ele><time>2026-03-22T14:25:43Z</time></trkpt><trkpt lat="48.44731694434065" lon="-4.28494966248895"><ele>46.0</ele><time>2026-03-22T14:25:45Z</time></trkpt><trkpt lat="48.447331384932795" lon="-4.284830923864275"><ele>46.0</ele><time>2026-03-22T14:25:47.999Z</time></trkpt><trkpt lat="48.44734063098381" lon="-4.284703240030885"><ele>46.0</ele><time>2026-03-22T14:25:50.999Z</time></trkpt><trkpt lat="48.44735565572941" lon="-4.284597782204764"><ele>46.0</ele><time>2026-03-22T14:25:53.999Z</time></trkpt><trkpt lat="48.44738130181892" lon="-4.284494426115804"><ele>46.0</ele><time>2026-03-22T14:25:56.999Z</time></trkpt><trkpt lat="48.4474329498292" lon="-4.2844091677230285"><ele>47.833333333333336</ele><time>2026-03-22T14:25:58.999Z</time></trkpt><trkpt lat="48.44740432191591" lon="-4.284297715362078"><ele>49.66666666666667</ele><time>2026-03-22T14:26:01.999Z</time></trkpt><trkpt lat="48.44744680274549" lon="-4.284199675786172"><ele>51.5</ele><time>2026-03-22T14:26:04.999Z</time></trkpt><trkpt lat="48.44747689017731" lon="-4.28409124387825"><ele>53.333333333333336</ele><time>2026-03-22T14:26:07.999Z</time></trkpt><trkpt lat="48.44751882742046" lon="-4.283999166968977"><ele>55.166666666666664</ele><time>2026-03-22T14:26:10.999Z</time></trkpt><trkpt lat="48.447555919775354" lon="-4.283899050951459"><ele>57.0</ele><time>2026-03-22T14:26:13.999Z</time></trkpt><trkpt lat="48.44757422683988" lon="-4.283792191815916"><ele>58.0</ele><time>2026-03-22T14:26:16.999Z</time></trkpt><trkpt lat="48.44760925522507" lon="-4.283701429114871"><ele>58.99999999999999</ele><time>2026-03-22T14:26:19.999Z</time></trkpt><trkpt lat="48.44761768411463" lon="-4.283600098619646"><ele>60.0</ele><time>2026-03-22T14:26:22.999Z</time></trkpt><trkpt lat="48.447633079074194" lon="-4.283475751082902"><ele>61.0</ele><time>2026-03-22T14:26:25.999Z</time></trkpt><trkpt lat="48.447638193772185" lon="-4.283359579127675"><ele>61.99999999999999</ele><time>2026-03-22T14:26:28.999Z</time></trkpt><trkpt lat="48.44769941363803" lon="-4.283327863124622"><ele>63.0</ele><time>2026-03-22T14:26:30.999Z</time></trkpt><trkpt lat="48.44769649335393" lon="-4.283229535858244"><ele>64.0</ele><time>2026-03-22T14:26:33.999Z</time></trkpt><trkpt lat="48.44773249712509" lon="-4.283121081370605"><ele>64.5</ele><time>2026-03-22T14:26:36.999Z</time></trkpt><trkpt lat="48.44777660779025" lon="-4.283024658996477"><ele>65.0</ele><time>2026-03-22T14:26:40.999Z</time></trkpt><trkpt lat="48.44779713338384" lon="-4.282905990960475"><ele>65.5</ele><time>2026-03-22T14:26:44.999Z</time></trkpt><trkpt lat="48.44781822682596" lon="-4.282804301739195"><ele>66.0</ele><time>2026-03-22T14:26:49Z</time></trkpt><trkpt lat="48.44783673273351" lon="-4.282683452465144"><ele>66.5</ele><time>2026-03-22T14:26:53Z</time></trkpt><trkpt lat="48.4478543438225" lon="-4.282566353419526"><ele>67.0</ele><time>2026-03-22T14:26:57Z</time></trkpt><trkpt lat="48.447891424617865" lon="-4.28247478895018"><ele>67.0</ele><time>2026-03-22T14:27:00Z</time></trkpt><trkpt lat="48.447917553226425" lon="-4.282375241485122"><ele>67.0</ele><time>2026-03-22T14:27:03Z</time></trkpt><trkpt lat="48.44791019878526" lon="-4.282261342328025"><ele>67.0</ele><time>2026-03-22T14:27:06Z</time></trkpt><trkpt lat="48.44792435861166" lon="-4.282136661635558"><ele>67.0</ele><time>2026-03-22T14:27:10Z</time></trkpt><trkpt lat="48.4479522083521" lon="-4.282042135325029"><ele>67.0</ele><time>2026-03-22T14:27:13Z</time></trkpt><trkpt lat="48.44795646939832" lon="-4.281896090328926"><ele>67.0</ele><time>2026-03-22T14:27:17Z</time></trkpt><trkpt lat="48.44800339514902" lon="-4.281796459579414"><ele>68.16666666666666</ele><time>2026-03-22T14:27:20Z</time></trkpt><trkpt lat="48.448012438545916" lon="-4.281682155601367"><ele>69.33333333333333</ele><time>2026-03-22T14:27:23Z</time></trkpt><trkpt lat="48.4480581129966" lon="-4.281582017308106"><ele>70.5</ele><time>2026-03-22T14:27:26Z</time></trkpt><trkpt lat="48.44805733786576" lon="-4.281473217366963"><ele>71.66666666666667</ele><time>2026-03-22T14:27:29Z</time></trkpt><trkpt lat="48.44808857977847" lon="-4.281344923758797"><ele>72.83333333333334</ele><time>2026-03-22T14:27:33Z</time></trkpt><trkpt lat="48.448122468680914" lon="-4.2812471540144355"><ele>74.0</ele><time>2026-03-22T14:27:36Z</time></trkpt><trkpt lat="48.44813740642417" lon="-4.281120409205112"><ele>74.33333333333334</ele><time>2026-03-22T14:27:39Z</time></trkpt><trkpt lat="48.44814909126392" lon="-4.281006119553102"><ele>74.66666666666667</ele><time>2026-03-22T14:27:42Z</time></trkpt><trkpt lat="48.4481603945219" lon="-4.280891785765508"><ele>75.0</ele><time>2026-03-22T14:27:45Z</time></trkpt><trkpt lat="48.44821153414957" lon="-4.280816767546821"><ele>75.33333333333333</ele><time>2026-03-22T14:27:47Z</time></trkpt><trkpt lat="48.44824694030367" lon="-4.280697884718557"><ele>75.66666666666666</ele><time>2026-03-22T14:27:50Z</time></trkpt><trkpt lat="48.44828705063426" lon="-4.2806221401912365"><ele>76.0</ele><time>2026-03-22T14:27:52Z</time></trkpt><trkpt lat="48.448319780471685" lon="-4.280512400070548"><ele>76.0</ele><time>2026-03-22T14:27:55Z</time></trkpt><trkpt lat="48.4483229047039" lon="-4.28037635226375"><ele>76.0</ele><time>2026-03-22T14:27:57.999Z</time></trkpt><trkpt lat="48.44834698374024" lon="-4.280258228470347"><ele>76.0</ele><time>2026-03-22T14:28:00.999Z</time></trkpt><trkpt lat="48.44836365993836" lon="-4.280125635871841"><ele>76.0</ele><time>2026-03-22T14:28:03.999Z</time></trkpt><trkpt lat="48.44838564231363" lon="-4.280012991574181"><ele>76.0</ele><time>2026-03-22T14:28:06.999Z</time></trkpt><trkpt lat="48.44839055522969" lon="-4.279900604130411"><ele>76.0</ele><time>2026-03-22T14:28:09.999Z</time></trkpt><trkpt lat="48.448400764731055" lon="-4.279793833018929"><ele>75.39999999999999</ele><time>2026-03-22T14:28:12.999Z</time></trkpt><trkpt lat="48.44841550020474" lon="-4.279681628662147"><ele>74.8</ele><time>2026-03-22T14:28:14.999Z</time></trkpt><trkpt lat="48.44846521728724" lon="-4.279611554858661"><ele>74.19999999999999</ele><time>2026-03-22T14:28:16.999Z</time></trkpt><trkpt lat="48.44858080390981" lon="-4.27935803799907"><ele>73.6</ele><time>2026-03-22T14:32:26.999Z</time></trkpt><trkpt lat="48.44858666871119" lon="-4.279253714727962"><ele>73.0</ele><time>2026-03-22T14:32:29.999Z</time></trkpt><trkpt lat="48.44854417417891" lon="-4.279162118989716"><ele>73.0</ele><time>2026-03-22T14:32:33.999Z</time></trkpt><trkpt lat="48.44837031239591" lon="-4.279121890580271"><ele>73.0</ele><time>2026-03-22T14:32:38.999Z</time></trkpt><trkpt lat="48.44829740448611" lon="-4.279089387668553"><ele>73.0</ele><time>2026-03-22T14:32:40.999Z</time></trkpt><trkpt lat="48.44835431040715" lon="-4.279166342804692"><ele>73.0</ele><time>2026-03-22T14:32:58.999Z</time></trkpt><trkpt lat="48.448412198737635" lon="-4.279224467838847"><ele>73.0</ele><time>2026-03-22T14:33:03.999Z</time></trkpt><trkpt lat="48.44853089036457" lon="-4.279271050611113"><ele>73.0</ele><time>2026-03-22T14:33:14.999Z</time></trkpt><trkpt lat="48.4485453931638" lon="-4.279161978706918"><ele>73.0</ele><time>2026-03-22T14:33:19Z</time></trkpt><trkpt lat="48.448566489602186" lon="-4.279046133222231"><ele>73.0</ele><time>2026-03-22T14:33:24Z</time></trkpt><trkpt lat="48.44859192418234" lon="-4.278930380011474"><ele>73.0</ele><time>2026-03-22T14:33:27Z</time></trkpt><trkpt lat="48.44861416712439" lon="-4.278784047862477"><ele>73.0</ele><time>2026-03-22T14:33:30Z</time></trkpt><trkpt lat="48.44862638780605" lon="-4.278624821094098"><ele>73.0</ele><time>2026-03-22T14:33:32Z</time></trkpt><trkpt lat="48.448668484483505" lon="-4.2784506411694005"><ele>72.71428571428571</ele><time>2026-03-22T14:33:34Z</time></trkpt><trkpt lat="48.44868269483873" lon="-4.278350133459261"><ele>72.42857142857143</ele><time>2026-03-22T14:33:35Z</time></trkpt><trkpt lat="48.44870383604016" lon="-4.278245246003906"><ele>72.14285714285714</ele><time>2026-03-22T14:33:36Z</time></trkpt><trkpt lat="48.448715127842775" lon="-4.278143774827669"><ele>71.85714285714286</ele><time>2026-03-22T14:33:37Z</time></trkpt><trkpt lat="48.448729215173934" lon="-4.278032526723635"><ele>71.57142857142857</ele><time>2026-03-22T14:33:38Z</time></trkpt><trkpt lat="48.448766507718844" lon="-4.277925176467675"><ele>71.28571428571428</ele><time>2026-03-22T14:33:39Z</time></trkpt><trkpt lat="48.44878281362814" lon="-4.277803898609187"><ele>71.0</ele><time>2026-03-22T14:33:40Z</time></trkpt><trkpt lat="48.448791510272535" lon="-4.277696764245903"><ele>71.0</ele><time>2026-03-22T14:33:41Z</time></trkpt><trkpt lat="48.44881336228267" lon="-4.2775794925261685"><ele>71.0</ele><time>2026-03-22T14:33:42Z</time></trkpt><trkpt lat="48.448829252255436" lon="-4.277462187201584"><ele>71.0</ele><time>2026-03-22T14:33:43Z</time></trkpt><trkpt lat="48.448846994542606" lon="-4.277344690060087"><ele>71.0</ele><time>2026-03-22T14:33:44Z</time></trkpt><trkpt lat="48.44886756970564" lon="-4.277251777370712"><ele>71.0</ele><time>2026-03-22T14:33:45Z</time></trkpt><trkpt lat="48.448892035261785" lon="-4.277085563946493"><ele>71.0</ele><time>2026-03-22T14:33:47Z</time></trkpt><trkpt lat="48.448907040261204" lon="-4.2769854450055"><ele>71.0</ele><time>2026-03-22T14:33:49Z</time></trkpt><trkpt lat="48.44893315630528" lon="-4.276894262760445"><ele>71.0</ele><time>2026-03-22T14:33:51Z</time></trkpt><trkpt lat="48.4489635242532" lon="-4.276751736209142"><ele>71.0</ele><time>2026-03-22T14:33:53Z</time></trkpt><trkpt lat="48.44897998338819" lon="-4.2766310849507265"><ele>71.0</ele><time>2026-03-22T14:33:54Z</time></trkpt><trkpt lat="48.44901397100351" lon="-4.276444535919282"><ele>71.0</ele><time>2026-03-22T14:33:56Z</time></trkpt><trkpt lat="48.44903366241637" lon="-4.276342707580643"><ele>71.0</ele><time>2026-03-22T14:33:57Z</time></trkpt><trkpt lat="48.44905350736579" lon="-4.276223631253096"><ele>70.5</ele><time>2026-03-22T14:33:58Z</time></trkpt><trkpt lat="48.449067801413314" lon="-4.276101108005948"><ele>70.0</ele><time>2026-03-22T14:33:59Z</time></trkpt><trkpt lat="48.44908396643602" lon="-4.27598461469843"><ele>69.5</ele><time>2026-03-22T14:34:00Z</time></trkpt><trkpt lat="48.44910868458552" lon="-4.275858804939707"><ele>69.0</ele><time>2026-03-22T14:34:01Z</time></trkpt><trkpt lat="48.44912876751115" lon="-4.275726843178307"><ele>68.5</ele><time>2026-03-22T14:34:02Z</time></trkpt><trkpt lat="48.449152842692165" lon="-4.275609414132826"><ele>68.0</ele><time>2026-03-22T14:34:03Z</time></trkpt><trkpt lat="48.44917200464469" lon="-4.275486894205957"><ele>67.4</ele><time>2026-03-22T14:34:04Z</time></trkpt><trkpt lat="48.44919161551318" lon="-4.275363385929685"><ele>66.8</ele><time>2026-03-22T14:34:05Z</time></trkpt><trkpt lat="48.44921211282691" lon="-4.275237992217501"><ele>66.2</ele><time>2026-03-22T14:34:06Z</time></trkpt><trkpt lat="48.44922824184204" lon="-4.275132296151976"><ele>65.6</ele><time>2026-03-22T14:34:07Z</time></trkpt><trkpt lat="48.449263432153245" lon="-4.27495091112936"><ele>65.0</ele><time>2026-03-22T14:34:09Z</time></trkpt><trkpt lat="48.44928211214727" lon="-4.274763399662829"><ele>64.5</ele><time>2026-03-22T14:34:11Z</time></trkpt><trkpt lat="48.44929176255863" lon="-4.274666436439095"><ele>64.0</ele><time>2026-03-22T14:34:12Z</time></trkpt><trkpt lat="48.44931989532365" lon="-4.274492428558089"><ele>63.5</ele><time>2026-03-22T14:34:14Z</time></trkpt><trkpt lat="48.44933101565689" lon="-4.274363254464351"><ele>63.0</ele><time>2026-03-22T14:34:15Z</time></trkpt><trkpt lat="48.449339502427776" lon="-4.274241279917526"><ele>62.50000000000001</ele><time>2026-03-22T14:34:16Z</time></trkpt><trkpt lat="48.44935023598335" lon="-4.274107666284484"><ele>62.0</ele><time>2026-03-22T14:34:17Z</time></trkpt><trkpt lat="48.44936288886474" lon="-4.273968059647161"><ele>61.66666666666667</ele><time>2026-03-22T14:34:18Z</time></trkpt><trkpt lat="48.44937783211914" lon="-4.273839724217351"><ele>61.333333333333336</ele><time>2026-03-22T14:34:19Z</time></trkpt><trkpt lat="48.44939236409549" lon="-4.273698495545669"><ele>61.0</ele><time>2026-03-22T14:34:20Z</time></trkpt><trkpt lat="48.44940566087361" lon="-4.273571378377279"><ele>60.66666666666667</ele><time>2026-03-22T14:34:21Z</time></trkpt><trkpt lat="48.449410472913826" lon="-4.27344667951893"><ele>60.333333333333336</ele><time>2026-03-22T14:34:22Z</time></trkpt><trkpt lat="48.44941733893" lon="-4.273350978373793"><ele>60.0</ele><time>2026-03-22T14:34:23Z</time></trkpt><trkpt lat="48.44941513376515" lon="-4.273254992203319"><ele>60.0</ele><time>2026-03-22T14:34:24Z</time></trkpt><trkpt lat="48.449395871226" lon="-4.273153988776316"><ele>60.0</ele><time>2026-03-22T14:34:25Z</time></trkpt><trkpt lat="48.449386605539466" lon="-4.273047074729649"><ele>60.0</ele><time>2026-03-22T14:34:26Z</time></trkpt><trkpt lat="48.44941426199581" lon="-4.272934935360968"><ele>60.0</ele><time>2026-03-22T14:34:26.999Z</time></trkpt><trkpt lat="48.44946618226307" lon="-4.272837520904262"><ele>60.0</ele><time>2026-03-22T14:34:27.999Z</time></trkpt><trkpt lat="48.44947568322741" lon="-4.272708410037365"><ele>60.0</ele><time>2026-03-22T14:34:28.999Z</time></trkpt><trkpt lat="48.44948082886381" lon="-4.272563274851749"><ele>59.6</ele><time>2026-03-22T14:34:29.999Z</time></trkpt><trkpt lat="48.44949358959179" lon="-4.27242294751646"><ele>59.2</ele><time>2026-03-22T14:34:30.999Z</time></trkpt><trkpt lat="48.449509799845266" lon="-4.272270738376784"><ele>58.8</ele><time>2026-03-22T14:34:31.999Z</time></trkpt><trkpt lat="48.44952245488586" lon="-4.272113413521585"><ele>58.4</ele><time>2026-03-22T14:34:32.999Z</time></trkpt><trkpt lat="48.449543125412845" lon="-4.271976376711068"><ele>58.0</ele><time>2026-03-22T14:34:33.999Z</time></trkpt><trkpt lat="48.44955691547311" lon="-4.271846712312057"><ele>56.666666666666664</ele><time>2026-03-22T14:34:34.999Z</time></trkpt><trkpt lat="48.44957207585247" lon="-4.271700443646817"><ele>55.33333333333333</ele><time>2026-03-22T14:34:35.999Z</time></trkpt><trkpt lat="48.44958329097311" lon="-4.271566408480487"><ele>54.0</ele><time>2026-03-22T14:34:36.999Z</time></trkpt><trkpt lat="48.44959341441906" lon="-4.271462820473627"><ele>52.66666666666667</ele><time>2026-03-22T14:34:37.999Z</time></trkpt><trkpt lat="48.4496008253838" lon="-4.271328609145302"><ele>51.333333333333336</ele><time>2026-03-22T14:34:38.999Z</time></trkpt><trkpt lat="48.44958975167261" lon="-4.271195571807505"><ele>50.0</ele><time>2026-03-22T14:34:39.999Z</time></trkpt><trkpt lat="48.4496057812103" lon="-4.271049889696679"><ele>49.6</ele><time>2026-03-22T14:34:40.999Z</time></trkpt><trkpt lat="48.44965840936915" lon="-4.270889880790044"><ele>49.2</ele><time>2026-03-22T14:34:41.999Z</time></trkpt><trkpt lat="48.44968482819042" lon="-4.2707445282724965"><ele>48.8</ele><time>2026-03-22T14:34:42.999Z</time></trkpt><trkpt lat="48.44970648182331" lon="-4.27058195011461"><ele>48.4</ele><time>2026-03-22T14:34:43.999Z</time></trkpt><trkpt lat="48.449733196892204" lon="-4.270420320045598"><ele>48.0</ele><time>2026-03-22T14:34:44.999Z</time></trkpt><trkpt lat="48.4497567409861" lon="-4.2702551058942895"><ele>46.599999999999994</ele><time>2026-03-22T14:34:45.999Z</time></trkpt><trkpt lat="48.44978236696641" lon="-4.2701057323044775"><ele>45.199999999999996</ele><time>2026-03-22T14:34:46.999Z</time></trkpt><trkpt lat="48.44979984981585" lon="-4.269953902969308"><ele>43.8</ele><time>2026-03-22T14:34:47.999Z</time></trkpt><trkpt lat="48.44984459484363" lon="-4.26980055347293"><ele>42.4</ele><time>2026-03-22T14:34:48.999Z</time></trkpt><trkpt lat="48.449885899210926" lon="-4.269658047424489"><ele>41.0</ele><time>2026-03-22T14:34:49.999Z</time></trkpt><trkpt lat="48.44993195703898" lon="-4.269528519951684"><ele>38.8</ele><time>2026-03-22T14:34:50.999Z</time></trkpt><trkpt lat="48.449959512378605" lon="-4.269398815769724"><ele>36.599999999999994</ele><time>2026-03-22T14:34:51.999Z</time></trkpt><trkpt lat="48.44994356608828" lon="-4.26928647861434"><ele>34.4</ele><time>2026-03-22T14:34:52.999Z</time></trkpt><trkpt lat="48.44986173330493" lon="-4.269180954397115"><ele>32.2</ele><time>2026-03-22T14:34:53.999Z</time></trkpt><trkpt lat="48.449851883008996" lon="-4.269061677575363"><ele>30.0</ele><time>2026-03-22T14:34:54.999Z</time></trkpt><trkpt lat="48.44986920558802" lon="-4.2689001352312905"><ele>28.4</ele><time>2026-03-22T14:34:55.999Z</time></trkpt><trkpt lat="48.449872796525" lon="-4.268740514026681"><ele>26.8</ele><time>2026-03-22T14:34:56.999Z</time></trkpt><trkpt lat="48.44987892190734" lon="-4.26859335270538"><ele>25.200000000000003</ele><time>2026-03-22T14:34:57.999Z</time></trkpt><trkpt lat="48.449895117679965" lon="-4.268429897890185"><ele>23.6</ele><time>2026-03-22T14:34:58.999Z</time></trkpt><trkpt lat="48.44991143805911" lon="-4.2682506768499024"><ele>22.0</ele><time>2026-03-22T14:34:59.999Z</time></trkpt><trkpt lat="48.4499385497781" lon="-4.268086985319119"><ele>21.6</ele><time>2026-03-22T14:35:00.999Z</time></trkpt><trkpt lat="48.449951376440744" lon="-4.267919664974151"><ele>21.200000000000003</ele><time>2026-03-22T14:35:01.999Z</time></trkpt><trkpt lat="48.44996254510444" lon="-4.267756145451264"><ele>20.8</ele><time>2026-03-22T14:35:02.999Z</time></trkpt><trkpt lat="48.449978819018895" lon="-4.267593992389136"><ele>20.4</ele><time>2026-03-22T14:35:03.999Z</time></trkpt><trkpt lat="48.44999679639384" lon="-4.267445525942417"><ele>20.0</ele><time>2026-03-22T14:35:04.999Z</time></trkpt><trkpt lat="48.45001011468253" lon="-4.267296789591586"><ele>19.8</ele><time>2026-03-22T14:35:05.999Z</time></trkpt><trkpt lat="48.450032507604185" lon="-4.267148290855952"><ele>19.6</ele><time>2026-03-22T14:35:06.999Z</time></trkpt><trkpt lat="48.450078326017085" lon="-4.267016032030184"><ele>19.4</ele><time>2026-03-22T14:35:07.999Z</time></trkpt><trkpt lat="48.45013460378145" lon="-4.266888851136735"><ele>19.2</ele><time>2026-03-22T14:35:08.999Z</time></trkpt><trkpt lat="48.45019916646566" lon="-4.266778674829256"><ele>19.0</ele><time>2026-03-22T14:35:09.999Z</time></trkpt><trkpt lat="48.450279507772784" lon="-4.266696537190484"><ele>19.0</ele><time>2026-03-22T14:35:10.999Z</time></trkpt><trkpt lat="48.45033703135402" lon="-4.266575623192799"><ele>19.0</ele><time>2026-03-22T14:35:11.999Z</time></trkpt><trkpt lat="48.45039355749754" lon="-4.266467970498222"><ele>19.0</ele><time>2026-03-22T14:35:12.999Z</time></trkpt><trkpt lat="48.450458661050355" lon="-4.266383875091578"><ele>19.0</ele><time>2026-03-22T14:35:13.999Z</time></trkpt><trkpt lat="48.45051161114674" lon="-4.2662788239867195"><ele>19.0</ele><time>2026-03-22T14:35:14.999Z</time></trkpt><trkpt lat="48.45057095320113" lon="-4.266163110644687"><ele>18.833333333333332</ele><time>2026-03-22T14:35:15.999Z</time></trkpt><trkpt lat="48.45061877249572" lon="-4.26606630827796"><ele>18.666666666666664</ele><time>2026-03-22T14:35:16.999Z</time></trkpt><trkpt lat="48.45067653272879" lon="-4.265954879358589"><ele>18.5</ele><time>2026-03-22T14:35:17.999Z</time></trkpt><trkpt lat="48.450719456938835" lon="-4.265860580907085"><ele>18.333333333333332</ele><time>2026-03-22T14:35:18.999Z</time></trkpt><trkpt lat="48.45077555192207" lon="-4.265771124047701"><ele>18.166666666666668</ele><time>2026-03-22T14:35:19.999Z</time></trkpt><trkpt lat="48.45082268623881" lon="-4.265655757378402"><ele>18.0</ele><time>2026-03-22T14:35:20.999Z</time></trkpt><trkpt lat="48.4508749368421" lon="-4.26555345872583"><ele>18.0</ele><time>2026-03-22T14:35:21.999Z</time></trkpt><trkpt lat="48.45092403357832" lon="-4.265460050640267"><ele>18.0</ele><time>2026-03-22T14:35:23Z</time></trkpt><trkpt lat="48.45099209260156" lon="-4.265388268698064"><ele>18.0</ele><time>2026-03-22T14:35:24Z</time></trkpt><trkpt lat="48.451042096939425" lon="-4.265309006410367"><ele>18.0</ele><time>2026-03-22T14:35:25Z</time></trkpt><trkpt lat="48.45106910890075" lon="-4.26521847130302"><ele>18.0</ele><time>2026-03-22T14:35:26Z</time></trkpt><trkpt lat="48.45114641266877" lon="-4.265125894754013"><ele>18.0</ele><time>2026-03-22T14:35:28Z</time></trkpt><trkpt lat="48.45120761673818" lon="-4.265189732977275"><ele>18.0</ele><time>2026-03-22T14:35:29Z</time></trkpt><trkpt lat="48.45123920860337" lon="-4.265286506706927"><ele>18.0</ele><time>2026-03-22T14:35:30Z</time></trkpt><trkpt lat="48.451301338826376" lon="-4.265372766397477"><ele>18.0</ele><time>2026-03-22T14:35:32Z</time></trkpt><trkpt lat="48.45148228341454" lon="-4.265399519978942"><ele>18.0</ele><time>2026-03-22T14:35:37Z</time></trkpt><trkpt lat="48.45139296565975" lon="-4.265436941871745"><ele>18.0</ele><time>2026-03-22T14:35:42Z</time></trkpt><trkpt lat="48.451313270421736" lon="-4.265395686526962"><ele>18.0</ele><time>2026-03-22T14:35:44Z</time></trkpt><trkpt lat="48.45121823588309" lon="-4.265382498337597"><ele>18.0</ele><time>2026-03-22T14:35:46Z</time></trkpt><trkpt lat="48.45111809060208" lon="-4.265380023374645"><ele>18.0</ele><time>2026-03-22T14:35:48Z</time></trkpt><trkpt lat="48.451074293124705" lon="-4.265292363255"><ele>18.0</ele><time>2026-03-22T14:35:50Z</time></trkpt><trkpt lat="48.45111781149965" lon="-4.265155667601708"><ele>18.0</ele><time>2026-03-22T14:35:52Z</time></trkpt><trkpt lat="48.451136093160265" lon="-4.265029780101827"><ele>18.0</ele><time>2026-03-22T14:35:54Z</time></trkpt><trkpt lat="48.45117603326835" lon="-4.264898957641996"><ele>18.0</ele><time>2026-03-22T14:35:56Z</time></trkpt><trkpt lat="48.4512196616082" lon="-4.264784334933967"><ele>18.0</ele><time>2026-03-22T14:35:58Z</time></trkpt><trkpt lat="48.45126505522681" lon="-4.264673338723266"><ele>18.0</ele><time>2026-03-22T14:36:00Z</time></trkpt><trkpt lat="48.45131120135131" lon="-4.264580413117172"><ele>18.0</ele><time>2026-03-22T14:36:02Z</time></trkpt><trkpt lat="48.451346910510544" lon="-4.264449563776784"><ele>18.0</ele><time>2026-03-22T14:36:05Z</time></trkpt><trkpt lat="48.45138332446804" lon="-4.26434382378127"><ele>18.666666666666668</ele><time>2026-03-22T14:36:08Z</time></trkpt><trkpt lat="48.45141983682069" lon="-4.264241595340053"><ele>19.333333333333332</ele><time>2026-03-22T14:36:10Z</time></trkpt><trkpt lat="48.45146813403232" lon="-4.26413885316709"><ele>20.0</ele><time>2026-03-22T14:36:12Z</time></trkpt><trkpt lat="48.45149573980718" lon="-4.26402550932415"><ele>20.666666666666664</ele><time>2026-03-22T14:36:14Z</time></trkpt><trkpt lat="48.451535397607216" lon="-4.2639317257693214"><ele>21.333333333333332</ele><time>2026-03-22T14:36:16Z</time></trkpt><trkpt lat="48.45158962755144" lon="-4.263837325755006"><ele>22.0</ele><time>2026-03-22T14:36:18Z</time></trkpt><trkpt lat="48.45163614174873" lon="-4.263715877680797"><ele>22.0</ele><time>2026-03-22T14:36:20Z</time></trkpt><trkpt lat="48.45169864807007" lon="-4.263550021793218"><ele>22.0</ele><time>2026-03-22T14:36:22Z</time></trkpt><trkpt lat="48.451771519316736" lon="-4.263417580662372"><ele>22.0</ele><time>2026-03-22T14:36:24Z</time></trkpt><trkpt lat="48.45179880380901" lon="-4.263323221323953"><ele>22.0</ele><time>2026-03-22T14:36:28Z</time></trkpt></trkseg><trkseg><trkpt lat="48.454050472313696" lon="-4.258868783256844"><ele>24.0</ele><time>2026-03-22T14:38:57.999Z</time></trkpt><trkpt lat="48.454086895850416" lon="-4.258756931708951"><ele>24.0</ele><time>2026-03-22T14:38:59.999Z</time></trkpt><trkpt lat="48.45412603398105" lon="-4.258648083832419"><ele>24.0</ele><time>2026-03-22T14:39:01.999Z</time></trkpt><trkpt lat="48.454171586577026" lon="-4.258526904028978"><ele>24.0</ele><time>2026-03-22T14:39:03.999Z</time></trkpt><trkpt lat="48.45421569738855" lon="-4.25840269911381"><ele>24.0</ele><time>2026-03-22T14:39:05.999Z</time></trkpt><trkpt lat="48.45422650596367" lon="-4.258253693538684"><ele>23.799999999999997</ele><time>2026-03-22T14:39:07.999Z</time></trkpt><trkpt lat="48.45420854941563" lon="-4.258110637846711"><ele>23.599999999999998</ele><time>2026-03-22T14:39:09.999Z</time></trkpt><trkpt lat="48.454176385411856" lon="-4.257989722532191"><ele>23.4</ele><time>2026-03-22T14:39:11.999Z</time></trkpt><trkpt lat="48.45411020626377" lon="-4.257896033686323"><ele>23.2</ele><time>2026-03-22T14:39:13.999Z</time></trkpt><trkpt lat="48.453993902920665" lon="-4.257858246056442"><ele>23.0</ele><time>2026-03-22T14:39:15.999Z</time></trkpt><trkpt lat="48.45387113200161" lon="-4.257849351700556"><ele>22.599999999999998</ele><time>2026-03-22T14:39:17.999Z</time></trkpt><trkpt lat="48.4537508798083" lon="-4.2577709939346295"><ele>22.2</ele><time>2026-03-22T14:39:19.999Z</time></trkpt><trkpt lat="48.45369518030431" lon="-4.2577187018499885"><ele>21.8</ele><time>2026-03-22T14:39:20.999Z</time></trkpt><trkpt lat="48.453586097115696" lon="-4.257620426321663"><ele>21.4</ele><time>2026-03-22T14:39:22.999Z</time></trkpt><trkpt lat="48.453487936230765" lon="-4.257522200059549"><ele>21.0</ele><time>2026-03-22T14:39:24.999Z</time></trkpt><trkpt lat="48.45338418942541" lon="-4.257429581524307"><ele>21.0</ele><time>2026-03-22T14:39:26.999Z</time></trkpt><trkpt lat="48.453282830213276" lon="-4.257313445811818"><ele>21.0</ele><time>2026-03-22T14:39:28.999Z</time></trkpt><trkpt lat="48.45324775148931" lon="-4.257223119382489"><ele>21.0</ele><time>2026-03-22T14:39:29.999Z</time></trkpt><trkpt lat="48.45321358681641" lon="-4.2571201052233265"><ele>21.0</ele><time>2026-03-22T14:39:30.999Z</time></trkpt><trkpt lat="48.453199365100886" lon="-4.257007548730526"><ele>21.0</ele><time>2026-03-22T14:39:31.999Z</time></trkpt><trkpt lat="48.453201642998316" lon="-4.256896105830911"><ele>21.0</ele><time>2026-03-22T14:39:32.999Z</time></trkpt><trkpt lat="48.453214314132246" lon="-4.2567932186559325"><ele>21.0</ele><time>2026-03-22T14:39:33.999Z</time></trkpt><trkpt lat="48.45323394870946" lon="-4.256691418377908"><ele>21.0</ele><time>2026-03-22T14:39:35Z</time></trkpt><trkpt lat="48.453271689251764" lon="-4.2565273760221825"><ele>21.0</ele><time>2026-03-22T14:39:37Z</time></trkpt><trkpt lat="48.45328637098271" lon="-4.2564028732920764"><ele>21.0</ele><time>2026-03-22T14:39:39Z</time></trkpt><trkpt lat="48.45328510483455" lon="-4.256275381974893"><ele>21.0</ele><time>2026-03-22T14:39:41Z</time></trkpt><trkpt lat="48.45338202993157" lon="-4.256192022611017"><ele>21.0</ele><time>2026-03-22T14:39:43Z</time></trkpt><trkpt lat="48.45346604751957" lon="-4.256129024128855"><ele>21.0</ele><time>2026-03-22T14:39:45Z</time></trkpt><trkpt lat="48.45354274294669" lon="-4.255949208757058"><ele>21.0</ele><time>2026-03-22T14:39:48Z</time></trkpt><trkpt lat="48.453588076483804" lon="-4.255820511647449"><ele>21.0</ele><time>2026-03-22T14:39:50Z</time></trkpt><trkpt lat="48.45359631928152" lon="-4.255700239803252"><ele>21.0</ele><time>2026-03-22T14:39:52Z</time></trkpt><trkpt lat="48.45351841516828" lon="-4.255603433864601"><ele>20.666666666666668</ele><time>2026-03-22T14:39:54Z</time></trkpt><trkpt lat="48.453451090331846" lon="-4.255479147065301"><ele>20.333333333333332</ele><time>2026-03-22T14:39:56Z</time></trkpt><trkpt lat="48.453408417295705" lon="-4.255404255699079"><ele>20.0</ele><time>2026-03-22T14:39:57Z</time></trkpt><trkpt lat="48.453325002955225" lon="-4.255264758955539"><ele>19.666666666666664</ele><time>2026-03-22T14:39:59Z</time></trkpt><trkpt lat="48.45327456060285" lon="-4.25519058258554"><ele>19.333333333333332</ele><time>2026-03-22T14:40:00Z</time></trkpt><trkpt lat="48.45323258441257" lon="-4.255118630111018"><ele>19.0</ele><time>2026-03-22T14:40:01Z</time></trkpt><trkpt lat="48.453193517234155" lon="-4.255038959930211"><ele>19.0</ele><time>2026-03-22T14:40:02Z</time></trkpt><trkpt lat="48.45312991203797" lon="-4.2548978488586515"><ele>19.0</ele><time>2026-03-22T14:40:04Z</time></trkpt><trkpt lat="48.45307578230953" lon="-4.254829674215582"><ele>19.0</ele><time>2026-03-22T14:40:05Z</time></trkpt><trkpt lat="48.45300325602233" lon="-4.254701854984223"><ele>19.0</ele><time>2026-03-22T14:40:07Z</time></trkpt><trkpt lat="48.45293807731464" lon="-4.254566284821077"><ele>19.0</ele><time>2026-03-22T14:40:09Z</time></trkpt><trkpt lat="48.4528526342948" lon="-4.254451537222269"><ele>18.333333333333332</ele><time>2026-03-22T14:40:11Z</time></trkpt><trkpt lat="48.4527672785902" lon="-4.254328387299535"><ele>17.666666666666664</ele><time>2026-03-22T14:40:13Z</time></trkpt><trkpt lat="48.45270490395757" lon="-4.25428277216929"><ele>17.0</ele><time>2026-03-22T14:40:14Z</time></trkpt><trkpt lat="48.45264303393425" lon="-4.254213646057437"><ele>16.333333333333332</ele><time>2026-03-22T14:40:15Z</time></trkpt><trkpt lat="48.45259066773333" lon="-4.254156183151627"><ele>15.666666666666666</ele><time>2026-03-22T14:40:16Z</time></trkpt><trkpt lat="48.45252817099059" lon="-4.254096855813612"><ele>15.0</ele><time>2026-03-22T14:40:17Z</time></trkpt><trkpt lat="48.452456009939276" lon="-4.2539745866670415"><ele>15.0</ele><time>2026-03-22T14:40:19Z</time></trkpt><trkpt lat="48.45238052763769" lon="-4.25390726019948"><ele>15.0</ele><time>2026-03-22T14:40:21Z</time></trkpt><trkpt lat="48.452290606872296" lon="-4.253967846152741"><ele>15.0</ele><time>2026-03-22T14:40:23Z</time></trkpt><trkpt lat="48.45224877458535" lon="-4.254055831968466"><ele>15.0</ele><time>2026-03-22T14:40:25Z</time></trkpt><trkpt lat="48.45220297323456" lon="-4.254159882885664"><ele>15.0</ele><time>2026-03-22T14:40:28Z</time></trkpt><trkpt lat="48.45223599394468" lon="-4.254054158332091"><ele>15.0</ele><time>2026-03-22T14:41:11.999Z</time></trkpt><trkpt lat="48.452291348653695" lon="-4.253997859923769"><ele>14.8</ele><time>2026-03-22T14:41:13.999Z</time></trkpt><trkpt lat="48.45228558589728" lon="-4.253887192232867"><ele>14.6</ele><time>2026-03-22T14:41:17.999Z</time></trkpt><trkpt lat="48.45222588856465" lon="-4.253795621321526"><ele>14.399999999999999</ele><time>2026-03-22T14:41:19.999Z</time></trkpt><trkpt lat="48.45214634763657" lon="-4.25370167019824"><ele>14.2</ele><time>2026-03-22T14:41:21.999Z</time></trkpt><trkpt lat="48.45207810280066" lon="-4.253620205524409"><ele>14.0</ele><time>2026-03-22T14:41:23.999Z</time></trkpt><trkpt lat="48.45196002205481" lon="-4.253633034621508"><ele>13.833333333333334</ele><time>2026-03-22T14:41:25.999Z</time></trkpt><trkpt lat="48.45188358078956" lon="-4.2536816545010145"><ele>13.666666666666668</ele><time>2026-03-22T14:41:27.999Z</time></trkpt><trkpt lat="48.45180612134314" lon="-4.25368606930303"><ele>13.5</ele><time>2026-03-22T14:41:29.999Z</time></trkpt><trkpt lat="48.4517438903359" lon="-4.2536354476906215"><ele>13.333333333333332</ele><time>2026-03-22T14:41:31.999Z</time></trkpt><trkpt lat="48.45165640400941" lon="-4.253600024097603"><ele>13.166666666666666</ele><time>2026-03-22T14:41:34.999Z</time></trkpt><trkpt lat="48.451618251083495" lon="-4.253702573608864"><ele>13.0</ele><time>2026-03-22T14:41:36.999Z</time></trkpt><trkpt lat="48.451593388492604" lon="-4.253822369437814"><ele>12.833333333333332</ele><time>2026-03-22T14:41:38.999Z</time></trkpt><trkpt lat="48.45160984236357" lon="-4.253988254728447"><ele>12.666666666666666</ele><time>2026-03-22T14:41:41Z</time></trkpt><trkpt lat="48.45159240872104" lon="-4.254102534920837"><ele>12.5</ele><time>2026-03-22T14:41:43Z</time></trkpt><trkpt lat="48.45158288372461" lon="-4.254225199075896"><ele>12.333333333333332</ele><time>2026-03-22T14:41:45Z</time></trkpt><trkpt lat="48.4515710763224" lon="-4.254348495038632"><ele>12.166666666666666</ele><time>2026-03-22T14:41:47Z</time></trkpt><trkpt lat="48.45155711639642" lon="-4.254475435592863"><ele>12.0</ele><time>2026-03-22T14:41:49Z</time></trkpt><trkpt lat="48.45154205996316" lon="-4.254597991495212"><ele>12.0</ele><time>2026-03-22T14:41:51Z</time></trkpt><trkpt lat="48.45153042661809" lon="-4.254705736962828"><ele>12.0</ele><time>2026-03-22T14:41:53Z</time></trkpt><trkpt lat="48.451506398745025" lon="-4.254848856993943"><ele>12.0</ele><time>2026-03-22T14:41:55Z</time></trkpt><trkpt lat="48.451469195987364" lon="-4.254937107468387"><ele>12.0</ele><time>2026-03-22T14:41:58Z</time></trkpt><trkpt lat="48.45140017719227" lon="-4.254960355841842"><ele>12.0</ele><time>2026-03-22T14:42:01Z</time></trkpt><trkpt lat="48.45131949453992" lon="-4.2549373403572455"><ele>12.0</ele><time>2026-03-22T14:42:03Z</time></trkpt><trkpt lat="48.451243162345186" lon="-4.254867584670376"><ele>11.5</ele><time>2026-03-22T14:42:05Z</time></trkpt><trkpt lat="48.4511987643603" lon="-4.254772819311288"><ele>11.0</ele><time>2026-03-22T14:42:08Z</time></trkpt><trkpt lat="48.45111940679542" lon="-4.254772545056869"><ele>10.5</ele><time>2026-03-22T14:42:24Z</time></trkpt><trkpt lat="48.45106810409884" lon="-4.254716391321601"><ele>10.0</ele><time>2026-03-22T14:42:29Z</time></trkpt><trkpt lat="48.45104872188905" lon="-4.25460870750076"><ele>9.5</ele><time>2026-03-22T14:42:31Z</time></trkpt><trkpt lat="48.45104191898668" lon="-4.254506643843008"><ele>9.0</ele><time>2026-03-22T14:42:32Z</time></trkpt><trkpt lat="48.45100817344608" lon="-4.254331955546398"><ele>9.0</ele><time>2026-03-22T14:42:34Z</time></trkpt><trkpt lat="48.45094912926593" lon="-4.254263109491375"><ele>9.0</ele><time>2026-03-22T14:42:35Z</time></trkpt><trkpt lat="48.45092773292872" lon="-4.254098481850644"><ele>9.0</ele><time>2026-03-22T14:42:37Z</time></trkpt><trkpt lat="48.45090857240887" lon="-4.253963321666666"><ele>9.0</ele><time>2026-03-22T14:42:39Z</time></trkpt><trkpt lat="48.45088598717731" lon="-4.253833546218456"><ele>9.0</ele><time>2026-03-22T14:42:41Z</time></trkpt><trkpt lat="48.45085853822431" lon="-4.2536908062452135"><ele>9.25</ele><time>2026-03-22T14:42:43Z</time></trkpt><trkpt lat="48.4507804306198" lon="-4.253645668249667"><ele>9.5</ele><time>2026-03-22T14:42:45Z</time></trkpt><trkpt lat="48.450731706367776" lon="-4.253453937124294"><ele>9.75</ele><time>2026-03-22T14:42:46.999Z</time></trkpt><trkpt lat="48.45061368333161" lon="-4.253351545040926"><ele>10.0</ele><time>2026-03-22T14:42:48.999Z</time></trkpt><trkpt lat="48.45045808221137" lon="-4.2532314420768005"><ele>10.0</ele><time>2026-03-22T14:42:50.999Z</time></trkpt><trkpt lat="48.45039849693659" lon="-4.25318973887368"><ele>10.0</ele><time>2026-03-22T14:42:51.999Z</time></trkpt><trkpt lat="48.450333664446006" lon="-4.253135571615646"><ele>10.0</ele><time>2026-03-22T14:42:52.999Z</time></trkpt><trkpt lat="48.45024944735275" lon="-4.253071595457608"><ele>10.0</ele><time>2026-03-22T14:42:53.999Z</time></trkpt><trkpt lat="48.45017294537492" lon="-4.253073483074782"><ele>10.0</ele><time>2026-03-22T14:42:54.999Z</time></trkpt><trkpt lat="48.450117372678854" lon="-4.253011440573438"><ele>10.0</ele><time>2026-03-22T14:42:55.999Z</time></trkpt><trkpt lat="48.45006480960186" lon="-4.252928027502678"><ele>10.0</ele><time>2026-03-22T14:42:56.999Z</time></trkpt><trkpt lat="48.44995061471915" lon="-4.252833847323168"><ele>10.0</ele><time>2026-03-22T14:42:58.999Z</time></trkpt><trkpt lat="48.44984292648835" lon="-4.252734498614595"><ele>10.0</ele><time>2026-03-22T14:43:00.999Z</time></trkpt><trkpt lat="48.44972724886829" lon="-4.252660726861489"><ele>10.0</ele><time>2026-03-22T14:43:02.999Z</time></trkpt><trkpt lat="48.4496294489476" lon="-4.2526057375585715"><ele>9.4</ele><time>2026-03-22T14:43:04.999Z</time></trkpt><trkpt lat="48.449532855384064" lon="-4.25255425716085"><ele>8.8</ele><time>2026-03-22T14:43:06.999Z</time></trkpt><trkpt lat="48.44947603998309" lon="-4.252506806313519"><ele>8.2</ele><time>2026-03-22T14:43:08.999Z</time></trkpt><trkpt lat="48.4493955900253" lon="-4.252483277023039"><ele>7.6</ele><time>2026-03-22T14:43:10.999Z</time></trkpt><trkpt lat="48.44929774721256" lon="-4.2523825471218615"><ele>7.0</ele><time>2026-03-22T14:43:12.999Z</time></trkpt><trkpt lat="48.449201070126854" lon="-4.252336693110184"><ele>7.0</ele><time>2026-03-22T14:43:14.999Z</time></trkpt><trkpt lat="48.44910371658918" lon="-4.252338245978363"><ele>6.999999999999999</ele><time>2026-03-22T14:43:16.999Z</time></trkpt><trkpt lat="48.44901027154251" lon="-4.252296249268222"><ele>6.999999999999999</ele><time>2026-03-22T14:43:18.999Z</time></trkpt><trkpt lat="48.448919307195126" lon="-4.252255220482774"><ele>7.0</ele><time>2026-03-22T14:43:20.999Z</time></trkpt><trkpt lat="48.448827781525274" lon="-4.2522138679554"><ele>7.0</ele><time>2026-03-22T14:43:22.999Z</time></trkpt><trkpt lat="48.448718248517764" lon="-4.2521644597825015"><ele>7.25</ele><time>2026-03-22T14:43:24.999Z</time></trkpt><trkpt lat="48.4486161486198" lon="-4.252118801687645"><ele>7.5</ele><time>2026-03-22T14:43:26.999Z</time></trkpt><trkpt lat="48.448521197493804" lon="-4.252066743004339"><ele>7.75</ele><time>2026-03-22T14:43:28.999Z</time></trkpt><trkpt lat="48.448670732106706" lon="-4.252035227850281"><ele>8.0</ele><time>2026-03-22T14:43:35.999Z</time></trkpt><trkpt lat="48.448795730525134" lon="-4.2520815424813"><ele>7.333333333333333</ele><time>2026-03-22T14:44:12Z</time></trkpt><trkpt lat="48.44885240343176" lon="-4.252134182972487"><ele>6.666666666666666</ele><time>2026-03-22T14:44:46Z</time></trkpt><trkpt lat="48.44892985891025" lon="-4.252170000651124"><ele>6.0</ele><time>2026-03-22T14:44:50Z</time></trkpt><trkpt lat="48.44901365155764" lon="-4.252204027383971"><ele>5.333333333333333</ele><time>2026-03-22T14:44:53Z</time></trkpt><trkpt lat="48.449094508343386" lon="-4.252245328481883"><ele>4.666666666666666</ele><time>2026-03-22T14:44:56Z</time></trkpt><trkpt lat="48.44916910769306" lon="-4.252277959947533"><ele>4.0</ele><time>2026-03-22T14:44:59Z</time></trkpt><trkpt lat="48.4492414217538" lon="-4.252279707469821"><ele>4.5</ele><time>2026-03-22T14:45:00.999Z</time></trkpt><trkpt lat="48.44930938273589" lon="-4.252308041080397"><ele>5.0</ele><time>2026-03-22T14:45:02.999Z</time></trkpt><trkpt lat="48.44938999775031" lon="-4.2523518182700295"><ele>5.5</ele><time>2026-03-22T14:45:04.999Z</time></trkpt><trkpt lat="48.44947161940046" lon="-4.252392142295654"><ele>6.0</ele><time>2026-03-22T14:45:06.999Z</time></trkpt><trkpt lat="48.449492153151944" lon="-4.252518218008933"><ele>6.500000000000001</ele><time>2026-03-22T14:45:08.999Z</time></trkpt><trkpt lat="48.449428020459784" lon="-4.252501034623942"><ele>7.0</ele><time>2026-03-22T14:45:11.999Z</time></trkpt><trkpt lat="48.44935341583158" lon="-4.252446290780189"><ele>7.0</ele><time>2026-03-22T14:45:13.999Z</time></trkpt><trkpt lat="48.44925222098679" lon="-4.252382741241515"><ele>6.999999999999999</ele><time>2026-03-22T14:45:15.999Z</time></trkpt><trkpt lat="48.44917074885608" lon="-4.2523572047400995"><ele>6.999999999999999</ele><time>2026-03-22T14:45:17.999Z</time></trkpt><trkpt lat="48.44907488750952" lon="-4.252312756691555"><ele>7.0</ele><time>2026-03-22T14:45:19.999Z</time></trkpt><trkpt lat="48.44899201914948" lon="-4.252268898683641"><ele>7.0</ele><time>2026-03-22T14:45:21.999Z</time></trkpt><trkpt lat="48.44890145201417" lon="-4.252226499520746"><ele>7.166666666666667</ele><time>2026-03-22T14:45:23.999Z</time></trkpt><trkpt lat="48.44879773169065" lon="-4.252200292717622"><ele>7.333333333333334</ele><time>2026-03-22T14:45:25.999Z</time></trkpt><trkpt lat="48.44873657768142" lon="-4.2521727229661614"><ele>7.5</ele><time>2026-03-22T14:45:26.999Z</time></trkpt><trkpt lat="48.448648018351896" lon="-4.252110635706278"><ele>7.666666666666666</ele><time>2026-03-22T14:45:28.999Z</time></trkpt><trkpt lat="48.448578606255495" lon="-4.25207920931247"><ele>7.833333333333333</ele><time>2026-03-22T14:45:31.999Z</time></trkpt><trkpt lat="48.448505139831184" lon="-4.252059273790211"><ele>8.0</ele><time>2026-03-22T14:45:33.999Z</time></trkpt><trkpt lat="48.4484790316044" lon="-4.251849449833924"><ele>8.0</ele><time>2026-03-22T14:45:37.999Z</time></trkpt><trkpt lat="48.44849574517868" lon="-4.25173828032439"><ele>7.999999999999999</ele><time>2026-03-22T14:45:39.999Z</time></trkpt><trkpt lat="48.44851376982465" lon="-4.251632808929874"><ele>8.0</ele><time>2026-03-22T14:45:42.999Z</time></trkpt><trkpt lat="48.44853365992298" lon="-4.251515775897871"><ele>8.0</ele><time>2026-03-22T14:45:46.999Z</time></trkpt><trkpt lat="48.44859647607708" lon="-4.251486206482537"><ele>7.999999999999999</ele><time>2026-03-22T14:45:49.999Z</time></trkpt><trkpt lat="48.448561569917686" lon="-4.2515821866965195"><ele>8.0</ele><time>2026-03-22T14:45:51.999Z</time></trkpt><trkpt lat="48.44854320017916" lon="-4.251689656447632"><ele>8.0</ele><time>2026-03-22T14:45:54Z</time></trkpt><trkpt lat="48.44851408591121" lon="-4.251838565913454"><ele>8.0</ele><time>2026-03-22T14:45:57Z</time></trkpt><trkpt lat="48.448508573309574" lon="-4.251958714174397"><ele>8.0</ele><time>2026-03-22T14:45:59Z</time></trkpt><trkpt lat="48.44849009940596" lon="-4.252095936995845"><ele>8.0</ele><time>2026-03-22T14:46:01Z</time></trkpt><trkpt lat="48.44846199506976" lon="-4.2522441832704585"><ele>8.0</ele><time>2026-03-22T14:46:03Z</time></trkpt><trkpt lat="48.448425096741616" lon="-4.252398511775655"><ele>8.0</ele><time>2026-03-22T14:46:05Z</time></trkpt><trkpt lat="48.44839543308554" lon="-4.252552878779924"><ele>7.75</ele><time>2026-03-22T14:46:07Z</time></trkpt><trkpt lat="48.448383855237765" lon="-4.252728542761799"><ele>7.5</ele><time>2026-03-22T14:46:09Z</time></trkpt><trkpt lat="48.448360213564456" lon="-4.252898264172096"><ele>7.25</ele><time>2026-03-22T14:46:11Z</time></trkpt><trkpt lat="48.44832121896102" lon="-4.253060207831393"><ele>7.0</ele><time>2026-03-22T14:46:13Z</time></trkpt><trkpt lat="48.44830916800201" lon="-4.253248200429517"><ele>6.3999999999999995</ele><time>2026-03-22T14:46:15Z</time></trkpt><trkpt lat="48.448282551319785" lon="-4.2534240916089"><ele>5.799999999999999</ele><time>2026-03-22T14:46:17Z</time></trkpt><trkpt lat="48.44822476704954" lon="-4.253569341574309"><ele>5.2</ele><time>2026-03-22T14:46:19Z</time></trkpt><trkpt lat="48.44820065410547" lon="-4.253727210328496"><ele>4.6</ele><time>2026-03-22T14:46:21Z</time></trkpt><trkpt lat="48.44816475140736" lon="-4.253880731938348"><ele>4.0</ele><time>2026-03-22T14:46:23Z</time></trkpt><trkpt lat="48.4481167698958" lon="-4.254052261127844"><ele>3.6</ele><time>2026-03-22T14:46:25Z</time></trkpt><trkpt lat="48.448064842346604" lon="-4.254198440330954"><ele>3.2</ele><time>2026-03-22T14:46:27Z</time></trkpt><trkpt lat="48.44800230322572" lon="-4.254341223888929"><ele>2.8000000000000003</ele><time>2026-03-22T14:46:29Z</time></trkpt><trkpt lat="48.44795158722673" lon="-4.254451211419389"><ele>2.4000000000000004</ele><time>2026-03-22T14:46:31Z</time></trkpt><trkpt lat="48.44790628583496" lon="-4.254547637670627"><ele>2.0</ele><time>2026-03-22T14:46:33Z</time></trkpt><trkpt lat="48.44783347535358" lon="-4.25465039917135"><ele>2.6</ele><time>2026-03-22T14:46:35Z</time></trkpt><trkpt lat="48.44777480192578" lon="-4.254735347143783"><ele>3.2</ele><time>2026-03-22T14:46:37Z</time></trkpt><trkpt lat="48.447670532231406" lon="-4.254784179512267"><ele>3.8</ele><time>2026-03-22T14:46:39Z</time></trkpt><trkpt lat="48.44754594662162" lon="-4.254774402718485"><ele>4.4</ele><time>2026-03-22T14:46:42Z</time></trkpt><trkpt lat="48.44747311441128" lon="-4.254706396700931"><ele>5.0</ele><time>2026-03-22T14:46:45Z</time></trkpt><trkpt lat="48.447526405577406" lon="-4.254805593906686"><ele>5.0</ele><time>2026-03-22T14:46:50Z</time></trkpt><trkpt lat="48.447573504836924" lon="-4.2548932659170715"><ele>5.0</ele><time>2026-03-22T14:46:52Z</time></trkpt><trkpt lat="48.44767912570365" lon="-4.2549158244793"><ele>5.0</ele><time>2026-03-22T14:46:56Z</time></trkpt><trkpt lat="48.44774404850431" lon="-4.254846335168658"><ele>5.0</ele><time>2026-03-22T14:46:58Z</time></trkpt><trkpt lat="48.44783201753814" lon="-4.254768671134298"><ele>5.0</ele><time>2026-03-22T14:47:00Z</time></trkpt><trkpt lat="48.447847866223434" lon="-4.254660218236409"><ele>5.0</ele><time>2026-03-22T14:47:01Z</time></trkpt><trkpt lat="48.44789579464497" lon="-4.254497350310091"><ele>4.8</ele><time>2026-03-22T14:47:03Z</time></trkpt><trkpt lat="48.44795466802991" lon="-4.254344111831932"><ele>4.6</ele><time>2026-03-22T14:47:04.999Z</time></trkpt><trkpt lat="48.44801361354457" lon="-4.254215685964991"><ele>4.4</ele><time>2026-03-22T14:47:06.999Z</time></trkpt><trkpt lat="48.448049567377744" lon="-4.254066964411987"><ele>4.2</ele><time>2026-03-22T14:47:08.999Z</time></trkpt><trkpt lat="48.44808962305861" lon="-4.2539297581170885"><ele>4.0</ele><time>2026-03-22T14:47:10.999Z</time></trkpt><trkpt lat="48.44812056257716" lon="-4.253795847806916"><ele>3.9999999999999996</ele><time>2026-03-22T14:47:12.999Z</time></trkpt><trkpt lat="48.44816186043676" lon="-4.2536637534938455"><ele>4.0</ele><time>2026-03-22T14:47:14.999Z</time></trkpt><trkpt lat="48.448189286065656" lon="-4.253522198858154"><ele>4.0</ele><time>2026-03-22T14:47:16.999Z</time></trkpt><trkpt lat="48.448245058515006" lon="-4.253382132572662"><ele>4.0</ele><time>2026-03-22T14:47:18.999Z</time></trkpt><trkpt lat="48.44825634196476" lon="-4.2532765604824325"><ele>3.9999999999999996</ele><time>2026-03-22T14:47:20.999Z</time></trkpt><trkpt lat="48.44823081949836" lon="-4.2531843803907865"><ele>4.0</ele><time>2026-03-22T14:47:21.999Z</time></trkpt><trkpt lat="48.448100034451095" lon="-4.253120944699784"><ele>4.5</ele><time>2026-03-22T14:47:24.999Z</time></trkpt><trkpt lat="48.4479808437778" lon="-4.253030751665351"><ele>5.0</ele><time>2026-03-22T14:47:27.999Z</time></trkpt><trkpt lat="48.447915010170384" lon="-4.253009839104066"><ele>5.5</ele><time>2026-03-22T14:47:29.999Z</time></trkpt><trkpt lat="48.44784340213233" lon="-4.25296683902431"><ele>6.0</ele><time>2026-03-22T14:47:31.999Z</time></trkpt><trkpt lat="48.44778322187734" lon="-4.252911030511638"><ele>6.500000000000001</ele><time>2026-03-22T14:47:33.999Z</time></trkpt><trkpt lat="48.447716080533844" lon="-4.252867238837575"><ele>7.0</ele><time>2026-03-22T14:47:35.999Z</time></trkpt><trkpt lat="48.447647375420324" lon="-4.252821356541845"><ele>7.714285714285714</ele><time>2026-03-22T14:47:37.999Z</time></trkpt><trkpt lat="48.44758008052806" lon="-4.252782166621723"><ele>8.428571428571429</ele><time>2026-03-22T14:47:39.999Z</time></trkpt><trkpt lat="48.44753307628166" lon="-4.252705047542918"><ele>9.142857142857142</ele><time>2026-03-22T14:47:41.999Z</time></trkpt><trkpt lat="48.447532347590126" lon="-4.2526047666931595"><ele>9.857142857142858</ele><time>2026-03-22T14:47:43.999Z</time></trkpt><trkpt lat="48.44749064487475" lon="-4.252508538063404"><ele>10.571428571428571</ele><time>2026-03-22T14:47:45.999Z</time></trkpt><trkpt lat="48.447459969975576" lon="-4.25238780429111"><ele>11.285714285714285</ele><time>2026-03-22T14:47:48.999Z</time></trkpt><trkpt lat="48.447429422115526" lon="-4.252291440490806"><ele>12.0</ele><time>2026-03-22T14:47:50.999Z</time></trkpt><trkpt lat="48.44740434309656" lon="-4.252189638719352"><ele>12.833333333333334</ele><time>2026-03-22T14:47:52.999Z</time></trkpt><trkpt lat="48.447480564622495" lon="-4.252049058761656"><ele>13.666666666666668</ele><time>2026-03-22T14:47:54.999Z</time></trkpt><trkpt lat="48.44742031268478" lon="-4.251985941782474"><ele>14.5</ele><time>2026-03-22T14:47:56.999Z</time></trkpt><trkpt lat="48.44734206258957" lon="-4.251941015151185"><ele>15.333333333333334</ele><time>2026-03-22T14:47:59Z</time></trkpt><trkpt lat="48.44727562897993" lon="-4.25187104054639"><ele>16.166666666666668</ele><time>2026-03-22T14:48:01Z</time></trkpt><trkpt lat="48.447197550205146" lon="-4.251816201782224"><ele>17.0</ele><time>2026-03-22T14:48:03Z</time></trkpt><trkpt lat="48.44713313001964" lon="-4.251795901493952"><ele>17.5</ele><time>2026-03-22T14:48:05Z</time></trkpt><trkpt lat="48.447053069851485" lon="-4.251739400238008"><ele>18.0</ele><time>2026-03-22T14:48:07Z</time></trkpt><trkpt lat="48.44698976634478" lon="-4.25169992926106"><ele>18.5</ele><time>2026-03-22T14:48:09Z</time></trkpt><trkpt lat="48.44691926918016" lon="-4.251629231138773"><ele>19.0</ele><time>2026-03-22T14:48:12Z</time></trkpt><trkpt lat="48.44688843967476" lon="-4.251482047656178"><ele>19.5</ele><time>2026-03-22T14:48:15Z</time></trkpt><trkpt lat="48.4468211645726" lon="-4.251435547371341"><ele>20.0</ele><time>2026-03-22T14:48:17Z</time></trkpt><trkpt lat="48.44675533074721" lon="-4.2513989732526065"><ele>20.0</ele><time>2026-03-22T14:48:20Z</time></trkpt><trkpt lat="48.446700956373256" lon="-4.251330109898185"><ele>20.0</ele><time>2026-03-22T14:48:23Z</time></trkpt><trkpt lat="48.44666627640517" lon="-4.251249377570535"><ele>20.0</ele><time>2026-03-22T14:48:26Z</time></trkpt><trkpt lat="48.44658312020264" lon="-4.251244842117062"><ele>20.0</ele><time>2026-03-22T14:48:28Z</time></trkpt><trkpt lat="48.44650244910621" lon="-4.251259787952903"><ele>20.0</ele><time>2026-03-22T14:48:31Z</time></trkpt><trkpt lat="48.446414393946796" lon="-4.251245573998298"><ele>20.0</ele><time>2026-03-22T14:48:34Z</time></trkpt><trkpt lat="48.44634377389139" lon="-4.25121064384767"><ele>20.857142857142858</ele><time>2026-03-22T14:48:37Z</time></trkpt><trkpt lat="48.44627590362859" lon="-4.251230860007777"><ele>21.714285714285715</ele><time>2026-03-22T14:48:39Z</time></trkpt><trkpt lat="48.446211943312434" lon="-4.251197694568527"><ele>22.57142857142857</ele><time>2026-03-22T14:48:41Z</time></trkpt><trkpt lat="48.44612369782686" lon="-4.251176833100975"><ele>23.42857142857143</ele><time>2026-03-22T14:48:44Z</time></trkpt><trkpt lat="48.44605569048816" lon="-4.251158822763396"><ele>24.28571428571429</ele><time>2026-03-22T14:48:46Z</time></trkpt><trkpt lat="48.4459913336203" lon="-4.251149069839284"><ele>25.142857142857142</ele><time>2026-03-22T14:48:48Z</time></trkpt><trkpt lat="48.44590353828486" lon="-4.251132073727806"><ele>26.0</ele><time>2026-03-22T14:48:51Z</time></trkpt><trkpt lat="48.44582678176713" lon="-4.251132664532635"><ele>25.999999999999996</ele><time>2026-03-22T14:48:55Z</time></trkpt><trkpt lat="48.44575448991176" lon="-4.251095018837204"><ele>26.0</ele><time>2026-03-22T14:48:57Z</time></trkpt><trkpt lat="48.4456789858849" lon="-4.25109183410832"><ele>26.0</ele><time>2026-03-22T14:49:01Z</time></trkpt><trkpt lat="48.445599309018235" lon="-4.251065282015125"><ele>26.0</ele><time>2026-03-22T14:49:04Z</time></trkpt><trkpt lat="48.44553521070206" lon="-4.251030589302963"><ele>25.999999999999996</ele><time>2026-03-22T14:49:07Z</time></trkpt><trkpt lat="48.445450862233486" lon="-4.25101113905103"><ele>26.0</ele><time>2026-03-22T14:49:10.999Z</time></trkpt><trkpt lat="48.445357503556686" lon="-4.2509875184691674"><ele>28.142857142857142</ele><time>2026-03-22T14:49:14.999Z</time></trkpt><trkpt lat="48.445268388815826" lon="-4.25095310222524"><ele>30.285714285714285</ele><time>2026-03-22T14:49:18.999Z</time></trkpt><trkpt lat="48.44519006668634" lon="-4.2509279570994005"><ele>32.42857142857143</ele><time>2026-03-22T14:49:22.999Z</time></trkpt><trkpt lat="48.44512505160204" lon="-4.25089373643748"><ele>34.57142857142857</ele><time>2026-03-22T14:49:25.999Z</time></trkpt><trkpt lat="48.4450563721275" lon="-4.2508948180530615"><ele>36.714285714285715</ele><time>2026-03-22T14:49:28.999Z</time></trkpt><trkpt lat="48.44499253308914" lon="-4.2508729439417205"><ele>38.857142857142854</ele><time>2026-03-22T14:49:31.999Z</time></trkpt><trkpt lat="48.44492913864345" lon="-4.250858849033275"><ele>41.0</ele><time>2026-03-22T14:49:34.999Z</time></trkpt><trkpt lat="48.44486160319036" lon="-4.250856559600321"><ele>40.99999999999999</ele><time>2026-03-22T14:49:37.999Z</time></trkpt><trkpt lat="48.444796142918925" lon="-4.250840365496397"><ele>41.0</ele><time>2026-03-22T14:49:40.999Z</time></trkpt><trkpt lat="48.4447161269669" lon="-4.250822841288308"><ele>41.0</ele><time>2026-03-22T14:49:44.999Z</time></trkpt><trkpt lat="48.44464387391069" lon="-4.250797850347275"><ele>41.0</ele><time>2026-03-22T14:49:48.999Z</time></trkpt><trkpt lat="48.4445698433948" lon="-4.250776630905394"><ele>41.0</ele><time>2026-03-22T14:49:51.999Z</time></trkpt><trkpt lat="48.44450332610826" lon="-4.250732529564512"><ele>40.99999999999999</ele><time>2026-03-22T14:49:54.999Z</time></trkpt><trkpt lat="48.444441566710104" lon="-4.250689163771711"><ele>41.0</ele><time>2026-03-22T14:49:57.999Z</time></trkpt><trkpt lat="48.444364632908396" lon="-4.250685943341185"><ele>42.14285714285714</ele><time>2026-03-22T14:50:01.999Z</time></trkpt><trkpt lat="48.44428267617969" lon="-4.250695031820438"><ele>43.285714285714285</ele><time>2026-03-22T14:50:06Z</time></trkpt><trkpt lat="48.44420970327149" lon="-4.250672157451885"><ele>44.42857142857143</ele><time>2026-03-22T14:50:10Z</time></trkpt><trkpt lat="48.444133466323855" lon="-4.250670322466554"><ele>45.57142857142857</ele><time>2026-03-22T14:50:14Z</time></trkpt><trkpt lat="48.4440655431036" lon="-4.250665272364741"><ele>46.714285714285715</ele><time>2026-03-22T14:50:17Z</time></trkpt><trkpt lat="48.44399235509438" lon="-4.2506752943608195"><ele>47.857142857142854</ele><time>2026-03-22T14:50:21Z</time></trkpt><trkpt lat="48.44392842358643" lon="-4.250647160242877"><ele>49.0</ele><time>2026-03-22T14:50:25Z</time></trkpt><trkpt lat="48.44385720093249" lon="-4.250615304767383"><ele>50.42857142857143</ele><time>2026-03-22T14:50:28Z</time></trkpt><trkpt lat="48.44377154812384" lon="-4.250639292334026"><ele>51.85714285714286</ele><time>2026-03-22T14:50:32Z</time></trkpt><trkpt lat="48.44369981130176" lon="-4.250652711597809"><ele>53.285714285714285</ele><time>2026-03-22T14:50:36Z</time></trkpt><trkpt lat="48.443625579291066" lon="-4.250664771865069"><ele>54.714285714285715</ele><time>2026-03-22T14:50:40Z</time></trkpt><trkpt lat="48.443541817285094" lon="-4.250630686284884"><ele>56.142857142857146</ele><time>2026-03-22T14:50:44Z</time></trkpt><trkpt lat="48.443478478656424" lon="-4.250637960827339"><ele>57.57142857142857</ele><time>2026-03-22T14:51:43.999Z</time></trkpt><trkpt lat="48.44341945859746" lon="-4.250599483585376"><ele>59.0</ele><time>2026-03-22T14:52:02.999Z</time></trkpt><trkpt lat="48.44333110298578" lon="-4.2506018913419"><ele>59.14285714285714</ele><time>2026-03-22T14:52:07.999Z</time></trkpt><trkpt lat="48.44326198602329" lon="-4.250588091745832"><ele>59.28571428571429</ele><time>2026-03-22T14:52:09.999Z</time></trkpt><trkpt lat="48.443175560657984" lon="-4.250588749753423"><ele>59.42857142857143</ele><time>2026-03-22T14:52:12Z</time></trkpt><trkpt lat="48.4431004982085" lon="-4.250576315428777"><ele>59.57142857142857</ele><time>2026-03-22T14:52:14Z</time></trkpt><trkpt lat="48.44302682950018" lon="-4.250553024907294"><ele>59.71428571428571</ele><time>2026-03-22T14:52:16Z</time></trkpt><trkpt lat="48.44295093281912" lon="-4.250539901232938"><ele>59.85714285714286</ele><time>2026-03-22T14:52:18Z</time></trkpt><trkpt lat="48.44288490504422" lon="-4.250538983029912"><ele>60.0</ele><time>2026-03-22T14:52:21Z</time></trkpt><trkpt lat="48.44279862767361" lon="-4.250541640763692"><ele>61.666666666666664</ele><time>2026-03-22T14:52:24Z</time></trkpt><trkpt lat="48.44269625471527" lon="-4.250536185169598"><ele>63.33333333333333</ele><time>2026-03-22T14:52:27Z</time></trkpt><trkpt lat="48.44262063482702" lon="-4.250516155520069"><ele>65.0</ele><time>2026-03-22T14:52:29Z</time></trkpt><trkpt lat="48.44254070807719" lon="-4.250495650717822"><ele>66.66666666666666</ele><time>2026-03-22T14:52:31Z</time></trkpt><trkpt lat="48.44245855499191" lon="-4.250491018734611"><ele>68.33333333333333</ele><time>2026-03-22T14:52:33Z</time></trkpt><trkpt lat="48.442377373985344" lon="-4.250477800547196"><ele>70.0</ele><time>2026-03-22T14:52:35Z</time></trkpt><trkpt lat="48.442297350014506" lon="-4.250472056888906"><ele>70.0</ele><time>2026-03-22T14:52:37Z</time></trkpt><trkpt lat="48.44222271583308" lon="-4.2504531871031395"><ele>70.0</ele><time>2026-03-22T14:52:39Z</time></trkpt><trkpt lat="48.44212865681147" lon="-4.250436213831562"><ele>70.0</ele><time>2026-03-22T14:52:42Z</time></trkpt><trkpt lat="48.44206269432631" lon="-4.250430622751748"><ele>70.0</ele><time>2026-03-22T14:52:44Z</time></trkpt><trkpt lat="48.4419714278835" lon="-4.250409195085453"><ele>70.0</ele><time>2026-03-22T14:52:47Z</time></trkpt><trkpt lat="48.441892105150814" lon="-4.250377514676152"><ele>70.0</ele><time>2026-03-22T14:52:50Z</time></trkpt><trkpt lat="48.44180929683847" lon="-4.250358905432029"><ele>71.42857142857143</ele><time>2026-03-22T14:52:53Z</time></trkpt><trkpt lat="48.44173371767606" lon="-4.250350837791871"><ele>72.85714285714286</ele><time>2026-03-22T14:52:57Z</time></trkpt><trkpt lat="48.441663796749566" lon="-4.250351559847886"><ele>74.28571428571428</ele><time>2026-03-22T14:53:01Z</time></trkpt><trkpt lat="48.44158585437596" lon="-4.25033772325681"><ele>75.71428571428572</ele><time>2026-03-22T14:53:05Z</time></trkpt><trkpt lat="48.44151547015208" lon="-4.25032198301665"><ele>77.14285714285714</ele><time>2026-03-22T14:53:09Z</time></trkpt><trkpt lat="48.44144518214369" lon="-4.250317077336418"><ele>78.57142857142857</ele><time>2026-03-22T14:53:13Z</time></trkpt><trkpt lat="48.44137613884612" lon="-4.25027907905901"><ele>80.0</ele><time>2026-03-22T14:53:17Z</time></trkpt><trkpt lat="48.441289743020555" lon="-4.250321640131295"><ele>81.5</ele><time>2026-03-22T14:53:20Z</time></trkpt><trkpt lat="48.441212294348304" lon="-4.250314173244372"><ele>83.0</ele><time>2026-03-22T14:53:22.999Z</time></trkpt><trkpt lat="48.44113434579032" lon="-4.2503192192441"><ele>84.5</ele><time>2026-03-22T14:53:25.999Z</time></trkpt><trkpt lat="48.441048771250664" lon="-4.250311378668516"><ele>86.0</ele><time>2026-03-22T14:53:28.999Z</time></trkpt><trkpt lat="48.44098094453135" lon="-4.25026859973382"><ele>87.5</ele><time>2026-03-22T14:53:30.999Z</time></trkpt><trkpt lat="48.440915942289415" lon="-4.2502922379844"><ele>89.0</ele><time>2026-03-22T14:53:32.999Z</time></trkpt><trkpt lat="48.44082976849116" lon="-4.250297829196047"><ele>89.0</ele><time>2026-03-22T14:53:35.999Z</time></trkpt><trkpt lat="48.44076689496872" lon="-4.250286006069268"><ele>89.0</ele><time>2026-03-22T14:53:39.999Z</time></trkpt><trkpt lat="48.4406977995143" lon="-4.250283874476635"><ele>89.0</ele><time>2026-03-22T14:53:42.999Z</time></trkpt><trkpt lat="48.440609419950576" lon="-4.250254130427016"><ele>89.0</ele><time>2026-03-22T14:53:45.999Z</time></trkpt><trkpt lat="48.44050555878198" lon="-4.250196722834283"><ele>89.0</ele><time>2026-03-22T14:53:48.999Z</time></trkpt><trkpt lat="48.44043027678553" lon="-4.250181153292866"><ele>89.0</ele><time>2026-03-22T14:53:50.999Z</time></trkpt><trkpt lat="48.44034265351307" lon="-4.250224283646516"><ele>90.0</ele><time>2026-03-22T14:53:55.999Z</time></trkpt><trkpt lat="48.44027541132741" lon="-4.250235398550225"><ele>91.0</ele><time>2026-03-22T14:53:58.999Z</time></trkpt><trkpt lat="48.44016668546245" lon="-4.250205682710051"><ele>92.0</ele><time>2026-03-22T14:54:01.999Z</time></trkpt><trkpt lat="48.44004870222357" lon="-4.250178733906815"><ele>93.0</ele><time>2026-03-22T14:54:04.999Z</time></trkpt><trkpt lat="48.439967622626156" lon="-4.250192230641811"><ele>94.0</ele><time>2026-03-22T14:54:07.999Z</time></trkpt><trkpt lat="48.439896001329764" lon="-4.250150593274473"><ele>94.0</ele><time>2026-03-22T14:54:09.999Z</time></trkpt><trkpt lat="48.439832251120016" lon="-4.250152291889935"><ele>94.0</ele><time>2026-03-22T14:54:12.999Z</time></trkpt><trkpt lat="48.43976655030319" lon="-4.250156796826282"><ele>94.0</ele><time>2026-03-22T14:54:14.999Z</time></trkpt><trkpt lat="48.439695823572784" lon="-4.250166958537332"><ele>94.0</ele><time>2026-03-22T14:54:17Z</time></trkpt><trkpt lat="48.439648010697894" lon="-4.250245067156728"><ele>94.0</ele><time>2026-03-22T14:54:22Z</time></trkpt><trkpt lat="48.43957739881865" lon="-4.25022703534899"><ele>94.0</ele><time>2026-03-22T14:54:24Z</time></trkpt><trkpt lat="48.43940604487304" lon="-4.250159524209091"><ele>95.16666666666666</ele><time>2026-03-22T14:54:26Z</time></trkpt><trkpt lat="48.439336863506426" lon="-4.250151844807124"><ele>96.33333333333333</ele><time>2026-03-22T14:54:27Z</time></trkpt><trkpt lat="48.4392676468971" lon="-4.250106570041106"><ele>97.5</ele><time>2026-03-22T14:54:31Z</time></trkpt><trkpt lat="48.43919670190382" lon="-4.250100737910037"><ele>98.66666666666666</ele><time>2026-03-22T14:54:32Z</time></trkpt><trkpt lat="48.43908929292504" lon="-4.250108370693012"><ele>99.83333333333333</ele><time>2026-03-22T14:54:35Z</time></trkpt><trkpt lat="48.439017789812034" lon="-4.250107153435827"><ele>101.0</ele><time>2026-03-22T14:54:38Z</time></trkpt><trkpt lat="48.43891964486458" lon="-4.250054623862447"><ele>101.0</ele><time>2026-03-22T14:54:42Z</time></trkpt><trkpt lat="48.43885181754635" lon="-4.2499777957726685"><ele>101.0</ele><time>2026-03-22T14:54:46Z</time></trkpt><trkpt lat="48.43878632852126" lon="-4.25001693871362"><ele>101.0</ele><time>2026-03-22T14:54:49Z</time></trkpt><trkpt lat="48.43871623808262" lon="-4.249986833357301"><ele>101.0</ele><time>2026-03-22T14:54:52Z</time></trkpt><trkpt lat="48.43864087087916" lon="-4.249970165754522"><ele>101.0</ele><time>2026-03-22T14:54:55Z</time></trkpt><trkpt lat="48.43858649551013" lon="-4.249905740143295"><ele>101.0</ele><time>2026-03-22T14:54:58Z</time></trkpt><trkpt lat="48.438520521252784" lon="-4.249862305818031"><ele>101.0</ele><time>2026-03-22T14:55:01Z</time></trkpt><trkpt lat="48.438458879281086" lon="-4.249830832466765"><ele>103.0</ele><time>2026-03-22T14:55:04Z</time></trkpt><trkpt lat="48.438388458124884" lon="-4.249814527178629"><ele>103.0</ele><time>2026-03-22T14:55:07Z</time></trkpt><trkpt lat="48.43831349696376" lon="-4.249741284432295"><ele>113.0</ele><time>2026-03-22T14:55:10Z</time></trkpt><trkpt lat="48.43825171673764" lon="-4.249700472516351"><ele>113.0</ele><time>2026-03-22T14:55:12Z</time></trkpt><trkpt lat="48.43815805052785" lon="-4.2496947083259595"><ele>113.0</ele><time>2026-03-22T14:55:15Z</time></trkpt></trkseg><trkseg><trkpt lat="48.42591810044686" lon="-4.237545076761616"><ele>174.0</ele><time>2026-03-22T15:05:47Z</time></trkpt><trkpt lat="48.4258427080899" lon="-4.2374463958208715"><ele>174.0</ele><time>2026-03-22T15:05:49Z</time></trkpt><trkpt lat="48.42577163144436" lon="-4.237344468028157"><ele>174.0</ele><time>2026-03-22T15:05:51Z</time></trkpt><trkpt lat="48.425690905520725" lon="-4.237267350995531"><ele>174.0</ele><time>2026-03-22T15:05:53Z</time></trkpt><trkpt lat="48.425616726683195" lon="-4.237167451340855"><ele>174.0</ele><time>2026-03-22T15:05:55Z</time></trkpt><trkpt lat="48.425540831375365" lon="-4.2370652400456725"><ele>174.0</ele><time>2026-03-22T15:05:57Z</time></trkpt><trkpt lat="48.425454250394814" lon="-4.236948637918355"><ele>174.0</ele><time>2026-03-22T15:05:59Z</time></trkpt><trkpt lat="48.42538294775689" lon="-4.236852058982348"><ele>174.0</ele><time>2026-03-22T15:06:01Z</time></trkpt><trkpt lat="48.425306992011365" lon="-4.236748371696773"><ele>174.0</ele><time>2026-03-22T15:06:03Z</time></trkpt><trkpt lat="48.4252290892644" lon="-4.236642026555769"><ele>174.0</ele><time>2026-03-22T15:06:05Z</time></trkpt><trkpt lat="48.42515491724073" lon="-4.23654123914188"><ele>174.25</ele><time>2026-03-22T15:06:07Z</time></trkpt><trkpt lat="48.425070528338836" lon="-4.236412017745536"><ele>174.5</ele><time>2026-03-22T15:06:09Z</time></trkpt><trkpt lat="48.4249773006781" lon="-4.236293482860096"><ele>174.75</ele><time>2026-03-22T15:06:11Z</time></trkpt><trkpt lat="48.424918940153674" lon="-4.236221590985313"><ele>175.0</ele><time>2026-03-22T15:06:12Z</time></trkpt><trkpt lat="48.42480737978521" lon="-4.236049964552517"><ele>175.0</ele><time>2026-03-22T15:06:15Z</time></trkpt><trkpt lat="48.42472312419657" lon="-4.235941655544884"><ele>175.0</ele><time>2026-03-22T15:06:17Z</time></trkpt><trkpt lat="48.42464332430979" lon="-4.235843147650089"><ele>175.0</ele><time>2026-03-22T15:06:19Z</time></trkpt><trkpt lat="48.424561861325486" lon="-4.235732423423695"><ele>175.0</ele><time>2026-03-22T15:06:21Z</time></trkpt><trkpt lat="48.42448340814247" lon="-4.23561664312418"><ele>175.0</ele><time>2026-03-22T15:06:23Z</time></trkpt><trkpt lat="48.42439050869693" lon="-4.2355059201832965"><ele>175.5</ele><time>2026-03-22T15:06:25Z</time></trkpt><trkpt lat="48.42430582882149" lon="-4.23538008438099"><ele>176.0</ele><time>2026-03-22T15:06:27Z</time></trkpt><trkpt lat="48.42421224439572" lon="-4.235274534531764"><ele>176.5</ele><time>2026-03-22T15:06:29Z</time></trkpt><trkpt lat="48.42413257333324" lon="-4.2351760432286145"><ele>177.0</ele><time>2026-03-22T15:06:31Z</time></trkpt><trkpt lat="48.42403614053472" lon="-4.235045272019478"><ele>177.0</ele><time>2026-03-22T15:06:33Z</time></trkpt><trkpt lat="48.42394468601086" lon="-4.234918204413709"><ele>177.0</ele><time>2026-03-22T15:06:35Z</time></trkpt><trkpt lat="48.42386006914101" lon="-4.23479955031733"><ele>177.0</ele><time>2026-03-22T15:06:37Z</time></trkpt><trkpt lat="48.42377022243984" lon="-4.234679996748563"><ele>177.0</ele><time>2026-03-22T15:06:39Z</time></trkpt><trkpt lat="48.42367132067518" lon="-4.234573078679996"><ele>177.25</ele><time>2026-03-22T15:06:41Z</time></trkpt><trkpt lat="48.42357637353525" lon="-4.234479499769492"><ele>177.5</ele><time>2026-03-22T15:06:43Z</time></trkpt><trkpt lat="48.42347099585418" lon="-4.234373308749452"><ele>177.75</ele><time>2026-03-22T15:06:45Z</time></trkpt><trkpt lat="48.42336428644841" lon="-4.234284456019472"><ele>178.0</ele><time>2026-03-22T15:06:47Z</time></trkpt><trkpt lat="48.42326108320139" lon="-4.234211692112755"><ele>177.99999999999997</ele><time>2026-03-22T15:06:49Z</time></trkpt><trkpt lat="48.423203531899034" lon="-4.234168349412984"><ele>178.0</ele><time>2026-03-22T15:06:50Z</time></trkpt><trkpt lat="48.42314258983064" lon="-4.234112880826586"><ele>178.0</ele><time>2026-03-22T15:06:50.999Z</time></trkpt><trkpt lat="48.4230767044409" lon="-4.23405173414404"><ele>178.0</ele><time>2026-03-22T15:06:51.999Z</time></trkpt><trkpt lat="48.423013805221586" lon="-4.233996837214815"><ele>178.0</ele><time>2026-03-22T15:06:52.999Z</time></trkpt><trkpt lat="48.42295630711193" lon="-4.233947354990675"><ele>177.99999999999997</ele><time>2026-03-22T15:06:53.999Z</time></trkpt><trkpt lat="48.422897369075145" lon="-4.233893839908214"><ele>178.0</ele><time>2026-03-22T15:06:54.999Z</time></trkpt><trkpt lat="48.422839403458276" lon="-4.233848130234271"><ele>178.14285714285714</ele><time>2026-03-22T15:06:55.999Z</time></trkpt><trkpt lat="48.422779680699456" lon="-4.233798834263629"><ele>178.28571428571428</ele><time>2026-03-22T15:06:56.999Z</time></trkpt><trkpt lat="48.42271547094089" lon="-4.233749817207444"><ele>178.42857142857144</ele><time>2026-03-22T15:06:57.999Z</time></trkpt><trkpt lat="48.422655422045565" lon="-4.2337066573639595"><ele>178.57142857142856</ele><time>2026-03-22T15:06:58.999Z</time></trkpt><trkpt lat="48.422591235429735" lon="-4.2336650045529876"><ele>178.71428571428572</ele><time>2026-03-22T15:06:59.999Z</time></trkpt><trkpt lat="48.42253190825659" lon="-4.233616812536346"><ele>178.85714285714286</ele><time>2026-03-22T15:07:00.999Z</time></trkpt><trkpt lat="48.4224683803747" lon="-4.233561460818406"><ele>179.0</ele><time>2026-03-22T15:07:01.999Z</time></trkpt><trkpt lat="48.422405040767735" lon="-4.233513720109621"><ele>179.00000000000003</ele><time>2026-03-22T15:07:02.999Z</time></trkpt><trkpt lat="48.42234234835678" lon="-4.23346396562835"><ele>179.0</ele><time>2026-03-22T15:07:03.999Z</time></trkpt><trkpt lat="48.42227668227574" lon="-4.233415473291816"><ele>179.0</ele><time>2026-03-22T15:07:04.999Z</time></trkpt><trkpt lat="48.42220808520348" lon="-4.233365394417681"><ele>179.0</ele><time>2026-03-22T15:07:05.999Z</time></trkpt><trkpt lat="48.42214018296592" lon="-4.233314223716989"><ele>179.0</ele><time>2026-03-22T15:07:06.999Z</time></trkpt><trkpt lat="48.422071761392615" lon="-4.2332653913730045"><ele>179.00000000000003</ele><time>2026-03-22T15:07:07.999Z</time></trkpt><trkpt lat="48.42200543810657" lon="-4.233216786432198"><ele>179.0</ele><time>2026-03-22T15:07:08.999Z</time></trkpt><trkpt lat="48.421944258703995" lon="-4.233155913733991"><ele>178.85714285714286</ele><time>2026-03-22T15:07:09.999Z</time></trkpt><trkpt lat="48.421877100450665" lon="-4.233108270661586"><ele>178.71428571428572</ele><time>2026-03-22T15:07:10.999Z</time></trkpt><trkpt lat="48.42180849019229" lon="-4.233053302354903"><ele>178.57142857142856</ele><time>2026-03-22T15:07:11.999Z</time></trkpt><trkpt lat="48.421740176189005" lon="-4.2330057195104605"><ele>178.42857142857144</ele><time>2026-03-22T15:07:12.999Z</time></trkpt><trkpt lat="48.42167994202823" lon="-4.232954045412352"><ele>178.28571428571428</ele><time>2026-03-22T15:07:13.999Z</time></trkpt><trkpt lat="48.42161087599022" lon="-4.2328999078447955"><ele>178.14285714285714</ele><time>2026-03-22T15:07:14.999Z</time></trkpt><trkpt lat="48.42154414496465" lon="-4.2328579048687605"><ele>178.0</ele><time>2026-03-22T15:07:15.999Z</time></trkpt><trkpt lat="48.421471935164696" lon="-4.23280723157874"><ele>178.0</ele><time>2026-03-22T15:07:16.999Z</time></trkpt><trkpt lat="48.421390260209016" lon="-4.232758618285764"><ele>178.0</ele><time>2026-03-22T15:07:17.999Z</time></trkpt><trkpt lat="48.421275284198806" lon="-4.232659699161773"><ele>178.0</ele><time>2026-03-22T15:07:19.999Z</time></trkpt><trkpt lat="48.4212064669951" lon="-4.232606698519085"><ele>178.0</ele><time>2026-03-22T15:07:20.999Z</time></trkpt><trkpt lat="48.42113233095825" lon="-4.232554662145861"><ele>178.0</ele><time>2026-03-22T15:07:21.999Z</time></trkpt><trkpt lat="48.421055629136454" lon="-4.2325116852230185"><ele>177.83333333333334</ele><time>2026-03-22T15:07:22.999Z</time></trkpt><trkpt lat="48.42098668191155" lon="-4.232461371721811"><ele>177.66666666666669</ele><time>2026-03-22T15:07:23.999Z</time></trkpt><trkpt lat="48.42090377124337" lon="-4.2324088176249575"><ele>177.5</ele><time>2026-03-22T15:07:24.999Z</time></trkpt><trkpt lat="48.420819866833945" lon="-4.2323586734625716"><ele>177.33333333333334</ele><time>2026-03-22T15:07:25.999Z</time></trkpt><trkpt lat="48.42074169078507" lon="-4.23230955676785"><ele>177.16666666666666</ele><time>2026-03-22T15:07:26.999Z</time></trkpt><trkpt lat="48.42066420281834" lon="-4.23225554101627"><ele>177.0</ele><time>2026-03-22T15:07:27.999Z</time></trkpt><trkpt lat="48.42057830969268" lon="-4.2322037789732105"><ele>177.0</ele><time>2026-03-22T15:07:28.999Z</time></trkpt><trkpt lat="48.42049991137181" lon="-4.232159287440314"><ele>177.0</ele><time>2026-03-22T15:07:29.999Z</time></trkpt><trkpt lat="48.420417723939" lon="-4.232115551817207"><ele>177.0</ele><time>2026-03-22T15:07:30.999Z</time></trkpt><trkpt lat="48.42034562484492" lon="-4.2320675352439014"><ele>177.0</ele><time>2026-03-22T15:07:31.999Z</time></trkpt><trkpt lat="48.42026128152539" lon="-4.232022107551461"><ele>177.0</ele><time>2026-03-22T15:07:32.999Z</time></trkpt><trkpt lat="48.4201826092613" lon="-4.231970857349046"><ele>177.0</ele><time>2026-03-22T15:07:33.999Z</time></trkpt><trkpt lat="48.42009442966306" lon="-4.231923215862585"><ele>176.6</ele><time>2026-03-22T15:07:34.999Z</time></trkpt><trkpt lat="48.420009969483054" lon="-4.2318725491139855"><ele>176.2</ele><time>2026-03-22T15:07:35.999Z</time></trkpt><trkpt lat="48.419923259215906" lon="-4.23182188410968"><ele>175.8</ele><time>2026-03-22T15:07:36.999Z</time></trkpt><trkpt lat="48.41983931194628" lon="-4.2317712282199516"><ele>175.4</ele><time>2026-03-22T15:07:37.999Z</time></trkpt><trkpt lat="48.419747298053984" lon="-4.2317142020489875"><ele>175.0</ele><time>2026-03-22T15:07:38.999Z</time></trkpt><trkpt lat="48.419656110484894" lon="-4.231659242736647"><ele>174.6</ele><time>2026-03-22T15:07:39.999Z</time></trkpt><trkpt lat="48.419569850378856" lon="-4.231605756819558"><ele>174.2</ele><time>2026-03-22T15:07:40.999Z</time></trkpt><trkpt lat="48.419478017358884" lon="-4.231549800773068"><ele>173.8</ele><time>2026-03-22T15:07:41.999Z</time></trkpt><trkpt lat="48.41938330696997" lon="-4.2314904232057895"><ele>173.4</ele><time>2026-03-22T15:07:42.999Z</time></trkpt><trkpt lat="48.41928970100881" lon="-4.231430177941715"><ele>173.0</ele><time>2026-03-22T15:07:43.999Z</time></trkpt><trkpt lat="48.41919515659162" lon="-4.231365583016962"><ele>173.0</ele><time>2026-03-22T15:07:44.999Z</time></trkpt><trkpt lat="48.41910292481687" lon="-4.231311370590921"><ele>173.0</ele><time>2026-03-22T15:07:45.999Z</time></trkpt><trkpt lat="48.41901023164635" lon="-4.231260039181627"><ele>173.0</ele><time>2026-03-22T15:07:46.999Z</time></trkpt><trkpt lat="48.4189120030892" lon="-4.231199733484235"><ele>173.0</ele><time>2026-03-22T15:07:48Z</time></trkpt><trkpt lat="48.41881943574518" lon="-4.231142930499841"><ele>173.0</ele><time>2026-03-22T15:07:49Z</time></trkpt><trkpt lat="48.41873156294664" lon="-4.231085276318141"><ele>172.4</ele><time>2026-03-22T15:07:50Z</time></trkpt><trkpt lat="48.418642377540884" lon="-4.231029010765761"><ele>171.8</ele><time>2026-03-22T15:07:51Z</time></trkpt><trkpt lat="48.418553992561236" lon="-4.230976930247807"><ele>171.2</ele><time>2026-03-22T15:07:52Z</time></trkpt><trkpt lat="48.41846100562568" lon="-4.2309305511674875"><ele>170.6</ele><time>2026-03-22T15:07:53Z</time></trkpt><trkpt lat="48.418372287115744" lon="-4.230880515194876"><ele>170.0</ele><time>2026-03-22T15:07:54Z</time></trkpt><trkpt lat="48.41827838420546" lon="-4.230824966372572"><ele>170.0</ele><time>2026-03-22T15:07:55Z</time></trkpt><trkpt lat="48.418186862993295" lon="-4.230769267014777"><ele>170.0</ele><time>2026-03-22T15:07:56Z</time></trkpt><trkpt lat="48.41809061113275" lon="-4.230703150889268"><ele>170.0</ele><time>2026-03-22T15:07:57Z</time></trkpt><trkpt lat="48.417996600004194" lon="-4.230648740866228"><ele>170.0</ele><time>2026-03-22T15:07:58Z</time></trkpt><trkpt lat="48.41790286338872" lon="-4.230594827279293"><ele>170.0</ele><time>2026-03-22T15:07:59Z</time></trkpt><trkpt lat="48.41781219916857" lon="-4.230538628522264"><ele>169.6</ele><time>2026-03-22T15:08:00Z</time></trkpt><trkpt lat="48.417723572870706" lon="-4.230484624915789"><ele>169.2</ele><time>2026-03-22T15:08:01Z</time></trkpt><trkpt lat="48.41764234789493" lon="-4.230432674044959"><ele>168.8</ele><time>2026-03-22T15:08:02Z</time></trkpt><trkpt lat="48.41754748878" lon="-4.2303719304792144"><ele>168.4</ele><time>2026-03-22T15:08:03Z</time></trkpt><trkpt lat="48.417459766340635" lon="-4.230318504220624"><ele>168.0</ele><time>2026-03-22T15:08:04Z</time></trkpt><trkpt lat="48.41737258743776" lon="-4.2302665239354384"><ele>168.0</ele><time>2026-03-22T15:08:05Z</time></trkpt><trkpt lat="48.417282182352594" lon="-4.230209546855398"><ele>168.0</ele><time>2026-03-22T15:08:06Z</time></trkpt><trkpt lat="48.417186290274714" lon="-4.2301521699047395"><ele>168.0</ele><time>2026-03-22T15:08:07Z</time></trkpt><trkpt lat="48.41709428199479" lon="-4.230105498543723"><ele>168.0</ele><time>2026-03-22T15:08:08Z</time></trkpt><trkpt lat="48.41700220027366" lon="-4.2300574435402"><ele>168.0</ele><time>2026-03-22T15:08:09Z</time></trkpt><trkpt lat="48.41690779113028" lon="-4.229999595368172"><ele>168.0</ele><time>2026-03-22T15:08:10Z</time></trkpt><trkpt lat="48.416819679502424" lon="-4.2299471772137"><ele>168.0</ele><time>2026-03-22T15:08:11Z</time></trkpt><trkpt lat="48.41673397336487" lon="-4.229895142357914"><ele>168.0</ele><time>2026-03-22T15:08:12Z</time></trkpt><trkpt lat="48.41664835332667" lon="-4.229845558149936"><ele>168.0</ele><time>2026-03-22T15:08:13Z</time></trkpt><trkpt lat="48.416564908683206" lon="-4.229791371733282"><ele>168.0</ele><time>2026-03-22T15:08:14Z</time></trkpt><trkpt lat="48.41646834610254" lon="-4.229728577244043"><ele>168.0</ele><time>2026-03-22T15:08:15Z</time></trkpt><trkpt lat="48.41638057208247" lon="-4.229679243418664"><ele>168.0</ele><time>2026-03-22T15:08:16Z</time></trkpt><trkpt lat="48.416290391908724" lon="-4.229616519089477"><ele>168.0</ele><time>2026-03-22T15:08:17Z</time></trkpt><trkpt lat="48.41619934188017" lon="-4.229569470264208"><ele>168.0</ele><time>2026-03-22T15:08:18Z</time></trkpt><trkpt lat="48.41611159581106" lon="-4.2295128504632835"><ele>168.0</ele><time>2026-03-22T15:08:19Z</time></trkpt><trkpt lat="48.41602815215902" lon="-4.2294708958243605"><ele>168.0</ele><time>2026-03-22T15:08:20Z</time></trkpt><trkpt lat="48.415942245202885" lon="-4.229419968045864"><ele>168.0</ele><time>2026-03-22T15:08:21Z</time></trkpt><trkpt lat="48.41586065119597" lon="-4.229368566884504"><ele>168.0</ele><time>2026-03-22T15:08:22Z</time></trkpt><trkpt lat="48.415778978736675" lon="-4.2293295254491"><ele>168.0</ele><time>2026-03-22T15:08:23Z</time></trkpt><trkpt lat="48.415687277865246" lon="-4.229284526599875"><ele>168.0</ele><time>2026-03-22T15:08:24Z</time></trkpt><trkpt lat="48.4155973852394" lon="-4.2292527868787015"><ele>168.0</ele><time>2026-03-22T15:08:25Z</time></trkpt><trkpt lat="48.41550761552218" lon="-4.2292302794337315"><ele>168.0</ele><time>2026-03-22T15:08:26Z</time></trkpt><trkpt lat="48.415416421231676" lon="-4.229233283821921"><ele>168.0</ele><time>2026-03-22T15:08:27Z</time></trkpt><trkpt lat="48.41532802539428" lon="-4.229228850811177"><ele>168.0</ele><time>2026-03-22T15:08:28Z</time></trkpt><trkpt lat="48.41524828628607" lon="-4.229231219760769"><ele>168.0</ele><time>2026-03-22T15:08:29Z</time></trkpt><trkpt lat="48.4151614245039" lon="-4.229233508776918"><ele>168.0</ele><time>2026-03-22T15:08:30Z</time></trkpt><trkpt lat="48.415073165498555" lon="-4.229235884114867"><ele>168.0</ele><time>2026-03-22T15:08:31Z</time></trkpt><trkpt lat="48.41499325259749" lon="-4.229231839722349"><ele>168.0</ele><time>2026-03-22T15:08:32Z</time></trkpt><trkpt lat="48.41490424458046" lon="-4.229229943950611"><ele>168.0</ele><time>2026-03-22T15:08:33Z</time></trkpt><trkpt lat="48.41481517410034" lon="-4.229232802155661"><ele>168.0</ele><time>2026-03-22T15:08:34Z</time></trkpt><trkpt lat="48.4147326692074" lon="-4.229234219901857"><ele>168.0</ele><time>2026-03-22T15:08:35Z</time></trkpt><trkpt lat="48.414646164197656" lon="-4.229227996013938"><ele>168.0</ele><time>2026-03-22T15:08:36Z</time></trkpt><trkpt lat="48.41455901015195" lon="-4.229233851464751"><ele>168.0</ele><time>2026-03-22T15:08:37Z</time></trkpt><trkpt lat="48.41447650912489" lon="-4.229235249564162"><ele>168.0</ele><time>2026-03-22T15:08:38Z</time></trkpt><trkpt lat="48.41437915674676" lon="-4.229237686196705"><ele>168.0</ele><time>2026-03-22T15:08:39Z</time></trkpt><trkpt lat="48.41428985251464" lon="-4.229229167820104"><ele>168.0</ele><time>2026-03-22T15:08:40Z</time></trkpt><trkpt lat="48.414197206454766" lon="-4.22922759732417"><ele>168.0</ele><time>2026-03-22T15:08:41Z</time></trkpt><trkpt lat="48.41409779171626" lon="-4.2292234112128595"><ele>168.0</ele><time>2026-03-22T15:08:42Z</time></trkpt><trkpt lat="48.41399527302344" lon="-4.229214687998172"><ele>168.0</ele><time>2026-03-22T15:08:43Z</time></trkpt><trkpt lat="48.41389151128753" lon="-4.22921440850154"><ele>168.0</ele><time>2026-03-22T15:08:44Z</time></trkpt><trkpt lat="48.41378371009831" lon="-4.229233848863985"><ele>168.0</ele><time>2026-03-22T15:08:45Z</time></trkpt><trkpt lat="48.41367951687763" lon="-4.229228524801737"><ele>168.0</ele><time>2026-03-22T15:08:46Z</time></trkpt><trkpt lat="48.41357584359967" lon="-4.229223227309936"><ele>167.0</ele><time>2026-03-22T15:08:47Z</time></trkpt><trkpt lat="48.4134602688073" lon="-4.229216650842161"><ele>166.0</ele><time>2026-03-22T15:08:48Z</time></trkpt><trkpt lat="48.41334793941283" lon="-4.22920851863186"><ele>165.0</ele><time>2026-03-22T15:08:49Z</time></trkpt><trkpt lat="48.4132378955469" lon="-4.229200827785777"><ele>164.0</ele><time>2026-03-22T15:08:50Z</time></trkpt><trkpt lat="48.41312143356122" lon="-4.229192154765369"><ele>164.0</ele><time>2026-03-22T15:08:51Z</time></trkpt><trkpt lat="48.41299943464265" lon="-4.229182483090452"><ele>164.0</ele><time>2026-03-22T15:08:52Z</time></trkpt><trkpt lat="48.41287023699991" lon="-4.229172240698551"><ele>164.0</ele><time>2026-03-22T15:08:53Z</time></trkpt><trkpt lat="48.412752257695175" lon="-4.229160571539787"><ele>164.0</ele><time>2026-03-22T15:08:54Z</time></trkpt><trkpt lat="48.41262144358464" lon="-4.229148009801482"><ele>162.25</ele><time>2026-03-22T15:08:55Z</time></trkpt><trkpt lat="48.412496643429904" lon="-4.229136025511742"><ele>160.5</ele><time>2026-03-22T15:08:55.999Z</time></trkpt><trkpt lat="48.4123653485151" lon="-4.229101700023567"><ele>158.75</ele><time>2026-03-22T15:08:56.999Z</time></trkpt><trkpt lat="48.41223136208042" lon="-4.229097494075323"><ele>157.0</ele><time>2026-03-22T15:08:57.999Z</time></trkpt><trkpt lat="48.412091088061025" lon="-4.2290890042459806"><ele>155.5</ele><time>2026-03-22T15:08:58.999Z</time></trkpt><trkpt lat="48.41195174443103" lon="-4.229072973019487"><ele>154.0</ele><time>2026-03-22T15:08:59.999Z</time></trkpt><trkpt lat="48.411817516040834" lon="-4.229064199972738"><ele>152.5</ele><time>2026-03-22T15:09:00.999Z</time></trkpt><trkpt lat="48.411676425602714" lon="-4.229067916747493"><ele>151.0</ele><time>2026-03-22T15:09:01.999Z</time></trkpt><trkpt lat="48.41151805052683" lon="-4.229054494664653"><ele>151.0</ele><time>2026-03-22T15:09:02.999Z</time></trkpt><trkpt lat="48.41137142868424" lon="-4.229031127427387"><ele>151.0</ele><time>2026-03-22T15:09:03.999Z</time></trkpt><trkpt lat="48.41121104364579" lon="-4.229020567868698"><ele>151.0</ele><time>2026-03-22T15:09:04.999Z</time></trkpt><trkpt lat="48.41105904120589" lon="-4.229002597195495"><ele>148.0</ele><time>2026-03-22T15:09:05.999Z</time></trkpt><trkpt lat="48.41089945569515" lon="-4.229007858341428"><ele>145.0</ele><time>2026-03-22T15:09:06.999Z</time></trkpt><trkpt lat="48.410745412286445" lon="-4.228995256504891"><ele>142.0</ele><time>2026-03-22T15:09:07.999Z</time></trkpt><trkpt lat="48.41058450841822" lon="-4.228968426296955"><ele>140.0</ele><time>2026-03-22T15:09:08.999Z</time></trkpt><trkpt lat="48.410411960636765" lon="-4.228957826949617"><ele>138.0</ele><time>2026-03-22T15:09:09.999Z</time></trkpt><trkpt lat="48.410245638194766" lon="-4.228958776387339"><ele>136.0</ele><time>2026-03-22T15:09:10.999Z</time></trkpt><trkpt lat="48.4100641012167" lon="-4.22894589927299"><ele>136.0</ele><time>2026-03-22T15:09:11.999Z</time></trkpt><trkpt lat="48.409891027756345" lon="-4.228930399387778"><ele>136.0</ele><time>2026-03-22T15:09:12.999Z</time></trkpt><trkpt lat="48.409717387062656" lon="-4.228915381536099"><ele>136.0</ele><time>2026-03-22T15:09:13.999Z</time></trkpt><trkpt lat="48.409546506519646" lon="-4.22890298549759"><ele>132.66666666666669</ele><time>2026-03-22T15:09:14.999Z</time></trkpt><trkpt lat="48.40938814140049" lon="-4.228890551230907"><ele>129.33333333333334</ele><time>2026-03-22T15:09:15.999Z</time></trkpt><trkpt lat="48.40921047037028" lon="-4.228874027493669"><ele>126.0</ele><time>2026-03-22T15:09:16.999Z</time></trkpt><trkpt lat="48.409034929968804" lon="-4.2288568321449365"><ele>126.0</ele><time>2026-03-22T15:09:17.999Z</time></trkpt><trkpt lat="48.408859395837936" lon="-4.2288398764976085"><ele>126.0</ele><time>2026-03-22T15:09:18.999Z</time></trkpt><trkpt lat="48.40868856899606" lon="-4.228824614338191"><ele>126.0</ele><time>2026-03-22T15:09:19.999Z</time></trkpt><trkpt lat="48.40851327411419" lon="-4.228809829066389"><ele>124.66666666666666</ele><time>2026-03-22T15:09:20.999Z</time></trkpt><trkpt lat="48.408337559136214" lon="-4.22879500836137"><ele>123.33333333333333</ele><time>2026-03-22T15:09:21.999Z</time></trkpt><trkpt lat="48.40816339450991" lon="-4.228779043536079"><ele>122.0</ele><time>2026-03-22T15:09:22.999Z</time></trkpt><trkpt lat="48.407990385371946" lon="-4.2287631153440675"><ele>120.0</ele><time>2026-03-22T15:09:23.999Z</time></trkpt><trkpt lat="48.407822729087066" lon="-4.228747679967509"><ele>118.0</ele><time>2026-03-22T15:09:24.999Z</time></trkpt><trkpt lat="48.407656470336896" lon="-4.22873282896544"><ele>116.0</ele><time>2026-03-22T15:09:25.999Z</time></trkpt><trkpt lat="48.40749354005636" lon="-4.228718823383095"><ele>116.0</ele><time>2026-03-22T15:09:26.999Z</time></trkpt><trkpt lat="48.4073238768136" lon="-4.22870423903358"><ele>116.0</ele><time>2026-03-22T15:09:27.999Z</time></trkpt><trkpt lat="48.40715837024647" lon="-4.228691044053298"><ele>116.0</ele><time>2026-03-22T15:09:28.999Z</time></trkpt><trkpt lat="48.407005233908386" lon="-4.2286788278043685"><ele>115.0</ele><time>2026-03-22T15:09:29.999Z</time></trkpt><trkpt lat="48.40685315120291" lon="-4.228665688151612"><ele>114.0</ele><time>2026-03-22T15:09:30.999Z</time></trkpt><trkpt lat="48.4066899045701" lon="-4.228651277716687"><ele>113.0</ele><time>2026-03-22T15:09:31.999Z</time></trkpt><trkpt lat="48.406520690847515" lon="-4.228635934270382"><ele>113.0</ele><time>2026-03-22T15:09:32.999Z</time></trkpt><trkpt lat="48.40637398102862" lon="-4.22862258141151"><ele>113.0</ele><time>2026-03-22T15:09:33.999Z</time></trkpt><trkpt lat="48.40624005377845" lon="-4.228595947633992"><ele>113.0</ele><time>2026-03-22T15:09:34.999Z</time></trkpt><trkpt lat="48.406125882415544" lon="-4.228577369106183"><ele>113.0</ele><time>2026-03-22T15:09:35.999Z</time></trkpt><trkpt lat="48.40601467804301" lon="-4.2285762410399474"><ele>112.60000000000001</ele><time>2026-03-22T15:09:36.999Z</time></trkpt><trkpt lat="48.40591105775096" lon="-4.22857512231412"><ele>112.20000000000002</ele><time>2026-03-22T15:09:37.999Z</time></trkpt><trkpt lat="48.40580463234783" lon="-4.228565248494364"><ele>111.8</ele><time>2026-03-22T15:09:38.999Z</time></trkpt><trkpt lat="48.40568929677336" lon="-4.228545337880634"><ele>111.4</ele><time>2026-03-22T15:09:39.999Z</time></trkpt><trkpt lat="48.4055813845441" lon="-4.228543677729537"><ele>111.0</ele><time>2026-03-22T15:09:40.999Z</time></trkpt><trkpt lat="48.40547911105767" lon="-4.228550559557505"><ele>110.25</ele><time>2026-03-22T15:09:41.999Z</time></trkpt><trkpt lat="48.405363595947094" lon="-4.228532822736055"><ele>109.5</ele><time>2026-03-22T15:09:42.999Z</time></trkpt><trkpt lat="48.40524714188241" lon="-4.228523261535139"><ele>108.75</ele><time>2026-03-22T15:09:43.999Z</time></trkpt><trkpt lat="48.405138965221354" lon="-4.228507341261509"><ele>108.0</ele><time>2026-03-22T15:09:44.999Z</time></trkpt><trkpt lat="48.40502131658608" lon="-4.228495390882841"><ele>108.0</ele><time>2026-03-22T15:09:45.999Z</time></trkpt><trkpt lat="48.40490436129969" lon="-4.228492517818115"><ele>108.0</ele><time>2026-03-22T15:09:46.999Z</time></trkpt><trkpt lat="48.40478428167513" lon="-4.228477864270453"><ele>108.0</ele><time>2026-03-22T15:09:47.999Z</time></trkpt><trkpt lat="48.40467312006724" lon="-4.228465928295861"><ele>108.0</ele><time>2026-03-22T15:09:48.999Z</time></trkpt><trkpt lat="48.404549603793306" lon="-4.228469081153165"><ele>107.5</ele><time>2026-03-22T15:09:49.999Z</time></trkpt><trkpt lat="48.40446265132903" lon="-4.228445338642227"><ele>107.0</ele><time>2026-03-22T15:09:50.999Z</time></trkpt><trkpt lat="48.404382723978316" lon="-4.228438239443453"><ele>106.5</ele><time>2026-03-22T15:09:51.999Z</time></trkpt><trkpt lat="48.40430415481727" lon="-4.22843258182181"><ele>106.0</ele><time>2026-03-22T15:09:52.999Z</time></trkpt><trkpt lat="48.404234327160175" lon="-4.228443341248723"><ele>105.5</ele><time>2026-03-22T15:09:54Z</time></trkpt><trkpt lat="48.40415514071452" lon="-4.228559628040576"><ele>105.0</ele><time>2026-03-22T15:09:56Z</time></trkpt><trkpt lat="48.404097744166904" lon="-4.228615240963035"><ele>105.0</ele><time>2026-03-22T15:09:58Z</time></trkpt><trkpt lat="48.40399537424129" lon="-4.228591552848971"><ele>105.0</ele><time>2026-03-22T15:10:00Z</time></trkpt><trkpt lat="48.403927929427425" lon="-4.2285858734417205"><ele>105.0</ele><time>2026-03-22T15:10:01Z</time></trkpt><trkpt lat="48.40383448873565" lon="-4.22850294378709"><ele>105.0</ele><time>2026-03-22T15:10:03Z</time></trkpt><trkpt lat="48.40376316910081" lon="-4.228469503828659"><ele>105.0</ele><time>2026-03-22T15:10:04Z</time></trkpt><trkpt lat="48.40370225942008" lon="-4.2284418885892014"><ele>105.0</ele><time>2026-03-22T15:10:05Z</time></trkpt><trkpt lat="48.403634517367145" lon="-4.2284068092455565"><ele>104.66666666666667</ele><time>2026-03-22T15:10:06Z</time></trkpt><trkpt lat="48.40355359614885" lon="-4.228371813653633"><ele>104.33333333333334</ele><time>2026-03-22T15:10:07Z</time></trkpt><trkpt lat="48.40348263493237" lon="-4.22833584157263"><ele>104.0</ele><time>2026-03-22T15:10:08Z</time></trkpt><trkpt lat="48.40341417231989" lon="-4.22829433807205"><ele>103.66666666666667</ele><time>2026-03-22T15:10:09Z</time></trkpt><trkpt lat="48.403338159687095" lon="-4.2282553636896205"><ele>103.33333333333334</ele><time>2026-03-22T15:10:10Z</time></trkpt><trkpt lat="48.40326025807997" lon="-4.22823546815762"><ele>103.0</ele><time>2026-03-22T15:10:11Z</time></trkpt><trkpt lat="48.40317422569512" lon="-4.228218076859072"><ele>103.00000000000001</ele><time>2026-03-22T15:10:12Z</time></trkpt><trkpt lat="48.403094527362654" lon="-4.228196743116832"><ele>103.0</ele><time>2026-03-22T15:10:13Z</time></trkpt><trkpt lat="48.40300605943522" lon="-4.228168109362384"><ele>103.0</ele><time>2026-03-22T15:10:14Z</time></trkpt><trkpt lat="48.402930626736534" lon="-4.228150244345292"><ele>103.0</ele><time>2026-03-22T15:10:15Z</time></trkpt><trkpt lat="48.402854460943956" lon="-4.228137744142958"><ele>103.00000000000001</ele><time>2026-03-22T15:10:16Z</time></trkpt><trkpt lat="48.40275959560674" lon="-4.2281066943289"><ele>103.0</ele><time>2026-03-22T15:10:17Z</time></trkpt><trkpt lat="48.40267743656899" lon="-4.228081785657142"><ele>102.83333333333334</ele><time>2026-03-22T15:10:18Z</time></trkpt><trkpt lat="48.40260022395665" lon="-4.228041915641476"><ele>102.66666666666667</ele><time>2026-03-22T15:10:19Z</time></trkpt><trkpt lat="48.40252285283937" lon="-4.228023126881692"><ele>102.5</ele><time>2026-03-22T15:10:20Z</time></trkpt><trkpt lat="48.40242060786244" lon="-4.22802805094648"><ele>102.33333333333334</ele><time>2026-03-22T15:10:21Z</time></trkpt><trkpt lat="48.402336609360646" lon="-4.228006999983124"><ele>102.16666666666667</ele><time>2026-03-22T15:10:22Z</time></trkpt><trkpt lat="48.40224980986164" lon="-4.227985247053997"><ele>102.0</ele><time>2026-03-22T15:10:23Z</time></trkpt><trkpt lat="48.402155064568106" lon="-4.227961502811255"><ele>102.0</ele><time>2026-03-22T15:10:24Z</time></trkpt><trkpt lat="48.40206914005298" lon="-4.227939969166381"><ele>102.0</ele><time>2026-03-22T15:10:25Z</time></trkpt><trkpt lat="48.40199719520369" lon="-4.227932629790527"><ele>102.0</ele><time>2026-03-22T15:10:26Z</time></trkpt><trkpt lat="48.40190235951773" lon="-4.227912703570075"><ele>102.0</ele><time>2026-03-22T15:10:27Z</time></trkpt><trkpt lat="48.40180908437092" lon="-4.227903578677482"><ele>102.0</ele><time>2026-03-22T15:10:28Z</time></trkpt><trkpt lat="48.40172108604229" lon="-4.227876427427031"><ele>102.0</ele><time>2026-03-22T15:10:29Z</time></trkpt><trkpt lat="48.40163683378725" lon="-4.227847998947507"><ele>102.0</ele><time>2026-03-22T15:10:30Z</time></trkpt><trkpt lat="48.40154850178194" lon="-4.227840550525968"><ele>102.0</ele><time>2026-03-22T15:10:31Z</time></trkpt><trkpt lat="48.40145326365985" lon="-4.227803283469145"><ele>102.0</ele><time>2026-03-22T15:10:32Z</time></trkpt><trkpt lat="48.40136693017634" lon="-4.2277675485546"><ele>102.0</ele><time>2026-03-22T15:10:33Z</time></trkpt><trkpt lat="48.40126847744115" lon="-4.227742929421948"><ele>102.0</ele><time>2026-03-22T15:10:34Z</time></trkpt><trkpt lat="48.40119070931703" lon="-4.227734428336763"><ele>102.0</ele><time>2026-03-22T15:10:35Z</time></trkpt><trkpt lat="48.401121655723614" lon="-4.227759224093623"><ele>102.0</ele><time>2026-03-22T15:10:36Z</time></trkpt><trkpt lat="48.40104898410176" lon="-4.227829793854672"><ele>102.0</ele><time>2026-03-22T15:10:37Z</time></trkpt><trkpt lat="48.40097988988285" lon="-4.2279077940238485"><ele>102.0</ele><time>2026-03-22T15:10:38Z</time></trkpt><trkpt lat="48.40090909267635" lon="-4.227976917874471"><ele>102.0</ele><time>2026-03-22T15:10:39Z</time></trkpt><trkpt lat="48.40085490182164" lon="-4.228045238693227"><ele>102.0</ele><time>2026-03-22T15:10:40Z</time></trkpt><trkpt lat="48.40081422546589" lon="-4.2281198395879835"><ele>102.0</ele><time>2026-03-22T15:10:41Z</time></trkpt><trkpt lat="48.40076378027602" lon="-4.2281859697480515"><ele>102.0</ele><time>2026-03-22T15:10:42Z</time></trkpt><trkpt lat="48.400702724934284" lon="-4.228273297907812"><ele>102.0</ele><time>2026-03-22T15:10:43Z</time></trkpt><trkpt lat="48.400650901026445" lon="-4.228335476592865"><ele>102.0</ele><time>2026-03-22T15:10:44Z</time></trkpt><trkpt lat="48.40058471164404" lon="-4.228374555409975"><ele>102.0</ele><time>2026-03-22T15:10:45Z</time></trkpt><trkpt lat="48.40050035851079" lon="-4.228409533878164"><ele>102.0</ele><time>2026-03-22T15:10:47Z</time></trkpt><trkpt lat="48.400448972674035" lon="-4.228510950437929"><ele>102.0</ele><time>2026-03-22T15:10:49Z</time></trkpt><trkpt lat="48.40038464527345" lon="-4.228526510436121"><ele>102.0</ele><time>2026-03-22T15:10:52Z</time></trkpt><trkpt lat="48.400319304573365" lon="-4.2284758737154515"><ele>102.0</ele><time>2026-03-22T15:14:26Z</time></trkpt><trkpt lat="48.40025568122491" lon="-4.228468777376295"><ele>102.0</ele><time>2026-03-22T15:14:28Z</time></trkpt><trkpt lat="48.40016644562982" lon="-4.228553140011029"><ele>102.0</ele><time>2026-03-22T15:14:30Z</time></trkpt><trkpt lat="48.40004897007793" lon="-4.22859824820566"><ele>102.0</ele><time>2026-03-22T15:14:32Z</time></trkpt><trkpt lat="48.399984008076444" lon="-4.228620246526109"><ele>102.0</ele><time>2026-03-22T15:14:33Z</time></trkpt><trkpt lat="48.399918296553466" lon="-4.228688228954841"><ele>102.0</ele><time>2026-03-22T15:14:34Z</time></trkpt><trkpt lat="48.39985570072414" lon="-4.228746201667462"><ele>102.0</ele><time>2026-03-22T15:14:35Z</time></trkpt><trkpt lat="48.39980155786362" lon="-4.228804970924393"><ele>102.0</ele><time>2026-03-22T15:14:36Z</time></trkpt><trkpt lat="48.39973088005092" lon="-4.228847245154014"><ele>102.0</ele><time>2026-03-22T15:14:37Z</time></trkpt><trkpt lat="48.39965904087848" lon="-4.228888415743238"><ele>102.0</ele><time>2026-03-22T15:14:38Z</time></trkpt><trkpt lat="48.399539898736144" lon="-4.228956695265664"><ele>102.0</ele><time>2026-03-22T15:14:40Z</time></trkpt><trkpt lat="48.399439297526435" lon="-4.228978822622326"><ele>102.0</ele><time>2026-03-22T15:14:42Z</time></trkpt><trkpt lat="48.399335817264244" lon="-4.229030314385094"><ele>102.0</ele><time>2026-03-22T15:14:44Z</time></trkpt><trkpt lat="48.39941578923598" lon="-4.229021395633721"><ele>102.0</ele><time>2026-03-22T15:14:50Z</time></trkpt><trkpt lat="48.39929510441393" lon="-4.229293183909261"><ele>102.0</ele><time>2026-03-22T15:14:57.999Z</time></trkpt><trkpt lat="48.399196059302994" lon="-4.2293895597109055"><ele>102.0</ele><time>2026-03-22T15:14:59.999Z</time></trkpt><trkpt lat="48.399138915598996" lon="-4.229437447922259"><ele>102.0</ele><time>2026-03-22T15:15:00.999Z</time></trkpt><trkpt lat="48.399125783720464" lon="-4.229580243903391"><ele>102.0</ele><time>2026-03-22T15:15:01.999Z</time></trkpt><trkpt lat="48.39906517178903" lon="-4.2296537501929405"><ele>102.0</ele><time>2026-03-22T15:15:02.999Z</time></trkpt><trkpt lat="48.399003173478604" lon="-4.22972592876309"><ele>102.0</ele><time>2026-03-22T15:15:03.999Z</time></trkpt><trkpt lat="48.39892718389817" lon="-4.2298143400639265"><ele>101.39999999999999</ele><time>2026-03-22T15:15:04.999Z</time></trkpt><trkpt lat="48.39886530454102" lon="-4.229883608287081"><ele>100.8</ele><time>2026-03-22T15:15:05.999Z</time></trkpt><trkpt lat="48.39880073350662" lon="-4.2299353064733385"><ele>100.2</ele><time>2026-03-22T15:15:06.999Z</time></trkpt><trkpt lat="48.39872687970735" lon="-4.22999419553143"><ele>99.6</ele><time>2026-03-22T15:15:07.999Z</time></trkpt><trkpt lat="48.398640673140264" lon="-4.2300430691406"><ele>99.0</ele><time>2026-03-22T15:15:08.999Z</time></trkpt><trkpt lat="48.39852188409163" lon="-4.230108309726816"><ele>98.4</ele><time>2026-03-22T15:15:09.999Z</time></trkpt><trkpt lat="48.3984528821796" lon="-4.230137283621464"><ele>97.80000000000001</ele><time>2026-03-22T15:15:10.999Z</time></trkpt><trkpt lat="48.39835681794971" lon="-4.2301689456351985"><ele>97.19999999999999</ele><time>2026-03-22T15:15:11.999Z</time></trkpt><trkpt lat="48.39826569264233" lon="-4.2301930925749724"><ele>96.6</ele><time>2026-03-22T15:15:12.999Z</time></trkpt><trkpt lat="48.398167713168654" lon="-4.230213818576544"><ele>96.0</ele><time>2026-03-22T15:15:13.999Z</time></trkpt><trkpt lat="48.39805270974627" lon="-4.230230555766638"><ele>94.75</ele><time>2026-03-22T15:15:14.999Z</time></trkpt><trkpt lat="48.39795354983344" lon="-4.230240656812214"><ele>93.5</ele><time>2026-03-22T15:15:15.999Z</time></trkpt><trkpt lat="48.39783600911289" lon="-4.230252593452107"><ele>92.25</ele><time>2026-03-22T15:15:16.999Z</time></trkpt><trkpt lat="48.39771905796152" lon="-4.230267531108225"><ele>91.0</ele><time>2026-03-22T15:15:17.999Z</time></trkpt><trkpt lat="48.397601109179035" lon="-4.23028394602035"><ele>91.0</ele><time>2026-03-22T15:15:18.999Z</time></trkpt><trkpt lat="48.39748378223573" lon="-4.230300274383911"><ele>91.0</ele><time>2026-03-22T15:15:19.999Z</time></trkpt><trkpt lat="48.39737308326625" lon="-4.23031408232541"><ele>91.0</ele><time>2026-03-22T15:15:20.999Z</time></trkpt><trkpt lat="48.39726950293544" lon="-4.230325318160365"><ele>91.0</ele><time>2026-03-22T15:15:21.999Z</time></trkpt><trkpt lat="48.39717178306431" lon="-4.2303377095085715"><ele>91.0</ele><time>2026-03-22T15:15:22.999Z</time></trkpt><trkpt lat="48.39707915062156" lon="-4.230356254792347"><ele>90.0</ele><time>2026-03-22T15:15:23.999Z</time></trkpt><trkpt lat="48.39698114869989" lon="-4.230381232978109"><ele>89.0</ele><time>2026-03-22T15:15:24.999Z</time></trkpt><trkpt lat="48.39687603480351" lon="-4.230410537608334"><ele>88.0</ele><time>2026-03-22T15:15:25.999Z</time></trkpt><trkpt lat="48.396767040216616" lon="-4.230418596268925"><ele>87.0</ele><time>2026-03-22T15:15:26.999Z</time></trkpt><trkpt lat="48.39665569256686" lon="-4.230459671261333"><ele>86.0</ele><time>2026-03-22T15:15:27.999Z</time></trkpt><trkpt lat="48.39655353917549" lon="-4.23050250061633"><ele>86.0</ele><time>2026-03-22T15:15:28.999Z</time></trkpt><trkpt lat="48.396443376705335" lon="-4.230548446219102"><ele>86.0</ele><time>2026-03-22T15:15:29.999Z</time></trkpt><trkpt lat="48.39633755388742" lon="-4.23061966056362"><ele>86.0</ele><time>2026-03-22T15:15:30.999Z</time></trkpt><trkpt lat="48.39621775977505" lon="-4.230653148442115"><ele>86.0</ele><time>2026-03-22T15:15:31.999Z</time></trkpt><trkpt lat="48.396106043070965" lon="-4.230709094775906"><ele>84.5</ele><time>2026-03-22T15:15:32.999Z</time></trkpt><trkpt lat="48.39598833649589" lon="-4.230765327627742"><ele>83.0</ele><time>2026-03-22T15:15:33.999Z</time></trkpt><trkpt lat="48.39586310437216" lon="-4.23083529400185"><ele>81.5</ele><time>2026-03-22T15:15:34.999Z</time></trkpt><trkpt lat="48.395757197904835" lon="-4.230889517456372"><ele>80.0</ele><time>2026-03-22T15:15:35.999Z</time></trkpt><trkpt lat="48.3956404935424" lon="-4.230960138385944"><ele>80.0</ele><time>2026-03-22T15:15:36.999Z</time></trkpt><trkpt lat="48.395531439495656" lon="-4.23101275278677"><ele>80.0</ele><time>2026-03-22T15:15:37.999Z</time></trkpt><trkpt lat="48.39542008451671" lon="-4.231067919828384"><ele>80.0</ele><time>2026-03-22T15:15:38.999Z</time></trkpt><trkpt lat="48.39530300219169" lon="-4.23112144055988"><ele>80.0</ele><time>2026-03-22T15:15:39.999Z</time></trkpt><trkpt lat="48.39519554892557" lon="-4.231176478958526"><ele>79.5</ele><time>2026-03-22T15:15:40.999Z</time></trkpt><trkpt lat="48.39508958660254" lon="-4.231253151559596"><ele>79.0</ele><time>2026-03-22T15:15:41.999Z</time></trkpt><trkpt lat="48.39497752207517" lon="-4.231311313324009"><ele>78.5</ele><time>2026-03-22T15:15:42.999Z</time></trkpt><trkpt lat="48.39486283249091" lon="-4.231344652163266"><ele>78.0</ele><time>2026-03-22T15:15:43.999Z</time></trkpt><trkpt lat="48.39475926028735" lon="-4.231401171841512"><ele>78.0</ele><time>2026-03-22T15:15:44.999Z</time></trkpt><trkpt lat="48.39464585113898" lon="-4.231468792711777"><ele>78.0</ele><time>2026-03-22T15:15:45.999Z</time></trkpt><trkpt lat="48.394539074363216" lon="-4.231520107219869"><ele>78.0</ele><time>2026-03-22T15:15:46.999Z</time></trkpt><trkpt lat="48.394441084031115" lon="-4.231565542711538"><ele>78.0</ele><time>2026-03-22T15:15:47.999Z</time></trkpt><trkpt lat="48.39433828623186" lon="-4.231613403156915"><ele>78.0</ele><time>2026-03-22T15:15:48.999Z</time></trkpt><trkpt lat="48.394247004631474" lon="-4.231662146382633"><ele>77.5</ele><time>2026-03-22T15:15:49.999Z</time></trkpt><trkpt lat="48.394138705753555" lon="-4.231706679705095"><ele>77.0</ele><time>2026-03-22T15:15:50.999Z</time></trkpt><trkpt lat="48.39402551658664" lon="-4.231766785716907"><ele>76.5</ele><time>2026-03-22T15:15:52Z</time></trkpt><trkpt lat="48.39391736076842" lon="-4.2318051939473005"><ele>76.0</ele><time>2026-03-22T15:15:53Z</time></trkpt><trkpt lat="48.39381393554762" lon="-4.231863019525933"><ele>75.8</ele><time>2026-03-22T15:15:54Z</time></trkpt><trkpt lat="48.39371422299539" lon="-4.231935831050444"><ele>75.6</ele><time>2026-03-22T15:15:55Z</time></trkpt><trkpt lat="48.39360646479199" lon="-4.231996489571497"><ele>75.4</ele><time>2026-03-22T15:15:56Z</time></trkpt><trkpt lat="48.393492340399355" lon="-4.232044331822476"><ele>75.2</ele><time>2026-03-22T15:15:57Z</time></trkpt><trkpt lat="48.39340841286537" lon="-4.232119577971797"><ele>75.0</ele><time>2026-03-22T15:15:58Z</time></trkpt><trkpt lat="48.39329859940371" lon="-4.232203030757536"><ele>75.0</ele><time>2026-03-22T15:15:59Z</time></trkpt><trkpt lat="48.39318367674942" lon="-4.232285472737697"><ele>75.0</ele><time>2026-03-22T15:16:00Z</time></trkpt><trkpt lat="48.39308577453883" lon="-4.232342653064836"><ele>75.0</ele><time>2026-03-22T15:16:01Z</time></trkpt><trkpt lat="48.39297965474518" lon="-4.232411711181663"><ele>75.0</ele><time>2026-03-22T15:16:02Z</time></trkpt><trkpt lat="48.392892350880885" lon="-4.2324884651124"><ele>75.0</ele><time>2026-03-22T15:16:03Z</time></trkpt><trkpt lat="48.39278624393494" lon="-4.232546140044435"><ele>74.4</ele><time>2026-03-22T15:16:04Z</time></trkpt><trkpt lat="48.39268952450689" lon="-4.232593398588669"><ele>73.8</ele><time>2026-03-22T15:16:05Z</time></trkpt><trkpt lat="48.39259022056418" lon="-4.2326332732938425"><ele>73.2</ele><time>2026-03-22T15:16:06Z</time></trkpt><trkpt lat="48.39249069093422" lon="-4.232667931951526"><ele>72.6</ele><time>2026-03-22T15:16:07Z</time></trkpt><trkpt lat="48.39238770154765" lon="-4.232703795351395"><ele>72.0</ele><time>2026-03-22T15:16:08Z</time></trkpt><trkpt lat="48.39228940000995" lon="-4.232710717391242"><ele>72.0</ele><time>2026-03-22T15:16:09Z</time></trkpt><trkpt lat="48.392195194397836" lon="-4.2327452548242475"><ele>72.0</ele><time>2026-03-22T15:16:10Z</time></trkpt><trkpt lat="48.39209708607162" lon="-4.23277132683178"><ele>72.0</ele><time>2026-03-22T15:16:11Z</time></trkpt><trkpt lat="48.392000583913706" lon="-4.2327882930271565"><ele>72.0</ele><time>2026-03-22T15:16:12Z</time></trkpt><trkpt lat="48.391909210614934" lon="-4.232802466680385"><ele>72.0</ele><time>2026-03-22T15:16:13Z</time></trkpt><trkpt lat="48.39181758124335" lon="-4.232810204273694"><ele>72.66666666666667</ele><time>2026-03-22T15:16:14Z</time></trkpt><trkpt lat="48.39173078677271" lon="-4.232819835227189"><ele>73.33333333333333</ele><time>2026-03-22T15:16:15Z</time></trkpt><trkpt lat="48.39165309462384" lon="-4.232826200791111"><ele>74.0</ele><time>2026-03-22T15:16:16Z</time></trkpt><trkpt lat="48.391569194379514" lon="-4.232833641154512"><ele>74.66666666666666</ele><time>2026-03-22T15:16:17Z</time></trkpt><trkpt lat="48.391483924550464" lon="-4.23284531368993"><ele>75.33333333333333</ele><time>2026-03-22T15:16:18Z</time></trkpt><trkpt lat="48.391410838248746" lon="-4.232856206902113"><ele>76.0</ele><time>2026-03-22T15:16:19Z</time></trkpt><trkpt lat="48.39133855990145" lon="-4.2328507084729505"><ele>76.5</ele><time>2026-03-22T15:16:20Z</time></trkpt><trkpt lat="48.391269702359075" lon="-4.232875023214021"><ele>77.0</ele><time>2026-03-22T15:16:21Z</time></trkpt><trkpt lat="48.39120350226589" lon="-4.232877275671791"><ele>77.5</ele><time>2026-03-22T15:16:22Z</time></trkpt><trkpt lat="48.39113318280071" lon="-4.232884999741511"><ele>78.0</ele><time>2026-03-22T15:16:23Z</time></trkpt><trkpt lat="48.39105530525031" lon="-4.232921668431793"><ele>78.5</ele><time>2026-03-22T15:16:24Z</time></trkpt><trkpt lat="48.39093521702023" lon="-4.232969969137491"><ele>79.0</ele><time>2026-03-22T15:16:26Z</time></trkpt><trkpt lat="48.390880659562335" lon="-4.233024793312642"><ele>79.0</ele><time>2026-03-22T15:16:27Z</time></trkpt><trkpt lat="48.39073562160913" lon="-4.2331275241608175"><ele>79.0</ele><time>2026-03-22T15:16:29Z</time></trkpt><trkpt lat="48.39063112066099" lon="-4.2332062721808565"><ele>79.0</ele><time>2026-03-22T15:16:31Z</time></trkpt><trkpt lat="48.390573378496235" lon="-4.233251814811789"><ele>79.0</ele><time>2026-03-22T15:16:32Z</time></trkpt><trkpt lat="48.390514585372934" lon="-4.233298288725603"><ele>79.0</ele><time>2026-03-22T15:16:33Z</time></trkpt><trkpt lat="48.39039485675867" lon="-4.233371233214092"><ele>78.83333333333333</ele><time>2026-03-22T15:16:35Z</time></trkpt><trkpt lat="48.39032279665511" lon="-4.23342934871476"><ele>78.66666666666666</ele><time>2026-03-22T15:16:36Z</time></trkpt><trkpt lat="48.39024184334911" lon="-4.233518476531661"><ele>78.5</ele><time>2026-03-22T15:16:37Z</time></trkpt><trkpt lat="48.390180142952346" lon="-4.233568722494074"><ele>78.33333333333333</ele><time>2026-03-22T15:16:38Z</time></trkpt><trkpt lat="48.39009531674158" lon="-4.233599232180048"><ele>78.16666666666667</ele><time>2026-03-22T15:16:39Z</time></trkpt><trkpt lat="48.390034847149984" lon="-4.233665859225763"><ele>78.0</ele><time>2026-03-22T15:16:40Z</time></trkpt><trkpt lat="48.38997326743958" lon="-4.233711008723017"><ele>78.0</ele><time>2026-03-22T15:16:41Z</time></trkpt><trkpt lat="48.38990744070449" lon="-4.233773261405231"><ele>78.0</ele><time>2026-03-22T15:16:42Z</time></trkpt><trkpt lat="48.38983959485314" lon="-4.233823560602602"><ele>78.0</ele><time>2026-03-22T15:16:43Z</time></trkpt><trkpt lat="48.38976422429356" lon="-4.2338967180238845"><ele>78.0</ele><time>2026-03-22T15:16:44Z</time></trkpt><trkpt lat="48.389702120913434" lon="-4.233950833477511"><ele>78.0</ele><time>2026-03-22T15:16:45Z</time></trkpt><trkpt lat="48.38962270214565" lon="-4.234014241468366"><ele>78.0</ele><time>2026-03-22T15:16:46Z</time></trkpt><trkpt lat="48.38954113340866" lon="-4.23407462999836"><ele>77.5</ele><time>2026-03-22T15:16:47Z</time></trkpt><trkpt lat="48.38946478590318" lon="-4.234129856984741"><ele>77.0</ele><time>2026-03-22T15:16:48Z</time></trkpt><trkpt lat="48.38939762598853" lon="-4.234179607478388"><ele>76.5</ele><time>2026-03-22T15:16:49Z</time></trkpt><trkpt lat="48.38933201351862" lon="-4.234240187635775"><ele>76.0</ele><time>2026-03-22T15:16:50Z</time></trkpt><trkpt lat="48.3892490917496" lon="-4.234291527958315"><ele>75.5</ele><time>2026-03-22T15:16:51Z</time></trkpt><trkpt lat="48.389144396934775" lon="-4.234379797754841"><ele>75.0</ele><time>2026-03-22T15:16:52Z</time></trkpt><trkpt lat="48.389066538629415" lon="-4.2344454964640095"><ele>75.0</ele><time>2026-03-22T15:16:53Z</time></trkpt><trkpt lat="48.38897542587077" lon="-4.234535207639802"><ele>75.0</ele><time>2026-03-22T15:16:54Z</time></trkpt><trkpt lat="48.38888014901613" lon="-4.234628518627921"><ele>75.0</ele><time>2026-03-22T15:16:55Z</time></trkpt><trkpt lat="48.38880025675728" lon="-4.234728359267516"><ele>75.0</ele><time>2026-03-22T15:16:56Z</time></trkpt><trkpt lat="48.38870967630215" lon="-4.234835482155223"><ele>75.0</ele><time>2026-03-22T15:16:57Z</time></trkpt><trkpt lat="48.388607689392664" lon="-4.234956349656776"><ele>73.25</ele><time>2026-03-22T15:16:58Z</time></trkpt><trkpt lat="48.38854072885873" lon="-4.235046305075596"><ele>71.5</ele><time>2026-03-22T15:16:59Z</time></trkpt><trkpt lat="48.38843037766303" lon="-4.235183256399931"><ele>69.75</ele><time>2026-03-22T15:17:00Z</time></trkpt><trkpt lat="48.38832718693505" lon="-4.23531378796884"><ele>68.0</ele><time>2026-03-22T15:17:01Z</time></trkpt><trkpt lat="48.38822991333725" lon="-4.235445129975841"><ele>68.0</ele><time>2026-03-22T15:17:01.999Z</time></trkpt><trkpt lat="48.38813131933553" lon="-4.235572872764728"><ele>68.0</ele><time>2026-03-22T15:17:02.999Z</time></trkpt><trkpt lat="48.3880208336116" lon="-4.235686311747665"><ele>68.0</ele><time>2026-03-22T15:17:03.999Z</time></trkpt><trkpt lat="48.387888583581486" lon="-4.235752548093605"><ele>68.0</ele><time>2026-03-22T15:17:04.999Z</time></trkpt><trkpt lat="48.387770748360644" lon="-4.2358268315028775"><ele>66.5</ele><time>2026-03-22T15:17:05.999Z</time></trkpt><trkpt lat="48.38766752109912" lon="-4.235889505692487"><ele>65.0</ele><time>2026-03-22T15:17:06.999Z</time></trkpt><trkpt lat="48.38754109672102" lon="-4.2359640860729675"><ele>63.5</ele><time>2026-03-22T15:17:07.999Z</time></trkpt><trkpt lat="48.38743088248362" lon="-4.236019999767393"><ele>62.0</ele><time>2026-03-22T15:17:08.999Z</time></trkpt><trkpt lat="48.3873092001994" lon="-4.236067769385585"><ele>62.0</ele><time>2026-03-22T15:17:09.999Z</time></trkpt><trkpt lat="48.387189673818014" lon="-4.236097587473708"><ele>62.0</ele><time>2026-03-22T15:17:10.999Z</time></trkpt><trkpt lat="48.387072586302104" lon="-4.236117668769418"><ele>62.0</ele><time>2026-03-22T15:17:11.999Z</time></trkpt><trkpt lat="48.38696040729591" lon="-4.236162658689303"><ele>62.0</ele><time>2026-03-22T15:17:12.999Z</time></trkpt><trkpt lat="48.386814383899704" lon="-4.236187881509245"><ele>62.2</ele><time>2026-03-22T15:17:13.999Z</time></trkpt><trkpt lat="48.386723875906554" lon="-4.236202125418082"><ele>62.400000000000006</ele><time>2026-03-22T15:17:14.999Z</time></trkpt><trkpt lat="48.38662965011838" lon="-4.236215104624701"><ele>62.599999999999994</ele><time>2026-03-22T15:17:15.999Z</time></trkpt><trkpt lat="48.38654297210332" lon="-4.236227044044164"><ele>62.8</ele><time>2026-03-22T15:17:16.999Z</time></trkpt><trkpt lat="48.38644262765043" lon="-4.236216795270229"><ele>63.0</ele><time>2026-03-22T15:17:17.999Z</time></trkpt><trkpt lat="48.386343498779404" lon="-4.236226275193427"><ele>63.2</ele><time>2026-03-22T15:17:18.999Z</time></trkpt><trkpt lat="48.38625082697183" lon="-4.2362602373651805"><ele>63.4</ele><time>2026-03-22T15:17:19.999Z</time></trkpt><trkpt lat="48.386153065349134" lon="-4.236271106657775"><ele>63.60000000000001</ele><time>2026-03-22T15:17:20.999Z</time></trkpt><trkpt lat="48.386069994276475" lon="-4.236278176314801"><ele>63.800000000000004</ele><time>2026-03-22T15:17:21.999Z</time></trkpt><trkpt lat="48.38597996010329" lon="-4.23629571047608"><ele>64.0</ele><time>2026-03-22T15:17:22.999Z</time></trkpt><trkpt lat="48.385888028516725" lon="-4.236296152441524"><ele>63.99999999999999</ele><time>2026-03-22T15:17:23.999Z</time></trkpt><trkpt lat="48.385797557305594" lon="-4.236304839973557"><ele>64.0</ele><time>2026-03-22T15:17:24.999Z</time></trkpt><trkpt lat="48.38570736076871" lon="-4.236314867339042"><ele>64.0</ele><time>2026-03-22T15:17:25.999Z</time></trkpt><trkpt lat="48.38562711081062" lon="-4.236306145136292"><ele>64.0</ele><time>2026-03-22T15:17:26.999Z</time></trkpt><trkpt lat="48.385541617492315" lon="-4.236322762583973"><ele>63.99999999999999</ele><time>2026-03-22T15:17:27.999Z</time></trkpt><trkpt lat="48.38545343090728" lon="-4.2363300769823375"><ele>64.0</ele><time>2026-03-22T15:17:28.999Z</time></trkpt><trkpt lat="48.38536329695003" lon="-4.236347966471976"><ele>63.99999999999999</ele><time>2026-03-22T15:17:29.999Z</time></trkpt><trkpt lat="48.38528480186024" lon="-4.23633729570785"><ele>64.0</ele><time>2026-03-22T15:17:30.999Z</time></trkpt><trkpt lat="48.38520611298153" lon="-4.2363506318487305"><ele>64.0</ele><time>2026-03-22T15:17:31.999Z</time></trkpt><trkpt lat="48.38511629930029" lon="-4.23636556442301"><ele>64.0</ele><time>2026-03-22T15:17:32.999Z</time></trkpt><trkpt lat="48.38504389516823" lon="-4.236380657668472"><ele>63.99999999999999</ele><time>2026-03-22T15:17:33.999Z</time></trkpt><trkpt lat="48.38496520264647" lon="-4.236394013384315"><ele>64.0</ele><time>2026-03-22T15:17:34.999Z</time></trkpt><trkpt lat="48.384885550685254" lon="-4.236419821466936"><ele>63.49999999999999</ele><time>2026-03-22T15:17:35.999Z</time></trkpt><trkpt lat="48.38480830331705" lon="-4.236478231231281"><ele>63.0</ele><time>2026-03-22T15:17:36.999Z</time></trkpt><trkpt lat="48.38472248232048" lon="-4.236516555940987"><ele>62.5</ele><time>2026-03-22T15:17:37.999Z</time></trkpt><trkpt lat="48.38464683314034" lon="-4.236562888251233"><ele>62.0</ele><time>2026-03-22T15:17:38.999Z</time></trkpt><trkpt lat="48.384568533532594" lon="-4.236627037973059"><ele>61.49999999999999</ele><time>2026-03-22T15:17:39.999Z</time></trkpt><trkpt lat="48.384486575600995" lon="-4.236694960030513"><ele>61.0</ele><time>2026-03-22T15:17:40.999Z</time></trkpt><trkpt lat="48.384419002258404" lon="-4.23678000846191"><ele>61.0</ele><time>2026-03-22T15:17:41.999Z</time></trkpt><trkpt lat="48.38433259213708" lon="-4.236844627089035"><ele>60.99999999999999</ele><time>2026-03-22T15:17:42.999Z</time></trkpt><trkpt lat="48.384261761513535" lon="-4.236956056529444"><ele>60.99999999999999</ele><time>2026-03-22T15:17:43.999Z</time></trkpt><trkpt lat="48.38418359266169" lon="-4.237063887016282"><ele>61.0</ele><time>2026-03-22T15:17:44.999Z</time></trkpt><trkpt lat="48.38413190225094" lon="-4.2371386971690725"><ele>61.0</ele><time>2026-03-22T15:17:45.999Z</time></trkpt><trkpt lat="48.38407218303078" lon="-4.237225127066559"><ele>61.166666666666664</ele><time>2026-03-22T15:17:46.999Z</time></trkpt><trkpt lat="48.384012019495046" lon="-4.23731472358568"><ele>61.33333333333333</ele><time>2026-03-22T15:17:47.999Z</time></trkpt><trkpt lat="48.38395682812293" lon="-4.237396948999914"><ele>61.5</ele><time>2026-03-22T15:17:48.999Z</time></trkpt><trkpt lat="48.383890857393936" lon="-4.237494574345325"><ele>61.66666666666667</ele><time>2026-03-22T15:17:49.999Z</time></trkpt><trkpt lat="48.38383358413556" lon="-4.237577848118115"><ele>61.833333333333336</ele><time>2026-03-22T15:17:50.999Z</time></trkpt><trkpt lat="48.38377658978187" lon="-4.237658804002385"><ele>62.0</ele><time>2026-03-22T15:17:51.999Z</time></trkpt><trkpt lat="48.38372308381282" lon="-4.237734677216167"><ele>62.00000000000001</ele><time>2026-03-22T15:17:52.999Z</time></trkpt><trkpt lat="48.383656321364285" lon="-4.237809142252365"><ele>62.0</ele><time>2026-03-22T15:17:53.999Z</time></trkpt><trkpt lat="48.383602578065585" lon="-4.2378872970322465"><ele>62.0</ele><time>2026-03-22T15:17:54.999Z</time></trkpt><trkpt lat="48.383544562408915" lon="-4.23797160936985"><ele>62.0</ele><time>2026-03-22T15:17:55.999Z</time></trkpt><trkpt lat="48.383494529352426" lon="-4.2380551982583645"><ele>62.00000000000001</ele><time>2026-03-22T15:17:56.999Z</time></trkpt><trkpt lat="48.38343433131919" lon="-4.238108709461504"><ele>62.0</ele><time>2026-03-22T15:17:58Z</time></trkpt><trkpt lat="48.3833681274616" lon="-4.238169992349516"><ele>61.833333333333336</ele><time>2026-03-22T15:17:59Z</time></trkpt><trkpt lat="48.38331937971681" lon="-4.238259210941655"><ele>61.66666666666667</ele><time>2026-03-22T15:18:00Z</time></trkpt><trkpt lat="48.383267689399304" lon="-4.238324283403288"><ele>61.5</ele><time>2026-03-22T15:18:01Z</time></trkpt><trkpt lat="48.383217321113" lon="-4.238390649901512"><ele>61.33333333333333</ele><time>2026-03-22T15:18:02Z</time></trkpt><trkpt lat="48.3831111378774" lon="-4.238498207509736"><ele>61.166666666666664</ele><time>2026-03-22T15:18:04Z</time></trkpt><trkpt lat="48.38306847758344" lon="-4.238581524848532"><ele>61.0</ele><time>2026-03-22T15:18:05Z</time></trkpt><trkpt lat="48.382992079624394" lon="-4.238714942114451"><ele>61.599999999999994</ele><time>2026-03-22T15:18:07Z</time></trkpt><trkpt lat="48.38294214184445" lon="-4.238783262872671"><ele>62.199999999999996</ele><time>2026-03-22T15:18:08Z</time></trkpt><trkpt lat="48.38289717441987" lon="-4.23885017923902"><ele>62.800000000000004</ele><time>2026-03-22T15:18:09Z</time></trkpt><trkpt lat="48.382816630315226" lon="-4.239018863494109"><ele>63.400000000000006</ele><time>2026-03-22T15:18:11Z</time></trkpt><trkpt lat="48.382742245680525" lon="-4.239118732825615"><ele>64.0</ele><time>2026-03-22T15:18:13Z</time></trkpt><trkpt lat="48.38265889191133" lon="-4.239241114746185"><ele>64.2</ele><time>2026-03-22T15:18:15Z</time></trkpt><trkpt lat="48.38263058367492" lon="-4.23933499496035"><ele>64.4</ele><time>2026-03-22T15:18:16Z</time></trkpt><trkpt lat="48.38256471909959" lon="-4.239496022893025"><ele>64.6</ele><time>2026-03-22T15:18:18Z</time></trkpt><trkpt lat="48.3825159225286" lon="-4.239645114767968"><ele>64.8</ele><time>2026-03-22T15:18:20Z</time></trkpt><trkpt lat="48.382460292259566" lon="-4.23980174424363"><ele>65.0</ele><time>2026-03-22T15:18:22Z</time></trkpt><trkpt lat="48.38241209495336" lon="-4.239953089048418"><ele>64.83333333333334</ele><time>2026-03-22T15:18:24Z</time></trkpt><trkpt lat="48.38238482430125" lon="-4.240045147331465"><ele>64.66666666666667</ele><time>2026-03-22T15:18:25Z</time></trkpt><trkpt lat="48.38234826861591" lon="-4.240188157923794"><ele>64.5</ele><time>2026-03-22T15:18:29Z</time></trkpt><trkpt lat="48.38230492946837" lon="-4.240343009916305"><ele>64.33333333333333</ele><time>2026-03-22T15:18:31Z</time></trkpt><trkpt lat="48.38227186066812" lon="-4.240463281053207"><ele>64.16666666666666</ele><time>2026-03-22T15:18:33Z</time></trkpt><trkpt lat="48.38221879436714" lon="-4.240520555453291"><ele>64.0</ele><time>2026-03-22T15:18:35Z</time></trkpt><trkpt lat="48.38220673333233" lon="-4.240711613864682"><ele>64.83333333333333</ele><time>2026-03-22T15:18:38Z</time></trkpt><trkpt lat="48.38216092268638" lon="-4.240837454722245"><ele>65.66666666666666</ele><time>2026-03-22T15:18:40Z</time></trkpt><trkpt lat="48.382142208960964" lon="-4.240930993741731"><ele>66.5</ele><time>2026-03-22T15:18:42Z</time></trkpt><trkpt lat="48.38213262913741" lon="-4.241029723845737"><ele>67.33333333333333</ele><time>2026-03-22T15:18:43Z</time></trkpt><trkpt lat="48.382088862908844" lon="-4.241130214968753"><ele>68.16666666666667</ele><time>2026-03-22T15:18:45Z</time></trkpt><trkpt lat="48.38206781051316" lon="-4.241243609686232"><ele>69.0</ele><time>2026-03-22T15:18:47Z</time></trkpt><trkpt lat="48.38202121453883" lon="-4.241349224917991"><ele>69.0</ele><time>2026-03-22T15:18:49Z</time></trkpt><trkpt lat="48.381982644195304" lon="-4.241440021341702"><ele>69.0</ele><time>2026-03-22T15:18:51Z</time></trkpt><trkpt lat="48.381992432562555" lon="-4.241537206803877"><ele>69.0</ele><time>2026-03-22T15:18:52Z</time></trkpt><trkpt lat="48.3819364471778" lon="-4.241628052477367"><ele>69.0</ele><time>2026-03-22T15:18:55Z</time></trkpt><trkpt lat="48.38191455665126" lon="-4.241717348455408"><ele>69.0</ele><time>2026-03-22T15:18:56Z</time></trkpt><trkpt lat="48.38185601769898" lon="-4.241807611514052"><ele>69.0</ele><time>2026-03-22T15:18:59Z</time></trkpt><trkpt lat="48.38189306990118" lon="-4.241952238608315"><ele>69.0</ele><time>2026-03-22T15:19:01Z</time></trkpt><trkpt lat="48.381910950359924" lon="-4.242087883934712"><ele>69.0</ele><time>2026-03-22T15:19:04Z</time></trkpt><trkpt lat="48.38186319255212" lon="-4.242175069907881"><ele>69.0</ele><time>2026-03-22T15:19:06.999Z</time></trkpt><trkpt lat="48.381342556703885" lon="-4.243490260082807"><ele>68.4</ele><time>2026-03-22T15:19:08.999Z</time></trkpt><trkpt lat="48.381283862074234" lon="-4.243585118008656"><ele>67.80000000000001</ele><time>2026-03-22T15:19:09.999Z</time></trkpt><trkpt lat="48.38122830511375" lon="-4.243701922592448"><ele>67.19999999999999</ele><time>2026-03-22T15:19:10.999Z</time></trkpt><trkpt lat="48.38117069657969" lon="-4.243782979154532"><ele>66.6</ele><time>2026-03-22T15:19:11.999Z</time></trkpt><trkpt lat="48.38111786283568" lon="-4.243906013399826"><ele>66.0</ele><time>2026-03-22T15:19:12.999Z</time></trkpt><trkpt lat="48.38107236285274" lon="-4.244036885668537"><ele>66.0</ele><time>2026-03-22T15:19:13.999Z</time></trkpt><trkpt lat="48.38101497497109" lon="-4.244134503882539"><ele>66.0</ele><time>2026-03-22T15:19:14.999Z</time></trkpt><trkpt lat="48.380976715620015" lon="-4.244240574324305"><ele>66.0</ele><time>2026-03-22T15:19:15.999Z</time></trkpt><trkpt lat="48.38092441037146" lon="-4.244338250261736"><ele>66.0</ele><time>2026-03-22T15:19:16.999Z</time></trkpt><trkpt lat="48.38088376466733" lon="-4.24443790039565"><ele>66.0</ele><time>2026-03-22T15:19:17.999Z</time></trkpt><trkpt lat="48.38084131326894" lon="-4.244535438934541"><ele>66.0</ele><time>2026-03-22T15:19:18.999Z</time></trkpt><trkpt lat="48.38081174933859" lon="-4.244659725732806"><ele>66.0</ele><time>2026-03-22T15:19:19.999Z</time></trkpt><trkpt lat="48.38078962922513" lon="-4.24477413837796"><ele>66.0</ele><time>2026-03-22T15:19:20.999Z</time></trkpt><trkpt lat="48.38076718431698" lon="-4.24488476202882"><ele>66.0</ele><time>2026-03-22T15:19:21.999Z</time></trkpt><trkpt lat="48.38075942283324" lon="-4.245031257111745"><ele>66.0</ele><time>2026-03-22T15:19:22.999Z</time></trkpt><trkpt lat="48.38072333410135" lon="-4.245136315602576"><ele>66.0</ele><time>2026-03-22T15:19:23.999Z</time></trkpt><trkpt lat="48.38071983023575" lon="-4.245262788498379"><ele>66.0</ele><time>2026-03-22T15:19:24.999Z</time></trkpt><trkpt lat="48.38070432345209" lon="-4.245360965112111"><ele>66.0</ele><time>2026-03-22T15:19:25.999Z</time></trkpt><trkpt lat="48.38068150774856" lon="-4.245481146218423"><ele>66.0</ele><time>2026-03-22T15:19:26.999Z</time></trkpt><trkpt lat="48.38066444909665" lon="-4.245581520937091"><ele>66.0</ele><time>2026-03-22T15:19:27.999Z</time></trkpt><trkpt lat="48.3806183259493" lon="-4.245681589351122"><ele>66.0</ele><time>2026-03-22T15:19:28.999Z</time></trkpt><trkpt lat="48.380579901484175" lon="-4.245793853685453"><ele>66.0</ele><time>2026-03-22T15:19:29.999Z</time></trkpt><trkpt lat="48.38053976382262" lon="-4.2458991623024955"><ele>66.0</ele><time>2026-03-22T15:19:30.999Z</time></trkpt><trkpt lat="48.380500276010245" lon="-4.245991416409971"><ele>65.66666666666667</ele><time>2026-03-22T15:19:31.999Z</time></trkpt><trkpt lat="48.38046183924533" lon="-4.246101524477529"><ele>65.33333333333333</ele><time>2026-03-22T15:19:32.999Z</time></trkpt><trkpt lat="48.38040188506231" lon="-4.2462051827274445"><ele>65.0</ele><time>2026-03-22T15:19:33.999Z</time></trkpt><trkpt lat="48.38033498744249" lon="-4.246282698622401"><ele>64.66666666666666</ele><time>2026-03-22T15:19:34.999Z</time></trkpt><trkpt lat="48.38027390159952" lon="-4.246374638201095"><ele>64.33333333333333</ele><time>2026-03-22T15:19:35.999Z</time></trkpt><trkpt lat="48.38021674305223" lon="-4.246462685987564"><ele>64.0</ele><time>2026-03-22T15:19:36.999Z</time></trkpt><trkpt lat="48.38015408519243" lon="-4.246548626550445"><ele>64.0</ele><time>2026-03-22T15:19:37.999Z</time></trkpt><trkpt lat="48.38007909836281" lon="-4.246615619980922"><ele>64.0</ele><time>2026-03-22T15:19:38.999Z</time></trkpt><trkpt lat="48.3800027913909" lon="-4.246699355861255"><ele>64.0</ele><time>2026-03-22T15:19:39.999Z</time></trkpt><trkpt lat="48.37992442387452" lon="-4.246752393945045"><ele>64.0</ele><time>2026-03-22T15:19:40.999Z</time></trkpt><trkpt lat="48.379839377647144" lon="-4.2468296545140625"><ele>64.0</ele><time>2026-03-22T15:19:41.999Z</time></trkpt><trkpt lat="48.37975450179543" lon="-4.246879997754567"><ele>63.400000000000006</ele><time>2026-03-22T15:19:42.999Z</time></trkpt><trkpt lat="48.379675090519015" lon="-4.246948163616798"><ele>62.800000000000004</ele><time>2026-03-22T15:19:43.999Z</time></trkpt><trkpt lat="48.37959289929792" lon="-4.24701833050343"><ele>62.199999999999996</ele><time>2026-03-22T15:19:44.999Z</time></trkpt><trkpt lat="48.379514703589614" lon="-4.24708064213114"><ele>61.599999999999994</ele><time>2026-03-22T15:19:45.999Z</time></trkpt><trkpt lat="48.37943306494196" lon="-4.247149152669145"><ele>61.0</ele><time>2026-03-22T15:19:46.999Z</time></trkpt><trkpt lat="48.379339701142236" lon="-4.247207898507945"><ele>60.99999999999999</ele><time>2026-03-22T15:19:47.999Z</time></trkpt><trkpt lat="48.37926407193267" lon="-4.2472744372039895"><ele>61.0</ele><time>2026-03-22T15:19:48.999Z</time></trkpt><trkpt lat="48.37917952625667" lon="-4.247349300393236"><ele>61.0</ele><time>2026-03-22T15:19:49.999Z</time></trkpt><trkpt lat="48.37912422624724" lon="-4.247449287532379"><ele>61.0</ele><time>2026-03-22T15:19:50.999Z</time></trkpt><trkpt lat="48.379059370867225" lon="-4.247544995334131"><ele>60.99999999999999</ele><time>2026-03-22T15:19:51.999Z</time></trkpt><trkpt lat="48.37900321311537" lon="-4.2476327061881385"><ele>61.0</ele><time>2026-03-22T15:19:52.999Z</time></trkpt><trkpt lat="48.37893616741562" lon="-4.247713046682426"><ele>61.33333333333333</ele><time>2026-03-22T15:19:53.999Z</time></trkpt><trkpt lat="48.37887927105735" lon="-4.247809433689035"><ele>61.666666666666664</ele><time>2026-03-22T15:19:54.999Z</time></trkpt><trkpt lat="48.37883139114123" lon="-4.247916043552919"><ele>62.0</ele><time>2026-03-22T15:19:55.999Z</time></trkpt><trkpt lat="48.378781822816656" lon="-4.248025290997198"><ele>62.33333333333333</ele><time>2026-03-22T15:19:56.999Z</time></trkpt><trkpt lat="48.37873403616483" lon="-4.248107058770441"><ele>62.666666666666664</ele><time>2026-03-22T15:19:57.999Z</time></trkpt><trkpt lat="48.37869463583846" lon="-4.248207199600587"><ele>63.0</ele><time>2026-03-22T15:19:58.999Z</time></trkpt><trkpt lat="48.378643730113694" lon="-4.248313184936516"><ele>63.166666666666664</ele><time>2026-03-22T15:19:59.999Z</time></trkpt><trkpt lat="48.37859810000918" lon="-4.248394512966229"><ele>63.33333333333333</ele><time>2026-03-22T15:20:00.999Z</time></trkpt><trkpt lat="48.37855459060271" lon="-4.248508428693718"><ele>63.5</ele><time>2026-03-22T15:20:01.999Z</time></trkpt><trkpt lat="48.378490902610814" lon="-4.248599838630517"><ele>63.666666666666664</ele><time>2026-03-22T15:20:02.999Z</time></trkpt><trkpt lat="48.37843405191179" lon="-4.2486847892891095"><ele>63.83333333333333</ele><time>2026-03-22T15:20:04Z</time></trkpt><trkpt lat="48.37837215882232" lon="-4.248787957780814"><ele>64.0</ele><time>2026-03-22T15:20:05Z</time></trkpt><trkpt lat="48.378329853131504" lon="-4.2488900841424595"><ele>64.33333333333333</ele><time>2026-03-22T15:20:06Z</time></trkpt><trkpt lat="48.37826463562725" lon="-4.248988878507151"><ele>64.66666666666666</ele><time>2026-03-22T15:20:07Z</time></trkpt><trkpt lat="48.37820439153949" lon="-4.249076065154572"><ele>65.0</ele><time>2026-03-22T15:20:08Z</time></trkpt><trkpt lat="48.37813625513154" lon="-4.249169217717773"><ele>65.33333333333333</ele><time>2026-03-22T15:20:09Z</time></trkpt><trkpt lat="48.378084348807285" lon="-4.249236078812465"><ele>65.66666666666667</ele><time>2026-03-22T15:20:10Z</time></trkpt><trkpt lat="48.37801708514747" lon="-4.249322722172185"><ele>66.0</ele><time>2026-03-22T15:20:11Z</time></trkpt><trkpt lat="48.37794817040223" lon="-4.249411494848852"><ele>65.39999999999999</ele><time>2026-03-22T15:20:12Z</time></trkpt><trkpt lat="48.3778741881544" lon="-4.249504172751548"><ele>64.8</ele><time>2026-03-22T15:20:13Z</time></trkpt><trkpt lat="48.37780459753643" lon="-4.249612817260894"><ele>64.19999999999999</ele><time>2026-03-22T15:20:14Z</time></trkpt><trkpt lat="48.37774875690204" lon="-4.24971538763979"><ele>63.599999999999994</ele><time>2026-03-22T15:20:15Z</time></trkpt><trkpt lat="48.37769510938832" lon="-4.249829167248796"><ele>63.0</ele><time>2026-03-22T15:20:16Z</time></trkpt><trkpt lat="48.377646780318024" lon="-4.249949272296287"><ele>63.0</ele><time>2026-03-22T15:20:17Z</time></trkpt><trkpt lat="48.377599835806556" lon="-4.250090292700991"><ele>63.0</ele><time>2026-03-22T15:20:18Z</time></trkpt><trkpt lat="48.37755709772123" lon="-4.250248233295512"><ele>63.0</ele><time>2026-03-22T15:20:19Z</time></trkpt><trkpt lat="48.377521260688525" lon="-4.25041206006813"><ele>63.0</ele><time>2026-03-22T15:20:20Z</time></trkpt><trkpt lat="48.37748922425696" lon="-4.250578277276476"><ele>63.0</ele><time>2026-03-22T15:20:21Z</time></trkpt><trkpt lat="48.37744199021282" lon="-4.250726880100234"><ele>62.25</ele><time>2026-03-22T15:20:22Z</time></trkpt><trkpt lat="48.37743194388999" lon="-4.250902864721453"><ele>61.5</ele><time>2026-03-22T15:20:23Z</time></trkpt><trkpt lat="48.37739344695937" lon="-4.251062167814836"><ele>60.75</ele><time>2026-03-22T15:20:24Z</time></trkpt><trkpt lat="48.37733380148818" lon="-4.251200303126849"><ele>60.0</ele><time>2026-03-22T15:20:25Z</time></trkpt><trkpt lat="48.37725390420115" lon="-4.2513431263747234"><ele>59.4</ele><time>2026-03-22T15:20:26Z</time></trkpt><trkpt lat="48.37717539896728" lon="-4.251463293920415"><ele>58.8</ele><time>2026-03-22T15:20:27Z</time></trkpt><trkpt lat="48.3770956094494" lon="-4.251568587204555"><ele>58.2</ele><time>2026-03-22T15:20:28Z</time></trkpt><trkpt lat="48.377018208467064" lon="-4.251665007363885"><ele>57.6</ele><time>2026-03-22T15:20:29Z</time></trkpt><trkpt lat="48.37694591453984" lon="-4.251809730006034"><ele>57.0</ele><time>2026-03-22T15:20:30Z</time></trkpt><trkpt lat="48.376845048209205" lon="-4.251906536905775"><ele>57.0</ele><time>2026-03-22T15:20:31Z</time></trkpt><trkpt lat="48.37677347147668" lon="-4.252002591422693"><ele>57.0</ele><time>2026-03-22T15:20:32Z</time></trkpt><trkpt lat="48.37669686544959" lon="-4.2520914094477185"><ele>57.0</ele><time>2026-03-22T15:20:33Z</time></trkpt><trkpt lat="48.37663512824176" lon="-4.252204134225801"><ele>57.0</ele><time>2026-03-22T15:20:34Z</time></trkpt><trkpt lat="48.376571212696305" lon="-4.252313436533438"><ele>57.0</ele><time>2026-03-22T15:20:35Z</time></trkpt><trkpt lat="48.376492822827544" lon="-4.252404248670887"><ele>57.6</ele><time>2026-03-22T15:20:36Z</time></trkpt><trkpt lat="48.37642755566725" lon="-4.252584984502828"><ele>58.2</ele><time>2026-03-22T15:20:37Z</time></trkpt><trkpt lat="48.37636272323186" lon="-4.252689318012301"><ele>58.8</ele><time>2026-03-22T15:20:38Z</time></trkpt><trkpt lat="48.37628857072045" lon="-4.252770946830889"><ele>59.4</ele><time>2026-03-22T15:20:39Z</time></trkpt><trkpt lat="48.37621581442554" lon="-4.252846203329373"><ele>60.0</ele><time>2026-03-22T15:20:40Z</time></trkpt><trkpt lat="48.37615435250926" lon="-4.252975168845414"><ele>59.2</ele><time>2026-03-22T15:20:41Z</time></trkpt><trkpt lat="48.376086227691786" lon="-4.2530814300049435"><ele>58.4</ele><time>2026-03-22T15:20:42Z</time></trkpt><trkpt lat="48.376010611434694" lon="-4.253170249767005"><ele>57.599999999999994</ele><time>2026-03-22T15:20:43Z</time></trkpt><trkpt lat="48.37593462946592" lon="-4.253273240462515"><ele>56.8</ele><time>2026-03-22T15:20:44Z</time></trkpt><trkpt lat="48.37585455930088" lon="-4.253380106556041"><ele>56.0</ele><time>2026-03-22T15:20:45Z</time></trkpt><trkpt lat="48.375753239923064" lon="-4.253465741511809"><ele>56.0</ele><time>2026-03-22T15:20:46Z</time></trkpt><trkpt lat="48.37567289147177" lon="-4.2535626249106375"><ele>55.99999999999999</ele><time>2026-03-22T15:20:47Z</time></trkpt><trkpt lat="48.37559631087517" lon="-4.253653079996447"><ele>55.99999999999999</ele><time>2026-03-22T15:20:48Z</time></trkpt><trkpt lat="48.37551253165446" lon="-4.2537534697047645"><ele>56.0</ele><time>2026-03-22T15:20:49Z</time></trkpt><trkpt lat="48.3754199809031" lon="-4.253840143798047"><ele>56.0</ele><time>2026-03-22T15:20:50Z</time></trkpt><trkpt lat="48.37533828970796" lon="-4.253938670876084"><ele>54.8</ele><time>2026-03-22T15:20:51Z</time></trkpt><trkpt lat="48.375254725340014" lon="-4.254011186980115"><ele>53.599999999999994</ele><time>2026-03-22T15:20:52Z</time></trkpt><trkpt lat="48.37517009369023" lon="-4.254092825070988"><ele>52.4</ele><time>2026-03-22T15:20:53Z</time></trkpt><trkpt lat="48.37507852277115" lon="-4.254164857863249"><ele>51.2</ele><time>2026-03-22T15:20:54Z</time></trkpt><trkpt lat="48.3750025381386" lon="-4.2542768227737735"><ele>50.0</ele><time>2026-03-22T15:20:55Z</time></trkpt><trkpt lat="48.374912602003214" lon="-4.254356597899759"><ele>50.0</ele><time>2026-03-22T15:20:56Z</time></trkpt><trkpt lat="48.37483453738299" lon="-4.254427813666354"><ele>50.0</ele><time>2026-03-22T15:20:57Z</time></trkpt><trkpt lat="48.37474983861806" lon="-4.254520451150871"><ele>50.0</ele><time>2026-03-22T15:20:58Z</time></trkpt><trkpt lat="48.37466371068197" lon="-4.254597692121661"><ele>50.0</ele><time>2026-03-22T15:20:59Z</time></trkpt><trkpt lat="48.37457708448517" lon="-4.254693792976117"><ele>50.0</ele><time>2026-03-22T15:21:00Z</time></trkpt><trkpt lat="48.374494907585685" lon="-4.254781722220658"><ele>49.6</ele><time>2026-03-22T15:21:01Z</time></trkpt><trkpt lat="48.37440871693239" lon="-4.254878742045226"><ele>49.2</ele><time>2026-03-22T15:21:02Z</time></trkpt><trkpt lat="48.374313714588524" lon="-4.254966122887605"><ele>48.8</ele><time>2026-03-22T15:21:03Z</time></trkpt><trkpt lat="48.37422223103128" lon="-4.255064265470548"><ele>48.4</ele><time>2026-03-22T15:21:04Z</time></trkpt><trkpt lat="48.37413285566929" lon="-4.255158501454109"><ele>48.0</ele><time>2026-03-22T15:21:05Z</time></trkpt><trkpt lat="48.374045060687465" lon="-4.255248812794394"><ele>48.0</ele><time>2026-03-22T15:21:06Z</time></trkpt><trkpt lat="48.37395241790137" lon="-4.255333676333528"><ele>48.0</ele><time>2026-03-22T15:21:07Z</time></trkpt><trkpt lat="48.3738636923874" lon="-4.2554450134233255"><ele>48.0</ele><time>2026-03-22T15:21:08Z</time></trkpt><trkpt lat="48.37377339104026" lon="-4.255531680448205"><ele>48.0</ele><time>2026-03-22T15:21:09Z</time></trkpt><trkpt lat="48.3736822102608" lon="-4.25561462447199"><ele>48.0</ele><time>2026-03-22T15:21:10Z</time></trkpt><trkpt lat="48.3735887223808" lon="-4.255710516295033"><ele>47.25</ele><time>2026-03-22T15:21:11Z</time></trkpt><trkpt lat="48.37348744091662" lon="-4.255789564282945"><ele>46.5</ele><time>2026-03-22T15:21:12Z</time></trkpt><trkpt lat="48.3733849743864" lon="-4.255871426684616"><ele>45.75</ele><time>2026-03-22T15:21:12.999Z</time></trkpt><trkpt lat="48.37328450586713" lon="-4.255942602856012"><ele>45.0</ele><time>2026-03-22T15:21:13.999Z</time></trkpt><trkpt lat="48.37318018109467" lon="-4.25601586294052"><ele>45.0</ele><time>2026-03-22T15:21:14.999Z</time></trkpt><trkpt lat="48.373074587457474" lon="-4.2560824901424255"><ele>45.0</ele><time>2026-03-22T15:21:15.999Z</time></trkpt><trkpt lat="48.37296918261955" lon="-4.256133993462951"><ele>45.0</ele><time>2026-03-22T15:21:16.999Z</time></trkpt><trkpt lat="48.37286014491921" lon="-4.256183073244933"><ele>45.0</ele><time>2026-03-22T15:21:17.999Z</time></trkpt><trkpt lat="48.3727414379752" lon="-4.256222644223997"><ele>44.25</ele><time>2026-03-22T15:21:18.999Z</time></trkpt><trkpt lat="48.37262101053808" lon="-4.256236644050134"><ele>43.5</ele><time>2026-03-22T15:21:19.999Z</time></trkpt><trkpt lat="48.372496156254265" lon="-4.256239595034112"><ele>42.75</ele><time>2026-03-22T15:21:20.999Z</time></trkpt><trkpt lat="48.372371579784826" lon="-4.256225813732683"><ele>42.0</ele><time>2026-03-22T15:21:21.999Z</time></trkpt><trkpt lat="48.372252097265175" lon="-4.256211652712833"><ele>40.25</ele><time>2026-03-22T15:21:22.999Z</time></trkpt><trkpt lat="48.37213032849343" lon="-4.2561906769064475"><ele>38.5</ele><time>2026-03-22T15:21:23.999Z</time></trkpt><trkpt lat="48.37200617374832" lon="-4.256184334501419"><ele>36.75</ele><time>2026-03-22T15:21:24.999Z</time></trkpt><trkpt lat="48.37188397893381" lon="-4.256171226980167"><ele>35.0</ele><time>2026-03-22T15:21:25.999Z</time></trkpt><trkpt lat="48.37175824400287" lon="-4.256168606824119"><ele>35.0</ele><time>2026-03-22T15:21:26.999Z</time></trkpt><trkpt lat="48.37163381630429" lon="-4.2561683627062"><ele>35.0</ele><time>2026-03-22T15:21:27.999Z</time></trkpt><trkpt lat="48.37151318767131" lon="-4.256183150349665"><ele>35.0</ele><time>2026-03-22T15:21:28.999Z</time></trkpt><trkpt lat="48.371384756122865" lon="-4.256217343355668"><ele>35.0</ele><time>2026-03-22T15:21:29.999Z</time></trkpt><trkpt lat="48.37126160399335" lon="-4.256260245169701"><ele>34.25</ele><time>2026-03-22T15:21:30.999Z</time></trkpt><trkpt lat="48.371145622583064" lon="-4.256317466073989"><ele>33.5</ele><time>2026-03-22T15:21:31.999Z</time></trkpt><trkpt lat="48.37102654059475" lon="-4.256363469062124"><ele>32.75</ele><time>2026-03-22T15:21:32.999Z</time></trkpt><trkpt lat="48.37091312353681" lon="-4.256388005794347"><ele>32.0</ele><time>2026-03-22T15:21:33.999Z</time></trkpt><trkpt lat="48.37080189692775" lon="-4.25641494836902"><ele>32.0</ele><time>2026-03-22T15:21:34.999Z</time></trkpt><trkpt lat="48.37068320484406" lon="-4.2564634886264985"><ele>32.0</ele><time>2026-03-22T15:21:35.999Z</time></trkpt><trkpt lat="48.37056053354676" lon="-4.256488374975611"><ele>32.0</ele><time>2026-03-22T15:21:36.999Z</time></trkpt><trkpt lat="48.37045626334645" lon="-4.256531865766168"><ele>32.0</ele><time>2026-03-22T15:21:37.999Z</time></trkpt><trkpt lat="48.37034626749355" lon="-4.256563362907605"><ele>32.0</ele><time>2026-03-22T15:21:38.999Z</time></trkpt><trkpt lat="48.37024023089893" lon="-4.256556989305419"><ele>32.0</ele><time>2026-03-22T15:21:39.999Z</time></trkpt><trkpt lat="48.37012566158301" lon="-4.256558727603413"><ele>32.0</ele><time>2026-03-22T15:21:40.999Z</time></trkpt><trkpt lat="48.370014695523274" lon="-4.256543167774849"><ele>32.0</ele><time>2026-03-22T15:21:41.999Z</time></trkpt><trkpt lat="48.36990042947864" lon="-4.256511990575066"><ele>32.0</ele><time>2026-03-22T15:21:42.999Z</time></trkpt><trkpt lat="48.36978568892057" lon="-4.256459292138548"><ele>31.0</ele><time>2026-03-22T15:21:43.999Z</time></trkpt><trkpt lat="48.36967333641569" lon="-4.256405404198743"><ele>30.0</ele><time>2026-03-22T15:21:44.999Z</time></trkpt><trkpt lat="48.36956383206073" lon="-4.256366324130354"><ele>29.0</ele><time>2026-03-22T15:21:45.999Z</time></trkpt><trkpt lat="48.36945303937743" lon="-4.2563185954559515"><ele>28.0</ele><time>2026-03-22T15:21:46.999Z</time></trkpt><trkpt lat="48.36933739098416" lon="-4.2562709038271"><ele>28.0</ele><time>2026-03-22T15:21:47.999Z</time></trkpt><trkpt lat="48.36922458312213" lon="-4.256235768288603"><ele>28.0</ele><time>2026-03-22T15:21:48.999Z</time></trkpt><trkpt lat="48.369110675139474" lon="-4.256202324862785"><ele>28.0</ele><time>2026-03-22T15:21:49.999Z</time></trkpt><trkpt lat="48.36899508763384" lon="-4.25616223860616"><ele>28.0</ele><time>2026-03-22T15:21:50.999Z</time></trkpt><trkpt lat="48.368877632996124" lon="-4.256124491893078"><ele>26.75</ele><time>2026-03-22T15:21:51.999Z</time></trkpt><trkpt lat="48.36875790299767" lon="-4.256100508712249"><ele>25.5</ele><time>2026-03-22T15:21:52.999Z</time></trkpt><trkpt lat="48.368642949534795" lon="-4.256100390474585"><ele>24.25</ele><time>2026-03-22T15:21:53.999Z</time></trkpt><trkpt lat="48.368528915748115" lon="-4.256108097872084"><ele>23.0</ele><time>2026-03-22T15:21:54.999Z</time></trkpt><trkpt lat="48.36841701910035" lon="-4.256137437299557"><ele>23.0</ele><time>2026-03-22T15:21:55.999Z</time></trkpt><trkpt lat="48.368303961764525" lon="-4.2561770629404"><ele>23.0</ele><time>2026-03-22T15:21:56.999Z</time></trkpt><trkpt lat="48.368192221846186" lon="-4.256248120952868"><ele>23.0</ele><time>2026-03-22T15:21:57.999Z</time></trkpt><trkpt lat="48.368078414145806" lon="-4.256298811287311"><ele>23.0</ele><time>2026-03-22T15:21:58.999Z</time></trkpt><trkpt lat="48.36796506292789" lon="-4.2563669640897075"><ele>22.0</ele><time>2026-03-22T15:21:59.999Z</time></trkpt><trkpt lat="48.36786020712605" lon="-4.256444311207971"><ele>21.0</ele><time>2026-03-22T15:22:00.999Z</time></trkpt><trkpt lat="48.367750014314446" lon="-4.256503012875622"><ele>20.0</ele><time>2026-03-22T15:22:01.999Z</time></trkpt><trkpt lat="48.36765426853393" lon="-4.25654559874511"><ele>19.0</ele><time>2026-03-22T15:22:02.999Z</time></trkpt><trkpt lat="48.36756538215536" lon="-4.2566173487494785"><ele>18.0</ele><time>2026-03-22T15:22:03.999Z</time></trkpt><trkpt lat="48.367505734787024" lon="-4.256705374654939"><ele>17.5</ele><time>2026-03-22T15:22:04.999Z</time></trkpt><trkpt lat="48.367467720738794" lon="-4.2567900557896"><ele>17.0</ele><time>2026-03-22T15:22:05.999Z</time></trkpt><trkpt lat="48.367427741891476" lon="-4.256867643814325"><ele>16.5</ele><time>2026-03-22T15:22:06.999Z</time></trkpt><trkpt lat="48.367287973400984" lon="-4.256887397595726"><ele>16.0</ele><time>2026-03-22T15:22:08.999Z</time></trkpt><trkpt lat="48.36722142222088" lon="-4.256899999960012"><ele>15.5</ele><time>2026-03-22T15:22:11Z</time></trkpt><trkpt lat="48.367165969994154" lon="-4.256804949743714"><ele>15.0</ele><time>2026-03-22T15:22:15Z</time></trkpt><trkpt lat="48.36723265651767" lon="-4.2568226499651765"><ele>15.0</ele><time>2026-03-22T15:22:18Z</time></trkpt><trkpt lat="48.36728978799899" lon="-4.256883913572596"><ele>15.0</ele><time>2026-03-22T15:22:47Z</time></trkpt><trkpt lat="48.367327171281836" lon="-4.256962504241111"><ele>15.0</ele><time>2026-03-22T15:22:53Z</time></trkpt><trkpt lat="48.36747929058209" lon="-4.257044476692275"><ele>15.0</ele><time>2026-03-22T15:24:25Z</time></trkpt><trkpt lat="48.36744531369586" lon="-4.257191655929118"><ele>15.0</ele><time>2026-03-22T15:24:27Z</time></trkpt><trkpt lat="48.36741972024397" lon="-4.257327969488083"><ele>14.666666666666666</ele><time>2026-03-22T15:24:29Z</time></trkpt><trkpt lat="48.36743991039262" lon="-4.2574351560090475"><ele>14.333333333333332</ele><time>2026-03-22T15:24:32Z</time></trkpt><trkpt lat="48.36742494988865" lon="-4.257534717714922"><ele>14.0</ele><time>2026-03-22T15:24:36Z</time></trkpt><trkpt lat="48.36741124871296" lon="-4.2576446995383215"><ele>13.666666666666666</ele><time>2026-03-22T15:24:41Z</time></trkpt><trkpt lat="48.367370745681846" lon="-4.257743799426088"><ele>13.333333333333332</ele><time>2026-03-22T15:25:22Z</time></trkpt><trkpt lat="48.36728689242054" lon="-4.257835313790936"><ele>13.0</ele><time>2026-03-22T15:25:25Z</time></trkpt><trkpt lat="48.367186403853715" lon="-4.25786139164472"><ele>12.8</ele><time>2026-03-22T15:25:27Z</time></trkpt><trkpt lat="48.36712291078615" lon="-4.257855707093219"><ele>12.600000000000001</ele><time>2026-03-22T15:25:27.999Z</time></trkpt><trkpt lat="48.367013907118995" lon="-4.257863190426544"><ele>12.399999999999999</ele><time>2026-03-22T15:25:29.999Z</time></trkpt><trkpt lat="48.366901926037976" lon="-4.257873673261743"><ele>12.2</ele><time>2026-03-22T15:25:31.999Z</time></trkpt><trkpt lat="48.366810356887484" lon="-4.257879420215269"><ele>12.0</ele><time>2026-03-22T15:25:32.999Z</time></trkpt><trkpt lat="48.36671805105003" lon="-4.257924651037333"><ele>12.0</ele><time>2026-03-22T15:25:33.999Z</time></trkpt><trkpt lat="48.36663895921679" lon="-4.25791334004096"><ele>12.0</ele><time>2026-03-22T15:25:34.999Z</time></trkpt><trkpt lat="48.36656883220039" lon="-4.257934887270512"><ele>12.0</ele><time>2026-03-22T15:25:35.999Z</time></trkpt><trkpt lat="48.36649519902952" lon="-4.2579483211272375"><ele>12.0</ele><time>2026-03-22T15:25:36.999Z</time></trkpt><trkpt lat="48.36640672013117" lon="-4.2579642835674525"><ele>12.0</ele><time>2026-03-22T15:25:37.999Z</time></trkpt><trkpt lat="48.36632271266269" lon="-4.2579716502764136"><ele>12.0</ele><time>2026-03-22T15:25:38.999Z</time></trkpt><trkpt lat="48.36624527587786" lon="-4.257992561659457"><ele>11.666666666666666</ele><time>2026-03-22T15:25:39.999Z</time></trkpt><trkpt lat="48.36617273934168" lon="-4.258000806604409"><ele>11.333333333333334</ele><time>2026-03-22T15:25:40.999Z</time></trkpt><trkpt lat="48.36608634858761" lon="-4.258032162803086"><ele>11.0</ele><time>2026-03-22T15:25:41.999Z</time></trkpt><trkpt lat="48.36600178586041" lon="-4.258059951579258"><ele>10.666666666666668</ele><time>2026-03-22T15:25:42.999Z</time></trkpt><trkpt lat="48.3659199389585" lon="-4.2580811785190775"><ele>10.333333333333334</ele><time>2026-03-22T15:25:43.999Z</time></trkpt><trkpt lat="48.36584702889966" lon="-4.258145570351251"><ele>10.0</ele><time>2026-03-22T15:25:44.999Z</time></trkpt><trkpt lat="48.365763244275826" lon="-4.258191277533944"><ele>10.0</ele><time>2026-03-22T15:25:45.999Z</time></trkpt><trkpt lat="48.365681013637676" lon="-4.258241969792283"><ele>10.0</ele><time>2026-03-22T15:25:46.999Z</time></trkpt><trkpt lat="48.36559587021985" lon="-4.258271798242149"><ele>10.0</ele><time>2026-03-22T15:25:47.999Z</time></trkpt><trkpt lat="48.36552759929824" lon="-4.258336491204826"><ele>10.0</ele><time>2026-03-22T15:25:48.999Z</time></trkpt><trkpt lat="48.365449393574615" lon="-4.258384675188894"><ele>10.0</ele><time>2026-03-22T15:25:49.999Z</time></trkpt><trkpt lat="48.36537229947005" lon="-4.258432174298802"><ele>10.0</ele><time>2026-03-22T15:25:50.999Z</time></trkpt><trkpt lat="48.36529254557429" lon="-4.2584813978787395"><ele>10.0</ele><time>2026-03-22T15:25:51.999Z</time></trkpt><trkpt lat="48.3652156600774" lon="-4.258529719771743"><ele>10.0</ele><time>2026-03-22T15:25:52.999Z</time></trkpt><trkpt lat="48.36513539855062" lon="-4.258581748863132"><ele>10.0</ele><time>2026-03-22T15:25:53.999Z</time></trkpt><trkpt lat="48.365053196487764" lon="-4.258635035547339"><ele>10.0</ele><time>2026-03-22T15:25:54.999Z</time></trkpt><trkpt lat="48.36498096394294" lon="-4.258681754668469"><ele>10.0</ele><time>2026-03-22T15:25:55.999Z</time></trkpt><trkpt lat="48.36489895802986" lon="-4.258713287410953"><ele>10.0</ele><time>2026-03-22T15:25:56.999Z</time></trkpt><trkpt lat="48.36474541327331" lon="-4.258807182000986"><ele>9.833333333333334</ele><time>2026-03-22T15:25:58.999Z</time></trkpt><trkpt lat="48.36467617400901" lon="-4.258880408967173"><ele>9.666666666666668</ele><time>2026-03-22T15:25:59.999Z</time></trkpt><trkpt lat="48.36459775956816" lon="-4.258929416881623"><ele>9.5</ele><time>2026-03-22T15:26:00.999Z</time></trkpt><trkpt lat="48.364517456864014" lon="-4.258981713556218"><ele>9.333333333333334</ele><time>2026-03-22T15:26:01.999Z</time></trkpt><trkpt lat="48.364446081008076" lon="-4.259028066861762"><ele>9.166666666666666</ele><time>2026-03-22T15:26:02.999Z</time></trkpt><trkpt lat="48.364370384435816" lon="-4.259077226132616"><ele>9.0</ele><time>2026-03-22T15:26:03.999Z</time></trkpt><trkpt lat="48.36430230603761" lon="-4.2591214379130315"><ele>9.0</ele><time>2026-03-22T15:26:04.999Z</time></trkpt><trkpt lat="48.36422950438268" lon="-4.259168816094815"><ele>9.0</ele><time>2026-03-22T15:26:05.999Z</time></trkpt><trkpt lat="48.36415568419671" lon="-4.2592169284704635"><ele>9.0</ele><time>2026-03-22T15:26:06.999Z</time></trkpt><trkpt lat="48.36407720782946" lon="-4.259266431889573"><ele>9.0</ele><time>2026-03-22T15:26:07.999Z</time></trkpt><trkpt lat="48.364003909883074" lon="-4.259310415254242"><ele>9.0</ele><time>2026-03-22T15:26:08.999Z</time></trkpt><trkpt lat="48.36391843120585" lon="-4.259359177415235"><ele>9.0</ele><time>2026-03-22T15:26:09.999Z</time></trkpt><trkpt lat="48.36383351977162" lon="-4.259401743981374"><ele>9.0</ele><time>2026-03-22T15:26:10.999Z</time></trkpt><trkpt lat="48.36374917594129" lon="-4.259438176082746"><ele>9.0</ele><time>2026-03-22T15:26:11.999Z</time></trkpt><trkpt lat="48.36366165560065" lon="-4.259468848517964"><ele>9.0</ele><time>2026-03-22T15:26:12.999Z</time></trkpt><trkpt lat="48.36356919732597" lon="-4.259475923291334"><ele>9.0</ele><time>2026-03-22T15:26:13.999Z</time></trkpt><trkpt lat="48.36347922218509" lon="-4.2595047836233215"><ele>9.0</ele><time>2026-03-22T15:26:14.999Z</time></trkpt><trkpt lat="48.36338857761404" lon="-4.259525104935252"><ele>9.0</ele><time>2026-03-22T15:26:15.999Z</time></trkpt><trkpt lat="48.363295704675984" lon="-4.259535718794774"><ele>9.0</ele><time>2026-03-22T15:26:16.999Z</time></trkpt><trkpt lat="48.36320561899002" lon="-4.259542874801828"><ele>9.0</ele><time>2026-03-22T15:26:17.999Z</time></trkpt><trkpt lat="48.363111338181476" lon="-4.259554299957528"><ele>9.0</ele><time>2026-03-22T15:26:18.999Z</time></trkpt><trkpt lat="48.36302647886777" lon="-4.259552836602751"><ele>9.0</ele><time>2026-03-22T15:26:19.999Z</time></trkpt><trkpt lat="48.362936789859454" lon="-4.259579638963055"><ele>9.0</ele><time>2026-03-22T15:26:20.999Z</time></trkpt><trkpt lat="48.36284529872622" lon="-4.259589292045526"><ele>9.0</ele><time>2026-03-22T15:26:22Z</time></trkpt><trkpt lat="48.3627605114346" lon="-4.259583135398531"><ele>9.0</ele><time>2026-03-22T15:26:23Z</time></trkpt><trkpt lat="48.36267965662053" lon="-4.259605489182039"><ele>9.0</ele><time>2026-03-22T15:26:24Z</time></trkpt><trkpt lat="48.36259564398654" lon="-4.259626636670229"><ele>9.0</ele><time>2026-03-22T15:26:25Z</time></trkpt><trkpt lat="48.36250847233539" lon="-4.259629301835309"><ele>9.0</ele><time>2026-03-22T15:26:26Z</time></trkpt><trkpt lat="48.362424388215324" lon="-4.259639778586581"><ele>9.000000000000002</ele><time>2026-03-22T15:26:27Z</time></trkpt><trkpt lat="48.36234528476062" lon="-4.2596212712905475"><ele>9.0</ele><time>2026-03-22T15:26:28Z</time></trkpt><trkpt lat="48.362272616759995" lon="-4.259652201876476"><ele>9.0</ele><time>2026-03-22T15:26:29Z</time></trkpt><trkpt lat="48.36220651923965" lon="-4.259653333897578"><ele>9.0</ele><time>2026-03-22T15:26:30Z</time></trkpt><trkpt lat="48.3621377133058" lon="-4.25968440565406"><ele>9.0</ele><time>2026-03-22T15:26:31Z</time></trkpt><trkpt lat="48.36207211078813" lon="-4.25968220781872"><ele>9.000000000000002</ele><time>2026-03-22T15:26:32Z</time></trkpt><trkpt lat="48.362008017450215" lon="-4.259667897825821"><ele>9.0</ele><time>2026-03-22T15:26:33Z</time></trkpt><trkpt lat="48.36188186373218" lon="-4.259685782273076"><ele>8.6</ele><time>2026-03-22T15:26:35Z</time></trkpt><trkpt lat="48.361782424595674" lon="-4.259699067977974"><ele>8.2</ele><time>2026-03-22T15:26:37Z</time></trkpt><trkpt lat="48.36167914905153" lon="-4.259708574909939"><ele>7.799999999999999</ele><time>2026-03-22T15:26:39Z</time></trkpt><trkpt lat="48.36157858279772" lon="-4.259717832444467"><ele>7.3999999999999995</ele><time>2026-03-22T15:26:41Z</time></trkpt><trkpt lat="48.36149368712748" lon="-4.259757832863705"><ele>7.0</ele><time>2026-03-22T15:26:43Z</time></trkpt><trkpt lat="48.361522385166985" lon="-4.259864424941609"><ele>6.714285714285714</ele><time>2026-03-22T15:26:44Z</time></trkpt><trkpt lat="48.36153591934925" lon="-4.259967717990681"><ele>6.428571428571429</ele><time>2026-03-22T15:26:45Z</time></trkpt><trkpt lat="48.3615492049379" lon="-4.260060698202304"><ele>6.142857142857142</ele><time>2026-03-22T15:26:46Z</time></trkpt><trkpt lat="48.36156759977604" lon="-4.2601616923672285"><ele>5.857142857142858</ele><time>2026-03-22T15:26:47Z</time></trkpt><trkpt lat="48.361588055171765" lon="-4.260264444805976"><ele>5.571428571428571</ele><time>2026-03-22T15:26:48Z</time></trkpt><trkpt lat="48.36160918153284" lon="-4.2603704093934915"><ele>5.285714285714286</ele><time>2026-03-22T15:26:49Z</time></trkpt><trkpt lat="48.36161521367315" lon="-4.2604729860213615"><ele>5.0</ele><time>2026-03-22T15:26:50Z</time></trkpt><trkpt lat="48.36164793601363" lon="-4.260564788909308"><ele>4.8</ele><time>2026-03-22T15:26:51Z</time></trkpt><trkpt lat="48.361676480339355" lon="-4.260714673846081"><ele>4.6</ele><time>2026-03-22T15:26:53Z</time></trkpt><trkpt lat="48.36170511602863" lon="-4.260808962348421"><ele>4.4</ele><time>2026-03-22T15:26:56Z</time></trkpt><trkpt lat="48.36166351963817" lon="-4.260895424316122"><ele>4.2</ele><time>2026-03-22T15:26:58Z</time></trkpt><trkpt lat="48.36156073675471" lon="-4.260914435259739"><ele>4.0</ele><time>2026-03-22T15:27:00Z</time></trkpt><trkpt lat="48.36146093729724" lon="-4.2608608261213"><ele>4.0</ele><time>2026-03-22T15:27:02Z</time></trkpt><trkpt lat="48.36140979534313" lon="-4.260796423844036"><ele>4.0</ele><time>2026-03-22T15:27:03Z</time></trkpt><trkpt lat="48.36130599779933" lon="-4.2608296192490425"><ele>4.0</ele><time>2026-03-22T15:27:05Z</time></trkpt><trkpt lat="48.36118159336149" lon="-4.260813390759575"><ele>4.0</ele><time>2026-03-22T15:27:07Z</time></trkpt><trkpt lat="48.361088268148016" lon="-4.260815675287396"><ele>4.0</ele><time>2026-03-22T15:27:09Z</time></trkpt><trkpt lat="48.361022037492624" lon="-4.26082050221353"><ele>3.8000000000000003</ele><time>2026-03-22T15:27:10Z</time></trkpt><trkpt lat="48.36092690636464" lon="-4.2608322192100285"><ele>3.6000000000000005</ele><time>2026-03-22T15:27:12Z</time></trkpt><trkpt lat="48.36081967345008" lon="-4.260848815090016"><ele>3.4</ele><time>2026-03-22T15:27:14Z</time></trkpt><trkpt lat="48.3606983310917" lon="-4.2608767938971575"><ele>3.2</ele><time>2026-03-22T15:27:16Z</time></trkpt><trkpt lat="48.36061144430656" lon="-4.260896974740409"><ele>3.0</ele><time>2026-03-22T15:27:18Z</time></trkpt><trkpt lat="48.36053895841336" lon="-4.26091318650135"><ele>3.2</ele><time>2026-03-22T15:27:20Z</time></trkpt><trkpt lat="48.36047133259915" lon="-4.260928311315705"><ele>3.4</ele><time>2026-03-22T15:27:22Z</time></trkpt><trkpt lat="48.36036620669239" lon="-4.260951823168805"><ele>3.6000000000000005</ele><time>2026-03-22T15:27:24Z</time></trkpt><trkpt lat="48.36025860353302" lon="-4.260976886826823"><ele>3.8000000000000003</ele><time>2026-03-22T15:27:26Z</time></trkpt><trkpt lat="48.36014169527364" lon="-4.261004134266717"><ele>4.0</ele><time>2026-03-22T15:27:28Z</time></trkpt><trkpt lat="48.35994271135949" lon="-4.26105468500427"><ele>3.9999999999999996</ele><time>2026-03-22T15:27:31.999Z</time></trkpt><trkpt lat="48.35984088148677" lon="-4.26104891084301"><ele>4.0</ele><time>2026-03-22T15:27:33.999Z</time></trkpt><trkpt lat="48.3597485649673" lon="-4.26107665629228"><ele>4.0</ele><time>2026-03-22T15:27:35.999Z</time></trkpt><trkpt lat="48.35967170863522" lon="-4.261106042676038"><ele>4.0</ele><time>2026-03-22T15:27:37.999Z</time></trkpt><trkpt lat="48.359596957104216" lon="-4.261153557151952"><ele>3.9999999999999996</ele><time>2026-03-22T15:27:39.999Z</time></trkpt><trkpt lat="48.359532664753885" lon="-4.261201035705481"><ele>4.0</ele><time>2026-03-22T15:27:41.999Z</time></trkpt><trkpt lat="48.35946531370807" lon="-4.261250133220708"><ele>4.285714285714286</ele><time>2026-03-22T15:27:43.999Z</time></trkpt><trkpt lat="48.359403866439955" lon="-4.261299954041661"><ele>4.571428571428571</ele><time>2026-03-22T15:27:45.999Z</time></trkpt><trkpt lat="48.35933764544407" lon="-4.261315104274972"><ele>4.857142857142857</ele><time>2026-03-22T15:27:47.999Z</time></trkpt><trkpt lat="48.359267821714106" lon="-4.261352968518836"><ele>5.142857142857142</ele><time>2026-03-22T15:27:50.999Z</time></trkpt><trkpt lat="48.35920022104711" lon="-4.261351540931193"><ele>5.428571428571429</ele><time>2026-03-22T15:27:53.999Z</time></trkpt><trkpt lat="48.359122117030005" lon="-4.261312569050222"><ele>5.7142857142857135</ele><time>2026-03-22T15:27:55.999Z</time></trkpt><trkpt lat="48.35918218063787" lon="-4.2612457383139715"><ele>6.0</ele><time>2026-03-22T15:27:59.999Z</time></trkpt><trkpt lat="48.359267863150244" lon="-4.261346904729802"><ele>6.0</ele><time>2026-03-22T15:28:01.999Z</time></trkpt><trkpt lat="48.359362348802605" lon="-4.261321447199805"><ele>6.0</ele><time>2026-03-22T15:28:03.999Z</time></trkpt><trkpt lat="48.359467160617946" lon="-4.261267400748641"><ele>6.0</ele><time>2026-03-22T15:28:05.999Z</time></trkpt><trkpt lat="48.359558508915335" lon="-4.261161091311135"><ele>6.0</ele><time>2026-03-22T15:28:07.999Z</time></trkpt><trkpt lat="48.359674369719556" lon="-4.261097255934113"><ele>6.0</ele><time>2026-03-22T15:28:09.999Z</time></trkpt><trkpt lat="48.35979563199121" lon="-4.261064002001392"><ele>5.6</ele><time>2026-03-22T15:28:11.999Z</time></trkpt><trkpt lat="48.35985555118279" lon="-4.261026808960664"><ele>5.199999999999999</ele><time>2026-03-22T15:28:12.999Z</time></trkpt><trkpt lat="48.359971290041564" lon="-4.2609964721814295"><ele>4.800000000000001</ele><time>2026-03-22T15:28:14.999Z</time></trkpt><trkpt lat="48.36008941045162" lon="-4.260965789716313"><ele>4.4</ele><time>2026-03-22T15:28:16.999Z</time></trkpt><trkpt lat="48.36021010900555" lon="-4.260937658865308"><ele>4.0</ele><time>2026-03-22T15:28:18.999Z</time></trkpt><trkpt lat="48.36032070953642" lon="-4.260911881522715"><ele>4.0</ele><time>2026-03-22T15:28:20.999Z</time></trkpt><trkpt lat="48.36044364788769" lon="-4.260908922783872"><ele>4.0</ele><time>2026-03-22T15:28:22.999Z</time></trkpt><trkpt lat="48.36053318472052" lon="-4.260863994500003"><ele>4.0</ele><time>2026-03-22T15:28:24.999Z</time></trkpt><trkpt lat="48.360597967243265" lon="-4.260849505607862"><ele>4.0</ele><time>2026-03-22T15:28:25.999Z</time></trkpt><trkpt lat="48.360713578078794" lon="-4.2608227495871525"><ele>4.0</ele><time>2026-03-22T15:28:28Z</time></trkpt><trkpt lat="48.360822555009655" lon="-4.260798136477901"><ele>3.8000000000000003</ele><time>2026-03-22T15:28:30Z</time></trkpt><trkpt lat="48.36088565542813" lon="-4.260787940283841"><ele>3.6000000000000005</ele><time>2026-03-22T15:28:31Z</time></trkpt><trkpt lat="48.360949362243545" lon="-4.260778863355724"><ele>3.4</ele><time>2026-03-22T15:28:32Z</time></trkpt><trkpt lat="48.3610585948898" lon="-4.260767414596238"><ele>3.2</ele><time>2026-03-22T15:28:34Z</time></trkpt><trkpt lat="48.36118006390053" lon="-4.26076542496061"><ele>3.0</ele><time>2026-03-22T15:28:36Z</time></trkpt><trkpt lat="48.36130069575689" lon="-4.260802337494591"><ele>3.2</ele><time>2026-03-22T15:28:38Z</time></trkpt><trkpt lat="48.361411034967546" lon="-4.260824069241719"><ele>3.4</ele><time>2026-03-22T15:28:40Z</time></trkpt><trkpt lat="48.361528897669864" lon="-4.260828885502285"><ele>3.6000000000000005</ele><time>2026-03-22T15:28:42Z</time></trkpt><trkpt lat="48.36162495887755" lon="-4.260879840461688"><ele>3.8000000000000003</ele><time>2026-03-22T15:28:46Z</time></trkpt><trkpt lat="48.36168136770697" lon="-4.260938529222581"><ele>4.0</ele><time>2026-03-22T15:28:49Z</time></trkpt><trkpt lat="48.36162200320842" lon="-4.261122167754511"><ele>4.0</ele><time>2026-03-22T15:28:51Z</time></trkpt><trkpt lat="48.36157835558231" lon="-4.261233663572963"><ele>4.0</ele><time>2026-03-22T15:28:53Z</time></trkpt><trkpt lat="48.361546960009704" lon="-4.261375043355638"><ele>4.0</ele><time>2026-03-22T15:28:55Z</time></trkpt><trkpt lat="48.36151399137717" lon="-4.261489096733681"><ele>4.0</ele><time>2026-03-22T15:28:57Z</time></trkpt><trkpt lat="48.36142176673042" lon="-4.26137816087149"><ele>4.0</ele><time>2026-03-22T15:28:59Z</time></trkpt><trkpt lat="48.36147645311008" lon="-4.261706383272218"><ele>4.0</ele><time>2026-03-22T15:29:02Z</time></trkpt><trkpt lat="48.36143127679236" lon="-4.26189860146443"><ele>4.0</ele><time>2026-03-22T15:29:04Z</time></trkpt><trkpt lat="48.361395042837124" lon="-4.262052769881982"><ele>4.0</ele><time>2026-03-22T15:29:06Z</time></trkpt><trkpt lat="48.361360374813444" lon="-4.262200382307897"><ele>4.0</ele><time>2026-03-22T15:29:08Z</time></trkpt><trkpt lat="48.361322783992236" lon="-4.262357283748063"><ele>4.0</ele><time>2026-03-22T15:29:10Z</time></trkpt><trkpt lat="48.361287878789945" lon="-4.2624980237698615"><ele>4.0</ele><time>2026-03-22T15:29:12Z</time></trkpt><trkpt lat="48.361252028143085" lon="-4.262642575855756"><ele>4.0</ele><time>2026-03-22T15:29:14Z</time></trkpt><trkpt lat="48.36121087694643" lon="-4.262748677528158"><ele>4.0</ele><time>2026-03-22T15:29:16Z</time></trkpt><trkpt lat="48.361189340842266" lon="-4.262901437846106"><ele>4.0</ele><time>2026-03-22T15:29:18Z</time></trkpt><trkpt lat="48.36114623297138" lon="-4.263028665417193"><ele>4.6</ele><time>2026-03-22T15:29:20Z</time></trkpt><trkpt lat="48.36111103575674" lon="-4.263176151799641"><ele>5.2</ele><time>2026-03-22T15:29:22Z</time></trkpt><trkpt lat="48.36104970996788" lon="-4.263303856711049"><ele>5.799999999999999</ele><time>2026-03-22T15:29:24Z</time></trkpt><trkpt lat="48.36100972472693" lon="-4.263408472899414"><ele>6.3999999999999995</ele><time>2026-03-22T15:29:26Z</time></trkpt><trkpt lat="48.360946409498744" lon="-4.263528876740687"><ele>7.0</ele><time>2026-03-22T15:29:28Z</time></trkpt><trkpt lat="48.36088521148726" lon="-4.263663492805675"><ele>7.000000000000001</ele><time>2026-03-22T15:29:30Z</time></trkpt><trkpt lat="48.360837261332335" lon="-4.263781724029888"><ele>7.0</ele><time>2026-03-22T15:29:32Z</time></trkpt><trkpt lat="48.360800626125815" lon="-4.2639079038848395"><ele>7.0</ele><time>2026-03-22T15:29:34Z</time></trkpt><trkpt lat="48.36076791777564" lon="-4.264056671685449"><ele>7.0</ele><time>2026-03-22T15:29:36Z</time></trkpt><trkpt lat="48.36073273952829" lon="-4.264154102680812"><ele>7.000000000000001</ele><time>2026-03-22T15:29:38Z</time></trkpt><trkpt lat="48.36069816817945" lon="-4.2642606436953745"><ele>7.0</ele><time>2026-03-22T15:29:39.999Z</time></trkpt><trkpt lat="48.36066800868712" lon="-4.264376016966757"><ele>7.8</ele><time>2026-03-22T15:29:41.999Z</time></trkpt><trkpt lat="48.36062695267046" lon="-4.264509586513306"><ele>8.6</ele><time>2026-03-22T15:29:43.999Z</time></trkpt><trkpt lat="48.36060163840359" lon="-4.2646003889002655"><ele>9.4</ele><time>2026-03-22T15:29:48.999Z</time></trkpt><trkpt lat="48.36054798146841" lon="-4.26477146100165"><ele>10.200000000000001</ele><time>2026-03-22T15:29:50.999Z</time></trkpt><trkpt lat="48.36051631822107" lon="-4.264853444533955"><ele>11.0</ele><time>2026-03-22T15:29:51.999Z</time></trkpt><trkpt lat="48.36046923277979" lon="-4.2649824691545195"><ele>11.0</ele><time>2026-03-22T15:29:53.999Z</time></trkpt><trkpt lat="48.3604732944581" lon="-4.265133455879537"><ele>11.0</ele><time>2026-03-22T15:29:55.999Z</time></trkpt><trkpt lat="48.36046515402808" lon="-4.265302511375379"><ele>11.0</ele><time>2026-03-22T15:29:58.999Z</time></trkpt><trkpt lat="48.360524106504" lon="-4.265421016527968"><ele>11.0</ele><time>2026-03-22T15:29:59.999Z</time></trkpt><trkpt lat="48.36054416332345" lon="-4.2655424893721365"><ele>11.0</ele><time>2026-03-22T15:30:01.999Z</time></trkpt><trkpt lat="48.36060035805458" lon="-4.26564843735364"><ele>11.857142857142858</ele><time>2026-03-22T15:30:03.999Z</time></trkpt><trkpt lat="48.36065463534336" lon="-4.2657379675585005"><ele>12.714285714285714</ele><time>2026-03-22T15:30:05.999Z</time></trkpt><trkpt lat="48.360710086310114" lon="-4.2658059711691"><ele>13.57142857142857</ele><time>2026-03-22T15:30:07.999Z</time></trkpt><trkpt lat="48.360774859679076" lon="-4.265871869418498"><ele>14.428571428571427</ele><time>2026-03-22T15:30:09.999Z</time></trkpt><trkpt lat="48.360836924343836" lon="-4.265928806268634"><ele>15.285714285714285</ele><time>2026-03-22T15:30:11.999Z</time></trkpt><trkpt lat="48.360898073535495" lon="-4.26598336872722"><ele>16.142857142857142</ele><time>2026-03-22T15:30:13.999Z</time></trkpt><trkpt lat="48.360956935042495" lon="-4.26604467834421"><ele>17.0</ele><time>2026-03-22T15:30:15.999Z</time></trkpt><trkpt lat="48.36103594224533" lon="-4.266124030658315"><ele>17.0</ele><time>2026-03-22T15:30:17.999Z</time></trkpt><trkpt lat="48.361114076207244" lon="-4.266182399212492"><ele>17.0</ele><time>2026-03-22T15:30:19.999Z</time></trkpt><trkpt lat="48.361183116273835" lon="-4.266287697078117"><ele>17.0</ele><time>2026-03-22T15:30:24.999Z</time></trkpt><trkpt lat="48.3612360661205" lon="-4.266406550484821"><ele>17.0</ele><time>2026-03-22T15:30:28.999Z</time></trkpt><trkpt lat="48.36129251836411" lon="-4.266471270791843"><ele>17.0</ele><time>2026-03-22T15:30:31.999Z</time></trkpt><trkpt lat="48.36136249429266" lon="-4.266603126626405"><ele>17.4</ele><time>2026-03-22T15:30:36Z</time></trkpt><trkpt lat="48.36132949235889" lon="-4.266794247512747"><ele>17.799999999999997</ele><time>2026-03-22T15:30:44Z</time></trkpt><trkpt lat="48.36134251378465" lon="-4.2669001847696535"><ele>18.2</ele><time>2026-03-22T15:30:48Z</time></trkpt><trkpt lat="48.361385775616796" lon="-4.267042217019488"><ele>18.599999999999998</ele><time>2026-03-22T15:30:50Z</time></trkpt><trkpt lat="48.36137568087731" lon="-4.2671895621136775"><ele>19.0</ele><time>2026-03-22T15:30:51Z</time></trkpt><trkpt lat="48.36140488020833" lon="-4.267288703803743"><ele>19.5</ele><time>2026-03-22T15:30:55Z</time></trkpt><trkpt lat="48.36141388226494" lon="-4.2673966916472414"><ele>20.0</ele><time>2026-03-22T15:30:56Z</time></trkpt><trkpt lat="48.36137943933983" lon="-4.267515547810932"><ele>20.5</ele><time>2026-03-22T15:30:59Z</time></trkpt><trkpt lat="48.36138788847798" lon="-4.267636497129256"><ele>21.0</ele><time>2026-03-22T15:31:01Z</time></trkpt><trkpt lat="48.3613652712102" lon="-4.267781356579551"><ele>21.5</ele><time>2026-03-22T15:31:04Z</time></trkpt><trkpt lat="48.361334742551016" lon="-4.267934020218695"><ele>22.0</ele><time>2026-03-22T15:31:06Z</time></trkpt><trkpt lat="48.361320025958626" lon="-4.268084609364765"><ele>21.6</ele><time>2026-03-22T15:31:08Z</time></trkpt><trkpt lat="48.36126835997833" lon="-4.268146449687296"><ele>21.200000000000003</ele><time>2026-03-22T15:31:10Z</time></trkpt><trkpt lat="48.36123644919081" lon="-4.268336712979314"><ele>20.8</ele><time>2026-03-22T15:31:12Z</time></trkpt><trkpt lat="48.361249330971695" lon="-4.2685259204614905"><ele>20.4</ele><time>2026-03-22T15:31:13Z</time></trkpt><trkpt lat="48.361227988421675" lon="-4.268657552967126"><ele>20.0</ele><time>2026-03-22T15:31:14Z</time></trkpt><trkpt lat="48.36120643629922" lon="-4.268777227637607"><ele>19.5</ele><time>2026-03-22T15:31:15Z</time></trkpt><trkpt lat="48.36131800723406" lon="-4.268972550923226"><ele>19.0</ele><time>2026-03-22T15:31:16Z</time></trkpt><trkpt lat="48.36129051666017" lon="-4.269126697406126"><ele>18.5</ele><time>2026-03-22T15:31:17Z</time></trkpt><trkpt lat="48.361262214759435" lon="-4.269291688262493"><ele>18.0</ele><time>2026-03-22T15:31:18Z</time></trkpt><trkpt lat="48.361218955924066" lon="-4.269457581813539"><ele>18.0</ele><time>2026-03-22T15:31:19Z</time></trkpt><trkpt lat="48.36118468471866" lon="-4.269595100909059"><ele>18.0</ele><time>2026-03-22T15:31:20Z</time></trkpt><trkpt lat="48.361144718029045" lon="-4.269773718381206"><ele>18.0</ele><time>2026-03-22T15:31:21Z</time></trkpt><trkpt lat="48.36111733432544" lon="-4.269910115234511"><ele>18.0</ele><time>2026-03-22T15:31:22Z</time></trkpt><trkpt lat="48.36107646113378" lon="-4.270047286129323"><ele>18.0</ele><time>2026-03-22T15:31:23Z</time></trkpt><trkpt lat="48.361078826524974" lon="-4.270207485241714"><ele>17.8</ele><time>2026-03-22T15:31:24Z</time></trkpt><trkpt lat="48.36108742056665" lon="-4.270355827069693"><ele>17.6</ele><time>2026-03-22T15:31:25Z</time></trkpt><trkpt lat="48.36109104476333" lon="-4.270488117795262"><ele>17.4</ele><time>2026-03-22T15:31:26Z</time></trkpt><trkpt lat="48.3610979344989" lon="-4.270625670050997"><ele>17.2</ele><time>2026-03-22T15:31:27Z</time></trkpt><trkpt lat="48.36111733576338" lon="-4.270761705777741"><ele>17.0</ele><time>2026-03-22T15:31:28Z</time></trkpt><trkpt lat="48.361123160938" lon="-4.270881102311071"><ele>17.0</ele><time>2026-03-22T15:31:29Z</time></trkpt><trkpt lat="48.361133213458714" lon="-4.271009435650958"><ele>17.0</ele><time>2026-03-22T15:31:30Z</time></trkpt><trkpt lat="48.36114277016675" lon="-4.2711308115300035"><ele>17.0</ele><time>2026-03-22T15:31:31Z</time></trkpt><trkpt lat="48.361155290771144" lon="-4.271248590100558"><ele>17.0</ele><time>2026-03-22T15:31:32Z</time></trkpt><trkpt lat="48.36116076235943" lon="-4.271360074412553"><ele>17.0</ele><time>2026-03-22T15:31:33Z</time></trkpt><trkpt lat="48.361162921425574" lon="-4.271470023079488"><ele>17.0</ele><time>2026-03-22T15:31:34Z</time></trkpt><trkpt lat="48.36117105625025" lon="-4.271568035325264"><ele>17.0</ele><time>2026-03-22T15:31:35Z</time></trkpt><trkpt lat="48.36115252488593" lon="-4.2717260684332"><ele>17.0</ele><time>2026-03-22T15:31:37Z</time></trkpt><trkpt lat="48.361163608530326" lon="-4.271827995325881"><ele>17.0</ele><time>2026-03-22T15:31:38Z</time></trkpt><trkpt lat="48.361174039632" lon="-4.272006711958189"><ele>17.0</ele><time>2026-03-22T15:31:40Z</time></trkpt><trkpt lat="48.36116999602185" lon="-4.272153530328584"><ele>17.0</ele><time>2026-03-22T15:31:42Z</time></trkpt><trkpt lat="48.361159789816384" lon="-4.272283284406021"><ele>17.4</ele><time>2026-03-22T15:31:43.999Z</time></trkpt><trkpt lat="48.36115472449403" lon="-4.2724322451519425"><ele>17.799999999999997</ele><time>2026-03-22T15:31:45.999Z</time></trkpt><trkpt lat="48.3611456077526" lon="-4.272570454814997"><ele>18.2</ele><time>2026-03-22T15:31:47.999Z</time></trkpt><trkpt lat="48.36113560461514" lon="-4.272710521146591"><ele>18.599999999999998</ele><time>2026-03-22T15:31:49.999Z</time></trkpt><trkpt lat="48.36111882208461" lon="-4.272839753258832"><ele>19.0</ele><time>2026-03-22T15:31:51.999Z</time></trkpt><trkpt lat="48.36109896658741" lon="-4.272955977532383"><ele>19.0</ele><time>2026-03-22T15:31:53.999Z</time></trkpt><trkpt lat="48.36105410255387" lon="-4.273082753622296"><ele>19.0</ele><time>2026-03-22T15:31:57.999Z</time></trkpt><trkpt lat="48.36102493407772" lon="-4.2732087088925"><ele>19.0</ele><time>2026-03-22T15:32:00.999Z</time></trkpt><trkpt lat="48.360982009355304" lon="-4.2733021546589605"><ele>19.0</ele><time>2026-03-22T15:32:03.999Z</time></trkpt><trkpt lat="48.36096518035938" lon="-4.273395572603272"><ele>19.0</ele><time>2026-03-22T15:32:05.999Z</time></trkpt><trkpt lat="48.360945115669864" lon="-4.273562887492463"><ele>19.0</ele><time>2026-03-22T15:32:08.999Z</time></trkpt><trkpt lat="48.3609382799892" lon="-4.273668323969328"><ele>19.799999999999997</ele><time>2026-03-22T15:32:11.999Z</time></trkpt><trkpt lat="48.360929710124125" lon="-4.273794042901307"><ele>20.599999999999998</ele><time>2026-03-22T15:32:13.999Z</time></trkpt><trkpt lat="48.36096715063359" lon="-4.273966125890383"><ele>21.4</ele><time>2026-03-22T15:32:15.999Z</time></trkpt><trkpt lat="48.360991301918204" lon="-4.274127346016699"><ele>22.2</ele><time>2026-03-22T15:32:18.999Z</time></trkpt><trkpt lat="48.36100932595418" lon="-4.274232198180928"><ele>23.0</ele><time>2026-03-22T15:32:20.999Z</time></trkpt><trkpt lat="48.3610386481021" lon="-4.274359810174673"><ele>23.599999999999998</ele><time>2026-03-22T15:32:24.999Z</time></trkpt><trkpt lat="48.36105648370853" lon="-4.274463332440987"><ele>24.2</ele><time>2026-03-22T15:32:26.999Z</time></trkpt><trkpt lat="48.36108158141692" lon="-4.274560256605055"><ele>24.8</ele><time>2026-03-22T15:32:29.999Z</time></trkpt><trkpt lat="48.36110689651457" lon="-4.274710570033101"><ele>25.4</ele><time>2026-03-22T15:32:32.999Z</time></trkpt><trkpt lat="48.36117601070205" lon="-4.274911797870862"><ele>26.0</ele><time>2026-03-22T15:32:37.999Z</time></trkpt><trkpt lat="48.36123179016662" lon="-4.275037507021604"><ele>27.200000000000003</ele><time>2026-03-22T15:32:40Z</time></trkpt><trkpt lat="48.36127114403316" lon="-4.275155969015806"><ele>28.400000000000002</ele><time>2026-03-22T15:32:42Z</time></trkpt><trkpt lat="48.3613155095211" lon="-4.275256481765182"><ele>29.6</ele><time>2026-03-22T15:32:44Z</time></trkpt><trkpt lat="48.36134178429801" lon="-4.275396923746504"><ele>30.8</ele><time>2026-03-22T15:32:48Z</time></trkpt><trkpt lat="48.361394759534384" lon="-4.275529140580212"><ele>32.0</ele><time>2026-03-22T15:32:50Z</time></trkpt><trkpt lat="48.361451143891934" lon="-4.275661019022773"><ele>33.4</ele><time>2026-03-22T15:32:52Z</time></trkpt><trkpt lat="48.36150726966868" lon="-4.275763875503321"><ele>34.800000000000004</ele><time>2026-03-22T15:32:54Z</time></trkpt><trkpt lat="48.3615724179827" lon="-4.27586037916741"><ele>36.2</ele><time>2026-03-22T15:32:56Z</time></trkpt><trkpt lat="48.36163098987315" lon="-4.275940198955958"><ele>37.6</ele><time>2026-03-22T15:32:58Z</time></trkpt><trkpt lat="48.36172070088909" lon="-4.276006720107989"><ele>39.0</ele><time>2026-03-22T15:33:03Z</time></trkpt><trkpt lat="48.36180820810144" lon="-4.276084556653864"><ele>39.0</ele><time>2026-03-22T15:33:06Z</time></trkpt><trkpt lat="48.3619054659298" lon="-4.27612615663714"><ele>39.0</ele><time>2026-03-22T15:33:08Z</time></trkpt><trkpt lat="48.362061597434256" lon="-4.2761967567922285"><ele>39.0</ele><time>2026-03-22T15:33:14Z</time></trkpt><trkpt lat="48.36214052619651" lon="-4.27620907974333"><ele>39.0</ele><time>2026-03-22T15:33:17Z</time></trkpt><trkpt lat="48.362204508365245" lon="-4.276224557197883"><ele>39.0</ele><time>2026-03-22T15:33:19Z</time></trkpt><trkpt lat="48.36227667564772" lon="-4.276244917910113"><ele>39.333333333333336</ele><time>2026-03-22T15:33:21Z</time></trkpt><trkpt lat="48.36235640389639" lon="-4.276273612658263"><ele>39.666666666666664</ele><time>2026-03-22T15:33:24Z</time></trkpt><trkpt lat="48.3624421433206" lon="-4.276305532249786"><ele>40.0</ele><time>2026-03-22T15:33:27Z</time></trkpt><trkpt lat="48.362507033324" lon="-4.276327491951383"><ele>40.33333333333333</ele><time>2026-03-22T15:33:29Z</time></trkpt><trkpt lat="48.362585276536976" lon="-4.276363013660492"><ele>40.666666666666664</ele><time>2026-03-22T15:33:32Z</time></trkpt><trkpt lat="48.36266702265856" lon="-4.276401446079787"><ele>41.0</ele><time>2026-03-22T15:33:35Z</time></trkpt><trkpt lat="48.36274788597615" lon="-4.2764326225015425"><ele>41.5</ele><time>2026-03-22T15:33:38Z</time></trkpt><trkpt lat="48.362834849852874" lon="-4.276461211624604"><ele>42.0</ele><time>2026-03-22T15:33:41Z</time></trkpt><trkpt lat="48.36291947163764" lon="-4.276489678066499"><ele>42.5</ele><time>2026-03-22T15:33:44Z</time></trkpt><trkpt lat="48.36299160720118" lon="-4.276510391204096"><ele>43.0</ele><time>2026-03-22T15:33:47Z</time></trkpt><trkpt lat="48.363076303997715" lon="-4.27654052796315"><ele>43.5</ele><time>2026-03-22T15:33:49.999Z</time></trkpt><trkpt lat="48.363139551382666" lon="-4.276583017673566"><ele>44.0</ele><time>2026-03-22T15:33:52.999Z</time></trkpt><trkpt lat="48.36321843978835" lon="-4.276625498940959"><ele>44.400000000000006</ele><time>2026-03-22T15:33:55.999Z</time></trkpt><trkpt lat="48.36331409857967" lon="-4.276681572793809"><ele>44.8</ele><time>2026-03-22T15:33:58.999Z</time></trkpt><trkpt lat="48.36339593424985" lon="-4.2767187120800125"><ele>45.2</ele><time>2026-03-22T15:34:00.999Z</time></trkpt><trkpt lat="48.36353123178988" lon="-4.276777940311088"><ele>45.599999999999994</ele><time>2026-03-22T15:34:02.999Z</time></trkpt><trkpt lat="48.363632154611146" lon="-4.2768109769934775"><ele>46.0</ele><time>2026-03-22T15:34:04.999Z</time></trkpt><trkpt lat="48.36371670736055" lon="-4.276843895772932"><ele>46.0</ele><time>2026-03-22T15:34:06.999Z</time></trkpt><trkpt lat="48.36379152940378" lon="-4.276859866324259"><ele>46.0</ele><time>2026-03-22T15:34:08.999Z</time></trkpt><trkpt lat="48.36387668661294" lon="-4.2768798316341705"><ele>46.0</ele><time>2026-03-22T15:34:10.999Z</time></trkpt><trkpt lat="48.36395931702566" lon="-4.2769094901313425"><ele>46.0</ele><time>2026-03-22T15:34:12.999Z</time></trkpt><trkpt lat="48.36403993348755" lon="-4.276936642770542"><ele>46.0</ele><time>2026-03-22T15:34:14.999Z</time></trkpt><trkpt lat="48.36416140592937" lon="-4.276951312033065"><ele>46.599999999999994</ele><time>2026-03-22T15:34:17.999Z</time></trkpt><trkpt lat="48.36427337181502" lon="-4.276974631216171"><ele>47.2</ele><time>2026-03-22T15:34:20.999Z</time></trkpt><trkpt lat="48.364343048035764" lon="-4.276979798292784"><ele>47.8</ele><time>2026-03-22T15:34:22.999Z</time></trkpt><trkpt lat="48.36441320767857" lon="-4.276991976518591"><ele>48.400000000000006</ele><time>2026-03-22T15:34:24.999Z</time></trkpt><trkpt lat="48.36450281925547" lon="-4.277024454229413"><ele>49.0</ele><time>2026-03-22T15:34:27.999Z</time></trkpt><trkpt lat="48.364665523176235" lon="-4.27702016652631"><ele>49.83333333333333</ele><time>2026-03-22T15:34:32.999Z</time></trkpt><trkpt lat="48.36473237537455" lon="-4.277025381250974"><ele>50.666666666666664</ele><time>2026-03-22T15:34:34.999Z</time></trkpt><trkpt lat="48.364820624371156" lon="-4.277007055840471"><ele>51.5</ele><time>2026-03-22T15:34:37.999Z</time></trkpt><trkpt lat="48.36490975500239" lon="-4.277003713948581"><ele>52.33333333333333</ele><time>2026-03-22T15:34:40.999Z</time></trkpt><trkpt lat="48.364996433439174" lon="-4.277035283721569"><ele>53.166666666666664</ele><time>2026-03-22T15:34:43.999Z</time></trkpt><trkpt lat="48.36505982474638" lon="-4.277031023137711"><ele>54.0</ele><time>2026-03-22T15:34:46Z</time></trkpt><trkpt lat="48.365151138447544" lon="-4.277014154713108"><ele>54.0</ele><time>2026-03-22T15:34:49Z</time></trkpt><trkpt lat="48.36522294855159" lon="-4.277018823284971"><ele>54.0</ele><time>2026-03-22T15:34:51Z</time></trkpt><trkpt lat="48.36529182650014" lon="-4.277021563118078"><ele>54.0</ele><time>2026-03-22T15:34:53Z</time></trkpt><trkpt lat="48.365361343605514" lon="-4.2770225167153235"><ele>54.0</ele><time>2026-03-22T15:34:55Z</time></trkpt><trkpt lat="48.3654311137282" lon="-4.277019421354457"><ele>54.0</ele><time>2026-03-22T15:34:57Z</time></trkpt><trkpt lat="48.36550721053281" lon="-4.277021895166724"><ele>54.0</ele><time>2026-03-22T15:35:00Z</time></trkpt><trkpt lat="48.36558865707556" lon="-4.2770083940447625"><ele>54.0</ele><time>2026-03-22T15:35:03Z</time></trkpt><trkpt lat="48.365676938611536" lon="-4.276998842992701"><ele>55.0</ele><time>2026-03-22T15:35:06Z</time></trkpt><trkpt lat="48.365742275113796" lon="-4.276986753314589"><ele>56.0</ele><time>2026-03-22T15:35:09Z</time></trkpt><trkpt lat="48.36581855868801" lon="-4.277006687834827"><ele>57.0</ele><time>2026-03-22T15:35:12Z</time></trkpt><trkpt lat="48.36588054347557" lon="-4.277031698544487"><ele>58.0</ele><time>2026-03-22T15:35:14Z</time></trkpt><trkpt lat="48.36595057808108" lon="-4.277051537884645"><ele>59.0</ele><time>2026-03-22T15:35:17Z</time></trkpt><trkpt lat="48.366023700049624" lon="-4.2770723689958485"><ele>60.0</ele><time>2026-03-22T15:35:19Z</time></trkpt><trkpt lat="48.36611697939774" lon="-4.277129833181305"><ele>60.0</ele><time>2026-03-22T15:35:21Z</time></trkpt><trkpt lat="48.366187017791795" lon="-4.277181487676167"><ele>60.0</ele><time>2026-03-22T15:35:23Z</time></trkpt><trkpt lat="48.36625622955972" lon="-4.277232487921846"><ele>60.0</ele><time>2026-03-22T15:35:25Z</time></trkpt><trkpt lat="48.36633316831218" lon="-4.277299586139032"><ele>60.0</ele><time>2026-03-22T15:35:28Z</time></trkpt><trkpt lat="48.36639984545261" lon="-4.277366625544068"><ele>60.0</ele><time>2026-03-22T15:35:31Z</time></trkpt><trkpt lat="48.36645857788738" lon="-4.277440633540686"><ele>60.0</ele><time>2026-03-22T15:35:34Z</time></trkpt><trkpt lat="48.36651730070822" lon="-4.277506162379729"><ele>61.333333333333336</ele><time>2026-03-22T15:35:37Z</time></trkpt><trkpt lat="48.36657421772489" lon="-4.277569955142916"><ele>62.66666666666667</ele><time>2026-03-22T15:35:40Z</time></trkpt><trkpt lat="48.36663921229126" lon="-4.277634130878207"><ele>64.0</ele><time>2026-03-22T15:35:43Z</time></trkpt><trkpt lat="48.36672046345598" lon="-4.27768163537197"><ele>65.33333333333334</ele><time>2026-03-22T15:35:46Z</time></trkpt><trkpt lat="48.36680713259769" lon="-4.277732902458957"><ele>66.66666666666667</ele><time>2026-03-22T15:35:49Z</time></trkpt><trkpt lat="48.36687901462329" lon="-4.277815232066205"><ele>68.0</ele><time>2026-03-22T15:35:52Z</time></trkpt><trkpt lat="48.366942978207035" lon="-4.277832407824023"><ele>68.0</ele><time>2026-03-22T15:35:54Z</time></trkpt><trkpt lat="48.36701382889256" lon="-4.277878812965436"><ele>68.0</ele><time>2026-03-22T15:35:56.999Z</time></trkpt><trkpt lat="48.36710160677785" lon="-4.277909441639843"><ele>68.0</ele><time>2026-03-22T15:36:00.999Z</time></trkpt><trkpt lat="48.36720106818917" lon="-4.277957335832675"><ele>68.0</ele><time>2026-03-22T15:36:04.999Z</time></trkpt><trkpt lat="48.36726394182346" lon="-4.278005962545916"><ele>68.0</ele><time>2026-03-22T15:36:06.999Z</time></trkpt><trkpt lat="48.36747056911246" lon="-4.277979909448612"><ele>69.25</ele><time>2026-03-22T15:36:14.999Z</time></trkpt><trkpt lat="48.36767189946368" lon="-4.277982197574242"><ele>70.5</ele><time>2026-03-22T15:36:19.999Z</time></trkpt><trkpt lat="48.3677724562306" lon="-4.27800665841927"><ele>71.75</ele><time>2026-03-22T15:36:21.999Z</time></trkpt><trkpt lat="48.367875814049924" lon="-4.278048763241237"><ele>73.0</ele><time>2026-03-22T15:36:23.999Z</time></trkpt><trkpt lat="48.367949736954756" lon="-4.278070702770514"><ele>73.8</ele><time>2026-03-22T15:36:25.999Z</time></trkpt><trkpt lat="48.36802740883569" lon="-4.27810607745739"><ele>74.6</ele><time>2026-03-22T15:36:27.999Z</time></trkpt><trkpt lat="48.368243467157114" lon="-4.278147560548641"><ele>75.4</ele><time>2026-03-22T15:36:31.999Z</time></trkpt><trkpt lat="48.36830583560057" lon="-4.278173064754114"><ele>76.2</ele><time>2026-03-22T15:36:32.999Z</time></trkpt><trkpt lat="48.3683696874192" lon="-4.278189749515418"><ele>77.0</ele><time>2026-03-22T15:36:33.999Z</time></trkpt><trkpt lat="48.36843882168867" lon="-4.27821686330604"><ele>77.0</ele><time>2026-03-22T15:36:34.999Z</time></trkpt><trkpt lat="48.36850202923134" lon="-4.27823607010838"><ele>77.0</ele><time>2026-03-22T15:36:35.999Z</time></trkpt><trkpt lat="48.36856593303336" lon="-4.278253048643892"><ele>77.0</ele><time>2026-03-22T15:36:36.999Z</time></trkpt><trkpt lat="48.36868476100346" lon="-4.2782827537238655"><ele>77.0</ele><time>2026-03-22T15:36:38.999Z</time></trkpt><trkpt lat="48.36878326636605" lon="-4.278312105418766"><ele>77.0</ele><time>2026-03-22T15:36:40.999Z</time></trkpt><trkpt lat="48.3688761898387" lon="-4.278368121164829"><ele>77.33333333333334</ele><time>2026-03-22T15:36:42.999Z</time></trkpt><trkpt lat="48.368964896794154" lon="-4.2784200471498135"><ele>77.66666666666667</ele><time>2026-03-22T15:36:44.999Z</time></trkpt><trkpt lat="48.36904308376452" lon="-4.2784649833656285"><ele>78.0</ele><time>2026-03-22T15:36:46.999Z</time></trkpt><trkpt lat="48.369114704436754" lon="-4.2785327724946205"><ele>78.33333333333333</ele><time>2026-03-22T15:36:48.999Z</time></trkpt><trkpt lat="48.36918119466333" lon="-4.278597077619275"><ele>78.66666666666666</ele><time>2026-03-22T15:36:50.999Z</time></trkpt><trkpt lat="48.36924070338338" lon="-4.2786680609649235"><ele>79.0</ele><time>2026-03-22T15:36:53Z</time></trkpt><trkpt lat="48.36929963170713" lon="-4.278750948746936"><ele>79.0</ele><time>2026-03-22T15:36:55Z</time></trkpt><trkpt lat="48.36935705227437" lon="-4.278825452592859"><ele>79.0</ele><time>2026-03-22T15:36:57Z</time></trkpt><trkpt lat="48.36940853441678" lon="-4.278902128197114"><ele>79.0</ele><time>2026-03-22T15:36:59Z</time></trkpt><trkpt lat="48.369459614667306" lon="-4.278976309296448"><ele>79.0</ele><time>2026-03-22T15:37:01Z</time></trkpt><trkpt lat="48.36948855643639" lon="-4.279078997215383"><ele>79.0</ele><time>2026-03-22T15:37:03Z</time></trkpt><trkpt lat="48.369533379775795" lon="-4.279158022265862"><ele>79.0</ele><time>2026-03-22T15:37:09Z</time></trkpt><trkpt lat="48.3695998970882" lon="-4.279251677544417"><ele>78.66666666666666</ele><time>2026-03-22T15:37:13Z</time></trkpt><trkpt lat="48.369607435376814" lon="-4.279408288045372"><ele>78.33333333333333</ele><time>2026-03-22T15:37:16Z</time></trkpt><trkpt lat="48.36967986779768" lon="-4.279510820371647"><ele>78.0</ele><time>2026-03-22T15:37:19Z</time></trkpt><trkpt lat="48.3697239002513" lon="-4.279581560135913"><ele>77.66666666666667</ele><time>2026-03-22T15:37:22Z</time></trkpt><trkpt lat="48.36975362459793" lon="-4.2797082030594575"><ele>77.33333333333334</ele><time>2026-03-22T15:37:25Z</time></trkpt><trkpt lat="48.369805697856556" lon="-4.279787008258437"><ele>77.0</ele><time>2026-03-22T15:37:28Z</time></trkpt><trkpt lat="48.36982145196876" lon="-4.279937303096714"><ele>77.83333333333334</ele><time>2026-03-22T15:37:31Z</time></trkpt><trkpt lat="48.36987184409134" lon="-4.280005307401803"><ele>78.66666666666667</ele><time>2026-03-22T15:37:33Z</time></trkpt><trkpt lat="48.36991321003408" lon="-4.280080124680425"><ele>79.5</ele><time>2026-03-22T15:37:34Z</time></trkpt><trkpt lat="48.36995365248713" lon="-4.280181514441508"><ele>80.33333333333333</ele><time>2026-03-22T15:37:35Z</time></trkpt><trkpt lat="48.36999656647481" lon="-4.280257735452454"><ele>81.16666666666666</ele><time>2026-03-22T15:37:36Z</time></trkpt><trkpt lat="48.37005963071162" lon="-4.28040212253032"><ele>82.0</ele><time>2026-03-22T15:37:38Z</time></trkpt><trkpt lat="48.37009501873425" lon="-4.280514114546364"><ele>81.19999999999999</ele><time>2026-03-22T15:37:39Z</time></trkpt><trkpt lat="48.37013074802419" lon="-4.28066260901493"><ele>80.39999999999999</ele><time>2026-03-22T15:37:41Z</time></trkpt><trkpt lat="48.37019498658467" lon="-4.2808108568802865"><ele>79.6</ele><time>2026-03-22T15:37:43Z</time></trkpt><trkpt lat="48.370243455268316" lon="-4.28093713526357"><ele>78.8</ele><time>2026-03-22T15:37:45Z</time></trkpt><trkpt lat="48.3702936620315" lon="-4.281059967395738"><ele>78.0</ele><time>2026-03-22T15:37:47Z</time></trkpt><trkpt lat="48.37035327285713" lon="-4.2812079376714225"><ele>78.0</ele><time>2026-03-22T15:37:49Z</time></trkpt><trkpt lat="48.370384932892" lon="-4.281339897806755"><ele>78.0</ele><time>2026-03-22T15:37:51Z</time></trkpt><trkpt lat="48.37042273344617" lon="-4.281478489923448"><ele>78.0</ele><time>2026-03-22T15:37:53Z</time></trkpt><trkpt lat="48.37045052594754" lon="-4.281623337725676"><ele>78.0</ele><time>2026-03-22T15:37:55Z</time></trkpt><trkpt lat="48.370504600620066" lon="-4.2817664851007"><ele>78.0</ele><time>2026-03-22T15:37:57Z</time></trkpt><trkpt lat="48.37054111108563" lon="-4.281900354658032"><ele>78.8</ele><time>2026-03-22T15:37:59Z</time></trkpt><trkpt lat="48.370578268944655" lon="-4.282037309116457"><ele>79.6</ele><time>2026-03-22T15:38:00.999Z</time></trkpt><trkpt lat="48.370605887065324" lon="-4.2821646551030055"><ele>80.39999999999999</ele><time>2026-03-22T15:38:02.999Z</time></trkpt><trkpt lat="48.37064744293195" lon="-4.282287900778089"><ele>81.19999999999999</ele><time>2026-03-22T15:38:04.999Z</time></trkpt><trkpt lat="48.370689396413006" lon="-4.2824173595533805"><ele>82.0</ele><time>2026-03-22T15:38:06.999Z</time></trkpt><trkpt lat="48.370733615702775" lon="-4.282548107274149"><ele>82.0</ele><time>2026-03-22T15:38:08.999Z</time></trkpt><trkpt lat="48.37077615835947" lon="-4.282661585804704"><ele>82.0</ele><time>2026-03-22T15:38:10.999Z</time></trkpt><trkpt lat="48.37082044660982" lon="-4.282770598458553"><ele>82.0</ele><time>2026-03-22T15:38:12.999Z</time></trkpt><trkpt lat="48.37089671067759" lon="-4.282868235985833"><ele>82.0</ele><time>2026-03-22T15:38:14.999Z</time></trkpt><trkpt lat="48.37096971461202" lon="-4.28294948167498"><ele>82.0</ele><time>2026-03-22T15:38:16.999Z</time></trkpt><trkpt lat="48.37103907337889" lon="-4.283026743593422"><ele>82.0</ele><time>2026-03-22T15:38:18.999Z</time></trkpt><trkpt lat="48.371113295171035" lon="-4.283103219121522"><ele>81.5</ele><time>2026-03-22T15:38:20.999Z</time></trkpt><trkpt lat="48.37118579395509" lon="-4.2831812128690885"><ele>81.0</ele><time>2026-03-22T15:38:22.999Z</time></trkpt><trkpt lat="48.37126967724936" lon="-4.283251658395773"><ele>80.5</ele><time>2026-03-22T15:38:24.999Z</time></trkpt><trkpt lat="48.371337175381655" lon="-4.283337818526259"><ele>80.0</ele><time>2026-03-22T15:38:26.999Z</time></trkpt><trkpt lat="48.371404196060276" lon="-4.283409892815786"><ele>79.5</ele><time>2026-03-22T15:38:28.999Z</time></trkpt><trkpt lat="48.37148123254847" lon="-4.283473148178689"><ele>79.0</ele><time>2026-03-22T15:38:30.999Z</time></trkpt><trkpt lat="48.37155456358639" lon="-4.283549359286502"><ele>79.66666666666666</ele><time>2026-03-22T15:38:32.999Z</time></trkpt><trkpt lat="48.37162054850075" lon="-4.283622401646467"><ele>80.33333333333333</ele><time>2026-03-22T15:38:34.999Z</time></trkpt><trkpt lat="48.371699703361905" lon="-4.283695539695744"><ele>81.0</ele><time>2026-03-22T15:38:36.999Z</time></trkpt><trkpt lat="48.371775445760434" lon="-4.283757946602482"><ele>81.66666666666667</ele><time>2026-03-22T15:38:38.999Z</time></trkpt><trkpt lat="48.37184502548513" lon="-4.283826335116697"><ele>82.33333333333334</ele><time>2026-03-22T15:38:40.999Z</time></trkpt><trkpt lat="48.37191277215988" lon="-4.283887192158395"><ele>83.0</ele><time>2026-03-22T15:38:42.999Z</time></trkpt><trkpt lat="48.371984996908246" lon="-4.283945293556511"><ele>83.0</ele><time>2026-03-22T15:38:44.999Z</time></trkpt><trkpt lat="48.37204700607595" lon="-4.283994220731921"><ele>83.0</ele><time>2026-03-22T15:38:46.999Z</time></trkpt><trkpt lat="48.372113326809846" lon="-4.284050613068301"><ele>83.0</ele><time>2026-03-22T15:38:48.999Z</time></trkpt><trkpt lat="48.37218662997326" lon="-4.284095911859781"><ele>83.0</ele><time>2026-03-22T15:38:50.999Z</time></trkpt><trkpt lat="48.37226142195426" lon="-4.284129652138915"><ele>83.0</ele><time>2026-03-22T15:38:52.999Z</time></trkpt><trkpt lat="48.3723412777356" lon="-4.284161037949728"><ele>83.0</ele><time>2026-03-22T15:38:54.999Z</time></trkpt><trkpt lat="48.37242093356155" lon="-4.284197383577799"><ele>83.33333333333334</ele><time>2026-03-22T15:38:56.999Z</time></trkpt><trkpt lat="48.372501223289326" lon="-4.284221920877128"><ele>83.66666666666667</ele><time>2026-03-22T15:38:59Z</time></trkpt><trkpt lat="48.372577679270265" lon="-4.284252202170342"><ele>84.0</ele><time>2026-03-22T15:39:01Z</time></trkpt><trkpt lat="48.37264999317628" lon="-4.2842827264938945"><ele>84.33333333333333</ele><time>2026-03-22T15:39:03Z</time></trkpt><trkpt lat="48.372726458141656" lon="-4.284316454047744"><ele>84.66666666666666</ele><time>2026-03-22T15:39:05Z</time></trkpt><trkpt lat="48.372806119742" lon="-4.2843377279651165"><ele>85.0</ele><time>2026-03-22T15:39:07Z</time></trkpt><trkpt lat="48.37290522769056" lon="-4.2843829103298585"><ele>85.0</ele><time>2026-03-22T15:39:10Z</time></trkpt><trkpt lat="48.37299123183519" lon="-4.284385169479097"><ele>85.0</ele><time>2026-03-22T15:39:11Z</time></trkpt><trkpt lat="48.37306193746265" lon="-4.284402475387615"><ele>85.0</ele><time>2026-03-22T15:39:13Z</time></trkpt><trkpt lat="48.373140971949375" lon="-4.2844346699596585"><ele>85.0</ele><time>2026-03-22T15:39:15Z</time></trkpt><trkpt lat="48.3732164576975" lon="-4.284475252340271"><ele>85.0</ele><time>2026-03-22T15:39:17Z</time></trkpt><trkpt lat="48.37329285236717" lon="-4.284494797826306"><ele>85.0</ele><time>2026-03-22T15:39:19Z</time></trkpt><trkpt lat="48.37336939927702" lon="-4.284522195306368"><ele>85.33333333333333</ele><time>2026-03-22T15:39:21Z</time></trkpt><trkpt lat="48.373446907729125" lon="-4.284552816387111"><ele>85.66666666666666</ele><time>2026-03-22T15:39:23Z</time></trkpt><trkpt lat="48.37352310950569" lon="-4.284578963036802"><ele>86.0</ele><time>2026-03-22T15:39:25Z</time></trkpt><trkpt lat="48.37359364528183" lon="-4.284610514970571"><ele>86.33333333333333</ele><time>2026-03-22T15:39:27Z</time></trkpt><trkpt lat="48.373668557647655" lon="-4.284650336656923"><ele>86.66666666666667</ele><time>2026-03-22T15:39:29Z</time></trkpt><trkpt lat="48.37374658403663" lon="-4.284721076658598"><ele>87.0</ele><time>2026-03-22T15:39:32Z</time></trkpt><trkpt lat="48.37383515070093" lon="-4.284755800349984"><ele>87.25</ele><time>2026-03-22T15:39:34Z</time></trkpt><trkpt lat="48.37389731930142" lon="-4.284798713759717"><ele>87.5</ele><time>2026-03-22T15:39:36Z</time></trkpt><trkpt lat="48.37395787161483" lon="-4.2848434097386106"><ele>87.75</ele><time>2026-03-22T15:39:38Z</time></trkpt><trkpt lat="48.374214107641855" lon="-4.2849751178423565"><ele>88.0</ele><time>2026-03-22T15:39:41Z</time></trkpt><trkpt lat="48.3743080778417" lon="-4.285096175698141"><ele>88.0</ele><time>2026-03-22T15:39:43Z</time></trkpt><trkpt lat="48.37436729417788" lon="-4.285153489537403"><ele>88.0</ele><time>2026-03-22T15:39:44Z</time></trkpt><trkpt lat="48.37441897793887" lon="-4.2852264539163745"><ele>88.0</ele><time>2026-03-22T15:39:45Z</time></trkpt><trkpt lat="48.3744638453318" lon="-4.285307520800187"><ele>88.0</ele><time>2026-03-22T15:39:46Z</time></trkpt><trkpt lat="48.37451212819117" lon="-4.285387853009829"><ele>88.0</ele><time>2026-03-22T15:39:47Z</time></trkpt><trkpt lat="48.374563661503885" lon="-4.285473408005806"><ele>88.0</ele><time>2026-03-22T15:39:48Z</time></trkpt><trkpt lat="48.37462988922716" lon="-4.285562600772737"><ele>88.0</ele><time>2026-03-22T15:39:49Z</time></trkpt><trkpt lat="48.37467301946402" lon="-4.285665311365861"><ele>87.0</ele><time>2026-03-22T15:39:50Z</time></trkpt><trkpt lat="48.374728024226755" lon="-4.285754321665301"><ele>86.0</ele><time>2026-03-22T15:39:51Z</time></trkpt><trkpt lat="48.374786034798774" lon="-4.285845440554798"><ele>85.0</ele><time>2026-03-22T15:39:52Z</time></trkpt><trkpt lat="48.37484800104955" lon="-4.285938516910716"><ele>84.0</ele><time>2026-03-22T15:39:53Z</time></trkpt><trkpt lat="48.37491899766818" lon="-4.2860352442698"><ele>83.0</ele><time>2026-03-22T15:39:54Z</time></trkpt><trkpt lat="48.37499196219582" lon="-4.28612088660627"><ele>82.0</ele><time>2026-03-22T15:39:55Z</time></trkpt><trkpt lat="48.375072848781784" lon="-4.286200048044039"><ele>82.0</ele><time>2026-03-22T15:39:56Z</time></trkpt><trkpt lat="48.375190037694686" lon="-4.286349541497121"><ele>82.0</ele><time>2026-03-22T15:39:57.999Z</time></trkpt><trkpt lat="48.37528085221981" lon="-4.286400860943479"><ele>82.0</ele><time>2026-03-22T15:39:58.999Z</time></trkpt><trkpt lat="48.375369938475345" lon="-4.286446237528537"><ele>82.0</ele><time>2026-03-22T15:39:59.999Z</time></trkpt><trkpt lat="48.37546595711078" lon="-4.286490186958952"><ele>82.0</ele><time>2026-03-22T15:40:00.999Z</time></trkpt><trkpt lat="48.375561520983126" lon="-4.286553601732399"><ele>80.6</ele><time>2026-03-22T15:40:01.999Z</time></trkpt><trkpt lat="48.37564310871943" lon="-4.286639279004018"><ele>79.19999999999999</ele><time>2026-03-22T15:40:02.999Z</time></trkpt><trkpt lat="48.37571659903253" lon="-4.286746591556631"><ele>77.8</ele><time>2026-03-22T15:40:03.999Z</time></trkpt><trkpt lat="48.375782645673766" lon="-4.2868581676061455"><ele>76.4</ele><time>2026-03-22T15:40:04.999Z</time></trkpt><trkpt lat="48.37583673082395" lon="-4.28698290918298"><ele>75.0</ele><time>2026-03-22T15:40:05.999Z</time></trkpt><trkpt lat="48.37589458874608" lon="-4.287105173931295"><ele>75.0</ele><time>2026-03-22T15:40:06.999Z</time></trkpt><trkpt lat="48.375941080058304" lon="-4.287239174736726"><ele>75.0</ele><time>2026-03-22T15:40:07.999Z</time></trkpt><trkpt lat="48.37599465979573" lon="-4.287365062924735"><ele>75.0</ele><time>2026-03-22T15:40:08.999Z</time></trkpt><trkpt lat="48.376043428344595" lon="-4.287490155905326"><ele>75.0</ele><time>2026-03-22T15:40:09.999Z</time></trkpt><trkpt lat="48.376086869798655" lon="-4.2876328058731445"><ele>75.0</ele><time>2026-03-22T15:40:10.999Z</time></trkpt><trkpt lat="48.37613522636655" lon="-4.2877552700282635"><ele>75.8</ele><time>2026-03-22T15:40:11.999Z</time></trkpt><trkpt lat="48.376180157125226" lon="-4.2878896765844985"><ele>76.6</ele><time>2026-03-22T15:40:12.999Z</time></trkpt><trkpt lat="48.376216773494995" lon="-4.288036817041284"><ele>77.4</ele><time>2026-03-22T15:40:13.999Z</time></trkpt><trkpt lat="48.37625514591765" lon="-4.288162191247472"><ele>78.2</ele><time>2026-03-22T15:40:14.999Z</time></trkpt><trkpt lat="48.37628948672951" lon="-4.288335569040177"><ele>79.0</ele><time>2026-03-22T15:40:15.999Z</time></trkpt><trkpt lat="48.376315855340046" lon="-4.288490152121132"><ele>80.25</ele><time>2026-03-22T15:40:16.999Z</time></trkpt><trkpt lat="48.37633586379826" lon="-4.288661660776079"><ele>81.5</ele><time>2026-03-22T15:40:17.999Z</time></trkpt><trkpt lat="48.37636055871008" lon="-4.288832684133566"><ele>82.75</ele><time>2026-03-22T15:40:18.999Z</time></trkpt><trkpt lat="48.37638180310422" lon="-4.288999618915756"><ele>84.0</ele><time>2026-03-22T15:40:19.999Z</time></trkpt><trkpt lat="48.376403621248095" lon="-4.2891602049245"><ele>80.0</ele><time>2026-03-22T15:40:20.999Z</time></trkpt><trkpt lat="48.37642458166344" lon="-4.289328988055645"><ele>76.0</ele><time>2026-03-22T15:40:21.999Z</time></trkpt><trkpt lat="48.37645769658282" lon="-4.2894938888478995"><ele>72.0</ele><time>2026-03-22T15:40:22.999Z</time></trkpt><trkpt lat="48.37648271639642" lon="-4.289667491297685"><ele>68.0</ele><time>2026-03-22T15:40:23.999Z</time></trkpt><trkpt lat="48.37651071708499" lon="-4.289821040817444"><ele>68.0</ele><time>2026-03-22T15:40:24.999Z</time></trkpt><trkpt lat="48.37653969157762" lon="-4.2899930611505335"><ele>68.0</ele><time>2026-03-22T15:40:25.999Z</time></trkpt><trkpt lat="48.37659184693244" lon="-4.290155441993037"><ele>68.0</ele><time>2026-03-22T15:40:26.999Z</time></trkpt><trkpt lat="48.376643967043236" lon="-4.290332784331585"><ele>68.0</ele><time>2026-03-22T15:40:27.999Z</time></trkpt><trkpt lat="48.376693558126576" lon="-4.290493483437382"><ele>68.0</ele><time>2026-03-22T15:40:28.999Z</time></trkpt><trkpt lat="48.37676390449311" lon="-4.290647613009439"><ele>68.0</ele><time>2026-03-22T15:40:29.999Z</time></trkpt><trkpt lat="48.376840913729104" lon="-4.2907819068014845"><ele>68.0</ele><time>2026-03-22T15:40:30.999Z</time></trkpt><trkpt lat="48.376934021884495" lon="-4.290877465205185"><ele>68.0</ele><time>2026-03-22T15:40:31.999Z</time></trkpt><trkpt lat="48.37704687761993" lon="-4.2909508492275075"><ele>68.0</ele><time>2026-03-22T15:40:32.999Z</time></trkpt><trkpt lat="48.37716849969407" lon="-4.290944228645059"><ele>68.0</ele><time>2026-03-22T15:40:33.999Z</time></trkpt><trkpt lat="48.37728767392558" lon="-4.29092615275848"><ele>68.0</ele><time>2026-03-22T15:40:34.999Z</time></trkpt><trkpt lat="48.377410228713735" lon="-4.290909833930341"><ele>68.0</ele><time>2026-03-22T15:40:35.999Z</time></trkpt><trkpt lat="48.37753292913544" lon="-4.290867183905146"><ele>65.0</ele><time>2026-03-22T15:40:36.999Z</time></trkpt><trkpt lat="48.3776497219883" lon="-4.2908251997902385"><ele>62.0</ele><time>2026-03-22T15:40:37.999Z</time></trkpt><trkpt lat="48.377773348916215" lon="-4.290794827803898"><ele>59.0</ele><time>2026-03-22T15:40:38.999Z</time></trkpt><trkpt lat="48.37789492767459" lon="-4.290763509952564"><ele>56.0</ele><time>2026-03-22T15:40:39.999Z</time></trkpt><trkpt lat="48.378008828878" lon="-4.29073542121125"><ele>54.75</ele><time>2026-03-22T15:40:40.999Z</time></trkpt><trkpt lat="48.378126434443175" lon="-4.290697671950389"><ele>53.5</ele><time>2026-03-22T15:40:41.999Z</time></trkpt><trkpt lat="48.378241655299846" lon="-4.290665080907083"><ele>52.25</ele><time>2026-03-22T15:40:42.999Z</time></trkpt><trkpt lat="48.3783554794888" lon="-4.29063493872021"><ele>51.0</ele><time>2026-03-22T15:40:43.999Z</time></trkpt><trkpt lat="48.37847105691854" lon="-4.290578161686371"><ele>51.0</ele><time>2026-03-22T15:40:44.999Z</time></trkpt><trkpt lat="48.37858547293136" lon="-4.290550956024873"><ele>51.0</ele><time>2026-03-22T15:40:45.999Z</time></trkpt><trkpt lat="48.37869986286728" lon="-4.290545184762211"><ele>51.0</ele><time>2026-03-22T15:40:46.999Z</time></trkpt><trkpt lat="48.37881200648669" lon="-4.290577596441678"><ele>51.0</ele><time>2026-03-22T15:40:47.999Z</time></trkpt><trkpt lat="48.37901366006218" lon="-4.290746285972898"><ele>49.25</ele><time>2026-03-22T15:40:49.999Z</time></trkpt><trkpt lat="48.37909740465138" lon="-4.290870344209548"><ele>47.5</ele><time>2026-03-22T15:40:50.999Z</time></trkpt><trkpt lat="48.379164252111856" lon="-4.291016769623767"><ele>45.75</ele><time>2026-03-22T15:40:51.999Z</time></trkpt><trkpt lat="48.379225874877775" lon="-4.29116499127243"><ele>44.0</ele><time>2026-03-22T15:40:52.999Z</time></trkpt><trkpt lat="48.379275820872856" lon="-4.291318902192941"><ele>43.6</ele><time>2026-03-22T15:40:53.999Z</time></trkpt><trkpt lat="48.37931677141176" lon="-4.291479802638006"><ele>43.2</ele><time>2026-03-22T15:40:54.999Z</time></trkpt><trkpt lat="48.37934326804867" lon="-4.291640618021352"><ele>42.800000000000004</ele><time>2026-03-22T15:40:55.999Z</time></trkpt><trkpt lat="48.379365221601724" lon="-4.291799701430191"><ele>42.400000000000006</ele><time>2026-03-22T15:40:56.999Z</time></trkpt><trkpt lat="48.37939000961118" lon="-4.291956060161232"><ele>42.0</ele><time>2026-03-22T15:40:57.999Z</time></trkpt><trkpt lat="48.379433912898676" lon="-4.292112930533268"><ele>42.2</ele><time>2026-03-22T15:40:58.999Z</time></trkpt><trkpt lat="48.3794570097406" lon="-4.292273056718679"><ele>42.400000000000006</ele><time>2026-03-22T15:40:59.999Z</time></trkpt><trkpt lat="48.37948892072343" lon="-4.2924283471328675"><ele>42.599999999999994</ele><time>2026-03-22T15:41:00.999Z</time></trkpt><trkpt lat="48.37951795851145" lon="-4.292576254838814"><ele>42.8</ele><time>2026-03-22T15:41:01.999Z</time></trkpt><trkpt lat="48.37955115592077" lon="-4.2927302287637294"><ele>43.0</ele><time>2026-03-22T15:41:02.999Z</time></trkpt><trkpt lat="48.37957099824295" lon="-4.292877897806723"><ele>43.0</ele><time>2026-03-22T15:41:04Z</time></trkpt><trkpt lat="48.379592251046205" lon="-4.29301611659538"><ele>43.0</ele><time>2026-03-22T15:41:05Z</time></trkpt><trkpt lat="48.37960482745164" lon="-4.293149201968027"><ele>43.0</ele><time>2026-03-22T15:41:06Z</time></trkpt><trkpt lat="48.37959691515715" lon="-4.293290139952939"><ele>43.0</ele><time>2026-03-22T15:41:07Z</time></trkpt><trkpt lat="48.37958571445918" lon="-4.293418215854871"><ele>43.0</ele><time>2026-03-22T15:41:08Z</time></trkpt><trkpt lat="48.379562462574974" lon="-4.293513109166822"><ele>43.0</ele><time>2026-03-22T15:41:09Z</time></trkpt><trkpt lat="48.37956156119773" lon="-4.293615755396734"><ele>43.142857142857146</ele><time>2026-03-22T15:41:10Z</time></trkpt><trkpt lat="48.37955470934635" lon="-4.293720410827278"><ele>43.285714285714285</ele><time>2026-03-22T15:41:11Z</time></trkpt><trkpt lat="48.379547307601605" lon="-4.293824322081479"><ele>43.42857142857143</ele><time>2026-03-22T15:41:12Z</time></trkpt><trkpt lat="48.379522886673364" lon="-4.2939415827178165"><ele>43.57142857142857</ele><time>2026-03-22T15:41:13Z</time></trkpt><trkpt lat="48.37954184179032" lon="-4.294047988361107"><ele>43.714285714285715</ele><time>2026-03-22T15:41:14Z</time></trkpt><trkpt lat="48.37958251676205" lon="-4.294125479347977"><ele>43.85714285714286</ele><time>2026-03-22T15:41:15Z</time></trkpt><trkpt lat="48.37959885294936" lon="-4.294222514103217"><ele>44.0</ele><time>2026-03-22T15:41:16Z</time></trkpt><trkpt lat="48.37959488056041" lon="-4.294320602296684"><ele>44.0</ele><time>2026-03-22T15:41:17Z</time></trkpt><trkpt lat="48.379522531349636" lon="-4.294389090506594"><ele>44.0</ele><time>2026-03-22T15:41:18Z</time></trkpt><trkpt lat="48.37940131491556" lon="-4.294377679051585"><ele>44.0</ele><time>2026-03-22T15:41:20Z</time></trkpt><trkpt lat="48.37930659835545" lon="-4.294381886945021"><ele>44.0</ele><time>2026-03-22T15:41:22Z</time></trkpt><trkpt lat="48.3793244094466" lon="-4.294553158373955"><ele>44.0</ele><time>2026-03-22T15:41:23Z</time></trkpt><trkpt lat="48.3792744650692" lon="-4.294670784082695"><ele>44.0</ele><time>2026-03-22T15:41:27Z</time></trkpt><trkpt lat="48.37920216291243" lon="-4.294740789217909"><ele>44.0</ele><time>2026-03-22T15:41:29Z</time></trkpt><trkpt lat="48.37914704662455" lon="-4.2948694825980365"><ele>44.0</ele><time>2026-03-22T15:41:31Z</time></trkpt><trkpt lat="48.37913696015853" lon="-4.2949704137338465"><ele>44.0</ele><time>2026-03-22T15:41:32Z</time></trkpt><trkpt lat="48.379084068161696" lon="-4.295039735954531"><ele>44.0</ele><time>2026-03-22T15:41:33Z</time></trkpt><trkpt lat="48.37901113192032" lon="-4.295181374078731"><ele>44.0</ele><time>2026-03-22T15:41:35Z</time></trkpt><trkpt lat="48.378972652509376" lon="-4.295267468982453"><ele>43.75</ele><time>2026-03-22T15:41:36Z</time></trkpt><trkpt lat="48.3788866063149" lon="-4.295402870837449"><ele>43.5</ele><time>2026-03-22T15:41:38Z</time></trkpt><trkpt lat="48.3788210311606" lon="-4.295549652336807"><ele>43.25</ele><time>2026-03-22T15:41:40Z</time></trkpt><trkpt lat="48.378743369215115" lon="-4.295670710557322"><ele>43.0</ele><time>2026-03-22T15:41:42Z</time></trkpt><trkpt lat="48.37866855540923" lon="-4.295784639920223"><ele>42.199999999999996</ele><time>2026-03-22T15:41:44Z</time></trkpt><trkpt lat="48.37858308176122" lon="-4.29588506832057"><ele>41.4</ele><time>2026-03-22T15:41:46Z</time></trkpt><trkpt lat="48.37851672518321" lon="-4.2960095066710435"><ele>40.599999999999994</ele><time>2026-03-22T15:41:48Z</time></trkpt><trkpt lat="48.37844183092221" lon="-4.296120428142673"><ele>39.8</ele><time>2026-03-22T15:41:50Z</time></trkpt><trkpt lat="48.378379410670114" lon="-4.296213558806862"><ele>39.0</ele><time>2026-03-22T15:41:52Z</time></trkpt><trkpt lat="48.37832354589197" lon="-4.296298281656145"><ele>39.0</ele><time>2026-03-22T15:41:54Z</time></trkpt><trkpt lat="48.37827276092755" lon="-4.296375300606577"><ele>39.0</ele><time>2026-03-22T15:41:56Z</time></trkpt><trkpt lat="48.378217849699986" lon="-4.29643331159086"><ele>39.0</ele><time>2026-03-22T15:41:58Z</time></trkpt><trkpt lat="48.37816339031667" lon="-4.296541186153407"><ele>39.0</ele><time>2026-03-22T15:42:01Z</time></trkpt><trkpt lat="48.378110119451065" lon="-4.296622173824259"><ele>39.0</ele><time>2026-03-22T15:42:03Z</time></trkpt><trkpt lat="48.37804482446879" lon="-4.296712914740423"><ele>39.0</ele><time>2026-03-22T15:42:05Z</time></trkpt><trkpt lat="48.377980303529796" lon="-4.296806187669437"><ele>39.0</ele><time>2026-03-22T15:42:07Z</time></trkpt><trkpt lat="48.377911285320536" lon="-4.296920717351137"><ele>39.0</ele><time>2026-03-22T15:42:09Z</time></trkpt><trkpt lat="48.37784628937649" lon="-4.297039028609112"><ele>39.0</ele><time>2026-03-22T15:42:10.999Z</time></trkpt><trkpt lat="48.37778765096478" lon="-4.297155043139788"><ele>39.0</ele><time>2026-03-22T15:42:12.999Z</time></trkpt><trkpt lat="48.377732134209154" lon="-4.297282813237267"><ele>39.0</ele><time>2026-03-22T15:42:14.999Z</time></trkpt><trkpt lat="48.37767318408468" lon="-4.297399638080044"><ele>40.2</ele><time>2026-03-22T15:42:16.999Z</time></trkpt><trkpt lat="48.37761412630599" lon="-4.2975060973354005"><ele>41.4</ele><time>2026-03-22T15:42:18.999Z</time></trkpt><trkpt lat="48.37756190730297" lon="-4.297619783608989"><ele>42.6</ele><time>2026-03-22T15:42:20.999Z</time></trkpt><trkpt lat="48.37751156420949" lon="-4.297742906408797"><ele>43.8</ele><time>2026-03-22T15:42:22.999Z</time></trkpt><trkpt lat="48.37745946477099" lon="-4.297865439184855"><ele>45.0</ele><time>2026-03-22T15:42:24.999Z</time></trkpt><trkpt lat="48.37741091956114" lon="-4.298005448753219"><ele>44.4</ele><time>2026-03-22T15:42:26.999Z</time></trkpt><trkpt lat="48.3773628625925" lon="-4.298127018432999"><ele>43.8</ele><time>2026-03-22T15:42:28.999Z</time></trkpt><trkpt lat="48.377307158505964" lon="-4.2982602444805185"><ele>43.2</ele><time>2026-03-22T15:42:30.999Z</time></trkpt><trkpt lat="48.377252857837306" lon="-4.298397298360835"><ele>42.6</ele><time>2026-03-22T15:42:32.999Z</time></trkpt><trkpt lat="48.37719464023432" lon="-4.298532384075485"><ele>42.0</ele><time>2026-03-22T15:42:34.999Z</time></trkpt><trkpt lat="48.37715572930592" lon="-4.298620919345173"><ele>42.0</ele><time>2026-03-22T15:42:36.999Z</time></trkpt><trkpt lat="48.37713126427963" lon="-4.298710992791931"><ele>42.0</ele><time>2026-03-22T15:42:38.999Z</time></trkpt><trkpt lat="48.37709675172124" lon="-4.298818194041351"><ele>42.0</ele><time>2026-03-22T15:42:41.999Z</time></trkpt><trkpt lat="48.37705441982202" lon="-4.298901416970693"><ele>42.0</ele><time>2026-03-22T15:42:42.999Z</time></trkpt><trkpt lat="48.37700889548688" lon="-4.299012344382758"><ele>42.0</ele><time>2026-03-22T15:42:43.999Z</time></trkpt><trkpt lat="48.376971310462444" lon="-4.299094027220332"><ele>42.0</ele><time>2026-03-22T15:42:44.999Z</time></trkpt><trkpt lat="48.3769077037856" lon="-4.299232514433136"><ele>43.0</ele><time>2026-03-22T15:42:46.999Z</time></trkpt><trkpt lat="48.376855543333136" lon="-4.299377989226019"><ele>44.0</ele><time>2026-03-22T15:42:48.999Z</time></trkpt><trkpt lat="48.37680512523946" lon="-4.299542984953936"><ele>45.0</ele><time>2026-03-22T15:42:50.999Z</time></trkpt><trkpt lat="48.37674486504581" lon="-4.299674627571681"><ele>46.0</ele><time>2026-03-22T15:42:52.999Z</time></trkpt><trkpt lat="48.376690581907376" lon="-4.299788390407048"><ele>47.0</ele><time>2026-03-22T15:42:54.999Z</time></trkpt><trkpt lat="48.37665053944632" lon="-4.299931794661201"><ele>48.0</ele><time>2026-03-22T15:42:56.999Z</time></trkpt><trkpt lat="48.376611517743044" lon="-4.300044395749394"><ele>49.0</ele><time>2026-03-22T15:42:58.999Z</time></trkpt><trkpt lat="48.37657495130701" lon="-4.300124868907021"><ele>50.0</ele><time>2026-03-22T15:43:01.999Z</time></trkpt><trkpt lat="48.37652371822211" lon="-4.300183057574958"><ele>51.0</ele><time>2026-03-22T15:43:03.999Z</time></trkpt><trkpt lat="48.37646556023775" lon="-4.300266633887498"><ele>52.00000000000001</ele><time>2026-03-22T15:43:05.999Z</time></trkpt><trkpt lat="48.37642188048132" lon="-4.300391750573532"><ele>53.0</ele><time>2026-03-22T15:43:07.999Z</time></trkpt><trkpt lat="48.37636453041067" lon="-4.300495219464063"><ele>52.50000000000001</ele><time>2026-03-22T15:43:10Z</time></trkpt><trkpt lat="48.376323403960555" lon="-4.300611523965782"><ele>52.0</ele><time>2026-03-22T15:43:12Z</time></trkpt><trkpt lat="48.37628465728788" lon="-4.300715972821966"><ele>51.5</ele><time>2026-03-22T15:43:14Z</time></trkpt><trkpt lat="48.37623735274442" lon="-4.300808218272317"><ele>51.0</ele><time>2026-03-22T15:43:16Z</time></trkpt><trkpt lat="48.376187495615945" lon="-4.300923022305982"><ele>50.50000000000001</ele><time>2026-03-22T15:43:18Z</time></trkpt><trkpt lat="48.37615256396344" lon="-4.301043805821723"><ele>50.0</ele><time>2026-03-22T15:43:20Z</time></trkpt><trkpt lat="48.376116178934794" lon="-4.30113594590831"><ele>50.00000000000001</ele><time>2026-03-22T15:43:22Z</time></trkpt><trkpt lat="48.3760743078488" lon="-4.30123645176319"><ele>50.0</ele><time>2026-03-22T15:43:24Z</time></trkpt><trkpt lat="48.37601447680284" lon="-4.3012955755095055"><ele>50.0</ele><time>2026-03-22T15:43:27Z</time></trkpt><trkpt lat="48.3759551095649" lon="-4.301431657116556"><ele>50.0</ele><time>2026-03-22T15:43:30Z</time></trkpt><trkpt lat="48.37589398832944" lon="-4.301525867813692"><ele>50.00000000000001</ele><time>2026-03-22T15:43:33Z</time></trkpt><trkpt lat="48.375841019100434" lon="-4.301646253640783"><ele>50.0</ele><time>2026-03-22T15:43:36Z</time></trkpt><trkpt lat="48.37581114083564" lon="-4.301770928924655"><ele>51.16666666666667</ele><time>2026-03-22T15:43:38Z</time></trkpt><trkpt lat="48.37576956454978" lon="-4.301900383576988"><ele>52.333333333333336</ele><time>2026-03-22T15:43:41Z</time></trkpt><trkpt lat="48.375734517070214" lon="-4.301994945765571"><ele>53.5</ele><time>2026-03-22T15:43:43Z</time></trkpt><trkpt lat="48.375713998611566" lon="-4.302115131656527"><ele>54.66666666666667</ele><time>2026-03-22T15:43:45Z</time></trkpt><trkpt lat="48.375685200695365" lon="-4.302211478103785"><ele>55.833333333333336</ele><time>2026-03-22T15:43:48Z</time></trkpt><trkpt lat="48.37562900790911" lon="-4.302261489092124"><ele>57.0</ele><time>2026-03-22T15:43:49Z</time></trkpt><trkpt lat="48.3756322222034" lon="-4.3023772354232035"><ele>57.666666666666664</ele><time>2026-03-22T15:43:52Z</time></trkpt><trkpt lat="48.37561200108809" lon="-4.302503774995819"><ele>58.33333333333333</ele><time>2026-03-22T15:43:54Z</time></trkpt><trkpt lat="48.37559267699293" lon="-4.302640825251237"><ele>59.0</ele><time>2026-03-22T15:43:56Z</time></trkpt><trkpt lat="48.37558473818599" lon="-4.302750180513298"><ele>59.666666666666664</ele><time>2026-03-22T15:43:57Z</time></trkpt><trkpt lat="48.3755288882816" lon="-4.302893120200332"><ele>60.33333333333333</ele><time>2026-03-22T15:43:59Z</time></trkpt><trkpt lat="48.37548711415334" lon="-4.302974648037944"><ele>61.0</ele><time>2026-03-22T15:44:01Z</time></trkpt><trkpt lat="48.375448346059855" lon="-4.3030789788655674"><ele>60.166666666666664</ele><time>2026-03-22T15:44:03Z</time></trkpt><trkpt lat="48.375436084870664" lon="-4.303192972006653"><ele>59.33333333333333</ele><time>2026-03-22T15:44:04Z</time></trkpt><trkpt lat="48.37542400607258" lon="-4.303338197874554"><ele>58.5</ele><time>2026-03-22T15:44:07Z</time></trkpt><trkpt lat="48.375417839070366" lon="-4.303467379641454"><ele>57.66666666666667</ele><time>2026-03-22T15:44:09Z</time></trkpt><trkpt lat="48.37539032542713" lon="-4.3035897901221745"><ele>56.833333333333336</ele><time>2026-03-22T15:44:12Z</time></trkpt><trkpt lat="48.375387486899534" lon="-4.303691804454975"><ele>56.0</ele><time>2026-03-22T15:44:14Z</time></trkpt><trkpt lat="48.37537288791303" lon="-4.303801108780744"><ele>56.0</ele><time>2026-03-22T15:44:16Z</time></trkpt><trkpt lat="48.375360781708125" lon="-4.303905129302252"><ele>56.0</ele><time>2026-03-22T15:44:17.999Z</time></trkpt><trkpt lat="48.37533720155824" lon="-4.304006608282476"><ele>56.0</ele><time>2026-03-22T15:44:19.999Z</time></trkpt><trkpt lat="48.375349640123034" lon="-4.304102711237532"><ele>56.0</ele><time>2026-03-22T15:44:21.999Z</time></trkpt><trkpt lat="48.37535336928381" lon="-4.304232163346291"><ele>56.0</ele><time>2026-03-22T15:44:23.999Z</time></trkpt><trkpt lat="48.37534617316364" lon="-4.3043345141080795"><ele>56.0</ele><time>2026-03-22T15:44:24.999Z</time></trkpt><trkpt lat="48.37534387525251" lon="-4.304445728517892"><ele>56.0</ele><time>2026-03-22T15:44:25.999Z</time></trkpt><trkpt lat="48.37534542360568" lon="-4.3045556607368125"><ele>56.50000000000001</ele><time>2026-03-22T15:44:26.999Z</time></trkpt><trkpt lat="48.375345180788635" lon="-4.304659493483488"><ele>57.0</ele><time>2026-03-22T15:44:27.999Z</time></trkpt><trkpt lat="48.375350590613564" lon="-4.3047585402968975"><ele>57.5</ele><time>2026-03-22T15:44:28.999Z</time></trkpt><trkpt lat="48.375371809949115" lon="-4.304894545567901"><ele>58.0</ele><time>2026-03-22T15:44:29.999Z</time></trkpt><trkpt lat="48.37537707402788" lon="-4.305011711037423"><ele>58.50000000000001</ele><time>2026-03-22T15:44:30.999Z</time></trkpt><trkpt lat="48.37538978057476" lon="-4.305125221449652"><ele>59.0</ele><time>2026-03-22T15:44:31.999Z</time></trkpt><trkpt lat="48.375396258208575" lon="-4.305227416148504"><ele>59.0</ele><time>2026-03-22T15:44:32.999Z</time></trkpt><trkpt lat="48.375429429497544" lon="-4.30548232022137"><ele>59.00000000000001</ele><time>2026-03-22T15:44:34.999Z</time></trkpt><trkpt lat="48.37545188965547" lon="-4.3056854004577225"><ele>59.00000000000001</ele><time>2026-03-22T15:44:36.999Z</time></trkpt><trkpt lat="48.37548323021197" lon="-4.305782492823106"><ele>59.0</ele><time>2026-03-22T15:44:37.999Z</time></trkpt><trkpt lat="48.3755043382923" lon="-4.305875337644139"><ele>59.0</ele><time>2026-03-22T15:44:38.999Z</time></trkpt><trkpt lat="48.37551376630953" lon="-4.305974644529963"><ele>60.2</ele><time>2026-03-22T15:44:39.999Z</time></trkpt><trkpt lat="48.3755498383515" lon="-4.306124735370871"><ele>61.400000000000006</ele><time>2026-03-22T15:44:41.999Z</time></trkpt><trkpt lat="48.37557766506608" lon="-4.306270113423029"><ele>62.6</ele><time>2026-03-22T15:44:43.999Z</time></trkpt><trkpt lat="48.375626789955696" lon="-4.306396062932171"><ele>63.8</ele><time>2026-03-22T15:44:45.999Z</time></trkpt><trkpt lat="48.37565148403872" lon="-4.30651239059144"><ele>65.0</ele><time>2026-03-22T15:44:47.999Z</time></trkpt><trkpt lat="48.37572533601342" lon="-4.306647249555941"><ele>65.0</ele><time>2026-03-22T15:44:49.999Z</time></trkpt><trkpt lat="48.375765614046124" lon="-4.306783009978432"><ele>65.0</ele><time>2026-03-22T15:44:51.999Z</time></trkpt><trkpt lat="48.375816216604406" lon="-4.30691646501882"><ele>65.0</ele><time>2026-03-22T15:44:53.999Z</time></trkpt><trkpt lat="48.37586706168149" lon="-4.3070462341948"><ele>65.0</ele><time>2026-03-22T15:44:55.999Z</time></trkpt><trkpt lat="48.37591581168683" lon="-4.307154882439392"><ele>65.0</ele><time>2026-03-22T15:44:57.999Z</time></trkpt><trkpt lat="48.37596687652205" lon="-4.307257661795188"><ele>65.0</ele><time>2026-03-22T15:44:59.999Z</time></trkpt><trkpt lat="48.37601726178728" lon="-4.307365198130817"><ele>65.0</ele><time>2026-03-22T15:45:01.999Z</time></trkpt><trkpt lat="48.37605349249766" lon="-4.307468758169428"><ele>65.0</ele><time>2026-03-22T15:45:03.999Z</time></trkpt><trkpt lat="48.37609301322147" lon="-4.307576679032281"><ele>65.0</ele><time>2026-03-22T15:45:05.999Z</time></trkpt><trkpt lat="48.37624891035109" lon="-4.307818342395991"><ele>65.0</ele><time>2026-03-22T15:45:12.999Z</time></trkpt><trkpt lat="48.37633368396869" lon="-4.307924174409961"><ele>65.0</ele><time>2026-03-22T15:45:14.999Z</time></trkpt><trkpt lat="48.3764115756821" lon="-4.308021940174559"><ele>65.0</ele><time>2026-03-22T15:45:17Z</time></trkpt><trkpt lat="48.37647822128946" lon="-4.308135631478403"><ele>65.0</ele><time>2026-03-22T15:45:19Z</time></trkpt><trkpt lat="48.376515494752994" lon="-4.3082205383897545"><ele>65.0</ele><time>2026-03-22T15:45:22Z</time></trkpt><trkpt lat="48.376560548268756" lon="-4.308296004396048"><ele>65.0</ele><time>2026-03-22T15:45:24Z</time></trkpt><trkpt lat="48.376608767329216" lon="-4.308365854155097"><ele>65.16666666666667</ele><time>2026-03-22T15:45:26Z</time></trkpt><trkpt lat="48.376677551535046" lon="-4.30849714089318"><ele>65.33333333333334</ele><time>2026-03-22T15:45:29Z</time></trkpt><trkpt lat="48.376722707803985" lon="-4.3085754407560675"><ele>65.5</ele><time>2026-03-22T15:45:31Z</time></trkpt><trkpt lat="48.37676988615119" lon="-4.308653671053888"><ele>65.66666666666667</ele><time>2026-03-22T15:45:32Z</time></trkpt><trkpt lat="48.37681771428337" lon="-4.308727406278005"><ele>65.83333333333333</ele><time>2026-03-22T15:45:33Z</time></trkpt><trkpt lat="48.37684717692278" lon="-4.308816600547833"><ele>66.0</ele><time>2026-03-22T15:45:34Z</time></trkpt><trkpt lat="48.3769313862603" lon="-4.308827836776081"><ele>66.0</ele><time>2026-03-22T15:45:35Z</time></trkpt><trkpt lat="48.37697964812595" lon="-4.308908044055524"><ele>66.0</ele><time>2026-03-22T15:45:36Z</time></trkpt><trkpt lat="48.377025787234366" lon="-4.3090115341709705"><ele>66.0</ele><time>2026-03-22T15:45:37Z</time></trkpt><trkpt lat="48.37710432932205" lon="-4.309160529677959"><ele>66.0</ele><time>2026-03-22T15:45:39Z</time></trkpt><trkpt lat="48.37714604761382" lon="-4.309240486092542"><ele>66.0</ele><time>2026-03-22T15:45:40Z</time></trkpt><trkpt lat="48.377218791857494" lon="-4.309374626080701"><ele>65.83333333333333</ele><time>2026-03-22T15:45:42Z</time></trkpt><trkpt lat="48.377296439790285" lon="-4.309513818928506"><ele>65.66666666666667</ele><time>2026-03-22T15:45:44Z</time></trkpt><trkpt lat="48.37733089746382" lon="-4.309596983168028"><ele>65.5</ele><time>2026-03-22T15:45:45Z</time></trkpt><trkpt lat="48.37735241314979" lon="-4.3096937961037804"><ele>65.33333333333334</ele><time>2026-03-22T15:45:46Z</time></trkpt><trkpt lat="48.377426575061435" lon="-4.309837837426509"><ele>65.16666666666667</ele><time>2026-03-22T15:45:48Z</time></trkpt><trkpt lat="48.377465234381944" lon="-4.309916997988071"><ele>65.0</ele><time>2026-03-22T15:45:49Z</time></trkpt><trkpt lat="48.377526547876286" lon="-4.310071662319191"><ele>65.0</ele><time>2026-03-22T15:45:51Z</time></trkpt><trkpt lat="48.37758559459687" lon="-4.310211395766052"><ele>65.0</ele><time>2026-03-22T15:45:53Z</time></trkpt><trkpt lat="48.37761222436259" lon="-4.3102985573512616"><ele>65.0</ele><time>2026-03-22T15:45:55Z</time></trkpt><trkpt lat="48.37759466922594" lon="-4.310429308236594"><ele>65.0</ele><time>2026-03-22T15:45:57Z</time></trkpt><trkpt lat="48.377658307646996" lon="-4.310579380647912"><ele>65.0</ele><time>2026-03-22T15:46:50.999Z</time></trkpt><trkpt lat="48.377719414674075" lon="-4.310641974860138"><ele>64.83333333333334</ele><time>2026-03-22T15:46:54.999Z</time></trkpt><trkpt lat="48.37773368084473" lon="-4.3107609372048"><ele>64.66666666666667</ele><time>2026-03-22T15:46:56.999Z</time></trkpt><trkpt lat="48.37775563562208" lon="-4.310869872881381"><ele>64.5</ele><time>2026-03-22T15:46:58.999Z</time></trkpt><trkpt lat="48.377780042877525" lon="-4.310968140718714"><ele>64.33333333333333</ele><time>2026-03-22T15:47:00.999Z</time></trkpt><trkpt lat="48.377798492318675" lon="-4.31109186268185"><ele>64.16666666666666</ele><time>2026-03-22T15:47:02.999Z</time></trkpt><trkpt lat="48.37780274553321" lon="-4.31122818991712"><ele>64.0</ele><time>2026-03-22T15:47:05.999Z</time></trkpt><trkpt lat="48.37780807534178" lon="-4.31132742812605"><ele>64.16666666666666</ele><time>2026-03-22T15:47:07.999Z</time></trkpt><trkpt lat="48.377825178116275" lon="-4.31142847889552"><ele>64.33333333333333</ele><time>2026-03-22T15:47:09.999Z</time></trkpt><trkpt lat="48.37782536526449" lon="-4.3115347191102815"><ele>64.5</ele><time>2026-03-22T15:47:11.999Z</time></trkpt><trkpt lat="48.37782410090529" lon="-4.311656778769037"><ele>64.66666666666667</ele><time>2026-03-22T15:47:13.999Z</time></trkpt><trkpt lat="48.377822067680164" lon="-4.311827848834786"><ele>64.83333333333334</ele><time>2026-03-22T15:47:15.999Z</time></trkpt><trkpt lat="48.377852884323175" lon="-4.311980514745738"><ele>65.0</ele><time>2026-03-22T15:47:17.999Z</time></trkpt><trkpt lat="48.37786379319037" lon="-4.312165004988604"><ele>64.85714285714286</ele><time>2026-03-22T15:47:19.999Z</time></trkpt><trkpt lat="48.377867423048485" lon="-4.31226686946293"><ele>64.71428571428572</ele><time>2026-03-22T15:47:20.999Z</time></trkpt><trkpt lat="48.3778704057345" lon="-4.312373164471042"><ele>64.57142857142857</ele><time>2026-03-22T15:47:22Z</time></trkpt><trkpt lat="48.37787392437869" lon="-4.312478203852638"><ele>64.42857142857143</ele><time>2026-03-22T15:47:23Z</time></trkpt><trkpt lat="48.37788134102192" lon="-4.312592230005267"><ele>64.28571428571428</ele><time>2026-03-22T15:47:24Z</time></trkpt><trkpt lat="48.37789205359424" lon="-4.312710292289521"><ele>64.14285714285714</ele><time>2026-03-22T15:47:25Z</time></trkpt><trkpt lat="48.37790093946096" lon="-4.312832326220051"><ele>64.0</ele><time>2026-03-22T15:47:26Z</time></trkpt><trkpt lat="48.3779038006255" lon="-4.312951394226199"><ele>64.16666666666666</ele><time>2026-03-22T15:47:27Z</time></trkpt><trkpt lat="48.37791133808964" lon="-4.313075240060419"><ele>64.33333333333333</ele><time>2026-03-22T15:47:28Z</time></trkpt><trkpt lat="48.37792654697322" lon="-4.313193626871631"><ele>64.5</ele><time>2026-03-22T15:47:29Z</time></trkpt><trkpt lat="48.377926744976705" lon="-4.313328546476425"><ele>64.66666666666667</ele><time>2026-03-22T15:47:30Z</time></trkpt><trkpt lat="48.377934047911" lon="-4.313462716429736"><ele>64.83333333333334</ele><time>2026-03-22T15:47:31Z</time></trkpt><trkpt lat="48.37794149717706" lon="-4.313592111276725"><ele>65.0</ele><time>2026-03-22T15:47:32Z</time></trkpt><trkpt lat="48.37794085245642" lon="-4.313725742402513"><ele>65.0</ele><time>2026-03-22T15:47:33Z</time></trkpt><trkpt lat="48.377950098987974" lon="-4.313865779541566"><ele>65.0</ele><time>2026-03-22T15:47:34Z</time></trkpt><trkpt lat="48.377952602042676" lon="-4.314000337475913"><ele>65.0</ele><time>2026-03-22T15:47:35Z</time></trkpt><trkpt lat="48.37795443611958" lon="-4.314140101822089"><ele>65.0</ele><time>2026-03-22T15:47:36Z</time></trkpt><trkpt lat="48.377947697303824" lon="-4.314299409672307"><ele>65.0</ele><time>2026-03-22T15:47:37Z</time></trkpt><trkpt lat="48.37794815062567" lon="-4.314458136837914"><ele>64.8</ele><time>2026-03-22T15:47:38Z</time></trkpt><trkpt lat="48.377939697816494" lon="-4.314627461352188"><ele>64.6</ele><time>2026-03-22T15:47:39Z</time></trkpt><trkpt lat="48.377918771496866" lon="-4.314786765384554"><ele>64.4</ele><time>2026-03-22T15:47:40Z</time></trkpt><trkpt lat="48.37788839100199" lon="-4.31495618227563"><ele>64.2</ele><time>2026-03-22T15:47:41Z</time></trkpt><trkpt lat="48.377865604806416" lon="-4.315118626394127"><ele>64.0</ele><time>2026-03-22T15:47:42Z</time></trkpt><trkpt lat="48.37784517143885" lon="-4.31528574635773"><ele>63.5</ele><time>2026-03-22T15:47:43Z</time></trkpt><trkpt lat="48.37783363437702" lon="-4.315461598190644"><ele>63.0</ele><time>2026-03-22T15:47:44Z</time></trkpt><trkpt lat="48.377821950278076" lon="-4.315645495282343"><ele>62.5</ele><time>2026-03-22T15:47:45Z</time></trkpt><trkpt lat="48.3778085203321" lon="-4.315832804445444"><ele>62.0</ele><time>2026-03-22T15:47:46Z</time></trkpt><trkpt lat="48.377814860074345" lon="-4.316015217784693"><ele>60.0</ele><time>2026-03-22T15:47:47Z</time></trkpt><trkpt lat="48.37781867463086" lon="-4.316197196912445"><ele>58.0</ele><time>2026-03-22T15:47:48Z</time></trkpt><trkpt lat="48.37782866269353" lon="-4.316375202356353"><ele>56.0</ele><time>2026-03-22T15:47:49Z</time></trkpt><trkpt lat="48.37784237091788" lon="-4.316550264850933"><ele>54.0</ele><time>2026-03-22T15:47:50Z</time></trkpt><trkpt lat="48.377861821927105" lon="-4.316730999438471"><ele>53.75</ele><time>2026-03-22T15:47:51Z</time></trkpt><trkpt lat="48.377878495704316" lon="-4.316904121108998"><ele>53.5</ele><time>2026-03-22T15:47:52Z</time></trkpt><trkpt lat="48.3778936034941" lon="-4.317088939364066"><ele>53.25</ele><time>2026-03-22T15:47:53Z</time></trkpt><trkpt lat="48.377902275270934" lon="-4.317261619415647"><ele>53.0</ele><time>2026-03-22T15:47:54Z</time></trkpt><trkpt lat="48.37791544327081" lon="-4.317440929609907"><ele>52.75</ele><time>2026-03-22T15:47:55Z</time></trkpt><trkpt lat="48.37792589180075" lon="-4.317618532452696"><ele>52.5</ele><time>2026-03-22T15:47:56Z</time></trkpt><trkpt lat="48.37794433101159" lon="-4.317795661331658"><ele>52.25</ele><time>2026-03-22T15:47:57Z</time></trkpt><trkpt lat="48.37796045339079" lon="-4.31797090934922"><ele>52.0</ele><time>2026-03-22T15:47:58Z</time></trkpt><trkpt lat="48.37796929874066" lon="-4.3181485210155195"><ele>51.5</ele><time>2026-03-22T15:47:59Z</time></trkpt><trkpt lat="48.377978636070495" lon="-4.318326871709651"><ele>51.0</ele><time>2026-03-22T15:48:00Z</time></trkpt><trkpt lat="48.37799036040766" lon="-4.318510820492345"><ele>50.5</ele><time>2026-03-22T15:48:01Z</time></trkpt><trkpt lat="48.37800445549572" lon="-4.318687492513208"><ele>50.0</ele><time>2026-03-22T15:48:02Z</time></trkpt><trkpt lat="48.378017367125636" lon="-4.318858478354277"><ele>47.25</ele><time>2026-03-22T15:48:03Z</time></trkpt><trkpt lat="48.37803380320932" lon="-4.319040800268466"><ele>44.5</ele><time>2026-03-22T15:48:04Z</time></trkpt><trkpt lat="48.37805799301951" lon="-4.319223653324747"><ele>41.75</ele><time>2026-03-22T15:48:05Z</time></trkpt><trkpt lat="48.378081709386485" lon="-4.319403791355247"><ele>39.0</ele><time>2026-03-22T15:48:06Z</time></trkpt><trkpt lat="48.37811889680375" lon="-4.3195700206806675"><ele>39.0</ele><time>2026-03-22T15:48:07Z</time></trkpt><trkpt lat="48.37817068335904" lon="-4.319729749108615"><ele>39.0</ele><time>2026-03-22T15:48:08Z</time></trkpt><trkpt lat="48.3782187258826" lon="-4.319890026991053"><ele>39.0</ele><time>2026-03-22T15:48:09Z</time></trkpt><trkpt lat="48.378259231481536" lon="-4.320052892522832"><ele>39.0</ele><time>2026-03-22T15:48:10Z</time></trkpt><trkpt lat="48.378307777955634" lon="-4.320208481213603"><ele>38.8</ele><time>2026-03-22T15:48:11Z</time></trkpt><trkpt lat="48.37835797811935" lon="-4.320353843417516"><ele>38.599999999999994</ele><time>2026-03-22T15:48:12Z</time></trkpt><trkpt lat="48.378413283124026" lon="-4.320488572594307"><ele>38.4</ele><time>2026-03-22T15:48:13Z</time></trkpt><trkpt lat="48.378475144912365" lon="-4.32061992890082"><ele>38.199999999999996</ele><time>2026-03-22T15:48:14Z</time></trkpt><trkpt lat="48.37853903958618" lon="-4.3207451353507516"><ele>38.0</ele><time>2026-03-22T15:48:15Z</time></trkpt><trkpt lat="48.378591176076824" lon="-4.320867767838471"><ele>37.6</ele><time>2026-03-22T15:48:16Z</time></trkpt><trkpt lat="48.37863297687144" lon="-4.320992478970121"><ele>37.199999999999996</ele><time>2026-03-22T15:48:17Z</time></trkpt><trkpt lat="48.37871413439688" lon="-4.321089838417618"><ele>36.8</ele><time>2026-03-22T15:48:18Z</time></trkpt><trkpt lat="48.37876006880889" lon="-4.321199731766588"><ele>36.4</ele><time>2026-03-22T15:48:19Z</time></trkpt><trkpt lat="48.37880550841229" lon="-4.3213102982960905"><ele>36.0</ele><time>2026-03-22T15:48:20Z</time></trkpt><trkpt lat="48.378850524287444" lon="-4.3214167534078305"><ele>36.714285714285715</ele><time>2026-03-22T15:48:21Z</time></trkpt><trkpt lat="48.37888800539676" lon="-4.321530737823503"><ele>37.42857142857143</ele><time>2026-03-22T15:48:22Z</time></trkpt><trkpt lat="48.378922246354456" lon="-4.321643789413926"><ele>38.14285714285714</ele><time>2026-03-22T15:48:23Z</time></trkpt><trkpt lat="48.37895449710969" lon="-4.321740429534002"><ele>38.85714285714286</ele><time>2026-03-22T15:48:24Z</time></trkpt><trkpt lat="48.3789845649461" lon="-4.321833230645288"><ele>39.57142857142857</ele><time>2026-03-22T15:48:25Z</time></trkpt><trkpt lat="48.37900404556644" lon="-4.321933485217847"><ele>40.285714285714285</ele><time>2026-03-22T15:48:26Z</time></trkpt><trkpt lat="48.379021996357245" lon="-4.322026400631706"><ele>41.0</ele><time>2026-03-22T15:48:27Z</time></trkpt><trkpt lat="48.37903888239977" lon="-4.322119547457814"><ele>41.0</ele><time>2026-03-22T15:48:28Z</time></trkpt><trkpt lat="48.37907060200364" lon="-4.32221170180307"><ele>41.0</ele><time>2026-03-22T15:48:29Z</time></trkpt><trkpt lat="48.37909934728822" lon="-4.322383058501447"><ele>41.0</ele><time>2026-03-22T15:48:30.999Z</time></trkpt><trkpt lat="48.37912903343734" lon="-4.322559510381306"><ele>41.0</ele><time>2026-03-22T15:48:32.999Z</time></trkpt><trkpt lat="48.37913001145393" lon="-4.322721331037618"><ele>41.0</ele><time>2026-03-22T15:48:34.999Z</time></trkpt><trkpt lat="48.37914797414328" lon="-4.322887107023118"><ele>40.8</ele><time>2026-03-22T15:48:36.999Z</time></trkpt><trkpt lat="48.379155854395655" lon="-4.323061873881702"><ele>40.599999999999994</ele><time>2026-03-22T15:48:38.999Z</time></trkpt><trkpt lat="48.379163538627175" lon="-4.323219618900355"><ele>40.4</ele><time>2026-03-22T15:48:40.999Z</time></trkpt><trkpt lat="48.379168794162844" lon="-4.323391886430895"><ele>40.2</ele><time>2026-03-22T15:48:42.999Z</time></trkpt><trkpt lat="48.37918268753717" lon="-4.32354992463022"><ele>40.0</ele><time>2026-03-22T15:48:44.999Z</time></trkpt><trkpt lat="48.379188484281045" lon="-4.323697623500124"><ele>40.0</ele><time>2026-03-22T15:48:46.999Z</time></trkpt><trkpt lat="48.379185222374254" lon="-4.323805293574497"><ele>40.0</ele><time>2026-03-22T15:48:49.999Z</time></trkpt><trkpt lat="48.37916920822703" lon="-4.323907432045891"><ele>40.0</ele><time>2026-03-22T15:48:52.999Z</time></trkpt><trkpt lat="48.37918299897167" lon="-4.324069652525429"><ele>40.0</ele><time>2026-03-22T15:48:54.999Z</time></trkpt><trkpt lat="48.37918147098961" lon="-4.3241746425350405"><ele>40.0</ele><time>2026-03-22T15:48:55.999Z</time></trkpt><trkpt lat="48.37918421693517" lon="-4.324277700026348"><ele>40.0</ele><time>2026-03-22T15:48:56.999Z</time></trkpt><trkpt lat="48.379175550425465" lon="-4.3243884418644685"><ele>40.2</ele><time>2026-03-22T15:48:57.999Z</time></trkpt><trkpt lat="48.3791814033392" lon="-4.324567065371274"><ele>40.4</ele><time>2026-03-22T15:48:59.999Z</time></trkpt><trkpt lat="48.37916652635426" lon="-4.32468381939548"><ele>40.599999999999994</ele><time>2026-03-22T15:49:03.999Z</time></trkpt><trkpt lat="48.379155433873194" lon="-4.324860962483449"><ele>40.8</ele><time>2026-03-22T15:49:06.999Z</time></trkpt><trkpt lat="48.379145489515544" lon="-4.324969780607056"><ele>41.0</ele><time>2026-03-22T15:49:09.999Z</time></trkpt><trkpt lat="48.3791536703345" lon="-4.325109327230512"><ele>41.33333333333333</ele><time>2026-03-22T15:49:12.999Z</time></trkpt><trkpt lat="48.37915763313245" lon="-4.325241849620057"><ele>41.666666666666664</ele><time>2026-03-22T15:49:14.999Z</time></trkpt><trkpt lat="48.37913150733114" lon="-4.325352764514041"><ele>42.0</ele><time>2026-03-22T15:49:16.999Z</time></trkpt><trkpt lat="48.37915232438078" lon="-4.325462581513527"><ele>42.333333333333336</ele><time>2026-03-22T15:49:18.999Z</time></trkpt><trkpt lat="48.379175128719396" lon="-4.325601386742856"><ele>42.66666666666667</ele><time>2026-03-22T15:49:20.999Z</time></trkpt><trkpt lat="48.37919863229173" lon="-4.325711256590497"><ele>43.0</ele><time>2026-03-22T15:49:22.999Z</time></trkpt><trkpt lat="48.379202813789924" lon="-4.32583301925298"><ele>43.57142857142858</ele><time>2026-03-22T15:49:24.999Z</time></trkpt><trkpt lat="48.37921217429375" lon="-4.325946013752551"><ele>44.142857142857146</ele><time>2026-03-22T15:49:28Z</time></trkpt><trkpt lat="48.37922562149767" lon="-4.326050768511142"><ele>44.714285714285715</ele><time>2026-03-22T15:49:30Z</time></trkpt><trkpt lat="48.37923180418402" lon="-4.326157266805823"><ele>45.28571428571429</ele><time>2026-03-22T15:49:31Z</time></trkpt><trkpt lat="48.3792292948151" lon="-4.326288932424877"><ele>45.857142857142854</ele><time>2026-03-22T15:49:33Z</time></trkpt><trkpt lat="48.37925652299254" lon="-4.326378225826617"><ele>46.42857142857143</ele><time>2026-03-22T15:49:35Z</time></trkpt><trkpt lat="48.37924270119409" lon="-4.326494214361297"><ele>47.0</ele><time>2026-03-22T15:49:37Z</time></trkpt><trkpt lat="48.37924153804426" lon="-4.326606295973408"><ele>47.33333333333333</ele><time>2026-03-22T15:49:39Z</time></trkpt><trkpt lat="48.379237301395484" lon="-4.326705060139341"><ele>47.666666666666664</ele><time>2026-03-22T15:49:41Z</time></trkpt><trkpt lat="48.379255624614416" lon="-4.32687602842265"><ele>48.0</ele><time>2026-03-22T15:49:43Z</time></trkpt><trkpt lat="48.37928009517108" lon="-4.327019349835379"><ele>48.33333333333333</ele><time>2026-03-22T15:49:45Z</time></trkpt><trkpt lat="48.37930695873107" lon="-4.327140419571949"><ele>48.666666666666664</ele><time>2026-03-22T15:49:48Z</time></trkpt><trkpt lat="48.3793451675928" lon="-4.327249375903368"><ele>49.0</ele><time>2026-03-22T15:49:51Z</time></trkpt><trkpt lat="48.37937475838058" lon="-4.327371115917335"><ele>49.33333333333333</ele><time>2026-03-22T15:49:54Z</time></trkpt><trkpt lat="48.379391203629346" lon="-4.3274688092771"><ele>49.666666666666664</ele><time>2026-03-22T15:49:56Z</time></trkpt><trkpt lat="48.37942859974845" lon="-4.327592862555288"><ele>50.0</ele><time>2026-03-22T15:49:59Z</time></trkpt><trkpt lat="48.37945935193876" lon="-4.327723396683673"><ele>50.33333333333333</ele><time>2026-03-22T15:50:02Z</time></trkpt><trkpt lat="48.37951617197758" lon="-4.327832441960205"><ele>50.666666666666664</ele><time>2026-03-22T15:50:05Z</time></trkpt><trkpt lat="48.37954114050996" lon="-4.327966146046459"><ele>51.0</ele><time>2026-03-22T15:50:08Z</time></trkpt><trkpt lat="48.379615081617644" lon="-4.328063042100205"><ele>51.0</ele><time>2026-03-22T15:50:11Z</time></trkpt><trkpt lat="48.37964890655635" lon="-4.328186755474565"><ele>51.0</ele><time>2026-03-22T15:50:14Z</time></trkpt><trkpt lat="48.37967370012994" lon="-4.328311172419129"><ele>51.0</ele><time>2026-03-22T15:50:17Z</time></trkpt><trkpt lat="48.37969808374881" lon="-4.328439054255303"><ele>51.0</ele><time>2026-03-22T15:50:20Z</time></trkpt><trkpt lat="48.379711985017856" lon="-4.3285688151044965"><ele>51.0</ele><time>2026-03-22T15:50:23Z</time></trkpt><trkpt lat="48.37974407434812" lon="-4.328689563075911"><ele>51.0</ele><time>2026-03-22T15:50:26Z</time></trkpt><trkpt lat="48.379790648643905" lon="-4.328784038464828"><ele>50.833333333333336</ele><time>2026-03-22T15:50:29Z</time></trkpt><trkpt lat="48.37983677028128" lon="-4.328900611215745"><ele>50.66666666666667</ele><time>2026-03-22T15:50:32Z</time></trkpt><trkpt lat="48.37987503505855" lon="-4.329008065421039"><ele>50.5</ele><time>2026-03-22T15:50:35Z</time></trkpt><trkpt lat="48.379884313111305" lon="-4.329109126377807"><ele>50.333333333333336</ele><time>2026-03-22T15:50:36.999Z</time></trkpt><trkpt lat="48.37993552842898" lon="-4.329168858513375"><ele>50.16666666666667</ele><time>2026-03-22T15:50:38.999Z</time></trkpt><trkpt lat="48.37999541187342" lon="-4.329254007979378"><ele>50.0</ele><time>2026-03-22T15:50:41.999Z</time></trkpt><trkpt lat="48.380060960296085" lon="-4.329379539030789"><ele>50.0</ele><time>2026-03-22T15:50:43.999Z</time></trkpt><trkpt lat="48.38014120562056" lon="-4.329483695269248"><ele>50.0</ele><time>2026-03-22T15:50:45.999Z</time></trkpt><trkpt lat="48.3802129610377" lon="-4.329572065575139"><ele>50.0</ele><time>2026-03-22T15:50:47.999Z</time></trkpt><trkpt lat="48.38028646243502" lon="-4.329673578201089"><ele>50.0</ele><time>2026-03-22T15:50:49.999Z</time></trkpt><trkpt lat="48.380353169810085" lon="-4.32977247812847"><ele>50.0</ele><time>2026-03-22T15:50:51.999Z</time></trkpt><trkpt lat="48.380430079619046" lon="-4.3298624303894995"><ele>49.6</ele><time>2026-03-22T15:50:53.999Z</time></trkpt><trkpt lat="48.380507076988756" lon="-4.329952370672827"><ele>49.2</ele><time>2026-03-22T15:50:55.999Z</time></trkpt><trkpt lat="48.380604258731914" lon="-4.3300446445937055"><ele>48.8</ele><time>2026-03-22T15:50:57.999Z</time></trkpt><trkpt lat="48.38067143295727" lon="-4.330139896660033"><ele>48.4</ele><time>2026-03-22T15:50:59.999Z</time></trkpt><trkpt lat="48.38076192360694" lon="-4.330226345974671"><ele>48.0</ele><time>2026-03-22T15:51:01.999Z</time></trkpt><trkpt lat="48.38083916932708" lon="-4.330329169895322"><ele>49.666666666666664</ele><time>2026-03-22T15:51:03.999Z</time></trkpt><trkpt lat="48.3808876290595" lon="-4.330435760751554"><ele>51.33333333333333</ele><time>2026-03-22T15:51:05.999Z</time></trkpt><trkpt lat="48.38093567071699" lon="-4.330546191343662"><ele>53.0</ele><time>2026-03-22T15:51:07.999Z</time></trkpt><trkpt lat="48.380990021707355" lon="-4.330672530495164"><ele>54.666666666666664</ele><time>2026-03-22T15:51:09.999Z</time></trkpt><trkpt lat="48.38102256075646" lon="-4.3307692266885285"><ele>56.33333333333333</ele><time>2026-03-22T15:51:11.999Z</time></trkpt><trkpt lat="48.38109064176341" lon="-4.330857316158889"><ele>58.0</ele><time>2026-03-22T15:51:13.999Z</time></trkpt><trkpt lat="48.3811720821515" lon="-4.330966850445583"><ele>57.99999999999999</ele><time>2026-03-22T15:51:16.999Z</time></trkpt><trkpt lat="48.38122028270999" lon="-4.331101883986967"><ele>58.0</ele><time>2026-03-22T15:51:18.999Z</time></trkpt><trkpt lat="48.38125409922004" lon="-4.331188866878303"><ele>58.0</ele><time>2026-03-22T15:51:20.999Z</time></trkpt><trkpt lat="48.38129860710459" lon="-4.331272760637751"><ele>58.0</ele><time>2026-03-22T15:51:23.999Z</time></trkpt><trkpt lat="48.38133460628568" lon="-4.331363328851225"><ele>57.99999999999999</ele><time>2026-03-22T15:51:25.999Z</time></trkpt><trkpt lat="48.38137052440007" lon="-4.331462892591888"><ele>58.0</ele><time>2026-03-22T15:51:27.999Z</time></trkpt><trkpt lat="48.381405767736524" lon="-4.331552408926704"><ele>59.49999999999999</ele><time>2026-03-22T15:51:30.999Z</time></trkpt><trkpt lat="48.38143413013969" lon="-4.3316986443788466"><ele>61.0</ele><time>2026-03-22T15:51:34Z</time></trkpt><trkpt lat="48.38146305988563" lon="-4.33180145166031"><ele>62.5</ele><time>2026-03-22T15:51:36Z</time></trkpt><trkpt lat="48.38149965588723" lon="-4.331883939848259"><ele>64.0</ele><time>2026-03-22T15:51:38Z</time></trkpt><trkpt lat="48.381511557885716" lon="-4.33197760789108"><ele>65.5</ele><time>2026-03-22T15:51:40Z</time></trkpt><trkpt lat="48.381557942205895" lon="-4.332053577119426"><ele>67.0</ele><time>2026-03-22T15:51:42Z</time></trkpt><trkpt lat="48.38160775042943" lon="-4.332197577485984"><ele>66.33333333333333</ele><time>2026-03-22T15:51:44Z</time></trkpt><trkpt lat="48.38164360642946" lon="-4.332275872625362"><ele>65.66666666666666</ele><time>2026-03-22T15:51:46Z</time></trkpt><trkpt lat="48.38166030904001" lon="-4.33238320454688"><ele>65.0</ele><time>2026-03-22T15:51:48Z</time></trkpt><trkpt lat="48.38170253958777" lon="-4.3325024429789725"><ele>64.33333333333333</ele><time>2026-03-22T15:51:51Z</time></trkpt><trkpt lat="48.38173221398385" lon="-4.3326408945242685"><ele>63.666666666666664</ele><time>2026-03-22T15:51:54Z</time></trkpt><trkpt lat="48.38176413315195" lon="-4.332723763106851"><ele>63.0</ele><time>2026-03-22T15:51:56Z</time></trkpt><trkpt lat="48.38185736799934" lon="-4.332860228477482"><ele>63.0</ele><time>2026-03-22T15:51:58Z</time></trkpt><trkpt lat="48.38190414095021" lon="-4.3329513026958315"><ele>63.0</ele><time>2026-03-22T15:52:01Z</time></trkpt><trkpt lat="48.38194261600952" lon="-4.333036859163737"><ele>63.0</ele><time>2026-03-22T15:52:02Z</time></trkpt><trkpt lat="48.38198393435431" lon="-4.333143564574555"><ele>63.0</ele><time>2026-03-22T15:52:03Z</time></trkpt><trkpt lat="48.382054881569964" lon="-4.333296471928741"><ele>63.0</ele><time>2026-03-22T15:52:05Z</time></trkpt><trkpt lat="48.38209488550083" lon="-4.333376963800823"><ele>63.0</ele><time>2026-03-22T15:52:06Z</time></trkpt><trkpt lat="48.38212775999622" lon="-4.333520410053916"><ele>62.75</ele><time>2026-03-22T15:52:09Z</time></trkpt><trkpt lat="48.38216643641014" lon="-4.333646911197067"><ele>62.5</ele><time>2026-03-22T15:52:12Z</time></trkpt><trkpt lat="48.38219560829855" lon="-4.333738805937538"><ele>62.25</ele><time>2026-03-22T15:52:13Z</time></trkpt><trkpt lat="48.382403902863" lon="-4.333812630008801"><ele>62.0</ele><time>2026-03-22T15:52:17Z</time></trkpt><trkpt lat="48.382445575049246" lon="-4.333952379379754"><ele>62.50000000000001</ele><time>2026-03-22T15:52:21Z</time></trkpt><trkpt lat="48.382474970504276" lon="-4.334054547478764"><ele>63.0</ele><time>2026-03-22T15:52:23Z</time></trkpt><trkpt lat="48.382505112639194" lon="-4.334158352910317"><ele>63.5</ele><time>2026-03-22T15:52:26Z</time></trkpt><trkpt lat="48.382539622792876" lon="-4.334284362414628"><ele>64.0</ele><time>2026-03-22T15:52:28Z</time></trkpt><trkpt lat="48.38256013399717" lon="-4.334397885276821"><ele>64.5</ele><time>2026-03-22T15:52:31Z</time></trkpt><trkpt lat="48.382586209996994" lon="-4.33450581901923"><ele>65.0</ele><time>2026-03-22T15:52:32Z</time></trkpt><trkpt lat="48.38259894516788" lon="-4.334611062809339"><ele>66.5</ele><time>2026-03-22T15:52:35Z</time></trkpt><trkpt lat="48.3821978239275" lon="-4.334806832153655"><ele>68.0</ele><time>2026-03-22T15:52:37Z</time></trkpt><trkpt lat="48.38223446875483" lon="-4.334970608207055"><ele>68.0</ele><time>2026-03-22T15:52:40Z</time></trkpt><trkpt lat="48.38223312053883" lon="-4.335087697335407"><ele>68.0</ele><time>2026-03-22T15:52:42.999Z</time></trkpt><trkpt lat="48.38222606771259" lon="-4.335195708987394"><ele>68.0</ele><time>2026-03-22T15:52:44.999Z</time></trkpt><trkpt lat="48.3822018121908" lon="-4.3353027910895365"><ele>68.0</ele><time>2026-03-22T15:52:47.999Z</time></trkpt><trkpt lat="48.382179087572226" lon="-4.335414369435239"><ele>68.0</ele><time>2026-03-22T15:52:50.999Z</time></trkpt><trkpt lat="48.382104126385535" lon="-4.335535789172571"><ele>68.0</ele><time>2026-03-22T15:52:52.999Z</time></trkpt><trkpt lat="48.38208741682098" lon="-4.335649123754551"><ele>67.6</ele><time>2026-03-22T15:52:54.999Z</time></trkpt><trkpt lat="48.38209492278251" lon="-4.335771406247801"><ele>67.19999999999999</ele><time>2026-03-22T15:52:56.999Z</time></trkpt><trkpt lat="48.382042078659765" lon="-4.335913962945958"><ele>66.8</ele><time>2026-03-22T15:52:58.999Z</time></trkpt><trkpt lat="48.38200875527387" lon="-4.3360273585979066"><ele>66.39999999999999</ele><time>2026-03-22T15:53:00.999Z</time></trkpt><trkpt lat="48.38196344726114" lon="-4.336185132086164"><ele>66.0</ele><time>2026-03-22T15:53:02.999Z</time></trkpt><trkpt lat="48.38192363247451" lon="-4.336324663680044"><ele>67.2</ele><time>2026-03-22T15:53:04.999Z</time></trkpt><trkpt lat="48.38188130045906" lon="-4.336462834253038"><ele>68.39999999999999</ele><time>2026-03-22T15:53:06.999Z</time></trkpt><trkpt lat="48.381854149282155" lon="-4.33659110321312"><ele>69.6</ele><time>2026-03-22T15:53:08.999Z</time></trkpt><trkpt lat="48.38182349639011" lon="-4.33673019671287"><ele>70.8</ele><time>2026-03-22T15:53:10.999Z</time></trkpt><trkpt lat="48.3817820448177" lon="-4.336848425829926"><ele>72.0</ele><time>2026-03-22T15:53:12.999Z</time></trkpt><trkpt lat="48.381739461791845" lon="-4.3370168958699615"><ele>72.0</ele><time>2026-03-22T15:53:14.999Z</time></trkpt><trkpt lat="48.38170307116743" lon="-4.3371211944425205"><ele>72.0</ele><time>2026-03-22T15:53:16.999Z</time></trkpt><trkpt lat="48.38167602074925" lon="-4.3372445145583844"><ele>72.0</ele><time>2026-03-22T15:53:18.999Z</time></trkpt><trkpt lat="48.381646775626535" lon="-4.337347733137654"><ele>72.0</ele><time>2026-03-22T15:53:20.999Z</time></trkpt><trkpt lat="48.381614563093635" lon="-4.3374869155604685"><ele>72.0</ele><time>2026-03-22T15:53:22.999Z</time></trkpt><trkpt lat="48.381607050815404" lon="-4.337613488060854"><ele>72.0</ele><time>2026-03-22T15:53:24.999Z</time></trkpt><trkpt lat="48.38158049339331" lon="-4.337744004747342"><ele>72.83333333333333</ele><time>2026-03-22T15:53:26.999Z</time></trkpt><trkpt lat="48.38156398454649" lon="-4.337864574533439"><ele>73.66666666666667</ele><time>2026-03-22T15:53:28.999Z</time></trkpt><trkpt lat="48.381538437888004" lon="-4.337980177730034"><ele>74.5</ele><time>2026-03-22T15:53:30.999Z</time></trkpt><trkpt lat="48.38151030454947" lon="-4.338105454982057"><ele>75.33333333333334</ele><time>2026-03-22T15:53:32.999Z</time></trkpt><trkpt lat="48.38149694185774" lon="-4.338217492135826"><ele>76.16666666666667</ele><time>2026-03-22T15:53:34.999Z</time></trkpt><trkpt lat="48.381495285173976" lon="-4.3383505844670935"><ele>77.0</ele><time>2026-03-22T15:53:36.999Z</time></trkpt><trkpt lat="48.38150621473556" lon="-4.338476307260961"><ele>77.6</ele><time>2026-03-22T15:53:38.999Z</time></trkpt><trkpt lat="48.38150084478575" lon="-4.3386289457105"><ele>78.2</ele><time>2026-03-22T15:53:41Z</time></trkpt><trkpt lat="48.38150132971068" lon="-4.338775108522066"><ele>78.8</ele><time>2026-03-22T15:53:43Z</time></trkpt><trkpt lat="48.38150953362895" lon="-4.338929777155944"><ele>79.4</ele><time>2026-03-22T15:53:45Z</time></trkpt><trkpt lat="48.38149698388471" lon="-4.339074341898496"><ele>80.0</ele><time>2026-03-22T15:53:47Z</time></trkpt><trkpt lat="48.381463660005" lon="-4.339194996525597"><ele>80.6</ele><time>2026-03-22T15:53:49Z</time></trkpt><trkpt lat="48.38144539180663" lon="-4.3393036411725046"><ele>81.2</ele><time>2026-03-22T15:53:51Z</time></trkpt><trkpt lat="48.381432411916485" lon="-4.339472448666797"><ele>81.80000000000001</ele><time>2026-03-22T15:53:53Z</time></trkpt><trkpt lat="48.38141963259782" lon="-4.339629604945943"><ele>82.4</ele><time>2026-03-22T15:53:55Z</time></trkpt><trkpt lat="48.38138452131515" lon="-4.339771472536261"><ele>83.0</ele><time>2026-03-22T15:53:57Z</time></trkpt><trkpt lat="48.38137840503933" lon="-4.339900760081907"><ele>83.5</ele><time>2026-03-22T15:53:59Z</time></trkpt><trkpt lat="48.38138480050266" lon="-4.340003847437001"><ele>84.0</ele><time>2026-03-22T15:54:01Z</time></trkpt><trkpt lat="48.38138766542349" lon="-4.3401231945849235"><ele>84.5</ele><time>2026-03-22T15:54:03Z</time></trkpt><trkpt lat="48.38138478781726" lon="-4.340241166961137"><ele>85.0</ele><time>2026-03-22T15:54:05Z</time></trkpt><trkpt lat="48.38137839553005" lon="-4.340346691262441"><ele>85.5</ele><time>2026-03-22T15:54:07Z</time></trkpt><trkpt lat="48.38138500331642" lon="-4.340476219406515"><ele>86.0</ele><time>2026-03-22T15:54:10Z</time></trkpt><trkpt lat="48.38139822035018" lon="-4.340579478399958"><ele>86.4</ele><time>2026-03-22T15:54:12Z</time></trkpt><trkpt lat="48.38138924480099" lon="-4.3406915268019555"><ele>86.8</ele><time>2026-03-22T15:54:15Z</time></trkpt><trkpt lat="48.38141271101999" lon="-4.340842656583126"><ele>87.2</ele><time>2026-03-22T15:54:18Z</time></trkpt><trkpt lat="48.38141818115793" lon="-4.341008873516755"><ele>87.60000000000001</ele><time>2026-03-22T15:54:20Z</time></trkpt><trkpt lat="48.381418642055834" lon="-4.3411127405196686"><ele>88.0</ele><time>2026-03-22T15:54:23Z</time></trkpt><trkpt lat="48.381432683046796" lon="-4.341280401283616"><ele>88.33333333333333</ele><time>2026-03-22T15:54:26Z</time></trkpt><trkpt lat="48.381435741544855" lon="-4.341443898044636"><ele>88.66666666666666</ele><time>2026-03-22T15:54:28Z</time></trkpt><trkpt lat="48.381433720101754" lon="-4.341581084708951"><ele>89.0</ele><time>2026-03-22T15:54:30Z</time></trkpt><trkpt lat="48.38142176862385" lon="-4.341717158343295"><ele>89.33333333333333</ele><time>2026-03-22T15:54:33Z</time></trkpt><trkpt lat="48.381399515515206" lon="-4.341818631401569"><ele>89.66666666666667</ele><time>2026-03-22T15:54:34Z</time></trkpt><trkpt lat="48.38139352267798" lon="-4.34194920864703"><ele>90.0</ele><time>2026-03-22T15:54:38Z</time></trkpt><trkpt lat="48.381372597789536" lon="-4.342098340900208"><ele>90.0</ele><time>2026-03-22T15:54:42Z</time></trkpt><trkpt lat="48.38135940421502" lon="-4.342199685685708"><ele>90.0</ele><time>2026-03-22T15:54:44Z</time></trkpt><trkpt lat="48.381338565050655" lon="-4.342308188269605"><ele>90.0</ele><time>2026-03-22T15:54:46.999Z</time></trkpt><trkpt lat="48.38133336561332" lon="-4.342417429447492"><ele>90.0</ele><time>2026-03-22T15:54:48.999Z</time></trkpt><trkpt lat="48.38134318600685" lon="-4.34252005230419"><ele>90.0</ele><time>2026-03-22T15:54:50.999Z</time></trkpt><trkpt lat="48.381335190786345" lon="-4.34263800180619"><ele>90.0</ele><time>2026-03-22T15:54:52.999Z</time></trkpt><trkpt lat="48.38131884023346" lon="-4.342734915630116"><ele>90.0</ele><time>2026-03-22T15:54:54.999Z</time></trkpt><trkpt lat="48.38131377062144" lon="-4.342850495467667"><ele>90.0</ele><time>2026-03-22T15:54:57.999Z</time></trkpt><trkpt lat="48.38129345658774" lon="-4.3430055566427965"><ele>90.0</ele><time>2026-03-22T15:55:00.999Z</time></trkpt><trkpt lat="48.38126722983041" lon="-4.343120114033942"><ele>90.0</ele><time>2026-03-22T15:55:02.999Z</time></trkpt><trkpt lat="48.3812598132965" lon="-4.343228568097141"><ele>90.0</ele><time>2026-03-22T15:55:03.999Z</time></trkpt><trkpt lat="48.3812557621014" lon="-4.343395356462151"><ele>90.0</ele><time>2026-03-22T15:55:05.999Z</time></trkpt><trkpt lat="48.38125655127554" lon="-4.343542832654756"><ele>90.83333333333333</ele><time>2026-03-22T15:55:08.999Z</time></trkpt><trkpt lat="48.381245416044045" lon="-4.3436793478254945"><ele>91.66666666666667</ele><time>2026-03-22T15:55:11.999Z</time></trkpt><trkpt lat="48.38121376657987" lon="-4.3437643701865385"><ele>92.5</ele><time>2026-03-22T15:55:13.999Z</time></trkpt><trkpt lat="48.381235922377186" lon="-4.3438724311391494"><ele>93.33333333333334</ele><time>2026-03-22T15:55:15.999Z</time></trkpt><trkpt lat="48.38123256019857" lon="-4.343987651680328"><ele>94.16666666666667</ele><time>2026-03-22T15:55:17.999Z</time></trkpt><trkpt lat="48.38121774841402" lon="-4.344093334783129"><ele>95.0</ele><time>2026-03-22T15:55:20.999Z</time></trkpt><trkpt lat="48.38120222832948" lon="-4.344198992462616"><ele>95.33333333333334</ele><time>2026-03-22T15:55:22.999Z</time></trkpt><trkpt lat="48.38118010411193" lon="-4.344325745469006"><ele>95.66666666666667</ele><time>2026-03-22T15:55:25.999Z</time></trkpt><trkpt lat="48.38120659328705" lon="-4.344463594262908"><ele>96.0</ele><time>2026-03-22T15:55:27.999Z</time></trkpt><trkpt lat="48.38121623695785" lon="-4.344581834373021"><ele>96.33333333333334</ele><time>2026-03-22T15:55:29.999Z</time></trkpt><trkpt lat="48.38121042902885" lon="-4.344717292378529"><ele>96.66666666666667</ele><time>2026-03-22T15:55:32.999Z</time></trkpt><trkpt lat="48.38120568776068" lon="-4.344824853362906"><ele>97.0</ele><time>2026-03-22T15:55:33.999Z</time></trkpt><trkpt lat="48.3812135768984" lon="-4.3449291574479005"><ele>97.16666666666667</ele><time>2026-03-22T15:55:35.999Z</time></trkpt><trkpt lat="48.38121691094591" lon="-4.3450485208892395"><ele>97.33333333333334</ele><time>2026-03-22T15:55:37.999Z</time></trkpt><trkpt lat="48.38122717515601" lon="-4.345174619196047"><ele>97.5</ele><time>2026-03-22T15:55:39.999Z</time></trkpt><trkpt lat="48.38123723190376" lon="-4.345287299053623"><ele>97.66666666666666</ele><time>2026-03-22T15:55:42.999Z</time></trkpt><trkpt lat="48.38123409579148" lon="-4.3453915731564665"><ele>97.83333333333333</ele><time>2026-03-22T15:55:44.999Z</time></trkpt><trkpt lat="48.381233723007504" lon="-4.34551537460936"><ele>98.0</ele><time>2026-03-22T15:55:46Z</time></trkpt><trkpt lat="48.381232336635534" lon="-4.34566509582695"><ele>98.33333333333333</ele><time>2026-03-22T15:55:48Z</time></trkpt><trkpt lat="48.381266356348675" lon="-4.345828011498193"><ele>98.66666666666666</ele><time>2026-03-22T15:55:51Z</time></trkpt><trkpt lat="48.38128858593916" lon="-4.345965190183343"><ele>99.0</ele><time>2026-03-22T15:55:53Z</time></trkpt><trkpt lat="48.38132674975864" lon="-4.346050891865785"><ele>99.33333333333334</ele><time>2026-03-22T15:55:55Z</time></trkpt><trkpt lat="48.38133976359677" lon="-4.346149627279927"><ele>99.66666666666667</ele><time>2026-03-22T15:55:57Z</time></trkpt><trkpt lat="48.3813459851252" lon="-4.346290752535032"><ele>100.0</ele><time>2026-03-22T15:56:00Z</time></trkpt><trkpt lat="48.381372274414296" lon="-4.346399023841401"><ele>100.50000000000001</ele><time>2026-03-22T15:56:02Z</time></trkpt><trkpt lat="48.381417690403524" lon="-4.346525767824883"><ele>101.0</ele><time>2026-03-22T15:56:06Z</time></trkpt><trkpt lat="48.38145583967163" lon="-4.346671070975256"><ele>101.5</ele><time>2026-03-22T15:56:09Z</time></trkpt><trkpt lat="48.381493855229955" lon="-4.346774109466959"><ele>102.0</ele><time>2026-03-22T15:56:10Z</time></trkpt><trkpt lat="48.38149397591401" lon="-4.34692299374527"><ele>102.50000000000001</ele><time>2026-03-22T15:56:12Z</time></trkpt><trkpt lat="48.381523934937995" lon="-4.34702078054983"><ele>103.0</ele><time>2026-03-22T15:56:14Z</time></trkpt><trkpt lat="48.38154446250453" lon="-4.34712701879599"><ele>103.33333333333334</ele><time>2026-03-22T15:56:16Z</time></trkpt><trkpt lat="48.38158250448337" lon="-4.347238244717234"><ele>103.66666666666667</ele><time>2026-03-22T15:56:18Z</time></trkpt><trkpt lat="48.38161575787146" lon="-4.347351820995695"><ele>104.0</ele><time>2026-03-22T15:56:20Z</time></trkpt><trkpt lat="48.381644001477966" lon="-4.347463119360323"><ele>104.33333333333334</ele><time>2026-03-22T15:56:22Z</time></trkpt><trkpt lat="48.381668577851045" lon="-4.347558807478835"><ele>104.66666666666667</ele><time>2026-03-22T15:56:24Z</time></trkpt><trkpt lat="48.38170311947329" lon="-4.347657527254449"><ele>105.0</ele><time>2026-03-22T15:56:26Z</time></trkpt><trkpt lat="48.3817279911944" lon="-4.347764180861473"><ele>105.0</ele><time>2026-03-22T15:56:28Z</time></trkpt><trkpt lat="48.38175712035831" lon="-4.347852171845605"><ele>105.0</ele><time>2026-03-22T15:56:30Z</time></trkpt><trkpt lat="48.381797206392875" lon="-4.347929335013398"><ele>105.0</ele><time>2026-03-22T15:56:32Z</time></trkpt><trkpt lat="48.3818474763382" lon="-4.348029827101034"><ele>105.0</ele><time>2026-03-22T15:56:35Z</time></trkpt><trkpt lat="48.3818823411496" lon="-4.34826079861512"><ele>105.0</ele><time>2026-03-22T15:57:36.999Z</time></trkpt><trkpt lat="48.38194562021606" lon="-4.348280142849443"><ele>105.0</ele><time>2026-03-22T15:57:41.999Z</time></trkpt><trkpt lat="48.38201697822878" lon="-4.348324846141961"><ele>105.28571428571429</ele><time>2026-03-22T15:57:45.999Z</time></trkpt><trkpt lat="48.38208127607683" lon="-4.348370583478406"><ele>105.57142857142857</ele><time>2026-03-22T15:57:49.999Z</time></trkpt><trkpt lat="48.38211924736236" lon="-4.348455227327262"><ele>105.85714285714286</ele><time>2026-03-22T15:57:56Z</time></trkpt><trkpt lat="48.38216553526198" lon="-4.348555071447375"><ele>106.14285714285714</ele><time>2026-03-22T15:57:59Z</time></trkpt><trkpt lat="48.38217380598985" lon="-4.348673305483696"><ele>106.42857142857143</ele><time>2026-03-22T15:58:02Z</time></trkpt><trkpt lat="48.382152366924394" lon="-4.3487843256574426"><ele>106.71428571428572</ele><time>2026-03-22T15:58:05Z</time></trkpt><trkpt lat="48.38211525382981" lon="-4.348878328925917"><ele>107.0</ele><time>2026-03-22T15:58:07Z</time></trkpt><trkpt lat="48.38202945951454" lon="-4.348961877812463"><ele>106.99999999999999</ele><time>2026-03-22T15:58:09Z</time></trkpt><trkpt lat="48.381933275883924" lon="-4.3490353480900605"><ele>107.0</ele><time>2026-03-22T15:58:11Z</time></trkpt><trkpt lat="48.38187430276818" lon="-4.3491950244474555"><ele>107.0</ele><time>2026-03-22T15:58:13Z</time></trkpt><trkpt lat="48.38188149597209" lon="-4.349314308867862"><ele>107.0</ele><time>2026-03-22T15:58:14Z</time></trkpt><trkpt lat="48.38190410034861" lon="-4.34941706909119"><ele>106.99999999999999</ele><time>2026-03-22T15:58:15Z</time></trkpt><trkpt lat="48.38192712991675" lon="-4.349512813919592"><ele>107.0</ele><time>2026-03-22T15:58:16Z</time></trkpt><trkpt lat="48.38193736647473" lon="-4.349608123625021"><ele>107.0</ele><time>2026-03-22T15:58:17Z</time></trkpt><trkpt lat="48.38194116551507" lon="-4.349783508231369"><ele>107.0</ele><time>2026-03-22T15:58:19Z</time></trkpt><trkpt lat="48.38195834826235" lon="-4.349955683126906"><ele>107.0</ele><time>2026-03-22T15:58:21Z</time></trkpt><trkpt lat="48.38197919758259" lon="-4.350113005119873"><ele>107.0</ele><time>2026-03-22T15:58:23Z</time></trkpt><trkpt lat="48.38200690161146" lon="-4.350282780798616"><ele>107.0</ele><time>2026-03-22T15:58:25Z</time></trkpt><trkpt lat="48.38202302077496" lon="-4.350451104922672"><ele>106.99999999999999</ele><time>2026-03-22T15:58:27Z</time></trkpt><trkpt lat="48.382041324682945" lon="-4.350613945603472"><ele>106.99999999999999</ele><time>2026-03-22T15:58:29Z</time></trkpt><trkpt lat="48.38204368914398" lon="-4.350773595353226"><ele>107.0</ele><time>2026-03-22T15:58:31Z</time></trkpt><trkpt lat="48.382047352049" lon="-4.350927152085969"><ele>107.0</ele><time>2026-03-22T15:58:33Z</time></trkpt><trkpt lat="48.38206015860424" lon="-4.351076179571156"><ele>107.19999999999999</ele><time>2026-03-22T15:58:35Z</time></trkpt><trkpt lat="48.38205547008003" lon="-4.351216116870986"><ele>107.39999999999999</ele><time>2026-03-22T15:58:37Z</time></trkpt><trkpt lat="48.38204895385519" lon="-4.3513739350251806"><ele>107.60000000000001</ele><time>2026-03-22T15:58:39Z</time></trkpt><trkpt lat="48.38203389844379" lon="-4.351513863449792"><ele>107.80000000000001</ele><time>2026-03-22T15:58:41Z</time></trkpt><trkpt lat="48.38204362043409" lon="-4.351607754778134"><ele>108.0</ele><time>2026-03-22T15:58:42Z</time></trkpt><trkpt lat="48.38202841002927" lon="-4.351748443095255"><ele>108.0</ele><time>2026-03-22T15:58:44Z</time></trkpt><trkpt lat="48.38203987834126" lon="-4.351916795917871"><ele>108.00000000000001</ele><time>2026-03-22T15:58:46Z</time></trkpt><trkpt lat="48.382014898162275" lon="-4.35207089288691"><ele>108.00000000000001</ele><time>2026-03-22T15:58:48Z</time></trkpt><trkpt lat="48.382006674443105" lon="-4.352219073354855"><ele>108.0</ele><time>2026-03-22T15:58:50Z</time></trkpt><trkpt lat="48.38199746935041" lon="-4.352384677500473"><ele>108.0</ele><time>2026-03-22T15:58:52Z</time></trkpt><trkpt lat="48.38199334180508" lon="-4.352538116654055"><ele>108.25</ele><time>2026-03-22T15:58:54Z</time></trkpt><trkpt lat="48.381985921422704" lon="-4.352694213322352"><ele>108.5</ele><time>2026-03-22T15:58:56Z</time></trkpt><trkpt lat="48.38197030074534" lon="-4.3528674396643"><ele>108.75</ele><time>2026-03-22T15:58:58Z</time></trkpt><trkpt lat="48.38197519188431" lon="-4.353049121032659"><ele>109.0</ele><time>2026-03-22T15:59:00Z</time></trkpt><trkpt lat="48.381964549896004" lon="-4.353218150240211"><ele>109.5</ele><time>2026-03-22T15:59:01.999Z</time></trkpt><trkpt lat="48.3819603562405" lon="-4.353391364163478"><ele>110.0</ele><time>2026-03-22T15:59:03.999Z</time></trkpt><trkpt lat="48.38195895986246" lon="-4.353566590941281"><ele>110.5</ele><time>2026-03-22T15:59:05.999Z</time></trkpt><trkpt lat="48.38195051288858" lon="-4.353746295309379"><ele>111.0</ele><time>2026-03-22T15:59:07.999Z</time></trkpt><trkpt lat="48.3819550356062" lon="-4.353930006277844"><ele>111.0</ele><time>2026-03-22T15:59:09.999Z</time></trkpt><trkpt lat="48.381947759353764" lon="-4.354024881835294"><ele>111.0</ele><time>2026-03-22T15:59:10.999Z</time></trkpt><trkpt lat="48.381943052304464" lon="-4.354210191822962"><ele>111.0</ele><time>2026-03-22T15:59:12.999Z</time></trkpt><trkpt lat="48.38194578080601" lon="-4.3543136108055345"><ele>111.0</ele><time>2026-03-22T15:59:13.999Z</time></trkpt><trkpt lat="48.381943712417836" lon="-4.354411427535574"><ele>111.0</ele><time>2026-03-22T15:59:14.999Z</time></trkpt><trkpt lat="48.381933232120325" lon="-4.354512452787606"><ele>111.0</ele><time>2026-03-22T15:59:15.999Z</time></trkpt><trkpt lat="48.381938181450316" lon="-4.354612900192061"><ele>111.14285714285714</ele><time>2026-03-22T15:59:16.999Z</time></trkpt><trkpt lat="48.38193568144148" lon="-4.354715211096021"><ele>111.28571428571429</ele><time>2026-03-22T15:59:17.999Z</time></trkpt><trkpt lat="48.381933951948234" lon="-4.354820414050965"><ele>111.42857142857143</ele><time>2026-03-22T15:59:18.999Z</time></trkpt><trkpt lat="48.38193349090117" lon="-4.354920926417773"><ele>111.57142857142857</ele><time>2026-03-22T15:59:19.999Z</time></trkpt><trkpt lat="48.38192803008822" lon="-4.3550189895164415"><ele>111.71428571428572</ele><time>2026-03-22T15:59:20.999Z</time></trkpt><trkpt lat="48.38192834104312" lon="-4.355117387367623"><ele>111.85714285714286</ele><time>2026-03-22T15:59:21.999Z</time></trkpt><trkpt lat="48.381927486761576" lon="-4.355216623762133"><ele>112.0</ele><time>2026-03-22T15:59:22.999Z</time></trkpt><trkpt lat="48.3819177399457" lon="-4.355314697047391"><ele>112.0</ele><time>2026-03-22T15:59:23.999Z</time></trkpt><trkpt lat="48.381903311802226" lon="-4.355491441705592"><ele>111.99999999999999</ele><time>2026-03-22T15:59:25.999Z</time></trkpt><trkpt lat="48.381896925804845" lon="-4.355670814653681"><ele>111.99999999999999</ele><time>2026-03-22T15:59:27.999Z</time></trkpt><trkpt lat="48.381890106181565" lon="-4.355771760739581"><ele>112.0</ele><time>2026-03-22T15:59:28.999Z</time></trkpt><trkpt lat="48.38188240840192" lon="-4.355920176704009"><ele>112.0</ele><time>2026-03-22T15:59:30.999Z</time></trkpt><trkpt lat="48.38186848410356" lon="-4.356084083354132"><ele>112.39999999999999</ele><time>2026-03-22T15:59:32.999Z</time></trkpt><trkpt lat="48.38184800606197" lon="-4.356243234063735"><ele>112.79999999999998</ele><time>2026-03-22T15:59:34.999Z</time></trkpt><trkpt lat="48.38185899038335" lon="-4.356336684012471"><ele>113.2</ele><time>2026-03-22T15:59:35.999Z</time></trkpt><trkpt lat="48.38184545022959" lon="-4.3564900846159205"><ele>113.6</ele><time>2026-03-22T15:59:37.999Z</time></trkpt><trkpt lat="48.3818576357398" lon="-4.356647171887491"><ele>114.0</ele><time>2026-03-22T15:59:39.999Z</time></trkpt><trkpt lat="48.38185368648197" lon="-4.35680481887928"><ele>114.0</ele><time>2026-03-22T15:59:41.999Z</time></trkpt><trkpt lat="48.38184196248153" lon="-4.356964585854402"><ele>114.0</ele><time>2026-03-22T15:59:43.999Z</time></trkpt><trkpt lat="48.381819879408766" lon="-4.357108874545638"><ele>114.0</ele><time>2026-03-22T15:59:45.999Z</time></trkpt><trkpt lat="48.38183922299167" lon="-4.357263338458491"><ele>114.0</ele><time>2026-03-22T15:59:47.999Z</time></trkpt><trkpt lat="48.38188519077849" lon="-4.357419433595869"><ele>114.0</ele><time>2026-03-22T15:59:49.999Z</time></trkpt><trkpt lat="48.38189689212593" lon="-4.35757832861943"><ele>114.2</ele><time>2026-03-22T15:59:51.999Z</time></trkpt><trkpt lat="48.381896441151234" lon="-4.357732014095715"><ele>114.4</ele><time>2026-03-22T15:59:53.999Z</time></trkpt><trkpt lat="48.38189179015932" lon="-4.357877539883755"><ele>114.6</ele><time>2026-03-22T15:59:55.999Z</time></trkpt><trkpt lat="48.381895633425245" lon="-4.3580353313749045"><ele>114.8</ele><time>2026-03-22T15:59:58Z</time></trkpt><trkpt lat="48.3818991267638" lon="-4.358195071689127"><ele>115.0</ele><time>2026-03-22T16:00:00Z</time></trkpt><trkpt lat="48.38189592459971" lon="-4.3583549105969785"><ele>115.00000000000001</ele><time>2026-03-22T16:00:02Z</time></trkpt><trkpt lat="48.381898150521515" lon="-4.358516297687846"><ele>115.0</ele><time>2026-03-22T16:00:04Z</time></trkpt><trkpt lat="48.38188923630835" lon="-4.358633230474942"><ele>115.0</ele><time>2026-03-22T16:00:07Z</time></trkpt><trkpt lat="48.38187759536465" lon="-4.358754454099551"><ele>115.0</ele><time>2026-03-22T16:00:10Z</time></trkpt><trkpt lat="48.38188848846146" lon="-4.35885973280986"><ele>115.00000000000001</ele><time>2026-03-22T16:00:12Z</time></trkpt><trkpt lat="48.38187864818926" lon="-4.358969799940683"><ele>115.0</ele><time>2026-03-22T16:00:14Z</time></trkpt><trkpt lat="48.381870575753595" lon="-4.359103877792181"><ele>115.00000000000001</ele><time>2026-03-22T16:00:16Z</time></trkpt><trkpt lat="48.38187823849588" lon="-4.359235952775001"><ele>115.0</ele><time>2026-03-22T16:00:19Z</time></trkpt><trkpt lat="48.381875142742366" lon="-4.35933980161735"><ele>115.0</ele><time>2026-03-22T16:00:21Z</time></trkpt><trkpt lat="48.381856047312695" lon="-4.359483999824677"><ele>115.0</ele><time>2026-03-22T16:00:22Z</time></trkpt><trkpt lat="48.381860336644316" lon="-4.359609931351679"><ele>115.00000000000001</ele><time>2026-03-22T16:00:23Z</time></trkpt><trkpt lat="48.38186377667059" lon="-4.35972269119077"><ele>115.0</ele><time>2026-03-22T16:00:24Z</time></trkpt><trkpt lat="48.381853645160746" lon="-4.359872499879143"><ele>115.00000000000001</ele><time>2026-03-22T16:00:25Z</time></trkpt><trkpt lat="48.38185071903137" lon="-4.359998542757649"><ele>115.0</ele><time>2026-03-22T16:00:26Z</time></trkpt><trkpt lat="48.381851247977224" lon="-4.360129373413754"><ele>115.0</ele><time>2026-03-22T16:00:27Z</time></trkpt><trkpt lat="48.38185324537614" lon="-4.360244803651619"><ele>115.0</ele><time>2026-03-22T16:00:28Z</time></trkpt><trkpt lat="48.381847221990974" lon="-4.3603502718252"><ele>115.00000000000001</ele><time>2026-03-22T16:00:29Z</time></trkpt><trkpt lat="48.3818367707892" lon="-4.36045828664556"><ele>115.0</ele><time>2026-03-22T16:00:30Z</time></trkpt><trkpt lat="48.38183463112142" lon="-4.360569013684862"><ele>115.16666666666667</ele><time>2026-03-22T16:00:31Z</time></trkpt><trkpt lat="48.38183310739634" lon="-4.360676829973646"><ele>115.33333333333334</ele><time>2026-03-22T16:00:32Z</time></trkpt><trkpt lat="48.38182088460284" lon="-4.360782009602571"><ele>115.5</ele><time>2026-03-22T16:00:33Z</time></trkpt><trkpt lat="48.38181886977187" lon="-4.360880514369233"><ele>115.66666666666666</ele><time>2026-03-22T16:00:34Z</time></trkpt><trkpt lat="48.38180234377715" lon="-4.361080572040375"><ele>115.83333333333333</ele><time>2026-03-22T16:00:36Z</time></trkpt><trkpt lat="48.381796966466446" lon="-4.3611799712632475"><ele>116.0</ele><time>2026-03-22T16:00:37Z</time></trkpt><trkpt lat="48.38179010726858" lon="-4.36127952237298"><ele>116.6</ele><time>2026-03-22T16:00:38Z</time></trkpt><trkpt lat="48.38177058901755" lon="-4.361474174084491"><ele>117.19999999999999</ele><time>2026-03-22T16:00:40Z</time></trkpt><trkpt lat="48.38175332897577" lon="-4.361657613040414"><ele>117.80000000000001</ele><time>2026-03-22T16:00:42Z</time></trkpt><trkpt lat="48.381750045293956" lon="-4.361753665541428"><ele>118.4</ele><time>2026-03-22T16:00:43Z</time></trkpt><trkpt lat="48.38174257004506" lon="-4.3618519978331225"><ele>119.0</ele><time>2026-03-22T16:00:44Z</time></trkpt><trkpt lat="48.38171969390536" lon="-4.3620318564040375"><ele>119.0</ele><time>2026-03-22T16:00:46Z</time></trkpt><trkpt lat="48.38170879254939" lon="-4.362215497879833"><ele>119.0</ele><time>2026-03-22T16:00:48Z</time></trkpt><trkpt lat="48.381702051332724" lon="-4.362397923775678"><ele>119.0</ele><time>2026-03-22T16:00:50Z</time></trkpt><trkpt lat="48.38167825602611" lon="-4.362562075070365"><ele>119.0</ele><time>2026-03-22T16:00:52Z</time></trkpt><trkpt lat="48.3816650117413" lon="-4.362738217923343"><ele>119.0</ele><time>2026-03-22T16:00:54Z</time></trkpt><trkpt lat="48.38164780579734" lon="-4.362905716578677"><ele>119.0</ele><time>2026-03-22T16:00:56Z</time></trkpt><trkpt lat="48.381636984736105" lon="-4.363079733705024"><ele>119.0</ele><time>2026-03-22T16:00:58Z</time></trkpt><trkpt lat="48.38162267869269" lon="-4.363253984466882"><ele>119.0</ele><time>2026-03-22T16:01:00Z</time></trkpt><trkpt lat="48.38161425345802" lon="-4.363442053549355"><ele>118.75</ele><time>2026-03-22T16:01:02Z</time></trkpt><trkpt lat="48.381592132906064" lon="-4.363609281582318"><ele>118.5</ele><time>2026-03-22T16:01:04Z</time></trkpt><trkpt lat="48.381578641960196" lon="-4.363784691932912"><ele>118.25</ele><time>2026-03-22T16:01:06Z</time></trkpt><trkpt lat="48.381572836661704" lon="-4.363941244795046"><ele>118.0</ele><time>2026-03-22T16:01:07.999Z</time></trkpt><trkpt lat="48.38155315201411" lon="-4.364113707006498"><ele>117.75</ele><time>2026-03-22T16:01:09.999Z</time></trkpt><trkpt lat="48.38153053885852" lon="-4.364281843238465"><ele>117.5</ele><time>2026-03-22T16:01:11.999Z</time></trkpt><trkpt lat="48.38151912048098" lon="-4.364449389644024"><ele>117.25</ele><time>2026-03-22T16:01:13.999Z</time></trkpt><trkpt lat="48.38150535520765" lon="-4.364627817699559"><ele>117.0</ele><time>2026-03-22T16:01:15.999Z</time></trkpt><trkpt lat="48.38149279944714" lon="-4.364803956286937"><ele>117.0</ele><time>2026-03-22T16:01:17.999Z</time></trkpt><trkpt lat="48.381467430253856" lon="-4.36496318249382"><ele>117.0</ele><time>2026-03-22T16:01:19.999Z</time></trkpt><trkpt lat="48.38144659086715" lon="-4.365134975479079"><ele>117.0</ele><time>2026-03-22T16:01:21.999Z</time></trkpt><trkpt lat="48.381431916570946" lon="-4.365317776519787"><ele>117.0</ele><time>2026-03-22T16:01:23.999Z</time></trkpt><trkpt lat="48.38141903861035" lon="-4.365476475459363"><ele>117.16666666666667</ele><time>2026-03-22T16:01:25.999Z</time></trkpt><trkpt lat="48.38140892382915" lon="-4.365607733677003"><ele>117.33333333333334</ele><time>2026-03-22T16:01:27.999Z</time></trkpt><trkpt lat="48.381409702162365" lon="-4.365710256075008"><ele>117.5</ele><time>2026-03-22T16:01:31.999Z</time></trkpt><trkpt lat="48.38137299324868" lon="-4.36580464690107"><ele>117.66666666666667</ele><time>2026-03-22T16:01:34.999Z</time></trkpt><trkpt lat="48.381370730488094" lon="-4.365904119093876"><ele>117.83333333333334</ele><time>2026-03-22T16:01:36.999Z</time></trkpt><trkpt lat="48.38136131782296" lon="-4.366014909052185"><ele>118.0</ele><time>2026-03-22T16:01:38.999Z</time></trkpt><trkpt lat="48.381354178071874" lon="-4.366151496165055"><ele>117.83333333333334</ele><time>2026-03-22T16:01:40.999Z</time></trkpt><trkpt lat="48.381347674415764" lon="-4.366279488849868"><ele>117.66666666666667</ele><time>2026-03-22T16:01:42.999Z</time></trkpt><trkpt lat="48.38134129418428" lon="-4.366420986686667"><ele>117.5</ele><time>2026-03-22T16:01:44.999Z</time></trkpt><trkpt lat="48.38132751490583" lon="-4.366563072359513"><ele>117.33333333333334</ele><time>2026-03-22T16:01:46.999Z</time></trkpt><trkpt lat="48.38130389921759" lon="-4.366699171962331"><ele>117.16666666666667</ele><time>2026-03-22T16:01:51.999Z</time></trkpt><trkpt lat="48.38133020794971" lon="-4.366809984993525"><ele>117.0</ele><time>2026-03-22T16:01:52.999Z</time></trkpt><trkpt lat="48.38132399433618" lon="-4.366932111763281"><ele>117.0</ele><time>2026-03-22T16:01:53.999Z</time></trkpt><trkpt lat="48.381321207638514" lon="-4.367077610274145"><ele>116.99999999999999</ele><time>2026-03-22T16:01:55.999Z</time></trkpt><trkpt lat="48.38132778591694" lon="-4.367214333975491"><ele>116.99999999999999</ele><time>2026-03-22T16:01:57.999Z</time></trkpt><trkpt lat="48.38134441721555" lon="-4.367325592936234"><ele>117.0</ele><time>2026-03-22T16:01:59.999Z</time></trkpt><trkpt lat="48.38132763055182" lon="-4.3674862941113295"><ele>117.0</ele><time>2026-03-22T16:02:01.999Z</time></trkpt><trkpt lat="48.381323551547126" lon="-4.36766212659886"><ele>116.66666666666667</ele><time>2026-03-22T16:02:04Z</time></trkpt><trkpt lat="48.381310890754456" lon="-4.36783671972217"><ele>116.33333333333334</ele><time>2026-03-22T16:02:06Z</time></trkpt><trkpt lat="48.38130263908787" lon="-4.367998181365974"><ele>116.0</ele><time>2026-03-22T16:02:08Z</time></trkpt><trkpt lat="48.38130706736079" lon="-4.3680967568863736"><ele>115.66666666666667</ele><time>2026-03-22T16:02:09Z</time></trkpt><trkpt lat="48.38127722813956" lon="-4.368184188965788"><ele>115.33333333333334</ele><time>2026-03-22T16:02:10Z</time></trkpt><trkpt lat="48.381276817636206" lon="-4.368285680592938"><ele>115.0</ele><time>2026-03-22T16:02:11Z</time></trkpt><trkpt lat="48.38127648917228" lon="-4.3683835623254215"><ele>114.6</ele><time>2026-03-22T16:02:12Z</time></trkpt><trkpt lat="48.381276529644374" lon="-4.368487186012738"><ele>114.2</ele><time>2026-03-22T16:02:13Z</time></trkpt><trkpt lat="48.38127859837972" lon="-4.368672178145666"><ele>113.80000000000001</ele><time>2026-03-22T16:02:15Z</time></trkpt><trkpt lat="48.381282718145144" lon="-4.368861177281399"><ele>113.4</ele><time>2026-03-22T16:02:17Z</time></trkpt><trkpt lat="48.38129149253794" lon="-4.369039205328083"><ele>113.0</ele><time>2026-03-22T16:02:19Z</time></trkpt><trkpt lat="48.38130199190177" lon="-4.3691751789530855"><ele>112.49999999999999</ele><time>2026-03-22T16:02:21Z</time></trkpt><trkpt lat="48.381288426098514" lon="-4.369301873579846"><ele>112.0</ele><time>2026-03-22T16:02:23Z</time></trkpt><trkpt lat="48.38129205743145" lon="-4.369443322971233"><ele>111.5</ele><time>2026-03-22T16:02:26Z</time></trkpt><trkpt lat="48.381295453254346" lon="-4.369546478891797"><ele>111.0</ele><time>2026-03-22T16:02:28Z</time></trkpt><trkpt lat="48.38130417088718" lon="-4.369641023073493"><ele>110.49999999999999</ele><time>2026-03-22T16:02:34Z</time></trkpt><trkpt lat="48.381267469577026" lon="-4.36978253079966"><ele>110.0</ele><time>2026-03-22T16:02:38Z</time></trkpt><trkpt lat="48.381273048865275" lon="-4.369886389056312"><ele>109.66666666666666</ele><time>2026-03-22T16:02:39Z</time></trkpt><trkpt lat="48.38128856491322" lon="-4.370011607367089"><ele>109.33333333333333</ele><time>2026-03-22T16:02:40Z</time></trkpt><trkpt lat="48.38130692764112" lon="-4.370129117329095"><ele>109.0</ele><time>2026-03-22T16:02:41Z</time></trkpt><trkpt lat="48.38131941508381" lon="-4.370235270149711"><ele>108.66666666666666</ele><time>2026-03-22T16:02:42Z</time></trkpt><trkpt lat="48.381333872260754" lon="-4.370344915833509"><ele>108.33333333333333</ele><time>2026-03-22T16:02:43Z</time></trkpt><trkpt lat="48.381343327965" lon="-4.370443962708036"><ele>108.0</ele><time>2026-03-22T16:02:44Z</time></trkpt><trkpt lat="48.38135543271302" lon="-4.370558834817978"><ele>107.5</ele><time>2026-03-22T16:02:45Z</time></trkpt><trkpt lat="48.38137205759061" lon="-4.370673278068727"><ele>107.0</ele><time>2026-03-22T16:02:46Z</time></trkpt><trkpt lat="48.38138899847557" lon="-4.370791619307713"><ele>106.5</ele><time>2026-03-22T16:02:47Z</time></trkpt><trkpt lat="48.38140372390162" lon="-4.370904012707802"><ele>106.0</ele><time>2026-03-22T16:02:48Z</time></trkpt><trkpt lat="48.38142263776859" lon="-4.371037399065905"><ele>105.5</ele><time>2026-03-22T16:02:49Z</time></trkpt><trkpt lat="48.38144315314329" lon="-4.371161755154455"><ele>105.0</ele><time>2026-03-22T16:02:50Z</time></trkpt><trkpt lat="48.381464344307794" lon="-4.371284017805857"><ele>104.16666666666667</ele><time>2026-03-22T16:02:51Z</time></trkpt><trkpt lat="48.381488212576016" lon="-4.3714124854612635"><ele>103.33333333333334</ele><time>2026-03-22T16:02:52Z</time></trkpt><trkpt lat="48.38151389969143" lon="-4.3715319911922315"><ele>102.5</ele><time>2026-03-22T16:02:53Z</time></trkpt><trkpt lat="48.38154237282483" lon="-4.371655995890017"><ele>101.66666666666667</ele><time>2026-03-22T16:02:54Z</time></trkpt><trkpt lat="48.38157788662211" lon="-4.371784530686399"><ele>100.83333333333334</ele><time>2026-03-22T16:02:55Z</time></trkpt><trkpt lat="48.38161412696602" lon="-4.371914306129715"><ele>100.0</ele><time>2026-03-22T16:02:56Z</time></trkpt><trkpt lat="48.38164181302265" lon="-4.372043323001571"><ele>100.0</ele><time>2026-03-22T16:02:57Z</time></trkpt><trkpt lat="48.381666301472706" lon="-4.372181404394386"><ele>100.0</ele><time>2026-03-22T16:02:58Z</time></trkpt><trkpt lat="48.38168509932179" lon="-4.372314587824061"><ele>100.0</ele><time>2026-03-22T16:02:59Z</time></trkpt><trkpt lat="48.38172513855103" lon="-4.372441656794001"><ele>100.0</ele><time>2026-03-22T16:03:00Z</time></trkpt><trkpt lat="48.38176849470523" lon="-4.372565660073594"><ele>100.0</ele><time>2026-03-22T16:03:01Z</time></trkpt><trkpt lat="48.38179643651382" lon="-4.37269391920757"><ele>100.16666666666667</ele><time>2026-03-22T16:03:02Z</time></trkpt><trkpt lat="48.38182241648842" lon="-4.372814640329967"><ele>100.33333333333334</ele><time>2026-03-22T16:03:03Z</time></trkpt><trkpt lat="48.381863838683024" lon="-4.372931103870655"><ele>100.5</ele><time>2026-03-22T16:03:04Z</time></trkpt><trkpt lat="48.381893384751734" lon="-4.373067531872989"><ele>100.66666666666666</ele><time>2026-03-22T16:03:05Z</time></trkpt><trkpt lat="48.38192129126615" lon="-4.373191440652339"><ele>100.83333333333333</ele><time>2026-03-22T16:03:06Z</time></trkpt><trkpt lat="48.381950724941355" lon="-4.373307067776211"><ele>101.0</ele><time>2026-03-22T16:03:07Z</time></trkpt><trkpt lat="48.381985022621755" lon="-4.37342212452843"><ele>100.99999999999999</ele><time>2026-03-22T16:03:08Z</time></trkpt><trkpt lat="48.382014790624524" lon="-4.373531415799592"><ele>101.0</ele><time>2026-03-22T16:03:09Z</time></trkpt><trkpt lat="48.38204957985051" lon="-4.373641063747725"><ele>101.0</ele><time>2026-03-22T16:03:10Z</time></trkpt><trkpt lat="48.382091360554206" lon="-4.373754901110327"><ele>101.0</ele><time>2026-03-22T16:03:11Z</time></trkpt><trkpt lat="48.38211910910803" lon="-4.373869188677697"><ele>100.99999999999999</ele><time>2026-03-22T16:03:12Z</time></trkpt><trkpt lat="48.382154939290835" lon="-4.373981640493953"><ele>101.0</ele><time>2026-03-22T16:03:13Z</time></trkpt><trkpt lat="48.38219536807781" lon="-4.374098881599697"><ele>100.16666666666666</ele><time>2026-03-22T16:03:13.999Z</time></trkpt><trkpt lat="48.38223149662771" lon="-4.374218771646898"><ele>99.33333333333333</ele><time>2026-03-22T16:03:14.999Z</time></trkpt><trkpt lat="48.38226168167912" lon="-4.37433591097215"><ele>98.5</ele><time>2026-03-22T16:03:15.999Z</time></trkpt><trkpt lat="48.38230126245507" lon="-4.374461989379555"><ele>97.66666666666666</ele><time>2026-03-22T16:03:16.999Z</time></trkpt><trkpt lat="48.38234353712066" lon="-4.374591148243031"><ele>96.83333333333333</ele><time>2026-03-22T16:03:17.999Z</time></trkpt><trkpt lat="48.38237636384049" lon="-4.374717132663764"><ele>96.0</ele><time>2026-03-22T16:03:18.999Z</time></trkpt><trkpt lat="48.3824089263225" lon="-4.374853431060931"><ele>95.8</ele><time>2026-03-22T16:03:19.999Z</time></trkpt><trkpt lat="48.38245048128996" lon="-4.374979786115929"><ele>95.6</ele><time>2026-03-22T16:03:20.999Z</time></trkpt><trkpt lat="48.38248979657828" lon="-4.3751051565073995"><ele>95.4</ele><time>2026-03-22T16:03:21.999Z</time></trkpt><trkpt lat="48.38251905326512" lon="-4.375232291462012"><ele>95.2</ele><time>2026-03-22T16:03:22.999Z</time></trkpt><trkpt lat="48.382551097069474" lon="-4.375361872078545"><ele>95.0</ele><time>2026-03-22T16:03:23.999Z</time></trkpt><trkpt lat="48.38257556952407" lon="-4.37548222664828"><ele>95.16666666666667</ele><time>2026-03-22T16:03:24.999Z</time></trkpt><trkpt lat="48.382591219335154" lon="-4.375594559888717"><ele>95.33333333333334</ele><time>2026-03-22T16:03:25.999Z</time></trkpt><trkpt lat="48.38261522987739" lon="-4.375713163419433"><ele>95.5</ele><time>2026-03-22T16:03:26.999Z</time></trkpt><trkpt lat="48.38264638715352" lon="-4.3758337213215"><ele>95.66666666666667</ele><time>2026-03-22T16:03:27.999Z</time></trkpt><trkpt lat="48.38266766913774" lon="-4.375950643307663"><ele>95.83333333333333</ele><time>2026-03-22T16:03:28.999Z</time></trkpt><trkpt lat="48.382700671116844" lon="-4.376066502217157"><ele>96.0</ele><time>2026-03-22T16:03:29.999Z</time></trkpt><trkpt lat="48.38271279250515" lon="-4.376185054990388"><ele>96.0</ele><time>2026-03-22T16:03:30.999Z</time></trkpt><trkpt lat="48.38273311005632" lon="-4.376281027536207"><ele>96.0</ele><time>2026-03-22T16:03:31.999Z</time></trkpt><trkpt lat="48.38273006697009" lon="-4.376397248327152"><ele>96.0</ele><time>2026-03-22T16:03:32.999Z</time></trkpt><trkpt lat="48.38274364211972" lon="-4.376515973779544"><ele>96.0</ele><time>2026-03-22T16:03:33.999Z</time></trkpt><trkpt lat="48.382743324670365" lon="-4.376617348468098"><ele>96.0</ele><time>2026-03-22T16:03:34.999Z</time></trkpt><trkpt lat="48.382764103777475" lon="-4.376805258127854"><ele>96.0</ele><time>2026-03-22T16:03:36.999Z</time></trkpt><trkpt lat="48.382773086304745" lon="-4.376991036946267"><ele>96.0</ele><time>2026-03-22T16:03:38.999Z</time></trkpt><trkpt lat="48.3827803426656" lon="-4.377139095974416"><ele>96.0</ele><time>2026-03-22T16:03:40.999Z</time></trkpt><trkpt lat="48.38284179316684" lon="-4.377187619640638"><ele>96.0</ele><time>2026-03-22T16:03:42.999Z</time></trkpt><trkpt lat="48.38290515585749" lon="-4.377221462060032"><ele>96.0</ele><time>2026-03-22T16:03:47.999Z</time></trkpt><trkpt lat="48.382987970098945" lon="-4.377291091598451"><ele>96.0</ele><time>2026-03-22T16:03:50.999Z</time></trkpt><trkpt lat="48.38307472765199" lon="-4.377271446046615"><ele>96.0</ele><time>2026-03-22T16:03:53.999Z</time></trkpt><trkpt lat="48.38312868165776" lon="-4.377419069693891"><ele>96.0</ele><time>2026-03-22T16:03:55.999Z</time></trkpt><trkpt lat="48.383147885684984" lon="-4.377660569907264"><ele>96.0</ele><time>2026-03-22T16:03:59.999Z</time></trkpt><trkpt lat="48.38302936804422" lon="-4.377850037944355"><ele>96.0</ele><time>2026-03-22T16:04:01.999Z</time></trkpt><trkpt lat="48.3831438460919" lon="-4.378430558842573"><ele>96.0</ele><time>2026-03-22T16:04:06.999Z</time></trkpt><trkpt lat="48.383194946918245" lon="-4.378513481389619"><ele>96.0</ele><time>2026-03-22T16:04:07.999Z</time></trkpt><trkpt lat="48.38325870144964" lon="-4.378581341232247"><ele>96.0</ele><time>2026-03-22T16:04:08.999Z</time></trkpt><trkpt lat="48.38330150309534" lon="-4.3786635780202445"><ele>96.0</ele><time>2026-03-22T16:04:10Z</time></trkpt><trkpt lat="48.3833530410257" lon="-4.37876686135005"><ele>96.0</ele><time>2026-03-22T16:04:11Z</time></trkpt><trkpt lat="48.38339419931044" lon="-4.378871561262351"><ele>96.0</ele><time>2026-03-22T16:04:12Z</time></trkpt><trkpt lat="48.383445211205924" lon="-4.378975256291798"><ele>96.0</ele><time>2026-03-22T16:04:13Z</time></trkpt><trkpt lat="48.38347627755327" lon="-4.379088434543825"><ele>96.0</ele><time>2026-03-22T16:04:14Z</time></trkpt><trkpt lat="48.38348756422123" lon="-4.3792044298558555"><ele>96.0</ele><time>2026-03-22T16:04:15Z</time></trkpt><trkpt lat="48.38350050834615" lon="-4.379319075904581"><ele>96.0</ele><time>2026-03-22T16:04:16Z</time></trkpt><trkpt lat="48.383506904087426" lon="-4.3794540148731755"><ele>96.0</ele><time>2026-03-22T16:04:17Z</time></trkpt><trkpt lat="48.383506017810554" lon="-4.379595996724992"><ele>96.0</ele><time>2026-03-22T16:04:18Z</time></trkpt><trkpt lat="48.38351717159062" lon="-4.379727701920783"><ele>95.4</ele><time>2026-03-22T16:04:19Z</time></trkpt><trkpt lat="48.38352315330743" lon="-4.3798676916434784"><ele>94.8</ele><time>2026-03-22T16:04:20Z</time></trkpt><trkpt lat="48.38352580130518" lon="-4.380009541328735"><ele>94.2</ele><time>2026-03-22T16:04:21Z</time></trkpt><trkpt lat="48.38353427340835" lon="-4.380146985489292"><ele>93.60000000000001</ele><time>2026-03-22T16:04:22Z</time></trkpt><trkpt lat="48.38353942826696" lon="-4.380290651060643"><ele>93.0</ele><time>2026-03-22T16:04:23Z</time></trkpt><trkpt lat="48.38352935516678" lon="-4.380444235935116"><ele>92.4</ele><time>2026-03-22T16:04:24Z</time></trkpt><trkpt lat="48.383539546556044" lon="-4.380602447147129"><ele>91.80000000000001</ele><time>2026-03-22T16:04:25Z</time></trkpt><trkpt lat="48.383547589526536" lon="-4.380762949205084"><ele>91.2</ele><time>2026-03-22T16:04:26Z</time></trkpt><trkpt lat="48.383559258757124" lon="-4.3809264408469755"><ele>90.6</ele><time>2026-03-22T16:04:27Z</time></trkpt><trkpt lat="48.38356879271846" lon="-4.381083329715361"><ele>90.0</ele><time>2026-03-22T16:04:28Z</time></trkpt><trkpt lat="48.3835731156486" lon="-4.381216463818123"><ele>89.6</ele><time>2026-03-22T16:04:29Z</time></trkpt><trkpt lat="48.38358434094868" lon="-4.381362726935341"><ele>89.2</ele><time>2026-03-22T16:04:30Z</time></trkpt><trkpt lat="48.38360100439221" lon="-4.381518839251029"><ele>88.80000000000001</ele><time>2026-03-22T16:04:31Z</time></trkpt><trkpt lat="48.38361041580234" lon="-4.381669130473302"><ele>88.4</ele><time>2026-03-22T16:04:32Z</time></trkpt><trkpt lat="48.38362448646196" lon="-4.381827057628143"><ele>88.0</ele><time>2026-03-22T16:04:33Z</time></trkpt><trkpt lat="48.3836368245146" lon="-4.3819775615412775"><ele>88.0</ele><time>2026-03-22T16:04:34Z</time></trkpt><trkpt lat="48.3836519660185" lon="-4.382135505613335"><ele>88.0</ele><time>2026-03-22T16:04:35Z</time></trkpt><trkpt lat="48.38366559075169" lon="-4.382296919829288"><ele>88.0</ele><time>2026-03-22T16:04:36Z</time></trkpt><trkpt lat="48.38368172934161" lon="-4.38247670743803"><ele>88.0</ele><time>2026-03-22T16:04:37Z</time></trkpt><trkpt lat="48.38369892671286" lon="-4.382642892775422"><ele>88.0</ele><time>2026-03-22T16:04:38Z</time></trkpt><trkpt lat="48.38371946302844" lon="-4.382805528915055"><ele>87.80000000000001</ele><time>2026-03-22T16:04:39Z</time></trkpt><trkpt lat="48.38373861652106" lon="-4.382972638255993"><ele>87.6</ele><time>2026-03-22T16:04:40Z</time></trkpt><trkpt lat="48.38375385802332" lon="-4.383136471559706"><ele>87.4</ele><time>2026-03-22T16:04:41Z</time></trkpt><trkpt lat="48.383773117771035" lon="-4.383304568476659"><ele>87.19999999999999</ele><time>2026-03-22T16:04:42Z</time></trkpt><trkpt lat="48.38379148206167" lon="-4.383469224561012"><ele>87.0</ele><time>2026-03-22T16:04:43Z</time></trkpt><trkpt lat="48.38380820829262" lon="-4.383635816957391"><ele>87.0</ele><time>2026-03-22T16:04:44Z</time></trkpt><trkpt lat="48.38382575833727" lon="-4.383798494774152"><ele>87.0</ele><time>2026-03-22T16:04:45Z</time></trkpt><trkpt lat="48.383841636993864" lon="-4.383960364722023"><ele>87.0</ele><time>2026-03-22T16:04:46Z</time></trkpt><trkpt lat="48.38386366293478" lon="-4.384129900621004"><ele>87.0</ele><time>2026-03-22T16:04:47Z</time></trkpt><trkpt lat="48.38388141441214" lon="-4.3842974435934785"><ele>87.0</ele><time>2026-03-22T16:04:48Z</time></trkpt><trkpt lat="48.38389505244645" lon="-4.384471343259282"><ele>85.6</ele><time>2026-03-22T16:04:49Z</time></trkpt><trkpt lat="48.383904181911745" lon="-4.384626763077747"><ele>84.19999999999999</ele><time>2026-03-22T16:04:50Z</time></trkpt><trkpt lat="48.38391023983059" lon="-4.384778436961176"><ele>82.8</ele><time>2026-03-22T16:04:51Z</time></trkpt><trkpt lat="48.383917864493796" lon="-4.384943648052095"><ele>81.4</ele><time>2026-03-22T16:04:52Z</time></trkpt><trkpt lat="48.38392542438454" lon="-4.385127769176174"><ele>80.0</ele><time>2026-03-22T16:04:53Z</time></trkpt><trkpt lat="48.38391829704959" lon="-4.385293662160043"><ele>80.0</ele><time>2026-03-22T16:04:54Z</time></trkpt><trkpt lat="48.383904157109875" lon="-4.38544455759971"><ele>80.0</ele><time>2026-03-22T16:04:55Z</time></trkpt><trkpt lat="48.38390073120433" lon="-4.385609786689327"><ele>80.0</ele><time>2026-03-22T16:04:56Z</time></trkpt><trkpt lat="48.3838966015919" lon="-4.385767981200585"><ele>80.0</ele><time>2026-03-22T16:04:57Z</time></trkpt><trkpt lat="48.383889216932374" lon="-4.385937316216251"><ele>80.0</ele><time>2026-03-22T16:04:58Z</time></trkpt><trkpt lat="48.383885746356334" lon="-4.386098929786855"><ele>80.6</ele><time>2026-03-22T16:04:59Z</time></trkpt><trkpt lat="48.383878343143905" lon="-4.3862587993017215"><ele>81.2</ele><time>2026-03-22T16:05:00Z</time></trkpt><trkpt lat="48.38387132889291" lon="-4.386422179491638"><ele>81.80000000000001</ele><time>2026-03-22T16:05:01Z</time></trkpt><trkpt lat="48.383860368048005" lon="-4.386583766297915"><ele>82.4</ele><time>2026-03-22T16:05:02Z</time></trkpt><trkpt lat="48.383852215812134" lon="-4.386752054918298"><ele>83.0</ele><time>2026-03-22T16:05:03Z</time></trkpt><trkpt lat="48.38384403205463" lon="-4.386918458428181"><ele>83.0</ele><time>2026-03-22T16:05:04Z</time></trkpt><trkpt lat="48.38384032987045" lon="-4.387083281009694"><ele>83.0</ele><time>2026-03-22T16:05:05Z</time></trkpt><trkpt lat="48.38383275017216" lon="-4.387253357238908"><ele>83.0</ele><time>2026-03-22T16:05:06Z</time></trkpt><trkpt lat="48.38382606381466" lon="-4.387423871004181"><ele>83.0</ele><time>2026-03-22T16:05:07Z</time></trkpt><trkpt lat="48.38381626384408" lon="-4.387598380512189"><ele>81.25</ele><time>2026-03-22T16:05:08Z</time></trkpt><trkpt lat="48.383811854092336" lon="-4.387772408155628"><ele>79.5</ele><time>2026-03-22T16:05:09Z</time></trkpt><trkpt lat="48.38380477767087" lon="-4.387946278432686"><ele>77.75</ele><time>2026-03-22T16:05:10Z</time></trkpt><trkpt lat="48.383792912888566" lon="-4.3881180399138575"><ele>76.0</ele><time>2026-03-22T16:05:11Z</time></trkpt><trkpt lat="48.38378103304199" lon="-4.3882962412405195"><ele>75.0</ele><time>2026-03-22T16:05:12Z</time></trkpt><trkpt lat="48.38376919658637" lon="-4.388475172822476"><ele>74.0</ele><time>2026-03-22T16:05:13Z</time></trkpt><trkpt lat="48.38375146682416" lon="-4.3886459012368615"><ele>73.0</ele><time>2026-03-22T16:05:14Z</time></trkpt><trkpt lat="48.383733254010124" lon="-4.388821468894136"><ele>72.0</ele><time>2026-03-22T16:05:15Z</time></trkpt><trkpt lat="48.38371872564771" lon="-4.388996800808935"><ele>71.0</ele><time>2026-03-22T16:05:16Z</time></trkpt><trkpt lat="48.3837070284081" lon="-4.3891721507126"><ele>70.0</ele><time>2026-03-22T16:05:17Z</time></trkpt><trkpt lat="48.3836904735594" lon="-4.389349731432691"><ele>69.0</ele><time>2026-03-22T16:05:18Z</time></trkpt><trkpt lat="48.38367790084512" lon="-4.389527297006132"><ele>68.0</ele><time>2026-03-22T16:05:19Z</time></trkpt><trkpt lat="48.38367534372974" lon="-4.389710687390015"><ele>67.25</ele><time>2026-03-22T16:05:19.999Z</time></trkpt><trkpt lat="48.38367199550112" lon="-4.389891339715428"><ele>66.5</ele><time>2026-03-22T16:05:20.999Z</time></trkpt><trkpt lat="48.383672792699464" lon="-4.390081382154377"><ele>65.75</ele><time>2026-03-22T16:05:21.999Z</time></trkpt><trkpt lat="48.38367237151623" lon="-4.3902605046107075"><ele>65.0</ele><time>2026-03-22T16:05:22.999Z</time></trkpt><trkpt lat="48.38367792822611" lon="-4.390448296897821"><ele>64.25</ele><time>2026-03-22T16:05:23.999Z</time></trkpt><trkpt lat="48.38368558562983" lon="-4.3906259799637075"><ele>63.5</ele><time>2026-03-22T16:05:24.999Z</time></trkpt><trkpt lat="48.383697643205004" lon="-4.390824527797986"><ele>62.75</ele><time>2026-03-22T16:05:25.999Z</time></trkpt><trkpt lat="48.383710053984295" lon="-4.3910127626537285"><ele>62.0</ele><time>2026-03-22T16:05:26.999Z</time></trkpt><trkpt lat="48.38371834814704" lon="-4.391194052353478"><ele>60.66666666666667</ele><time>2026-03-22T16:05:27.999Z</time></trkpt><trkpt lat="48.38370577043837" lon="-4.391570962255378"><ele>59.33333333333333</ele><time>2026-03-22T16:05:29.999Z</time></trkpt><trkpt lat="48.383692920538685" lon="-4.391756079188128"><ele>58.0</ele><time>2026-03-22T16:05:30.999Z</time></trkpt><trkpt lat="48.38367234859853" lon="-4.391931213539545"><ele>58.0</ele><time>2026-03-22T16:05:31.999Z</time></trkpt><trkpt lat="48.38365643840979" lon="-4.392113995497909"><ele>58.0</ele><time>2026-03-22T16:05:32.999Z</time></trkpt><trkpt lat="48.38363654804913" lon="-4.392291444613866"><ele>58.0</ele><time>2026-03-22T16:05:33.999Z</time></trkpt><trkpt lat="48.3836202787776" lon="-4.392465680635315"><ele>58.0</ele><time>2026-03-22T16:05:34.999Z</time></trkpt><trkpt lat="48.38360763859465" lon="-4.392636120400437"><ele>57.25</ele><time>2026-03-22T16:05:35.999Z</time></trkpt><trkpt lat="48.3835942950037" lon="-4.392814891546059"><ele>56.5</ele><time>2026-03-22T16:05:36.999Z</time></trkpt><trkpt lat="48.38358899509359" lon="-4.392984354494241"><ele>55.75</ele><time>2026-03-22T16:05:37.999Z</time></trkpt><trkpt lat="48.3835843405839" lon="-4.393158513046809"><ele>55.0</ele><time>2026-03-22T16:05:38.999Z</time></trkpt><trkpt lat="48.383578507271" lon="-4.393333072419842"><ele>55.0</ele><time>2026-03-22T16:05:39.999Z</time></trkpt><trkpt lat="48.38357169199146" lon="-4.393502247733402"><ele>55.0</ele><time>2026-03-22T16:05:40.999Z</time></trkpt><trkpt lat="48.38356728746154" lon="-4.393664510576354"><ele>55.0</ele><time>2026-03-22T16:05:41.999Z</time></trkpt><trkpt lat="48.38355561561844" lon="-4.3937998153704605"><ele>55.0</ele><time>2026-03-22T16:05:42.999Z</time></trkpt><trkpt lat="48.383523351384504" lon="-4.393919119572502"><ele>55.0</ele><time>2026-03-22T16:05:43.999Z</time></trkpt><trkpt lat="48.38350696457647" lon="-4.394015439666365"><ele>54.666666666666664</ele><time>2026-03-22T16:05:44.999Z</time></trkpt><trkpt lat="48.38349406791507" lon="-4.394157134066528"><ele>54.33333333333333</ele><time>2026-03-22T16:05:46.999Z</time></trkpt><trkpt lat="48.38352407466624" lon="-4.394243350274821"><ele>54.0</ele><time>2026-03-22T16:05:50.999Z</time></trkpt><trkpt lat="48.38356290684392" lon="-4.394338376094497"><ele>53.66666666666667</ele><time>2026-03-22T16:06:01.999Z</time></trkpt><trkpt lat="48.38368585092705" lon="-4.394371922910455"><ele>53.333333333333336</ele><time>2026-03-22T16:06:04.999Z</time></trkpt><trkpt lat="48.383752585538474" lon="-4.394442689079584"><ele>53.0</ele><time>2026-03-22T16:06:06.999Z</time></trkpt><trkpt lat="48.38380073707638" lon="-4.394573710022313"><ele>52.599999999999994</ele><time>2026-03-22T16:06:08.999Z</time></trkpt><trkpt lat="48.38379442173182" lon="-4.394736401374936"><ele>52.199999999999996</ele><time>2026-03-22T16:06:10.999Z</time></trkpt><trkpt lat="48.383731503256584" lon="-4.3948826342682565"><ele>51.8</ele><time>2026-03-22T16:06:12.999Z</time></trkpt><trkpt lat="48.38369549114161" lon="-4.395043612626326"><ele>51.4</ele><time>2026-03-22T16:06:14.999Z</time></trkpt><trkpt lat="48.38366480160506" lon="-4.395153774839332"><ele>51.0</ele><time>2026-03-22T16:06:16Z</time></trkpt><trkpt lat="48.38357300231564" lon="-4.395231949671275"><ele>51.0</ele><time>2026-03-22T16:06:18Z</time></trkpt><trkpt lat="48.38351871422394" lon="-4.395362133028058"><ele>51.0</ele><time>2026-03-22T16:06:20Z</time></trkpt><trkpt lat="48.38348965841977" lon="-4.395504301660137"><ele>51.0</ele><time>2026-03-22T16:06:22Z</time></trkpt><trkpt lat="48.38350957962412" lon="-4.395643558406003"><ele>51.0</ele><time>2026-03-22T16:06:24Z</time></trkpt><trkpt lat="48.383519001016516" lon="-4.395810818310871"><ele>51.0</ele><time>2026-03-22T16:06:25Z</time></trkpt><trkpt lat="48.38353573192477" lon="-4.395926435503999"><ele>50.5</ele><time>2026-03-22T16:06:26Z</time></trkpt><trkpt lat="48.383552654769204" lon="-4.396043379036876"><ele>50.0</ele><time>2026-03-22T16:06:27Z</time></trkpt><trkpt lat="48.3835698392641" lon="-4.396162130651197"><ele>49.5</ele><time>2026-03-22T16:06:28Z</time></trkpt><trkpt lat="48.38369256514249" lon="-4.396248361153824"><ele>49.0</ele><time>2026-03-22T16:06:29Z</time></trkpt><trkpt lat="48.38372232276398" lon="-4.396348976941015"><ele>48.5</ele><time>2026-03-22T16:06:30Z</time></trkpt><trkpt lat="48.383761787839696" lon="-4.396448362431229"><ele>48.0</ele><time>2026-03-22T16:06:31Z</time></trkpt><trkpt lat="48.38381426785918" lon="-4.396539272748954"><ele>45.0</ele><time>2026-03-22T16:06:32Z</time></trkpt><trkpt lat="48.38387120670177" lon="-4.39661950104789"><ele>42.0</ele><time>2026-03-22T16:06:33Z</time></trkpt><trkpt lat="48.38393184571677" lon="-4.396689615724716"><ele>39.0</ele><time>2026-03-22T16:06:34Z</time></trkpt><trkpt lat="48.383989937119416" lon="-4.39676247056803"><ele>36.0</ele><time>2026-03-22T16:06:35Z</time></trkpt><trkpt lat="48.38404607011307" lon="-4.39682958528808"><ele>33.0</ele><time>2026-03-22T16:06:36Z</time></trkpt><trkpt lat="48.38410754486817" lon="-4.396902953734071"><ele>30.0</ele><time>2026-03-22T16:06:37Z</time></trkpt><trkpt lat="48.38416450997793" lon="-4.396978303580668"><ele>30.0</ele><time>2026-03-22T16:06:38Z</time></trkpt><trkpt lat="48.38422490247127" lon="-4.397043082419731"><ele>30.0</ele><time>2026-03-22T16:06:39Z</time></trkpt><trkpt lat="48.38428293347473" lon="-4.397096413614682"><ele>30.0</ele><time>2026-03-22T16:06:40Z</time></trkpt><trkpt lat="48.38434849910005" lon="-4.397148340932024"><ele>30.0</ele><time>2026-03-22T16:06:41Z</time></trkpt><trkpt lat="48.38440746306613" lon="-4.3971982782345655"><ele>30.0</ele><time>2026-03-22T16:06:42Z</time></trkpt><trkpt lat="48.38451356217934" lon="-4.397298803991383"><ele>30.0</ele><time>2026-03-22T16:06:44Z</time></trkpt><trkpt lat="48.38462346762147" lon="-4.397388314614841"><ele>25.8</ele><time>2026-03-22T16:06:46Z</time></trkpt><trkpt lat="48.38472413879523" lon="-4.397468640352037"><ele>21.6</ele><time>2026-03-22T16:06:48Z</time></trkpt><trkpt lat="48.38481879176064" lon="-4.3975635430910245"><ele>17.4</ele><time>2026-03-22T16:06:50Z</time></trkpt><trkpt lat="48.38490863562035" lon="-4.397646182700713"><ele>13.2</ele><time>2026-03-22T16:06:52Z</time></trkpt><trkpt lat="48.38499876115732" lon="-4.397726922528853"><ele>9.0</ele><time>2026-03-22T16:06:54Z</time></trkpt><trkpt lat="48.38508256725218" lon="-4.397790745058527"><ele>9.0</ele><time>2026-03-22T16:06:56Z</time></trkpt><trkpt lat="48.38516206285036" lon="-4.397860045732624"><ele>9.0</ele><time>2026-03-22T16:06:58Z</time></trkpt><trkpt lat="48.38524461524309" lon="-4.397923755778018"><ele>9.0</ele><time>2026-03-22T16:07:00Z</time></trkpt><trkpt lat="48.38531791804751" lon="-4.398004086755335"><ele>9.0</ele><time>2026-03-22T16:07:04Z</time></trkpt><trkpt lat="48.385411985863314" lon="-4.3980985965935"><ele>9.0</ele><time>2026-03-22T16:07:07Z</time></trkpt><trkpt lat="48.38546219618423" lon="-4.398183030504921"><ele>7.2</ele><time>2026-03-22T16:07:10Z</time></trkpt><trkpt lat="48.38553575712387" lon="-4.398262390619143"><ele>5.4</ele><time>2026-03-22T16:07:14Z</time></trkpt><trkpt lat="48.38567118712919" lon="-4.398328925096984"><ele>3.6</ele><time>2026-03-22T16:08:03.999Z</time></trkpt><trkpt lat="48.38572914628165" lon="-4.39836610945681"><ele>1.8</ele><time>2026-03-22T16:08:11.999Z</time></trkpt><trkpt lat="48.38581518073361" lon="-4.398430070339156"><ele>0.0</ele><time>2026-03-22T16:08:14.999Z</time></trkpt><trkpt lat="48.385883891098274" lon="-4.398482914175283"><ele>0.0</ele><time>2026-03-22T16:08:16.999Z</time></trkpt><trkpt lat="48.38596274783858" lon="-4.398515020976697"><ele>0.0</ele><time>2026-03-22T16:08:18.999Z</time></trkpt><trkpt lat="48.38604252742924" lon="-4.398553533531079"><ele>0.0</ele><time>2026-03-22T16:08:20.999Z</time></trkpt><trkpt lat="48.386113078330396" lon="-4.398633120553705"><ele>0.0</ele><time>2026-03-22T16:08:23Z</time></trkpt><trkpt lat="48.386195798773954" lon="-4.398705157470812"><ele>0.0</ele><time>2026-03-22T16:08:25Z</time></trkpt><trkpt lat="48.38627221950906" lon="-4.398770633828448"><ele>0.0</ele><time>2026-03-22T16:08:27Z</time></trkpt><trkpt lat="48.38634606500865" lon="-4.398828752974055"><ele>0.0</ele><time>2026-03-22T16:08:29Z</time></trkpt><trkpt lat="48.38642644069238" lon="-4.398889681271129"><ele>0.0</ele><time>2026-03-22T16:08:31Z</time></trkpt><trkpt lat="48.386479165223356" lon="-4.398959733552409"><ele>0.0</ele><time>2026-03-22T16:08:33Z</time></trkpt><trkpt lat="48.386551551282295" lon="-4.3990165849250555"><ele>0.0</ele><time>2026-03-22T16:08:35Z</time></trkpt><trkpt lat="48.38662285427183" lon="-4.3990811735116155"><ele>0.0</ele><time>2026-03-22T16:08:37Z</time></trkpt><trkpt lat="48.38669150122519" lon="-4.399140788949466"><ele>0.0</ele><time>2026-03-22T16:08:39Z</time></trkpt><trkpt lat="48.386762047584085" lon="-4.399199773074074"><ele>0.0</ele><time>2026-03-22T16:08:41Z</time></trkpt><trkpt lat="48.38682938565522" lon="-4.399251549000435"><ele>0.0</ele><time>2026-03-22T16:08:43Z</time></trkpt><trkpt lat="48.38690580336958" lon="-4.399308892031082"><ele>0.0</ele><time>2026-03-22T16:08:45Z</time></trkpt><trkpt lat="48.38698758744686" lon="-4.399357376233032"><ele>0.0</ele><time>2026-03-22T16:08:47Z</time></trkpt><trkpt lat="48.38707651379431" lon="-4.399421088117132"><ele>0.0</ele><time>2026-03-22T16:08:49Z</time></trkpt><trkpt lat="48.38716149268047" lon="-4.399489576104251"><ele>0.0</ele><time>2026-03-22T16:08:51Z</time></trkpt><trkpt lat="48.38724812663588" lon="-4.399559558093883"><ele>0.0</ele><time>2026-03-22T16:08:53Z</time></trkpt><trkpt lat="48.38733146318601" lon="-4.3996462517021255"><ele>0.0</ele><time>2026-03-22T16:08:55Z</time></trkpt><trkpt lat="48.38741593669659" lon="-4.399715474409389"><ele>0.0</ele><time>2026-03-22T16:08:57Z</time></trkpt><trkpt lat="48.3875095240251" lon="-4.399798353636954"><ele>0.0</ele><time>2026-03-22T16:08:59Z</time></trkpt><trkpt lat="48.38759880206329" lon="-4.399875496489275"><ele>0.0</ele><time>2026-03-22T16:09:01Z</time></trkpt><trkpt lat="48.387682592034686" lon="-4.39994906516395"><ele>0.0</ele><time>2026-03-22T16:09:03Z</time></trkpt><trkpt lat="48.387776578805315" lon="-4.400023548051079"><ele>0.0</ele><time>2026-03-22T16:09:05Z</time></trkpt><trkpt lat="48.38787325724539" lon="-4.400105125232667"><ele>0.0</ele><time>2026-03-22T16:09:07Z</time></trkpt><trkpt lat="48.3879805848523" lon="-4.4001690063263545"><ele>0.0</ele><time>2026-03-22T16:09:09Z</time></trkpt><trkpt lat="48.38806566519925" lon="-4.400264610445384"><ele>0.0</ele><time>2026-03-22T16:09:11Z</time></trkpt><trkpt lat="48.38816969379894" lon="-4.400338987517482"><ele>0.0</ele><time>2026-03-22T16:09:13Z</time></trkpt><trkpt lat="48.388279902183456" lon="-4.400410591199278"><ele>0.0</ele><time>2026-03-22T16:09:15Z</time></trkpt><trkpt lat="48.38838075862589" lon="-4.400499739339328"><ele>0.0</ele><time>2026-03-22T16:09:17Z</time></trkpt><trkpt lat="48.388477225628264" lon="-4.4005992545122785"><ele>0.0</ele><time>2026-03-22T16:09:19Z</time></trkpt><trkpt lat="48.38859082436961" lon="-4.400681298923162"><ele>0.0</ele><time>2026-03-22T16:09:21Z</time></trkpt><trkpt lat="48.38870097887413" lon="-4.400762312218633"><ele>0.0</ele><time>2026-03-22T16:09:23Z</time></trkpt><trkpt lat="48.38880998068469" lon="-4.400847717327731"><ele>0.0</ele><time>2026-03-22T16:09:25Z</time></trkpt><trkpt lat="48.388919277948425" lon="-4.4009338118045225"><ele>0.0</ele><time>2026-03-22T16:09:27Z</time></trkpt><trkpt lat="48.38897912411671" lon="-4.400979438491642"><ele>0.0</ele><time>2026-03-22T16:09:28Z</time></trkpt><trkpt lat="48.38908149654489" lon="-4.401077677272631"><ele>0.0</ele><time>2026-03-22T16:09:30Z</time></trkpt><trkpt lat="48.38919086070837" lon="-4.401169532693908"><ele>0.0</ele><time>2026-03-22T16:09:32Z</time></trkpt><trkpt lat="48.38925488082156" lon="-4.401206810411621"><ele>0.0</ele><time>2026-03-22T16:09:33Z</time></trkpt><trkpt lat="48.38930965308888" lon="-4.401253581171157"><ele>0.0</ele><time>2026-03-22T16:09:33.999Z</time></trkpt><trkpt lat="48.389367749441384" lon="-4.40130112577169"><ele>0.0</ele><time>2026-03-22T16:09:34.999Z</time></trkpt><trkpt lat="48.389476406317" lon="-4.401386263854358"><ele>0.0</ele><time>2026-03-22T16:09:36.999Z</time></trkpt><trkpt lat="48.38953642562784" lon="-4.401429019200463"><ele>0.0</ele><time>2026-03-22T16:09:37.999Z</time></trkpt><trkpt lat="48.38964208240748" lon="-4.4015244489403225"><ele>0.0</ele><time>2026-03-22T16:09:39.999Z</time></trkpt><trkpt lat="48.38970529603082" lon="-4.401565704284441"><ele>0.0</ele><time>2026-03-22T16:09:40.999Z</time></trkpt><trkpt lat="48.38976601816869" lon="-4.401608235677434"><ele>0.0</ele><time>2026-03-22T16:09:41.999Z</time></trkpt><trkpt lat="48.38987432561836" lon="-4.401704796500474"><ele>0.0</ele><time>2026-03-22T16:09:43.999Z</time></trkpt><trkpt lat="48.389933940258224" lon="-4.401753064085976"><ele>1.5</ele><time>2026-03-22T16:09:44.999Z</time></trkpt><trkpt lat="48.38999727248551" lon="-4.401805774454769"><ele>3.0</ele><time>2026-03-22T16:09:45.999Z</time></trkpt><trkpt lat="48.39005732565686" lon="-4.401855203279001"><ele>4.5</ele><time>2026-03-22T16:09:46.999Z</time></trkpt><trkpt lat="48.39011176874021" lon="-4.401911328870997"><ele>6.0</ele><time>2026-03-22T16:09:47.999Z</time></trkpt><trkpt lat="48.390170232454" lon="-4.401965653433336"><ele>7.5</ele><time>2026-03-22T16:09:48.999Z</time></trkpt><trkpt lat="48.39027371339543" lon="-4.402077218195365"><ele>9.0</ele><time>2026-03-22T16:09:50.999Z</time></trkpt><trkpt lat="48.39034401536886" lon="-4.40212199115067"><ele>9.000000000000002</ele><time>2026-03-22T16:09:51.999Z</time></trkpt><trkpt lat="48.39040552838772" lon="-4.402161629293106"><ele>9.0</ele><time>2026-03-22T16:09:52.999Z</time></trkpt><trkpt lat="48.39047616044475" lon="-4.402211182079908"><ele>9.0</ele><time>2026-03-22T16:09:53.999Z</time></trkpt><trkpt lat="48.39053235512865" lon="-4.402278401055263"><ele>9.0</ele><time>2026-03-22T16:09:54.999Z</time></trkpt><trkpt lat="48.3905882237618" lon="-4.4023473061544"><ele>9.0</ele><time>2026-03-22T16:09:55.999Z</time></trkpt><trkpt lat="48.39065449507492" lon="-4.402411624300837"><ele>9.000000000000002</ele><time>2026-03-22T16:09:56.999Z</time></trkpt><trkpt lat="48.39072309169764" lon="-4.402476172971579"><ele>9.0</ele><time>2026-03-22T16:09:57.999Z</time></trkpt><trkpt lat="48.390803353310716" lon="-4.4025440177628905"><ele>11.666666666666668</ele><time>2026-03-22T16:09:58.999Z</time></trkpt><trkpt lat="48.39087218803321" lon="-4.402610433539903"><ele>14.333333333333334</ele><time>2026-03-22T16:09:59.999Z</time></trkpt><trkpt lat="48.390946232722314" lon="-4.4026742328425446"><ele>17.0</ele><time>2026-03-22T16:10:00.999Z</time></trkpt><trkpt lat="48.391033059885366" lon="-4.402717251827135"><ele>19.666666666666668</ele><time>2026-03-22T16:10:01.999Z</time></trkpt><trkpt lat="48.39111062345855" lon="-4.402761380928592"><ele>22.333333333333336</ele><time>2026-03-22T16:10:02.999Z</time></trkpt><trkpt lat="48.391187623811554" lon="-4.402816423221019"><ele>25.0</ele><time>2026-03-22T16:10:03.999Z</time></trkpt><trkpt lat="48.391341450819446" lon="-4.402952916882909"><ele>25.166666666666668</ele><time>2026-03-22T16:10:05.999Z</time></trkpt><trkpt lat="48.39142341001185" lon="-4.403004363587735"><ele>25.333333333333336</ele><time>2026-03-22T16:10:06.999Z</time></trkpt><trkpt lat="48.3914968636897" lon="-4.403066814406846"><ele>25.5</ele><time>2026-03-22T16:10:07.999Z</time></trkpt><trkpt lat="48.391563857540596" lon="-4.403143805622663"><ele>25.666666666666664</ele><time>2026-03-22T16:10:08.999Z</time></trkpt><trkpt lat="48.39162500878331" lon="-4.4031873649714806"><ele>25.833333333333332</ele><time>2026-03-22T16:10:09.999Z</time></trkpt><trkpt lat="48.391683245511224" lon="-4.403240137284169"><ele>26.0</ele><time>2026-03-22T16:10:10.999Z</time></trkpt><trkpt lat="48.39176387479406" lon="-4.403306976845139"><ele>25.999999999999996</ele><time>2026-03-22T16:10:12.999Z</time></trkpt><trkpt lat="48.39182902152389" lon="-4.4033189871280705"><ele>26.0</ele><time>2026-03-22T16:10:14.999Z</time></trkpt><trkpt lat="48.391927661379135" lon="-4.403401574730685"><ele>26.0</ele><time>2026-03-22T16:10:20.999Z</time></trkpt><trkpt lat="48.39195744508476" lon="-4.403511553216783"><ele>26.0</ele><time>2026-03-22T16:10:22.999Z</time></trkpt><trkpt lat="48.39202567356307" lon="-4.403578563978299"><ele>25.999999999999996</ele><time>2026-03-22T16:10:24.999Z</time></trkpt><trkpt lat="48.39211037239898" lon="-4.403668525151089"><ele>26.0</ele><time>2026-03-22T16:10:26.999Z</time></trkpt><trkpt lat="48.39227062244825" lon="-4.4037597817166265"><ele>25.71428571428571</ele><time>2026-03-22T16:10:30Z</time></trkpt><trkpt lat="48.392325821797975" lon="-4.403813657765005"><ele>25.42857142857143</ele><time>2026-03-22T16:10:31Z</time></trkpt><trkpt lat="48.39238449221054" lon="-4.403863646514955"><ele>25.142857142857142</ele><time>2026-03-22T16:10:32Z</time></trkpt><trkpt lat="48.392443331447446" lon="-4.403902651158665"><ele>24.857142857142854</ele><time>2026-03-22T16:10:33Z</time></trkpt><trkpt lat="48.3925039796155" lon="-4.403944826084286"><ele>24.57142857142857</ele><time>2026-03-22T16:10:34Z</time></trkpt><trkpt lat="48.392563841638825" lon="-4.403989479051846"><ele>24.285714285714285</ele><time>2026-03-22T16:10:35Z</time></trkpt><trkpt lat="48.39262576298341" lon="-4.404032625049612"><ele>24.0</ele><time>2026-03-22T16:10:36Z</time></trkpt><trkpt lat="48.39268345833042" lon="-4.404086489722315"><ele>24.0</ele><time>2026-03-22T16:10:37Z</time></trkpt><trkpt lat="48.39273599227806" lon="-4.404140722777354"><ele>24.0</ele><time>2026-03-22T16:10:38Z</time></trkpt><trkpt lat="48.39279358996824" lon="-4.404187945960362"><ele>24.0</ele><time>2026-03-22T16:10:39Z</time></trkpt><trkpt lat="48.39296909834062" lon="-4.404000077088568"><ele>24.0</ele><time>2026-03-22T16:10:40Z</time></trkpt><trkpt lat="48.39302008832412" lon="-4.404059432771875"><ele>24.0</ele><time>2026-03-22T16:10:41Z</time></trkpt><trkpt lat="48.39311338007527" lon="-4.404168030576625"><ele>24.2</ele><time>2026-03-22T16:10:43Z</time></trkpt><trkpt lat="48.393164574696776" lon="-4.4042283598087995"><ele>24.4</ele><time>2026-03-22T16:10:44Z</time></trkpt><trkpt lat="48.39326177818831" lon="-4.404345440479822"><ele>24.6</ele><time>2026-03-22T16:10:46Z</time></trkpt><trkpt lat="48.393310268951154" lon="-4.40440684882991"><ele>24.8</ele><time>2026-03-22T16:10:47Z</time></trkpt><trkpt lat="48.393400776667825" lon="-4.404523793792172"><ele>25.0</ele><time>2026-03-22T16:10:49Z</time></trkpt><trkpt lat="48.393487455722656" lon="-4.404643276121792"><ele>25.2</ele><time>2026-03-22T16:10:51Z</time></trkpt><trkpt lat="48.39356452627105" lon="-4.404756963443244"><ele>25.4</ele><time>2026-03-22T16:10:53Z</time></trkpt><trkpt lat="48.39363164739489" lon="-4.404861159498593"><ele>25.6</ele><time>2026-03-22T16:10:55Z</time></trkpt><trkpt lat="48.39370036171525" lon="-4.404974717860193"><ele>25.8</ele><time>2026-03-22T16:10:57Z</time></trkpt><trkpt lat="48.39367702997311" lon="-4.405075906074011"><ele>26.0</ele><time>2026-03-22T16:10:59Z</time></trkpt><trkpt lat="48.393744252529494" lon="-4.405229135806012"><ele>25.999999999999996</ele><time>2026-03-22T16:11:02Z</time></trkpt><trkpt lat="48.39377499216638" lon="-4.405323519559778"><ele>26.0</ele><time>2026-03-22T16:11:05Z</time></trkpt><trkpt lat="48.393815453762926" lon="-4.405403256022103"><ele>26.0</ele><time>2026-03-22T16:11:07Z</time></trkpt><trkpt lat="48.393877866070525" lon="-4.405560469108125"><ele>26.0</ele><time>2026-03-22T16:11:09Z</time></trkpt><trkpt lat="48.39392622501771" lon="-4.40568770170784"><ele>25.999999999999996</ele><time>2026-03-22T16:11:11Z</time></trkpt><trkpt lat="48.393978743636495" lon="-4.405798831476878"><ele>26.0</ele><time>2026-03-22T16:11:13Z</time></trkpt><trkpt lat="48.39402387511622" lon="-4.405908737207145"><ele>26.666666666666664</ele><time>2026-03-22T16:11:16Z</time></trkpt><trkpt lat="48.3940762589742" lon="-4.405981734114062"><ele>27.333333333333332</ele><time>2026-03-22T16:11:19Z</time></trkpt><trkpt lat="48.394102437921504" lon="-4.40608550232022"><ele>28.0</ele><time>2026-03-22T16:11:20Z</time></trkpt><trkpt lat="48.39412428090974" lon="-4.406200584414524"><ele>28.666666666666664</ele><time>2026-03-22T16:11:23Z</time></trkpt><trkpt lat="48.39416688436736" lon="-4.406306308037801"><ele>29.333333333333332</ele><time>2026-03-22T16:11:26Z</time></trkpt><trkpt lat="48.394205492183325" lon="-4.406460030909809"><ele>30.0</ele><time>2026-03-22T16:11:29Z</time></trkpt><trkpt lat="48.39427848936773" lon="-4.406552098715775"><ele>30.6</ele><time>2026-03-22T16:11:32Z</time></trkpt><trkpt lat="48.39430060496383" lon="-4.406664676642313"><ele>31.2</ele><time>2026-03-22T16:11:34Z</time></trkpt><trkpt lat="48.39433246900032" lon="-4.406775558459718"><ele>31.799999999999997</ele><time>2026-03-22T16:11:37Z</time></trkpt><trkpt lat="48.39443140230414" lon="-4.406944359862383"><ele>32.4</ele><time>2026-03-22T16:11:40.999Z</time></trkpt><trkpt lat="48.39447862055891" lon="-4.407061437245658"><ele>33.0</ele><time>2026-03-22T16:11:41.999Z</time></trkpt><trkpt lat="48.39452678212584" lon="-4.40722318475519"><ele>33.0</ele><time>2026-03-22T16:11:43.999Z</time></trkpt><trkpt lat="48.39455996205487" lon="-4.40737557900589"><ele>33.0</ele><time>2026-03-22T16:11:45.999Z</time></trkpt><trkpt lat="48.39459480332096" lon="-4.407511885400517"><ele>33.0</ele><time>2026-03-22T16:11:47.999Z</time></trkpt><trkpt lat="48.394622786808235" lon="-4.407662914204534"><ele>33.0</ele><time>2026-03-22T16:11:49.999Z</time></trkpt><trkpt lat="48.3946513568995" lon="-4.40779802044749"><ele>33.0</ele><time>2026-03-22T16:11:51.999Z</time></trkpt><trkpt lat="48.394682722666246" lon="-4.407941947991694"><ele>33.199999999999996</ele><time>2026-03-22T16:11:53.999Z</time></trkpt><trkpt lat="48.39472789158449" lon="-4.4080799224426"><ele>33.4</ele><time>2026-03-22T16:11:55.999Z</time></trkpt><trkpt lat="48.394790900179196" lon="-4.408214708597569"><ele>33.599999999999994</ele><time>2026-03-22T16:11:57.999Z</time></trkpt><trkpt lat="48.394850472223354" lon="-4.408342167985136"><ele>33.8</ele><time>2026-03-22T16:11:59.999Z</time></trkpt><trkpt lat="48.39494911478464" lon="-4.408410372288118"><ele>34.0</ele><time>2026-03-22T16:12:01.999Z</time></trkpt><trkpt lat="48.39504965591734" lon="-4.408495785814424"><ele>34.0</ele><time>2026-03-22T16:12:03.999Z</time></trkpt><trkpt lat="48.39507230393544" lon="-4.408637922852376"><ele>34.0</ele><time>2026-03-22T16:12:05.999Z</time></trkpt><trkpt lat="48.39498927149044" lon="-4.4087978006013255"><ele>34.0</ele><time>2026-03-22T16:12:07.999Z</time></trkpt><trkpt lat="48.394923901386655" lon="-4.4089191879647105"><ele>34.0</ele><time>2026-03-22T16:12:09.999Z</time></trkpt><trkpt lat="48.394915524076055" lon="-4.409039214635537"><ele>34.0</ele><time>2026-03-22T16:12:11.999Z</time></trkpt><trkpt lat="48.394955874189826" lon="-4.409190607609055"><ele>34.0</ele><time>2026-03-22T16:12:13.999Z</time></trkpt><trkpt lat="48.39499898710562" lon="-4.409356837013871"><ele>34.0</ele><time>2026-03-22T16:12:15.999Z</time></trkpt><trkpt lat="48.39502885549479" lon="-4.409506375892631"><ele>34.0</ele><time>2026-03-22T16:12:17.999Z</time></trkpt><trkpt lat="48.39504024715753" lon="-4.409666959219655"><ele>34.0</ele><time>2026-03-22T16:12:19.999Z</time></trkpt><trkpt lat="48.39508569820077" lon="-4.40994112729247"><ele>33.66666666666667</ele><time>2026-03-22T16:12:22.999Z</time></trkpt><trkpt lat="48.395115183948874" lon="-4.41012743226045"><ele>33.333333333333336</ele><time>2026-03-22T16:12:24.999Z</time></trkpt><trkpt lat="48.395131373198225" lon="-4.410227818025562"><ele>33.0</ele><time>2026-03-22T16:12:25.999Z</time></trkpt><trkpt lat="48.39515133780944" lon="-4.410322384311105"><ele>32.666666666666664</ele><time>2026-03-22T16:12:26.999Z</time></trkpt><trkpt lat="48.39516435625782" lon="-4.4104196485675065"><ele>32.33333333333333</ele><time>2026-03-22T16:12:27.999Z</time></trkpt><trkpt lat="48.39516987141929" lon="-4.4105164014665"><ele>32.0</ele><time>2026-03-22T16:12:28.999Z</time></trkpt><trkpt lat="48.39519616799635" lon="-4.410615796089538"><ele>32.0</ele><time>2026-03-22T16:12:29.999Z</time></trkpt><trkpt lat="48.39520077118553" lon="-4.410728658550607"><ele>31.999999999999996</ele><time>2026-03-22T16:12:30.999Z</time></trkpt><trkpt lat="48.39522235974829" lon="-4.4108304036521755"><ele>32.0</ele><time>2026-03-22T16:12:31.999Z</time></trkpt><trkpt lat="48.395249047166914" lon="-4.410936587234777"><ele>32.0</ele><time>2026-03-22T16:12:32.999Z</time></trkpt><trkpt lat="48.39525932119782" lon="-4.411041958045863"><ele>31.999999999999996</ele><time>2026-03-22T16:12:34Z</time></trkpt><trkpt lat="48.39526571771416" lon="-4.411154471591095"><ele>32.0</ele><time>2026-03-22T16:12:35Z</time></trkpt><trkpt lat="48.3952772800013" lon="-4.411260398433222"><ele>32.0</ele><time>2026-03-22T16:12:36Z</time></trkpt><trkpt lat="48.39528638167544" lon="-4.411372641719833"><ele>31.833333333333332</ele><time>2026-03-22T16:12:37Z</time></trkpt><trkpt lat="48.39530028947142" lon="-4.411491961364527"><ele>31.666666666666664</ele><time>2026-03-22T16:12:38Z</time></trkpt><trkpt lat="48.395298682652765" lon="-4.411606760501598"><ele>31.5</ele><time>2026-03-22T16:12:39Z</time></trkpt><trkpt lat="48.39529719646654" lon="-4.411712095635886"><ele>31.333333333333336</ele><time>2026-03-22T16:12:40Z</time></trkpt><trkpt lat="48.39530833027113" lon="-4.411833652509517"><ele>31.166666666666668</ele><time>2026-03-22T16:12:41Z</time></trkpt><trkpt lat="48.395311239212184" lon="-4.411952057203122"><ele>31.0</ele><time>2026-03-22T16:12:42Z</time></trkpt><trkpt lat="48.39531318057728" lon="-4.412066374098761"><ele>30.666666666666668</ele><time>2026-03-22T16:12:43Z</time></trkpt><trkpt lat="48.395299585414314" lon="-4.41217570767812"><ele>30.333333333333336</ele><time>2026-03-22T16:12:44Z</time></trkpt><trkpt lat="48.395301560565905" lon="-4.412297391108277"><ele>30.0</ele><time>2026-03-22T16:12:45Z</time></trkpt><trkpt lat="48.395298443452745" lon="-4.412415430373473"><ele>29.666666666666664</ele><time>2026-03-22T16:12:46Z</time></trkpt><trkpt lat="48.39528458546234" lon="-4.4125305784808555"><ele>29.333333333333332</ele><time>2026-03-22T16:12:47Z</time></trkpt><trkpt lat="48.39527348605387" lon="-4.41263075376987"><ele>29.0</ele><time>2026-03-22T16:12:48Z</time></trkpt><trkpt lat="48.395267493131804" lon="-4.412753561058008"><ele>28.999999999999996</ele><time>2026-03-22T16:12:49Z</time></trkpt><trkpt lat="48.395260445399714" lon="-4.412877793155017"><ele>29.0</ele><time>2026-03-22T16:12:50Z</time></trkpt><trkpt lat="48.39525232970088" lon="-4.413004413776719"><ele>29.0</ele><time>2026-03-22T16:12:51Z</time></trkpt><trkpt lat="48.39524099199745" lon="-4.413128662770682"><ele>29.0</ele><time>2026-03-22T16:12:52Z</time></trkpt><trkpt lat="48.3952370429584" lon="-4.413256486189112"><ele>28.999999999999996</ele><time>2026-03-22T16:12:53Z</time></trkpt><trkpt lat="48.395229872973495" lon="-4.413382465424932"><ele>29.0</ele><time>2026-03-22T16:12:54Z</time></trkpt><trkpt lat="48.3952212724749" lon="-4.413508642566121"><ele>28.333333333333332</ele><time>2026-03-22T16:12:55Z</time></trkpt><trkpt lat="48.395209887621135" lon="-4.413626965221447"><ele>27.666666666666664</ele><time>2026-03-22T16:12:56Z</time></trkpt><trkpt lat="48.39520603751314" lon="-4.4137461749066285"><ele>27.0</ele><time>2026-03-22T16:12:57Z</time></trkpt><trkpt lat="48.395208535899044" lon="-4.413867706074949"><ele>26.333333333333336</ele><time>2026-03-22T16:12:58Z</time></trkpt><trkpt lat="48.39520508794478" lon="-4.413983394217485"><ele>25.666666666666668</ele><time>2026-03-22T16:12:59Z</time></trkpt><trkpt lat="48.3952127401997" lon="-4.414108546249374"><ele>25.0</ele><time>2026-03-22T16:13:00Z</time></trkpt><trkpt lat="48.395224886743854" lon="-4.414226067081543"><ele>25.000000000000004</ele><time>2026-03-22T16:13:01Z</time></trkpt><trkpt lat="48.395239155857865" lon="-4.414338410934572"><ele>25.0</ele><time>2026-03-22T16:13:02Z</time></trkpt><trkpt lat="48.39525669933828" lon="-4.4144677389448415"><ele>25.0</ele><time>2026-03-22T16:13:03Z</time></trkpt><trkpt lat="48.39528197908643" lon="-4.414600796262206"><ele>25.0</ele><time>2026-03-22T16:13:04Z</time></trkpt><trkpt lat="48.39531100985104" lon="-4.414735786618211"><ele>25.000000000000004</ele><time>2026-03-22T16:13:05Z</time></trkpt><trkpt lat="48.395325242746054" lon="-4.414863504470889"><ele>25.0</ele><time>2026-03-22T16:13:06Z</time></trkpt><trkpt lat="48.39533978320115" lon="-4.4150040881182715"><ele>24.500000000000004</ele><time>2026-03-22T16:13:07Z</time></trkpt><trkpt lat="48.39535859982159" lon="-4.415142591517702"><ele>24.0</ele><time>2026-03-22T16:13:08Z</time></trkpt><trkpt lat="48.39538763943797" lon="-4.415280962151279"><ele>23.5</ele><time>2026-03-22T16:13:09Z</time></trkpt><trkpt lat="48.39540951944138" lon="-4.415415916642356"><ele>23.0</ele><time>2026-03-22T16:13:10Z</time></trkpt><trkpt lat="48.39542386284371" lon="-4.415536451802068"><ele>22.5</ele><time>2026-03-22T16:13:11Z</time></trkpt><trkpt lat="48.395432945953154" lon="-4.4156581506898975"><ele>22.0</ele><time>2026-03-22T16:13:12Z</time></trkpt><trkpt lat="48.3954614171493" lon="-4.415764403584866"><ele>21.6</ele><time>2026-03-22T16:13:13Z</time></trkpt><trkpt lat="48.39552217582322" lon="-4.41587623838195"><ele>21.200000000000003</ele><time>2026-03-22T16:13:15Z</time></trkpt><trkpt lat="48.3955682397087" lon="-4.415992318882668"><ele>20.8</ele><time>2026-03-22T16:13:18Z</time></trkpt><trkpt lat="48.39551099523049" lon="-4.416119854114433"><ele>20.4</ele><time>2026-03-22T16:13:19Z</time></trkpt><trkpt lat="48.395432717177826" lon="-4.416245079914739"><ele>20.0</ele><time>2026-03-22T16:13:21Z</time></trkpt><trkpt lat="48.39548466155243" lon="-4.416443736773379"><ele>19.5</ele><time>2026-03-22T16:13:22Z</time></trkpt><trkpt lat="48.3954911185965" lon="-4.416562858304224"><ele>19.0</ele><time>2026-03-22T16:13:23Z</time></trkpt><trkpt lat="48.3955045558127" lon="-4.41668788334001"><ele>18.5</ele><time>2026-03-22T16:13:24Z</time></trkpt><trkpt lat="48.39551422326885" lon="-4.416801632716442"><ele>18.0</ele><time>2026-03-22T16:13:25Z</time></trkpt><trkpt lat="48.39553046698726" lon="-4.41693544849528"><ele>17.5</ele><time>2026-03-22T16:13:26Z</time></trkpt><trkpt lat="48.39554787130372" lon="-4.417076352320055"><ele>17.0</ele><time>2026-03-22T16:13:27Z</time></trkpt><trkpt lat="48.39555697818346" lon="-4.417216242333797"><ele>15.6</ele><time>2026-03-22T16:13:28Z</time></trkpt><trkpt lat="48.395578007099616" lon="-4.417363604261121"><ele>14.2</ele><time>2026-03-22T16:13:29Z</time></trkpt><trkpt lat="48.39559877745272" lon="-4.417501073693228"><ele>12.8</ele><time>2026-03-22T16:13:30Z</time></trkpt><trkpt lat="48.395625728358496" lon="-4.417645749433285"><ele>11.4</ele><time>2026-03-22T16:13:31Z</time></trkpt><trkpt lat="48.39565191986049" lon="-4.417791443021705"><ele>10.0</ele><time>2026-03-22T16:13:32Z</time></trkpt><trkpt lat="48.395673162716676" lon="-4.417939674342235"><ele>9.2</ele><time>2026-03-22T16:13:33Z</time></trkpt><trkpt lat="48.39570594860068" lon="-4.41808731255905"><ele>8.4</ele><time>2026-03-22T16:13:34Z</time></trkpt><trkpt lat="48.39573354982837" lon="-4.41823475544073"><ele>7.6</ele><time>2026-03-22T16:13:35Z</time></trkpt><trkpt lat="48.39576433237416" lon="-4.418384795611842"><ele>6.8</ele><time>2026-03-22T16:13:36Z</time></trkpt><trkpt lat="48.395814534699575" lon="-4.418522404147964"><ele>6.0</ele><time>2026-03-22T16:13:37Z</time></trkpt><trkpt lat="48.3958659583824" lon="-4.418649162677042"><ele>6.0</ele><time>2026-03-22T16:13:38Z</time></trkpt><trkpt lat="48.39594006932504" lon="-4.418768676742711"><ele>6.0</ele><time>2026-03-22T16:13:39Z</time></trkpt><trkpt lat="48.396001761920964" lon="-4.418883644723111"><ele>6.0</ele><time>2026-03-22T16:13:40Z</time></trkpt><trkpt lat="48.396060809278815" lon="-4.418995962979599"><ele>6.0</ele><time>2026-03-22T16:13:41Z</time></trkpt><trkpt lat="48.39611460694477" lon="-4.419109293634042"><ele>6.0</ele><time>2026-03-22T16:13:41.999Z</time></trkpt><trkpt lat="48.396158278585595" lon="-4.419225961747579"><ele>6.166666666666667</ele><time>2026-03-22T16:13:42.999Z</time></trkpt><trkpt lat="48.396204509981715" lon="-4.4193367196178315"><ele>6.333333333333334</ele><time>2026-03-22T16:13:43.999Z</time></trkpt><trkpt lat="48.39625100769633" lon="-4.41944688748256"><ele>6.5</ele><time>2026-03-22T16:13:44.999Z</time></trkpt><trkpt lat="48.39630418887563" lon="-4.419545573359421"><ele>6.666666666666667</ele><time>2026-03-22T16:13:45.999Z</time></trkpt><trkpt lat="48.39634439768281" lon="-4.419629876650133"><ele>6.833333333333334</ele><time>2026-03-22T16:13:46.999Z</time></trkpt><trkpt lat="48.396383090927635" lon="-4.419706943994544"><ele>7.0</ele><time>2026-03-22T16:13:47.999Z</time></trkpt><trkpt lat="48.39647847721582" lon="-4.419824724797882"><ele>6.333333333333334</ele><time>2026-03-22T16:13:49.999Z</time></trkpt><trkpt lat="48.396550288437524" lon="-4.419933768742708"><ele>5.666666666666667</ele><time>2026-03-22T16:13:51.999Z</time></trkpt><trkpt lat="48.39656940970544" lon="-4.42002437680827"><ele>5.0</ele><time>2026-03-22T16:13:54.999Z</time></trkpt><trkpt lat="48.39655368172472" lon="-4.4201827560528555"><ele>4.333333333333334</ele><time>2026-03-22T16:14:01.999Z</time></trkpt><trkpt lat="48.39649512560808" lon="-4.420268165252993"><ele>3.666666666666667</ele><time>2026-03-22T16:14:03.999Z</time></trkpt><trkpt lat="48.39657889895087" lon="-4.420315052515385"><ele>3.0</ele><time>2026-03-22T16:14:04.999Z</time></trkpt><trkpt lat="48.3966023877812" lon="-4.42048406111474"><ele>2.6</ele><time>2026-03-22T16:14:06.999Z</time></trkpt><trkpt lat="48.39667465731949" lon="-4.420599611956382"><ele>2.1999999999999997</ele><time>2026-03-22T16:14:08.999Z</time></trkpt><trkpt lat="48.39672503620829" lon="-4.420752648977172"><ele>1.8</ele><time>2026-03-22T16:14:10.999Z</time></trkpt><trkpt lat="48.396777132137295" lon="-4.420913881933956"><ele>1.4</ele><time>2026-03-22T16:14:12.999Z</time></trkpt><trkpt lat="48.39672716221252" lon="-4.421046199060639"><ele>1.0</ele><time>2026-03-22T16:14:13.999Z</time></trkpt><trkpt lat="48.39676468932013" lon="-4.421131164285558"><ele>1.0</ele><time>2026-03-22T16:14:14.999Z</time></trkpt><trkpt lat="48.39681922727545" lon="-4.421292095579028"><ele>1.0</ele><time>2026-03-22T16:14:16.999Z</time></trkpt><trkpt lat="48.39686737710889" lon="-4.421436344070095"><ele>1.0</ele><time>2026-03-22T16:14:18.999Z</time></trkpt><trkpt lat="48.396904465527584" lon="-4.421573249424156"><ele>1.0</ele><time>2026-03-22T16:14:20.999Z</time></trkpt><trkpt lat="48.39692048201174" lon="-4.421705836752316"><ele>1.0</ele><time>2026-03-22T16:14:22.999Z</time></trkpt><trkpt lat="48.3969622411052" lon="-4.4218349986441625"><ele>1.0</ele><time>2026-03-22T16:14:24.999Z</time></trkpt><trkpt lat="48.39701108128534" lon="-4.421956279186441"><ele>1.0</ele><time>2026-03-22T16:14:26.999Z</time></trkpt><trkpt lat="48.397067912659494" lon="-4.422085538525295"><ele>1.0</ele><time>2026-03-22T16:14:28.999Z</time></trkpt><trkpt lat="48.39711093631221" lon="-4.422230320508268"><ele>1.0</ele><time>2026-03-22T16:14:30.999Z</time></trkpt><trkpt lat="48.39715152068144" lon="-4.422376631717172"><ele>1.0</ele><time>2026-03-22T16:14:32.999Z</time></trkpt><trkpt lat="48.39719187985087" lon="-4.422521504279799"><ele>1.6</ele><time>2026-03-22T16:14:34.999Z</time></trkpt><trkpt lat="48.39723711373712" lon="-4.422674647619528"><ele>2.2</ele><time>2026-03-22T16:14:36.999Z</time></trkpt><trkpt lat="48.39727054886148" lon="-4.4228175847812325"><ele>2.8000000000000003</ele><time>2026-03-22T16:14:38.999Z</time></trkpt><trkpt lat="48.39730064825866" lon="-4.422960272808152"><ele>3.4000000000000004</ele><time>2026-03-22T16:14:41Z</time></trkpt><trkpt lat="48.397389510384784" lon="-4.422989976547216"><ele>4.0</ele><time>2026-03-22T16:14:42Z</time></trkpt><trkpt lat="48.397430658283575" lon="-4.423144036483089"><ele>3.9999999999999996</ele><time>2026-03-22T16:14:44Z</time></trkpt><trkpt lat="48.39745938161356" lon="-4.4232545276056285"><ele>4.0</ele><time>2026-03-22T16:14:46Z</time></trkpt><trkpt lat="48.39748356879752" lon="-4.4233452430178986"><ele>4.0</ele><time>2026-03-22T16:14:48Z</time></trkpt><trkpt lat="48.397513871199685" lon="-4.423448582479993"><ele>4.0</ele><time>2026-03-22T16:14:52Z</time></trkpt><trkpt lat="48.397575939065966" lon="-4.423525103601138"><ele>3.9999999999999996</ele><time>2026-03-22T16:15:02Z</time></trkpt><trkpt lat="48.39764384855386" lon="-4.423593807329895"><ele>4.0</ele><time>2026-03-22T16:15:04Z</time></trkpt><trkpt lat="48.39768269087576" lon="-4.423705854501294"><ele>3.4999999999999996</ele><time>2026-03-22T16:15:06Z</time></trkpt><trkpt lat="48.397688607045055" lon="-4.423823501445492"><ele>3.0</ele><time>2026-03-22T16:15:08Z</time></trkpt><trkpt lat="48.39772752728935" lon="-4.423915114858706"><ele>2.5</ele><time>2026-03-22T16:15:10Z</time></trkpt><trkpt lat="48.39777880957183" lon="-4.423996146243224"><ele>2.0</ele><time>2026-03-22T16:15:12Z</time></trkpt><trkpt lat="48.397841086774875" lon="-4.424039915931067"><ele>1.5</ele><time>2026-03-22T16:15:14Z</time></trkpt><trkpt lat="48.39790646407936" lon="-4.424042431018208"><ele>1.0</ele><time>2026-03-22T16:15:16Z</time></trkpt><trkpt lat="48.397999127437934" lon="-4.42395485907747"><ele>2.6</ele><time>2026-03-22T16:15:19Z</time></trkpt><trkpt lat="48.39804992140639" lon="-4.423828423526007"><ele>4.2</ele><time>2026-03-22T16:15:21Z</time></trkpt><trkpt lat="48.398120730756546" lon="-4.423801105075923"><ele>5.800000000000001</ele><time>2026-03-22T16:15:24Z</time></trkpt><trkpt lat="48.39819230871414" lon="-4.423777567688921"><ele>7.4</ele><time>2026-03-22T16:15:27Z</time></trkpt><trkpt lat="48.39834798755902" lon="-4.423899632475854"><ele>9.0</ele><time>2026-03-22T16:15:32Z</time></trkpt><trkpt lat="48.39840137456915" lon="-4.423958541275675"><ele>9.2</ele><time>2026-03-22T16:15:33Z</time></trkpt><trkpt lat="48.39856767955851" lon="-4.4239175121034595"><ele>9.4</ele><time>2026-03-22T16:15:35Z</time></trkpt><trkpt lat="48.39860847476301" lon="-4.424056324956114"><ele>9.6</ele><time>2026-03-22T16:15:37Z</time></trkpt><trkpt lat="48.398605757849644" lon="-4.424189945681633"><ele>9.8</ele><time>2026-03-22T16:15:39Z</time></trkpt><trkpt lat="48.39862728604987" lon="-4.424281434932124"><ele>10.0</ele><time>2026-03-22T16:15:41Z</time></trkpt><trkpt lat="48.39872143181322" lon="-4.424287067936718"><ele>10.0</ele><time>2026-03-22T16:15:42Z</time></trkpt><trkpt lat="48.39882850559791" lon="-4.4243436183349205"><ele>10.0</ele><time>2026-03-22T16:15:45Z</time></trkpt><trkpt lat="48.39890808986013" lon="-4.4243833059670745"><ele>10.0</ele><time>2026-03-22T16:15:47Z</time></trkpt><trkpt lat="48.39899060474233" lon="-4.424423707232989"><ele>10.0</ele><time>2026-03-22T16:16:18.999Z</time></trkpt><trkpt lat="48.39905707429706" lon="-4.424457097496234"><ele>10.0</ele><time>2026-03-22T16:16:20.999Z</time></trkpt><trkpt lat="48.3991225012397" lon="-4.424504308887674"><ele>10.0</ele><time>2026-03-22T16:16:22.999Z</time></trkpt><trkpt lat="48.39919140913316" lon="-4.42458507307928"><ele>10.4</ele><time>2026-03-22T16:16:24.999Z</time></trkpt><trkpt lat="48.399250845515546" lon="-4.424745307180736"><ele>10.8</ele><time>2026-03-22T16:16:26.999Z</time></trkpt><trkpt lat="48.39927857530666" lon="-4.42493393765066"><ele>11.2</ele><time>2026-03-22T16:16:28.999Z</time></trkpt><trkpt lat="48.39927575778314" lon="-4.425035763480037"><ele>11.6</ele><time>2026-03-22T16:16:29.999Z</time></trkpt><trkpt lat="48.399264194089845" lon="-4.425137182761263"><ele>12.0</ele><time>2026-03-22T16:16:30.999Z</time></trkpt><trkpt lat="48.39923844207637" lon="-4.425235738442195"><ele>12.0</ele><time>2026-03-22T16:16:31.999Z</time></trkpt><trkpt lat="48.39922252380581" lon="-4.425330974461147"><ele>12.0</ele><time>2026-03-22T16:16:32.999Z</time></trkpt><trkpt lat="48.3992039987616" lon="-4.425426583870266"><ele>12.0</ele><time>2026-03-22T16:16:33.999Z</time></trkpt><trkpt lat="48.399169817372744" lon="-4.425506824843784"><ele>12.0</ele><time>2026-03-22T16:16:34.999Z</time></trkpt><trkpt lat="48.39913115079219" lon="-4.425674583326938"><ele>12.0</ele><time>2026-03-22T16:16:36.999Z</time></trkpt><trkpt lat="48.39915711104885" lon="-4.425783360551667"><ele>12.0</ele><time>2026-03-22T16:16:37.999Z</time></trkpt><trkpt lat="48.39912345538544" lon="-4.4259297378845295"><ele>13.0</ele><time>2026-03-22T16:16:39.999Z</time></trkpt><trkpt lat="48.39909177056582" lon="-4.426100445316363"><ele>14.0</ele><time>2026-03-22T16:16:41.999Z</time></trkpt><trkpt lat="48.39907033986105" lon="-4.42626870460607"><ele>15.0</ele><time>2026-03-22T16:16:43.999Z</time></trkpt><trkpt lat="48.39903824718689" lon="-4.42642424909164"><ele>16.0</ele><time>2026-03-22T16:16:46Z</time></trkpt><trkpt lat="48.39900569535189" lon="-4.426564740775819"><ele>17.0</ele><time>2026-03-22T16:16:48Z</time></trkpt><trkpt lat="48.39899413760666" lon="-4.426714850145059"><ele>18.166666666666668</ele><time>2026-03-22T16:16:50Z</time></trkpt><trkpt lat="48.39896395648534" lon="-4.426863056749174"><ele>19.333333333333336</ele><time>2026-03-22T16:16:52Z</time></trkpt><trkpt lat="48.398955545127315" lon="-4.426975780980936"><ele>20.5</ele><time>2026-03-22T16:16:55Z</time></trkpt><trkpt lat="48.39890785389537" lon="-4.427085548064309"><ele>21.666666666666668</ele><time>2026-03-22T16:16:58Z</time></trkpt><trkpt lat="48.39889048282048" lon="-4.4271972854986075"><ele>22.833333333333332</ele><time>2026-03-22T16:17:01Z</time></trkpt><trkpt lat="48.39886211622928" lon="-4.427285889393796"><ele>24.0</ele><time>2026-03-22T16:17:03Z</time></trkpt><trkpt lat="48.398857244604905" lon="-4.427385479627585"><ele>25.0</ele><time>2026-03-22T16:17:05Z</time></trkpt><trkpt lat="48.39884762090868" lon="-4.4275378157302985"><ele>26.0</ele><time>2026-03-22T16:17:06Z</time></trkpt><trkpt lat="48.398865253199205" lon="-4.427915272452352"><ele>27.0</ele><time>2026-03-22T16:17:07Z</time></trkpt><trkpt lat="48.39885052543237" lon="-4.428049382765908"><ele>28.0</ele><time>2026-03-22T16:17:09Z</time></trkpt><trkpt lat="48.39883047391417" lon="-4.428183217232916"><ele>26.799999999999997</ele><time>2026-03-22T16:17:11Z</time></trkpt><trkpt lat="48.39880843689464" lon="-4.428311797654339"><ele>25.599999999999998</ele><time>2026-03-22T16:17:13Z</time></trkpt><trkpt lat="48.39877351133406" lon="-4.428453972378293"><ele>24.4</ele><time>2026-03-22T16:17:15Z</time></trkpt><trkpt lat="48.398749674080676" lon="-4.428595394586968"><ele>23.200000000000003</ele><time>2026-03-22T16:17:17Z</time></trkpt><trkpt lat="48.39873141935879" lon="-4.428741355914952"><ele>22.0</ele><time>2026-03-22T16:17:19Z</time></trkpt><trkpt lat="48.398705427278585" lon="-4.428885591105582"><ele>22.0</ele><time>2026-03-22T16:17:21Z</time></trkpt><trkpt lat="48.39868688137236" lon="-4.429031070181778"><ele>22.0</ele><time>2026-03-22T16:17:23Z</time></trkpt><trkpt lat="48.39866674474539" lon="-4.429162954135203"><ele>22.0</ele><time>2026-03-22T16:17:25Z</time></trkpt><trkpt lat="48.398602766678614" lon="-4.429201602730044"><ele>22.0</ele><time>2026-03-22T16:17:26Z</time></trkpt><trkpt lat="48.3986243806673" lon="-4.429375529987602"><ele>22.0</ele><time>2026-03-22T16:17:28Z</time></trkpt><trkpt lat="48.39853970856977" lon="-4.429471625694546"><ele>22.200000000000003</ele><time>2026-03-22T16:17:30Z</time></trkpt><trkpt lat="48.39853043274737" lon="-4.429648700915639"><ele>22.4</ele><time>2026-03-22T16:17:32Z</time></trkpt><trkpt lat="48.3985044319745" lon="-4.4297898813359895"><ele>22.6</ele><time>2026-03-22T16:17:34Z</time></trkpt><trkpt lat="48.398482810442125" lon="-4.429906069124379"><ele>22.799999999999997</ele><time>2026-03-22T16:17:38Z</time></trkpt><trkpt lat="48.39845409197248" lon="-4.430052551651653"><ele>23.0</ele><time>2026-03-22T16:17:41Z</time></trkpt><trkpt lat="48.39843452954649" lon="-4.430152332385574"><ele>23.0</ele><time>2026-03-22T16:17:43Z</time></trkpt><trkpt lat="48.39841152995113" lon="-4.430269644810113"><ele>23.0</ele><time>2026-03-22T16:17:46Z</time></trkpt><trkpt lat="48.39839301367143" lon="-4.430364266104872"><ele>23.0</ele><time>2026-03-22T16:17:47Z</time></trkpt><trkpt lat="48.398368454825885" lon="-4.430485090507385"><ele>23.0</ele><time>2026-03-22T16:17:50Z</time></trkpt><trkpt lat="48.39834837664372" lon="-4.430583871105969"><ele>23.0</ele><time>2026-03-22T16:17:52Z</time></trkpt><trkpt lat="48.39832660066101" lon="-4.43069100438077"><ele>23.0</ele><time>2026-03-22T16:17:54Z</time></trkpt><trkpt lat="48.398291579752524" lon="-4.430861951089209"><ele>23.25</ele><time>2026-03-22T16:17:56.999Z</time></trkpt><trkpt lat="48.39826609391443" lon="-4.430981099266924"><ele>23.5</ele><time>2026-03-22T16:17:59.999Z</time></trkpt><trkpt lat="48.39821541376314" lon="-4.431124141614945"><ele>23.75</ele><time>2026-03-22T16:18:02.999Z</time></trkpt><trkpt lat="48.39814636400645" lon="-4.431166641369895"><ele>24.0</ele><time>2026-03-22T16:18:04.999Z</time></trkpt><trkpt lat="48.397989707600004" lon="-4.432254665564235"><ele>23.285714285714285</ele><time>2026-03-22T16:18:05.999Z</time></trkpt><trkpt lat="48.39796259259057" lon="-4.432345152258366"><ele>22.57142857142857</ele><time>2026-03-22T16:18:06.999Z</time></trkpt><trkpt lat="48.39793164189403" lon="-4.432437255474447"><ele>21.857142857142854</ele><time>2026-03-22T16:18:07.999Z</time></trkpt><trkpt lat="48.39790021816534" lon="-4.432521378144794"><ele>21.142857142857142</ele><time>2026-03-22T16:18:08.999Z</time></trkpt><trkpt lat="48.39786554558807" lon="-4.432602919597787"><ele>20.42857142857143</ele><time>2026-03-22T16:18:09.999Z</time></trkpt><trkpt lat="48.39783586523789" lon="-4.432693300028976"><ele>19.71428571428571</ele><time>2026-03-22T16:18:10.999Z</time></trkpt><trkpt lat="48.39780899358643" lon="-4.432785728606444"><ele>19.0</ele><time>2026-03-22T16:18:11.999Z</time></trkpt><trkpt lat="48.39777777456227" lon="-4.432873558238319"><ele>19.0</ele><time>2026-03-22T16:18:12.999Z</time></trkpt><trkpt lat="48.397743432980036" lon="-4.432960693740476"><ele>19.0</ele><time>2026-03-22T16:18:13.999Z</time></trkpt><trkpt lat="48.39770363286083" lon="-4.433045867427283"><ele>19.0</ele><time>2026-03-22T16:18:14.999Z</time></trkpt><trkpt lat="48.39766988320098" lon="-4.4331481326341695"><ele>19.0</ele><time>2026-03-22T16:18:15.999Z</time></trkpt><trkpt lat="48.39763662746433" lon="-4.43325376046868"><ele>19.0</ele><time>2026-03-22T16:18:16.999Z</time></trkpt><trkpt lat="48.39760580527903" lon="-4.433358560865128"><ele>19.0</ele><time>2026-03-22T16:18:17.999Z</time></trkpt><trkpt lat="48.397576864351024" lon="-4.43345792160366"><ele>19.0</ele><time>2026-03-22T16:18:18.999Z</time></trkpt><trkpt lat="48.397555812149825" lon="-4.433563965439701"><ele>19.0</ele><time>2026-03-22T16:18:19.999Z</time></trkpt><trkpt lat="48.39751187722524" lon="-4.433661829162797"><ele>19.0</ele><time>2026-03-22T16:18:20.999Z</time></trkpt><trkpt lat="48.397481685179045" lon="-4.4337777359702875"><ele>19.0</ele><time>2026-03-22T16:18:21.999Z</time></trkpt><trkpt lat="48.39743893980905" lon="-4.433882992732532"><ele>19.0</ele><time>2026-03-22T16:18:22.999Z</time></trkpt><trkpt lat="48.39741148811944" lon="-4.434000518917389"><ele>19.0</ele><time>2026-03-22T16:18:23.999Z</time></trkpt><trkpt lat="48.397378651409944" lon="-4.43411196518152"><ele>19.0</ele><time>2026-03-22T16:18:24.999Z</time></trkpt><trkpt lat="48.39735722464926" lon="-4.434229935797608"><ele>19.0</ele><time>2026-03-22T16:18:25.999Z</time></trkpt><trkpt lat="48.39731045553357" lon="-4.434322523934448"><ele>19.0</ele><time>2026-03-22T16:18:26.999Z</time></trkpt><trkpt lat="48.397278139838285" lon="-4.434452567157309"><ele>19.0</ele><time>2026-03-22T16:18:27.999Z</time></trkpt><trkpt lat="48.397234392833425" lon="-4.434540537382886"><ele>19.0</ele><time>2026-03-22T16:18:29.999Z</time></trkpt><trkpt lat="48.397208090701064" lon="-4.43463846703486"><ele>19.0</ele><time>2026-03-22T16:18:30.999Z</time></trkpt><trkpt lat="48.397207946047786" lon="-4.434743185673046"><ele>19.0</ele><time>2026-03-22T16:18:31.999Z</time></trkpt><trkpt lat="48.39718520264944" lon="-4.434889579208698"><ele>18.4</ele><time>2026-03-22T16:18:33.999Z</time></trkpt><trkpt lat="48.39716540676316" lon="-4.43502458624397"><ele>17.799999999999997</ele><time>2026-03-22T16:18:35.999Z</time></trkpt><trkpt lat="48.397178737220166" lon="-4.435125630723374"><ele>17.200000000000003</ele><time>2026-03-22T16:18:36.999Z</time></trkpt><trkpt lat="48.39726036822422" lon="-4.435239739125597"><ele>16.6</ele><time>2026-03-22T16:18:38.999Z</time></trkpt><trkpt lat="48.397318694685225" lon="-4.435339264524145"><ele>16.0</ele><time>2026-03-22T16:18:40.999Z</time></trkpt><trkpt lat="48.39734475793275" lon="-4.43551136910501"><ele>15.600000000000001</ele><time>2026-03-22T16:18:42.999Z</time></trkpt><trkpt lat="48.3973291150257" lon="-4.435682539650662"><ele>15.200000000000001</ele><time>2026-03-22T16:18:44.999Z</time></trkpt><trkpt lat="48.39729068733225" lon="-4.435763515280212"><ele>14.799999999999999</ele><time>2026-03-22T16:18:45.999Z</time></trkpt><trkpt lat="48.397242436595285" lon="-4.435825310797907"><ele>14.399999999999999</ele><time>2026-03-22T16:18:46.999Z</time></trkpt><trkpt lat="48.397181183771416" lon="-4.435991013580105"><ele>14.0</ele><time>2026-03-22T16:18:48.999Z</time></trkpt><trkpt lat="48.39716879416259" lon="-4.4361909179393955"><ele>15.2</ele><time>2026-03-22T16:18:50.999Z</time></trkpt><trkpt lat="48.397238240903604" lon="-4.436351830982817"><ele>16.4</ele><time>2026-03-22T16:18:53Z</time></trkpt><trkpt lat="48.39729004554582" lon="-4.4365123051596145"><ele>17.6</ele><time>2026-03-22T16:18:55Z</time></trkpt><trkpt lat="48.39733489585579" lon="-4.436645784331143"><ele>18.8</ele><time>2026-03-22T16:18:57Z</time></trkpt><trkpt lat="48.397376272669966" lon="-4.436761973635692"><ele>20.0</ele><time>2026-03-22T16:18:59Z</time></trkpt><trkpt lat="48.39741216947666" lon="-4.4368639272270745"><ele>20.0</ele><time>2026-03-22T16:19:01Z</time></trkpt><trkpt lat="48.3974532374735" lon="-4.436978407519472"><ele>20.0</ele><time>2026-03-22T16:19:03Z</time></trkpt><trkpt lat="48.397448123829165" lon="-4.437087067268744"><ele>20.0</ele><time>2026-03-22T16:19:07Z</time></trkpt><trkpt lat="48.39751758407397" lon="-4.4372019557462385"><ele>20.0</ele><time>2026-03-22T16:19:10Z</time></trkpt><trkpt lat="48.397550790999865" lon="-4.43729629084152"><ele>20.0</ele><time>2026-03-22T16:19:14Z</time></trkpt><trkpt lat="48.39760347659901" lon="-4.437449445702446"><ele>20.0</ele><time>2026-03-22T16:19:16Z</time></trkpt><trkpt lat="48.39763375840374" lon="-4.4376108035336115"><ele>21.6</ele><time>2026-03-22T16:19:18Z</time></trkpt><trkpt lat="48.39770438298314" lon="-4.4377831248229995"><ele>23.2</ele><time>2026-03-22T16:19:20Z</time></trkpt><trkpt lat="48.39775130092083" lon="-4.437898967754219"><ele>24.799999999999997</ele><time>2026-03-22T16:19:22Z</time></trkpt><trkpt lat="48.39779962842938" lon="-4.438019543342855"><ele>26.4</ele><time>2026-03-22T16:19:25Z</time></trkpt><trkpt lat="48.39785220317717" lon="-4.438141212804515"><ele>28.0</ele><time>2026-03-22T16:19:27Z</time></trkpt><trkpt lat="48.397875097209024" lon="-4.438244874462239"><ele>28.799999999999997</ele><time>2026-03-22T16:19:29Z</time></trkpt><trkpt lat="48.39791488517393" lon="-4.438347364209636"><ele>29.599999999999998</ele><time>2026-03-22T16:19:32Z</time></trkpt><trkpt lat="48.39794559892683" lon="-4.438490332948008"><ele>30.400000000000002</ele><time>2026-03-22T16:19:36Z</time></trkpt><trkpt lat="48.39800872081541" lon="-4.438615831040497"><ele>31.200000000000003</ele><time>2026-03-22T16:19:40Z</time></trkpt><trkpt lat="48.39803952636395" lon="-4.43875189634182"><ele>32.0</ele><time>2026-03-22T16:19:42Z</time></trkpt><trkpt lat="48.3981080936058" lon="-4.438906704251446"><ele>31.999999999999996</ele><time>2026-03-22T16:19:47Z</time></trkpt><trkpt lat="48.39816984754025" lon="-4.438981458811945"><ele>32.0</ele><time>2026-03-22T16:19:49Z</time></trkpt><trkpt lat="48.398229169370474" lon="-4.4390986704739674"><ele>32.0</ele><time>2026-03-22T16:19:52Z</time></trkpt><trkpt lat="48.39822211607385" lon="-4.439212037523169"><ele>32.0</ele><time>2026-03-22T16:19:54Z</time></trkpt><trkpt lat="48.39824970742834" lon="-4.439299782927641"><ele>31.999999999999996</ele><time>2026-03-22T16:19:57Z</time></trkpt><trkpt lat="48.398284534432946" lon="-4.43941020477059"><ele>32.0</ele><time>2026-03-22T16:20:00Z</time></trkpt><trkpt lat="48.39834146295229" lon="-4.43953762735904"><ele>33.5</ele><time>2026-03-22T16:20:02.999Z</time></trkpt><trkpt lat="48.398338800541254" lon="-4.4396569046758865"><ele>35.0</ele><time>2026-03-22T16:20:04.999Z</time></trkpt><trkpt lat="48.39832842039591" lon="-4.439764928116087"><ele>36.5</ele><time>2026-03-22T16:20:06.999Z</time></trkpt><trkpt lat="48.39836434261686" lon="-4.439895708108405"><ele>38.0</ele><time>2026-03-22T16:20:08.999Z</time></trkpt><trkpt lat="48.39837988190016" lon="-4.440008375413829"><ele>39.5</ele><time>2026-03-22T16:20:10.999Z</time></trkpt><trkpt lat="48.398421683617805" lon="-4.440096266585417"><ele>41.0</ele><time>2026-03-22T16:20:13.999Z</time></trkpt><trkpt lat="48.398457875767036" lon="-4.440200055343548"><ele>41.0</ele><time>2026-03-22T16:20:15.999Z</time></trkpt><trkpt lat="48.3984811935243" lon="-4.440296885453527"><ele>41.0</ele><time>2026-03-22T16:20:17.999Z</time></trkpt><trkpt lat="48.398519630877956" lon="-4.4403781061420435"><ele>41.0</ele><time>2026-03-22T16:20:19.999Z</time></trkpt><trkpt lat="48.39855602576393" lon="-4.440484795849191"><ele>41.0</ele><time>2026-03-22T16:20:21.999Z</time></trkpt><trkpt lat="48.398587938959594" lon="-4.4405841191381334"><ele>41.0</ele><time>2026-03-22T16:20:23.999Z</time></trkpt><trkpt lat="48.3986200688311" lon="-4.4407048907336515"><ele>41.0</ele><time>2026-03-22T16:20:25.999Z</time></trkpt><trkpt lat="48.3986494696647" lon="-4.4408312573156365"><ele>41.0</ele><time>2026-03-22T16:20:27.999Z</time></trkpt><trkpt lat="48.398692531548896" lon="-4.440946007603181"><ele>41.0</ele><time>2026-03-22T16:20:29.999Z</time></trkpt><trkpt lat="48.398727728880345" lon="-4.441034932992001"><ele>41.0</ele><time>2026-03-22T16:20:31.999Z</time></trkpt><trkpt lat="48.39875206570586" lon="-4.441124050678189"><ele>41.0</ele><time>2026-03-22T16:20:33.999Z</time></trkpt><trkpt lat="48.39880472394398" lon="-4.441224440630688"><ele>41.0</ele><time>2026-03-22T16:20:35.999Z</time></trkpt><trkpt lat="48.39884531586417" lon="-4.441349475362418"><ele>41.0</ele><time>2026-03-22T16:20:38.999Z</time></trkpt><trkpt lat="48.398883738249936" lon="-4.4415011913299205"><ele>41.0</ele><time>2026-03-22T16:20:42.999Z</time></trkpt><trkpt lat="48.398912659785736" lon="-4.441585430232454"><ele>41.0</ele><time>2026-03-22T16:20:44.999Z</time></trkpt><trkpt lat="48.39894140346015" lon="-4.441717762996066"><ele>41.0</ele><time>2026-03-22T16:20:47.999Z</time></trkpt><trkpt lat="48.39899294979625" lon="-4.441839066329277"><ele>41.0</ele><time>2026-03-22T16:20:50.999Z</time></trkpt><trkpt lat="48.39902753971005" lon="-4.442007933050326"><ele>41.0</ele><time>2026-03-22T16:20:54.999Z</time></trkpt><trkpt lat="48.39906742461039" lon="-4.442143020564593"><ele>42.5</ele><time>2026-03-22T16:20:56.999Z</time></trkpt><trkpt lat="48.399119617722356" lon="-4.442275015250743"><ele>44.0</ele><time>2026-03-22T16:21:00Z</time></trkpt><trkpt lat="48.39916922665175" lon="-4.442400706155206"><ele>45.5</ele><time>2026-03-22T16:21:03Z</time></trkpt><trkpt lat="48.399203526752615" lon="-4.442526190046081"><ele>47.0</ele><time>2026-03-22T16:21:06Z</time></trkpt><trkpt lat="48.39923000633267" lon="-4.442632851310892"><ele>48.50000000000001</ele><time>2026-03-22T16:21:09Z</time></trkpt><trkpt lat="48.39924018201398" lon="-4.4427378066098395"><ele>50.0</ele><time>2026-03-22T16:21:12Z</time></trkpt><trkpt lat="48.399273931635" lon="-4.442828282653838"><ele>50.00000000000001</ele><time>2026-03-22T16:21:15Z</time></trkpt><trkpt lat="48.399307780158246" lon="-4.4429464828997824"><ele>50.0</ele><time>2026-03-22T16:21:18Z</time></trkpt><trkpt lat="48.399341457703834" lon="-4.443069367869142"><ele>50.0</ele><time>2026-03-22T16:21:21Z</time></trkpt><trkpt lat="48.39937133348557" lon="-4.4431802227730515"><ele>50.0</ele><time>2026-03-22T16:21:24Z</time></trkpt><trkpt lat="48.399418949540625" lon="-4.443269551928637"><ele>50.00000000000001</ele><time>2026-03-22T16:21:27Z</time></trkpt><trkpt lat="48.39946177382867" lon="-4.443352965423821"><ele>50.0</ele><time>2026-03-22T16:21:31Z</time></trkpt><trkpt lat="48.399436728849956" lon="-4.443449540923795"><ele>50.57142857142858</ele><time>2026-03-22T16:21:35Z</time></trkpt><trkpt lat="48.39936451049951" lon="-4.443471437485033"><ele>51.142857142857146</ele><time>2026-03-22T16:21:38Z</time></trkpt><trkpt lat="48.39929034735922" lon="-4.443513565523457"><ele>51.714285714285715</ele><time>2026-03-22T16:21:42Z</time></trkpt><trkpt lat="48.39921908682338" lon="-4.443519640253218"><ele>52.28571428571429</ele><time>2026-03-22T16:21:45Z</time></trkpt><trkpt lat="48.39914924565823" lon="-4.443536855692852"><ele>52.857142857142854</ele><time>2026-03-22T16:21:49Z</time></trkpt><trkpt lat="48.39908881654673" lon="-4.443570893549313"><ele>53.42857142857143</ele><time>2026-03-22T16:21:52Z</time></trkpt><trkpt lat="48.39902863881823" lon="-4.443626398634224"><ele>54.0</ele><time>2026-03-22T16:21:55Z</time></trkpt><trkpt lat="48.398950656018094" lon="-4.443625990795391"><ele>54.0</ele><time>2026-03-22T16:22:00Z</time></trkpt><trkpt lat="48.398880873880664" lon="-4.4436642131883595"><ele>54.0</ele><time>2026-03-22T16:22:05Z</time></trkpt><trkpt lat="48.39882037975131" lon="-4.443618549380958"><ele>54.0</ele><time>2026-03-22T16:23:49Z</time></trkpt><trkpt lat="48.398739108628966" lon="-4.443608364500045"><ele>54.0</ele><time>2026-03-22T16:23:52Z</time></trkpt><trkpt lat="48.39865740242902" lon="-4.443640481056489"><ele>54.0</ele><time>2026-03-22T16:23:55Z</time></trkpt><trkpt lat="48.398577477596305" lon="-4.4436423221404855"><ele>54.0</ele><time>2026-03-22T16:23:58Z</time></trkpt><trkpt lat="48.39849744553477" lon="-4.443628313555977"><ele>54.833333333333336</ele><time>2026-03-22T16:24:01Z</time></trkpt><trkpt lat="48.39841030082237" lon="-4.443675783399104"><ele>55.66666666666667</ele><time>2026-03-22T16:24:03Z</time></trkpt><trkpt lat="48.39832627628603" lon="-4.443668159941215"><ele>56.5</ele><time>2026-03-22T16:24:05Z</time></trkpt><trkpt lat="48.398230919216545" lon="-4.443704826552336"><ele>57.333333333333336</ele><time>2026-03-22T16:24:11Z</time></trkpt><trkpt lat="48.39816774261355" lon="-4.443726054380047"><ele>58.16666666666667</ele><time>2026-03-22T16:24:13.999Z</time></trkpt><trkpt lat="48.398085834814914" lon="-4.443720792317452"><ele>59.0</ele><time>2026-03-22T16:24:16.999Z</time></trkpt><trkpt lat="48.398008810003844" lon="-4.443788518017158"><ele>58.66666666666667</ele><time>2026-03-22T16:24:19.999Z</time></trkpt><trkpt lat="48.39794440174203" lon="-4.443783095836848"><ele>58.333333333333336</ele><time>2026-03-22T16:24:20.999Z</time></trkpt><trkpt lat="48.397871752624106" lon="-4.443789877479075"><ele>58.0</ele><time>2026-03-22T16:24:23.999Z</time></trkpt><trkpt lat="48.397785516342104" lon="-4.443815125077506"><ele>57.66666666666667</ele><time>2026-03-22T16:24:25.999Z</time></trkpt><trkpt lat="48.39771128819722" lon="-4.443791026760334"><ele>57.333333333333336</ele><time>2026-03-22T16:24:27.999Z</time></trkpt><trkpt lat="48.397597368808356" lon="-4.443816857660313"><ele>57.0</ele><time>2026-03-22T16:24:29.999Z</time></trkpt><trkpt lat="48.39752910845342" lon="-4.443825589676325"><ele>57.57142857142857</ele><time>2026-03-22T16:24:32.999Z</time></trkpt><trkpt lat="48.397460354543824" lon="-4.443840170446431"><ele>58.14285714285714</ele><time>2026-03-22T16:24:39.999Z</time></trkpt><trkpt lat="48.3973781812149" lon="-4.443873019646652"><ele>58.71428571428571</ele><time>2026-03-22T16:25:00.999Z</time></trkpt><trkpt lat="48.39738352513174" lon="-4.4439966898264815"><ele>59.28571428571428</ele><time>2026-03-22T16:25:04.999Z</time></trkpt><trkpt lat="48.39739555063264" lon="-4.444090138313938"><ele>59.857142857142854</ele><time>2026-03-22T16:25:07.999Z</time></trkpt><trkpt lat="48.39740735592875" lon="-4.444184406934522"><ele>60.428571428571416</ele><time>2026-03-22T16:25:10Z</time></trkpt><trkpt lat="48.39744708615768" lon="-4.444270379384393"><ele>60.99999999999999</ele><time>2026-03-22T16:25:12Z</time></trkpt><trkpt lat="48.39746873678455" lon="-4.444366592785233"><ele>60.99999999999999</ele><time>2026-03-22T16:25:14Z</time></trkpt><trkpt lat="48.3974865582056" lon="-4.4444682574612955"><ele>61.0</ele><time>2026-03-22T16:25:16Z</time></trkpt><trkpt lat="48.39751074467467" lon="-4.444560663799245"><ele>61.0</ele><time>2026-03-22T16:25:18Z</time></trkpt><trkpt lat="48.397530782981384" lon="-4.4446552018658325"><ele>61.0</ele><time>2026-03-22T16:25:20Z</time></trkpt><trkpt lat="48.39756172807205" lon="-4.444768938096964"><ele>60.99999999999999</ele><time>2026-03-22T16:25:23Z</time></trkpt><trkpt lat="48.397580036039166" lon="-4.4448867387258995"><ele>61.0</ele><time>2026-03-22T16:25:27Z</time></trkpt><trkpt lat="48.39759166997499" lon="-4.445041252548885"><ele>61.14285714285714</ele><time>2026-03-22T16:25:31Z</time></trkpt><trkpt lat="48.397604581646796" lon="-4.445162639790323"><ele>61.285714285714285</ele><time>2026-03-22T16:25:34Z</time></trkpt><trkpt lat="48.397623641606835" lon="-4.44529086955695"><ele>61.42857142857143</ele><time>2026-03-22T16:25:37Z</time></trkpt><trkpt lat="48.39764018415057" lon="-4.445385233019531"><ele>61.57142857142857</ele><time>2026-03-22T16:25:39Z</time></trkpt><trkpt lat="48.397681617688306" lon="-4.445468930790202"><ele>61.71428571428572</ele><time>2026-03-22T16:25:41Z</time></trkpt><trkpt lat="48.3976962276842" lon="-4.4455822838162815"><ele>61.85714285714286</ele><time>2026-03-22T16:25:44Z</time></trkpt><trkpt lat="48.3977362372248" lon="-4.4456607572577465"><ele>62.0</ele><time>2026-03-22T16:25:46Z</time></trkpt><trkpt lat="48.39776182839121" lon="-4.445756071240712"><ele>62.333333333333336</ele><time>2026-03-22T16:25:48Z</time></trkpt><trkpt lat="48.39778370801344" lon="-4.445848994576382"><ele>62.66666666666667</ele><time>2026-03-22T16:25:49Z</time></trkpt><trkpt lat="48.39782477516795" lon="-4.4459855191302005"><ele>63.0</ele><time>2026-03-22T16:25:51Z</time></trkpt><trkpt lat="48.39785764385872" lon="-4.446101149420417"><ele>63.33333333333333</ele><time>2026-03-22T16:25:53Z</time></trkpt><trkpt lat="48.397908345458454" lon="-4.4462265747878815"><ele>63.666666666666664</ele><time>2026-03-22T16:25:55Z</time></trkpt><trkpt lat="48.39796416669241" lon="-4.446316944453088"><ele>64.0</ele><time>2026-03-22T16:25:59Z</time></trkpt><trkpt lat="48.39799427852118" lon="-4.4464110026917165"><ele>64.71428571428571</ele><time>2026-03-22T16:26:01Z</time></trkpt><trkpt lat="48.39803055272007" lon="-4.446523041196321"><ele>65.42857142857142</ele><time>2026-03-22T16:26:04Z</time></trkpt><trkpt lat="48.398084209088104" lon="-4.44658892575823"><ele>66.14285714285714</ele><time>2026-03-22T16:26:06Z</time></trkpt><trkpt lat="48.39811320274659" lon="-4.446690119971759"><ele>66.85714285714286</ele><time>2026-03-22T16:26:08Z</time></trkpt><trkpt lat="48.39815469318397" lon="-4.4467783608913125"><ele>67.57142857142858</ele><time>2026-03-22T16:26:11Z</time></trkpt><trkpt lat="48.39820366831257" lon="-4.446877918154467"><ele>68.28571428571429</ele><time>2026-03-22T16:26:12Z</time></trkpt><trkpt lat="48.39821108509318" lon="-4.446974793752619"><ele>69.0</ele><time>2026-03-22T16:26:15Z</time></trkpt><trkpt lat="48.39822828125879" lon="-4.447067490925666"><ele>69.0</ele><time>2026-03-22T16:26:17Z</time></trkpt><trkpt lat="48.39827706862765" lon="-4.447190625740633"><ele>69.0</ele><time>2026-03-22T16:26:19.999Z</time></trkpt><trkpt lat="48.3983082133167" lon="-4.44729314106337"><ele>69.0</ele><time>2026-03-22T16:26:21.999Z</time></trkpt><trkpt lat="48.398331118107265" lon="-4.447405992193439"><ele>69.0</ele><time>2026-03-22T16:26:24.999Z</time></trkpt><trkpt lat="48.39836684431315" lon="-4.44750062415047"><ele>69.0</ele><time>2026-03-22T16:26:26.999Z</time></trkpt><trkpt lat="48.39843591805842" lon="-4.447614356698306"><ele>69.0</ele><time>2026-03-22T16:26:28.999Z</time></trkpt><trkpt lat="48.39847134703078" lon="-4.4477620082776825"><ele>69.0</ele><time>2026-03-22T16:26:31.999Z</time></trkpt><trkpt lat="48.398483408442274" lon="-4.44787496224497"><ele>69.0</ele><time>2026-03-22T16:26:34.999Z</time></trkpt><trkpt lat="48.398523051961334" lon="-4.448008776399167"><ele>69.0</ele><time>2026-03-22T16:26:37.999Z</time></trkpt><trkpt lat="48.3985690696677" lon="-4.448106811482968"><ele>69.0</ele><time>2026-03-22T16:26:39.999Z</time></trkpt><trkpt lat="48.398606047073706" lon="-4.448225673277598"><ele>69.0</ele><time>2026-03-22T16:26:42.999Z</time></trkpt><trkpt lat="48.39863418707022" lon="-4.4483219661126014"><ele>69.0</ele><time>2026-03-22T16:26:44.999Z</time></trkpt><trkpt lat="48.39863955812396" lon="-4.448455119322287"><ele>69.28571428571429</ele><time>2026-03-22T16:26:46.999Z</time></trkpt><trkpt lat="48.39862985782302" lon="-4.448571902338097"><ele>69.57142857142858</ele><time>2026-03-22T16:26:48.999Z</time></trkpt><trkpt lat="48.398678343900805" lon="-4.448664701646964"><ele>69.85714285714286</ele><time>2026-03-22T16:26:50.999Z</time></trkpt><trkpt lat="48.39869241696239" lon="-4.44875829724895"><ele>70.14285714285714</ele><time>2026-03-22T16:26:52.999Z</time></trkpt><trkpt lat="48.39873922304369" lon="-4.448853627377556"><ele>70.42857142857142</ele><time>2026-03-22T16:26:53.999Z</time></trkpt><trkpt lat="48.39878633194068" lon="-4.448936651790254"><ele>70.71428571428571</ele><time>2026-03-22T16:26:56.999Z</time></trkpt><trkpt lat="48.39883003742513" lon="-4.449028192108951"><ele>71.0</ele><time>2026-03-22T16:26:58.999Z</time></trkpt><trkpt lat="48.39881341186039" lon="-4.449150528042332"><ele>71.0</ele><time>2026-03-22T16:26:59.999Z</time></trkpt><trkpt lat="48.39882091241688" lon="-4.449258479811697"><ele>71.0</ele><time>2026-03-22T16:27:03.999Z</time></trkpt><trkpt lat="48.39884407299581" lon="-4.449418329040344"><ele>71.0</ele><time>2026-03-22T16:27:05.999Z</time></trkpt><trkpt lat="48.39887000956064" lon="-4.449591454955477"><ele>71.0</ele><time>2026-03-22T16:27:07.999Z</time></trkpt><trkpt lat="48.398879470359894" lon="-4.449690595001585"><ele>71.0</ele><time>2026-03-22T16:27:08.999Z</time></trkpt><trkpt lat="48.398901606119324" lon="-4.449860858607231"><ele>71.33333333333334</ele><time>2026-03-22T16:27:10.999Z</time></trkpt><trkpt lat="48.39890742013506" lon="-4.449969000161391"><ele>71.66666666666667</ele><time>2026-03-22T16:27:11.999Z</time></trkpt><trkpt lat="48.39898646507219" lon="-4.45007067097763"><ele>72.0</ele><time>2026-03-22T16:27:12.999Z</time></trkpt><trkpt lat="48.39899084631674" lon="-4.450201102345016"><ele>72.33333333333333</ele><time>2026-03-22T16:27:13.999Z</time></trkpt><trkpt lat="48.3989952436015" lon="-4.450332011136455"><ele>72.66666666666666</ele><time>2026-03-22T16:27:14.999Z</time></trkpt><trkpt lat="48.398999700192796" lon="-4.4504646857432775"><ele>73.0</ele><time>2026-03-22T16:27:16Z</time></trkpt><trkpt lat="48.39901440188619" lon="-4.450597902290567"><ele>73.16666666666666</ele><time>2026-03-22T16:27:17Z</time></trkpt><trkpt lat="48.39900034019831" lon="-4.450718791935403"><ele>73.33333333333333</ele><time>2026-03-22T16:27:18Z</time></trkpt><trkpt lat="48.39898029756423" lon="-4.45084106563374"><ele>73.5</ele><time>2026-03-22T16:27:19Z</time></trkpt><trkpt lat="48.398954917154775" lon="-4.450942465828808"><ele>73.66666666666667</ele><time>2026-03-22T16:27:20Z</time></trkpt><trkpt lat="48.39893041651203" lon="-4.451036955447111"><ele>73.83333333333334</ele><time>2026-03-22T16:27:21Z</time></trkpt><trkpt lat="48.39887988872611" lon="-4.45121032344738"><ele>74.0</ele><time>2026-03-22T16:27:22Z</time></trkpt><trkpt lat="48.39885173874525" lon="-4.451344187215086"><ele>73.2</ele><time>2026-03-22T16:27:23Z</time></trkpt><trkpt lat="48.39882920892898" lon="-4.451451735022785"><ele>72.4</ele><time>2026-03-22T16:27:24Z</time></trkpt><trkpt lat="48.39880681651826" lon="-4.451546212203377"><ele>71.6</ele><time>2026-03-22T16:27:25Z</time></trkpt><trkpt lat="48.398766356098456" lon="-4.4517562561709"><ele>70.8</ele><time>2026-03-22T16:27:27Z</time></trkpt><trkpt lat="48.39874634965813" lon="-4.451957749044491"><ele>70.0</ele><time>2026-03-22T16:27:29Z</time></trkpt><trkpt lat="48.398691325463176" lon="-4.452160753499251"><ele>70.0</ele><time>2026-03-22T16:27:31Z</time></trkpt><trkpt lat="48.39866829070986" lon="-4.452254475473666"><ele>70.0</ele><time>2026-03-22T16:27:32Z</time></trkpt><trkpt lat="48.398653877237315" lon="-4.452347484870442"><ele>70.0</ele><time>2026-03-22T16:27:33Z</time></trkpt><trkpt lat="48.39861839501354" lon="-4.452520307585182"><ele>70.0</ele><time>2026-03-22T16:27:35Z</time></trkpt><trkpt lat="48.398604682821386" lon="-4.452658926522492"><ele>70.0</ele><time>2026-03-22T16:27:37Z</time></trkpt><trkpt lat="48.39857435616898" lon="-4.452810787105506"><ele>70.0</ele><time>2026-03-22T16:27:39Z</time></trkpt><trkpt lat="48.39855245390405" lon="-4.452971803294608"><ele>70.5</ele><time>2026-03-22T16:27:41Z</time></trkpt><trkpt lat="48.39852782815472" lon="-4.453135817390076"><ele>71.0</ele><time>2026-03-22T16:27:43Z</time></trkpt><trkpt lat="48.398537174204925" lon="-4.453295516401393"><ele>71.5</ele><time>2026-03-22T16:27:45Z</time></trkpt><trkpt lat="48.39851583645814" lon="-4.453459116587948"><ele>72.0</ele><time>2026-03-22T16:27:47Z</time></trkpt><trkpt lat="48.39851459963418" lon="-4.453759967744074"><ele>72.0</ele><time>2026-03-22T16:27:51Z</time></trkpt><trkpt lat="48.39852133309349" lon="-4.4538731698259"><ele>72.0</ele><time>2026-03-22T16:27:52Z</time></trkpt><trkpt lat="48.398527139296355" lon="-4.453971384708013"><ele>72.0</ele><time>2026-03-22T16:27:53Z</time></trkpt><trkpt lat="48.39853791167203" lon="-4.454065288751769"><ele>72.0</ele><time>2026-03-22T16:27:55Z</time></trkpt><trkpt lat="48.39868054645388" lon="-4.45402750679858"><ele>72.0</ele><time>2026-03-22T16:27:59Z</time></trkpt><trkpt lat="48.398763304463344" lon="-4.454009362509254"><ele>72.0</ele><time>2026-03-22T16:28:01Z</time></trkpt><trkpt lat="48.39884797926875" lon="-4.453978237164105"><ele>73.0</ele><time>2026-03-22T16:28:03Z</time></trkpt><trkpt lat="48.39893178234632" lon="-4.45398013663285"><ele>74.0</ele><time>2026-03-22T16:28:05Z</time></trkpt><trkpt lat="48.399005980485995" lon="-4.453964935677254"><ele>75.0</ele><time>2026-03-22T16:28:07Z</time></trkpt><trkpt lat="48.39925188244" lon="-4.453992521504924"><ele>76.0</ele><time>2026-03-22T16:28:15Z</time></trkpt><trkpt lat="48.39936799524463" lon="-4.453968066146251"><ele>76.0</ele><time>2026-03-22T16:28:18Z</time></trkpt><trkpt lat="48.39946507904141" lon="-4.453947091052083"><ele>76.0</ele><time>2026-03-22T16:28:21Z</time></trkpt><trkpt lat="48.39954100670818" lon="-4.453878705923349"><ele>76.0</ele><time>2026-03-22T16:28:24Z</time></trkpt><trkpt lat="48.39959315968544" lon="-4.453817272077098"><ele>76.0</ele><time>2026-03-22T16:28:26Z</time></trkpt><trkpt lat="48.39964298804617" lon="-4.453755936721853"><ele>76.0</ele><time>2026-03-22T16:28:27.999Z</time></trkpt><trkpt lat="48.399698076747384" lon="-4.4537026230641725"><ele>76.0</ele><time>2026-03-22T16:28:30.999Z</time></trkpt><trkpt lat="48.39976131834285" lon="-4.453628346471986"><ele>84.0</ele><time>2026-03-22T16:28:34.999Z</time></trkpt><trkpt lat="48.39980646102026" lon="-4.453533282490957"><ele>84.0</ele><time>2026-03-22T16:28:37.999Z</time></trkpt><trkpt lat="48.39998879751509" lon="-4.4535001791177615"><ele>84.0</ele><time>2026-03-22T16:28:46.999Z</time></trkpt><trkpt lat="48.400031205258784" lon="-4.453573530151484"><ele>84.0</ele><time>2026-03-22T16:28:51.999Z</time></trkpt><trkpt lat="48.400104105169724" lon="-4.453604739712598"><ele>84.0</ele><time>2026-03-22T16:28:58.999Z</time></trkpt></trkseg></trk></gpx>